<?xml version="1.0" encoding="UTF-8" standalone="no" ?>
<gpx xmlns="http://www.topografix.com/GPX/1/1" xmlns:xsi="http://www.w3.org/2001/XMLSchema-instance" xsi:schemaLocation="http://www.topografix.com/GPX/1/1 http://www.topografix.com/GPX/1/1/gpx.xsd" version="1.1" creator="VisuGPX - https://www.visugpx.com">
  <metadata>
    <name>Autrans</name>
    <desc><![CDATA[Autrans bois barbu]]></desc>
  </metadata>
  <trk>
    <name><![CDATA[Autrans ]]></name>
    <trkseg>
      <trkpt lat="45.11753" lon="4.99892">
        <ele>222.67199707031</ele>
        <time>2010-06-13T06:56:52Z</time>
      </trkpt>
      <trkpt lat="45.11743" lon="4.99896">
        <ele>224.52099609375</ele>
        <time>2010-06-13T06:56:55Z</time>
      </trkpt>
      <trkpt lat="45.1172" lon="4.99904">
        <ele>226.21099853516</ele>
        <time>2010-06-13T06:57:02Z</time>
      </trkpt>
      <trkpt lat="45.11695" lon="4.99915">
        <ele>227.83200073242</ele>
        <time>2010-06-13T06:57:10Z</time>
      </trkpt>
      <trkpt lat="45.11665" lon="4.99934">
        <ele>230.17199707031</ele>
        <time>2010-06-13T06:57:20Z</time>
      </trkpt>
      <trkpt lat="45.11636" lon="4.99964">
        <ele>232.53799438477</ele>
        <time>2010-06-13T06:57:31Z</time>
      </trkpt>
      <trkpt lat="45.1161" lon="5">
        <ele>234.03799438477</ele>
        <time>2010-06-13T06:57:41Z</time>
      </trkpt>
      <trkpt lat="45.11576" lon="5.00048">
        <ele>235.3869934082</ele>
        <time>2010-06-13T06:57:52Z</time>
      </trkpt>
      <trkpt lat="45.11538" lon="5.00091">
        <ele>235.80200195312</ele>
        <time>2010-06-13T06:58:03Z</time>
      </trkpt>
      <trkpt lat="45.11504" lon="5.00124">
        <ele>235.6309967041</ele>
        <time>2010-06-13T06:58:11Z</time>
      </trkpt>
      <trkpt lat="45.11471" lon="5.00156">
        <ele>235.63800048828</ele>
        <time>2010-06-13T06:58:18Z</time>
      </trkpt>
      <trkpt lat="45.11424" lon="5.002">
        <ele>235.69200134277</ele>
        <time>2010-06-13T06:58:27Z</time>
      </trkpt>
      <trkpt lat="45.11363" lon="5.00256">
        <ele>236.11199951172</ele>
        <time>2010-06-13T06:58:38Z</time>
      </trkpt>
      <trkpt lat="45.11301" lon="5.00307">
        <ele>236.97999572754</ele>
        <time>2010-06-13T06:58:49Z</time>
      </trkpt>
      <trkpt lat="45.11258" lon="5.00333">
        <ele>238.49499511719</ele>
        <time>2010-06-13T06:58:57Z</time>
      </trkpt>
      <trkpt lat="45.11216" lon="5.00354">
        <ele>240.35000610352</ele>
        <time>2010-06-13T06:59:06Z</time>
      </trkpt>
      <trkpt lat="45.11158" lon="5.00384">
        <ele>243.11799621582</ele>
        <time>2010-06-13T06:59:19Z</time>
      </trkpt>
      <trkpt lat="45.11111" lon="5.00409">
        <ele>245.8630065918</ele>
        <time>2010-06-13T06:59:30Z</time>
      </trkpt>
      <trkpt lat="45.11072" lon="5.00433">
        <ele>248.18299865723</ele>
        <time>2010-06-13T06:59:40Z</time>
      </trkpt>
      <trkpt lat="45.11028" lon="5.0046">
        <ele>250.53300476074</ele>
        <time>2010-06-13T06:59:51Z</time>
      </trkpt>
      <trkpt lat="45.10987" lon="5.00492">
        <ele>252.9109954834</ele>
        <time>2010-06-13T07:00:02Z</time>
      </trkpt>
      <trkpt lat="45.10952" lon="5.00519">
        <ele>254.42700195312</ele>
        <time>2010-06-13T07:00:11Z</time>
      </trkpt>
      <trkpt lat="45.10915" lon="5.00541">
        <ele>254.57000732422</ele>
        <time>2010-06-13T07:00:19Z</time>
      </trkpt>
      <trkpt lat="45.10875" lon="5.00558">
        <ele>253.17100524902</ele>
        <time>2010-06-13T07:00:26Z</time>
      </trkpt>
      <trkpt lat="45.10832" lon="5.00567">
        <ele>250.90800476074</ele>
        <time>2010-06-13T07:00:32Z</time>
      </trkpt>
      <trkpt lat="45.10789" lon="5.00573">
        <ele>248.03799438477</ele>
        <time>2010-06-13T07:00:37Z</time>
      </trkpt>
      <trkpt lat="45.10738" lon="5.00581">
        <ele>244.38600158691</ele>
        <time>2010-06-13T07:00:42Z</time>
      </trkpt>
      <trkpt lat="45.1067" lon="5.006">
        <ele>239.72599792481</ele>
        <time>2010-06-13T07:00:48Z</time>
      </trkpt>
      <trkpt lat="45.10623" lon="5.00626">
        <ele>237.79699707031</ele>
        <time>2010-06-13T07:00:52Z</time>
      </trkpt>
      <trkpt lat="45.10544" lon="5.00687">
        <ele>230.69500732422</ele>
        <time>2010-06-13T07:00:59Z</time>
      </trkpt>
      <trkpt lat="45.10522" lon="5.00705">
        <ele>229.84899902344</ele>
        <time>2010-06-13T07:01:01Z</time>
      </trkpt>
      <trkpt lat="45.10438" lon="5.00773">
        <ele>228.43099975586</ele>
        <time>2010-06-13T07:01:09Z</time>
      </trkpt>
      <trkpt lat="45.10381" lon="5.00817">
        <ele>227.79899597168</ele>
        <time>2010-06-13T07:01:15Z</time>
      </trkpt>
      <trkpt lat="45.10326" lon="5.00863">
        <ele>229.63400268555</ele>
        <time>2010-06-13T07:01:22Z</time>
      </trkpt>
      <trkpt lat="45.10271" lon="5.00909">
        <ele>231.26100158691</ele>
        <time>2010-06-13T07:01:30Z</time>
      </trkpt>
      <trkpt lat="45.10224" lon="5.00952">
        <ele>232.57899475098</ele>
        <time>2010-06-13T07:01:38Z</time>
      </trkpt>
      <trkpt lat="45.1019" lon="5.00998">
        <ele>233.03300476074</ele>
        <time>2010-06-13T07:01:45Z</time>
      </trkpt>
      <trkpt lat="45.10157" lon="5.01052">
        <ele>233.89599609375</ele>
        <time>2010-06-13T07:01:53Z</time>
      </trkpt>
      <trkpt lat="45.10125" lon="5.01105">
        <ele>235.08700561523</ele>
        <time>2010-06-13T07:02:01Z</time>
      </trkpt>
      <trkpt lat="45.10103" lon="5.01157">
        <ele>235.17100524902</ele>
        <time>2010-06-13T07:02:08Z</time>
      </trkpt>
      <trkpt lat="45.10087" lon="5.01218">
        <ele>235.32600402832</ele>
        <time>2010-06-13T07:02:15Z</time>
      </trkpt>
      <trkpt lat="45.10078" lon="5.013">
        <ele>234.69200134277</ele>
        <time>2010-06-13T07:02:24Z</time>
      </trkpt>
      <trkpt lat="45.1007" lon="5.01398">
        <ele>234.82400512695</ele>
        <time>2010-06-13T07:02:34Z</time>
      </trkpt>
      <trkpt lat="45.10062" lon="5.015">
        <ele>233.88600158691</ele>
        <time>2010-06-13T07:02:44Z</time>
      </trkpt>
      <trkpt lat="45.10053" lon="5.01604">
        <ele>233.66499328613</ele>
        <time>2010-06-13T07:02:54Z</time>
      </trkpt>
      <trkpt lat="45.1004" lon="5.01675">
        <ele>232.43200683594</ele>
        <time>2010-06-13T07:03:01Z</time>
      </trkpt>
      <trkpt lat="45.10014" lon="5.01755">
        <ele>233.86399841309</ele>
        <time>2010-06-13T07:03:10Z</time>
      </trkpt>
      <trkpt lat="45.09993" lon="5.01816">
        <ele>235.42900085449</ele>
        <time>2010-06-13T07:03:18Z</time>
      </trkpt>
      <trkpt lat="45.09975" lon="5.01871">
        <ele>236.77499389648</ele>
        <time>2010-06-13T07:03:26Z</time>
      </trkpt>
      <trkpt lat="45.09951" lon="5.01937">
        <ele>238.47200012207</ele>
        <time>2010-06-13T07:03:36Z</time>
      </trkpt>
      <trkpt lat="45.09928" lon="5.02005">
        <ele>239.90299987793</ele>
        <time>2010-06-13T07:03:46Z</time>
      </trkpt>
      <trkpt lat="45.09906" lon="5.02067">
        <ele>242.34399414062</ele>
        <time>2010-06-13T07:03:56Z</time>
      </trkpt>
      <trkpt lat="45.09884" lon="5.0213">
        <ele>245.00999450684</ele>
        <time>2010-06-13T07:04:07Z</time>
      </trkpt>
      <trkpt lat="45.09868" lon="5.02176">
        <ele>247.19299316406</ele>
        <time>2010-06-13T07:04:15Z</time>
      </trkpt>
      <trkpt lat="45.09849" lon="5.02234">
        <ele>250.1190032959</ele>
        <time>2010-06-13T07:04:26Z</time>
      </trkpt>
      <trkpt lat="45.09846" lon="5.02272">
        <ele>251.94400024414</ele>
        <time>2010-06-13T07:04:33Z</time>
      </trkpt>
      <trkpt lat="45.09852" lon="5.02305">
        <ele>253.27900695801</ele>
        <time>2010-06-13T07:04:39Z</time>
      </trkpt>
      <trkpt lat="45.09864" lon="5.0234">
        <ele>254.91299438477</ele>
        <time>2010-06-13T07:04:46Z</time>
      </trkpt>
      <trkpt lat="45.09867" lon="5.02354">
        <ele>255.64599609375</ele>
        <time>2010-06-13T07:04:50Z</time>
      </trkpt>
      <trkpt lat="45.09869" lon="5.02358">
        <ele>255.81100463867</ele>
        <time>2010-06-13T07:04:54Z</time>
      </trkpt>
      <trkpt lat="45.0988" lon="5.02356">
        <ele>256.52099609375</ele>
        <time>2010-06-13T07:06:06Z</time>
      </trkpt>
      <trkpt lat="45.09882" lon="5.02358">
        <ele>256.54901123047</ele>
        <time>2010-06-13T07:06:07Z</time>
      </trkpt>
      <trkpt lat="45.09886" lon="5.0238">
        <ele>256.35101318359</ele>
        <time>2010-06-13T07:06:11Z</time>
      </trkpt>
      <trkpt lat="45.0989" lon="5.02406">
        <ele>255.70799255371</ele>
        <time>2010-06-13T07:06:15Z</time>
      </trkpt>
      <trkpt lat="45.09898" lon="5.02435">
        <ele>254.77799987793</ele>
        <time>2010-06-13T07:06:19Z</time>
      </trkpt>
      <trkpt lat="45.09906" lon="5.02459">
        <ele>253.59599304199</ele>
        <time>2010-06-13T07:06:22Z</time>
      </trkpt>
      <trkpt lat="45.09922" lon="5.02508">
        <ele>251.39100646973</ele>
        <time>2010-06-13T07:06:27Z</time>
      </trkpt>
      <trkpt lat="45.09927" lon="5.02518">
        <ele>250.71000671387</ele>
        <time>2010-06-13T07:06:28Z</time>
      </trkpt>
      <trkpt lat="45.09969" lon="5.02572">
        <ele>246.35400390625</ele>
        <time>2010-06-13T07:06:34Z</time>
      </trkpt>
      <trkpt lat="45.09991" lon="5.02636">
        <ele>243.55799865723</ele>
        <time>2010-06-13T07:06:39Z</time>
      </trkpt>
      <trkpt lat="45.10009" lon="5.02672">
        <ele>241.06599426269</ele>
        <time>2010-06-13T07:06:42Z</time>
      </trkpt>
      <trkpt lat="45.10055" lon="5.02736">
        <ele>236.60200500488</ele>
        <time>2010-06-13T07:06:48Z</time>
      </trkpt>
      <trkpt lat="45.10068" lon="5.02787">
        <ele>234.37800598144</ele>
        <time>2010-06-13T07:06:52Z</time>
      </trkpt>
      <trkpt lat="45.1006" lon="5.0281">
        <ele>233.62100219727</ele>
        <time>2010-06-13T07:06:54Z</time>
      </trkpt>
      <trkpt lat="45.10055" lon="5.02819">
        <ele>233.22799682617</ele>
        <time>2010-06-13T07:06:55Z</time>
      </trkpt>
      <trkpt lat="45.10043" lon="5.02847">
        <ele>231.87600708008</ele>
        <time>2010-06-13T07:06:58Z</time>
      </trkpt>
      <trkpt lat="45.10045" lon="5.0288">
        <ele>230.92100524902</ele>
        <time>2010-06-13T07:07:01Z</time>
      </trkpt>
      <trkpt lat="45.10041" lon="5.02905">
        <ele>229.93099975586</ele>
        <time>2010-06-13T07:07:03Z</time>
      </trkpt>
      <trkpt lat="45.10018" lon="5.02982">
        <ele>225.39799499512</ele>
        <time>2010-06-13T07:07:09Z</time>
      </trkpt>
      <trkpt lat="45.10007" lon="5.03023">
        <ele>224.01600646973</ele>
        <time>2010-06-13T07:07:12Z</time>
      </trkpt>
      <trkpt lat="45.09972" lon="5.03144">
        <ele>220.57400512695</ele>
        <time>2010-06-13T07:07:21Z</time>
      </trkpt>
      <trkpt lat="45.09938" lon="5.03262">
        <ele>217.00799560547</ele>
        <time>2010-06-13T07:07:30Z</time>
      </trkpt>
      <trkpt lat="45.09919" lon="5.03331">
        <ele>212.93200683594</ele>
        <time>2010-06-13T07:07:35Z</time>
      </trkpt>
      <trkpt lat="45.09916" lon="5.03345">
        <ele>212.71099853516</ele>
        <time>2010-06-13T07:07:36Z</time>
      </trkpt>
      <trkpt lat="45.09895" lon="5.03415">
        <ele>210.94700622559</ele>
        <time>2010-06-13T07:07:41Z</time>
      </trkpt>
      <trkpt lat="45.09871" lon="5.03463">
        <ele>210.66499328613</ele>
        <time>2010-06-13T07:07:45Z</time>
      </trkpt>
      <trkpt lat="45.09827" lon="5.03526">
        <ele>212.12399291992</ele>
        <time>2010-06-13T07:07:52Z</time>
      </trkpt>
      <trkpt lat="45.09798" lon="5.03575">
        <ele>213.4700012207</ele>
        <time>2010-06-13T07:07:58Z</time>
      </trkpt>
      <trkpt lat="45.09785" lon="5.03621">
        <ele>214.36700439453</ele>
        <time>2010-06-13T07:08:03Z</time>
      </trkpt>
      <trkpt lat="45.09785" lon="5.03649">
        <ele>214.1369934082</ele>
        <time>2010-06-13T07:08:06Z</time>
      </trkpt>
      <trkpt lat="45.09796" lon="5.03722">
        <ele>212.45899963379</ele>
        <time>2010-06-13T07:08:13Z</time>
      </trkpt>
      <trkpt lat="45.09813" lon="5.03802">
        <ele>209.92900085449</ele>
        <time>2010-06-13T07:08:20Z</time>
      </trkpt>
      <trkpt lat="45.09836" lon="5.03865">
        <ele>210.0119934082</ele>
        <time>2010-06-13T07:08:26Z</time>
      </trkpt>
      <trkpt lat="45.0987" lon="5.03953">
        <ele>209.40199279785</ele>
        <time>2010-06-13T07:08:35Z</time>
      </trkpt>
      <trkpt lat="45.09881" lon="5.03982">
        <ele>208.90899658203</ele>
        <time>2010-06-13T07:08:38Z</time>
      </trkpt>
      <trkpt lat="45.09885" lon="5.04025">
        <ele>209.52000427246</ele>
        <time>2010-06-13T07:08:42Z</time>
      </trkpt>
      <trkpt lat="45.09882" lon="5.04047">
        <ele>209.11799621582</ele>
        <time>2010-06-13T07:08:44Z</time>
      </trkpt>
      <trkpt lat="45.09865" lon="5.04118">
        <ele>209.12199401856</ele>
        <time>2010-06-13T07:08:51Z</time>
      </trkpt>
      <trkpt lat="45.09844" lon="5.0416">
        <ele>209.68800354004</ele>
        <time>2010-06-13T07:08:56Z</time>
      </trkpt>
      <trkpt lat="45.09799" lon="5.04208">
        <ele>210.42700195312</ele>
        <time>2010-06-13T07:09:04Z</time>
      </trkpt>
      <trkpt lat="45.09746" lon="5.04261">
        <ele>211.0059967041</ele>
        <time>2010-06-13T07:09:13Z</time>
      </trkpt>
      <trkpt lat="45.09697" lon="5.0431">
        <ele>212.06300354004</ele>
        <time>2010-06-13T07:09:22Z</time>
      </trkpt>
      <trkpt lat="45.09665" lon="5.04351">
        <ele>213.33299255371</ele>
        <time>2010-06-13T07:09:29Z</time>
      </trkpt>
      <trkpt lat="45.09643" lon="5.04404">
        <ele>212.91799926758</ele>
        <time>2010-06-13T07:09:36Z</time>
      </trkpt>
      <trkpt lat="45.09622" lon="5.04475">
        <ele>211.17500305176</ele>
        <time>2010-06-13T07:09:44Z</time>
      </trkpt>
      <trkpt lat="45.0962" lon="5.04484">
        <ele>210.9640045166</ele>
        <time>2010-06-13T07:09:45Z</time>
      </trkpt>
      <trkpt lat="45.09616" lon="5.04504">
        <ele>210.51699829102</ele>
        <time>2010-06-13T07:09:47Z</time>
      </trkpt>
      <trkpt lat="45.09601" lon="5.0454">
        <ele>209.38200378418</ele>
        <time>2010-06-13T07:09:51Z</time>
      </trkpt>
      <trkpt lat="45.09579" lon="5.04586">
        <ele>207.55900573731</ele>
        <time>2010-06-13T07:09:56Z</time>
      </trkpt>
      <trkpt lat="45.09541" lon="5.04614">
        <ele>206.70500183106</ele>
        <time>2010-06-13T07:10:01Z</time>
      </trkpt>
      <trkpt lat="45.09496" lon="5.04638">
        <ele>205.41799926758</ele>
        <time>2010-06-13T07:10:07Z</time>
      </trkpt>
      <trkpt lat="45.09473" lon="5.04648">
        <ele>204.99099731445</ele>
        <time>2010-06-13T07:10:10Z</time>
      </trkpt>
      <trkpt lat="45.09414" lon="5.04676">
        <ele>203.75700378418</ele>
        <time>2010-06-13T07:10:18Z</time>
      </trkpt>
      <trkpt lat="45.09365" lon="5.04704">
        <ele>202.83599853516</ele>
        <time>2010-06-13T07:10:24Z</time>
      </trkpt>
      <trkpt lat="45.09336" lon="5.04727">
        <ele>201.86199951172</ele>
        <time>2010-06-13T07:10:28Z</time>
      </trkpt>
      <trkpt lat="45.09316" lon="5.04743">
        <ele>201.21699523926</ele>
        <time>2010-06-13T07:10:31Z</time>
      </trkpt>
      <trkpt lat="45.09304" lon="5.04771">
        <ele>200.52799987793</ele>
        <time>2010-06-13T07:10:34Z</time>
      </trkpt>
      <trkpt lat="45.09299" lon="5.04858">
        <ele>200.03999328613</ele>
        <time>2010-06-13T07:10:42Z</time>
      </trkpt>
      <trkpt lat="45.09298" lon="5.04869">
        <ele>200.20199584961</ele>
        <time>2010-06-13T07:10:43Z</time>
      </trkpt>
      <trkpt lat="45.09288" lon="5.04906">
        <ele>200.72500610352</ele>
        <time>2010-06-13T07:10:47Z</time>
      </trkpt>
      <trkpt lat="45.09283" lon="5.04914">
        <ele>200.94099426269</ele>
        <time>2010-06-13T07:10:48Z</time>
      </trkpt>
      <trkpt lat="45.09274" lon="5.0493">
        <ele>201.24899291992</ele>
        <time>2010-06-13T07:10:50Z</time>
      </trkpt>
      <trkpt lat="45.09259" lon="5.0495">
        <ele>202.38000488281</ele>
        <time>2010-06-13T07:10:53Z</time>
      </trkpt>
      <trkpt lat="45.09246" lon="5.04973">
        <ele>203.16999816894</ele>
        <time>2010-06-13T07:10:56Z</time>
      </trkpt>
      <trkpt lat="45.09238" lon="5.05012">
        <ele>204.18099975586</ele>
        <time>2010-06-13T07:11:00Z</time>
      </trkpt>
      <trkpt lat="45.09241" lon="5.05042">
        <ele>204.625</ele>
        <time>2010-06-13T07:11:03Z</time>
      </trkpt>
      <trkpt lat="45.09246" lon="5.05061">
        <ele>205.08799743652</ele>
        <time>2010-06-13T07:11:05Z</time>
      </trkpt>
      <trkpt lat="45.0927" lon="5.05121">
        <ele>206.42399597168</ele>
        <time>2010-06-13T07:11:12Z</time>
      </trkpt>
      <trkpt lat="45.09301" lon="5.0518">
        <ele>207.09800720215</ele>
        <time>2010-06-13T07:11:20Z</time>
      </trkpt>
      <trkpt lat="45.09339" lon="5.05242">
        <ele>206.55400085449</ele>
        <time>2010-06-13T07:11:28Z</time>
      </trkpt>
      <trkpt lat="45.09377" lon="5.05306">
        <ele>206.54200744629</ele>
        <time>2010-06-13T07:11:36Z</time>
      </trkpt>
      <trkpt lat="45.09401" lon="5.05357">
        <ele>206.44000244141</ele>
        <time>2010-06-13T07:11:42Z</time>
      </trkpt>
      <trkpt lat="45.09419" lon="5.05418">
        <ele>206.56599426269</ele>
        <time>2010-06-13T07:11:49Z</time>
      </trkpt>
      <trkpt lat="45.09425" lon="5.05472">
        <ele>207.32000732422</ele>
        <time>2010-06-13T07:11:55Z</time>
      </trkpt>
      <trkpt lat="45.09432" lon="5.05555">
        <ele>207.69900512695</ele>
        <time>2010-06-13T07:12:04Z</time>
      </trkpt>
      <trkpt lat="45.09433" lon="5.0563">
        <ele>208.21299743652</ele>
        <time>2010-06-13T07:12:12Z</time>
      </trkpt>
      <trkpt lat="45.09425" lon="5.057">
        <ele>207.46499633789</ele>
        <time>2010-06-13T07:12:19Z</time>
      </trkpt>
      <trkpt lat="45.09411" lon="5.05777">
        <ele>206.37699890137</ele>
        <time>2010-06-13T07:12:26Z</time>
      </trkpt>
      <trkpt lat="45.09388" lon="5.05862">
        <ele>205.93400573731</ele>
        <time>2010-06-13T07:12:34Z</time>
      </trkpt>
      <trkpt lat="45.09376" lon="5.05949">
        <ele>205.81500244141</ele>
        <time>2010-06-13T07:12:42Z</time>
      </trkpt>
      <trkpt lat="45.09368" lon="5.06033">
        <ele>205.76499938965</ele>
        <time>2010-06-13T07:12:50Z</time>
      </trkpt>
      <trkpt lat="45.09364" lon="5.06113">
        <ele>206.35000610352</ele>
        <time>2010-06-13T07:12:58Z</time>
      </trkpt>
      <trkpt lat="45.09367" lon="5.06221">
        <ele>207.82600402832</ele>
        <time>2010-06-13T07:13:09Z</time>
      </trkpt>
      <trkpt lat="45.0937" lon="5.06288">
        <ele>208.47300720215</ele>
        <time>2010-06-13T07:13:16Z</time>
      </trkpt>
      <trkpt lat="45.09372" lon="5.06361">
        <ele>209.02299499512</ele>
        <time>2010-06-13T07:13:24Z</time>
      </trkpt>
      <trkpt lat="45.09375" lon="5.06454">
        <ele>209.83399963379</ele>
        <time>2010-06-13T07:13:34Z</time>
      </trkpt>
      <trkpt lat="45.0938" lon="5.06555">
        <ele>210.59100341797</ele>
        <time>2010-06-13T07:13:45Z</time>
      </trkpt>
      <trkpt lat="45.09377" lon="5.06621">
        <ele>210.57800292969</ele>
        <time>2010-06-13T07:13:52Z</time>
      </trkpt>
      <trkpt lat="45.09368" lon="5.06704">
        <ele>212.05700683594</ele>
        <time>2010-06-13T07:14:01Z</time>
      </trkpt>
      <trkpt lat="45.09366" lon="5.0677">
        <ele>212.82299804688</ele>
        <time>2010-06-13T07:14:08Z</time>
      </trkpt>
      <trkpt lat="45.0937" lon="5.06846">
        <ele>213.10499572754</ele>
        <time>2010-06-13T07:14:16Z</time>
      </trkpt>
      <trkpt lat="45.09375" lon="5.06939">
        <ele>213.89500427246</ele>
        <time>2010-06-13T07:14:26Z</time>
      </trkpt>
      <trkpt lat="45.09381" lon="5.07043">
        <ele>215.82299804688</ele>
        <time>2010-06-13T07:14:38Z</time>
      </trkpt>
      <trkpt lat="45.09386" lon="5.07109">
        <ele>217.30499267578</ele>
        <time>2010-06-13T07:14:46Z</time>
      </trkpt>
      <trkpt lat="45.09386" lon="5.0715">
        <ele>218.10499572754</ele>
        <time>2010-06-13T07:14:51Z</time>
      </trkpt>
      <trkpt lat="45.09375" lon="5.07187">
        <ele>218.97300720215</ele>
        <time>2010-06-13T07:14:56Z</time>
      </trkpt>
      <trkpt lat="45.09361" lon="5.072">
        <ele>219.41600036621</ele>
        <time>2010-06-13T07:14:59Z</time>
      </trkpt>
      <trkpt lat="45.09339" lon="5.07217">
        <ele>219.43899536133</ele>
        <time>2010-06-13T07:15:03Z</time>
      </trkpt>
      <trkpt lat="45.09321" lon="5.07248">
        <ele>218.77400207519</ele>
        <time>2010-06-13T07:15:07Z</time>
      </trkpt>
      <trkpt lat="45.0928" lon="5.07329">
        <ele>217.73100280762</ele>
        <time>2010-06-13T07:15:16Z</time>
      </trkpt>
      <trkpt lat="45.09237" lon="5.0742">
        <ele>217.98100280762</ele>
        <time>2010-06-13T07:15:26Z</time>
      </trkpt>
      <trkpt lat="45.09199" lon="5.07499">
        <ele>219.41299438477</ele>
        <time>2010-06-13T07:15:35Z</time>
      </trkpt>
      <trkpt lat="45.09158" lon="5.07587">
        <ele>221.14999389648</ele>
        <time>2010-06-13T07:15:45Z</time>
      </trkpt>
      <trkpt lat="45.09122" lon="5.07658">
        <ele>223.11399841309</ele>
        <time>2010-06-13T07:15:53Z</time>
      </trkpt>
      <trkpt lat="45.09092" lon="5.07692">
        <ele>223.70399475098</ele>
        <time>2010-06-13T07:15:58Z</time>
      </trkpt>
      <trkpt lat="45.09043" lon="5.0774">
        <ele>225.54699707031</ele>
        <time>2010-06-13T07:16:06Z</time>
      </trkpt>
      <trkpt lat="45.08997" lon="5.07779">
        <ele>225.03999328613</ele>
        <time>2010-06-13T07:16:13Z</time>
      </trkpt>
      <trkpt lat="45.08935" lon="5.07818">
        <ele>223.32800292969</ele>
        <time>2010-06-13T07:16:21Z</time>
      </trkpt>
      <trkpt lat="45.08877" lon="5.07859">
        <ele>220.38600158691</ele>
        <time>2010-06-13T07:16:28Z</time>
      </trkpt>
      <trkpt lat="45.0885" lon="5.07898">
        <ele>218.51300048828</ele>
        <time>2010-06-13T07:16:32Z</time>
      </trkpt>
      <trkpt lat="45.08832" lon="5.07963">
        <ele>216.13299560547</ele>
        <time>2010-06-13T07:16:37Z</time>
      </trkpt>
      <trkpt lat="45.08814" lon="5.08056">
        <ele>213.00799560547</ele>
        <time>2010-06-13T07:16:44Z</time>
      </trkpt>
      <trkpt lat="45.08797" lon="5.08149">
        <ele>209.69400024414</ele>
        <time>2010-06-13T07:16:51Z</time>
      </trkpt>
      <trkpt lat="45.08795" lon="5.08162">
        <ele>209.44799804688</ele>
        <time>2010-06-13T07:16:52Z</time>
      </trkpt>
      <trkpt lat="45.08775" lon="5.08287">
        <ele>204.72200012207</ele>
        <time>2010-06-13T07:17:01Z</time>
      </trkpt>
      <trkpt lat="45.08766" lon="5.0836">
        <ele>202.63299560547</ele>
        <time>2010-06-13T07:17:06Z</time>
      </trkpt>
      <trkpt lat="45.08752" lon="5.08464">
        <ele>198.59100341797</ele>
        <time>2010-06-13T07:17:13Z</time>
      </trkpt>
      <trkpt lat="45.08748" lon="5.08494">
        <ele>197.7859954834</ele>
        <time>2010-06-13T07:17:15Z</time>
      </trkpt>
      <trkpt lat="45.08741" lon="5.08554">
        <ele>196.02200317383</ele>
        <time>2010-06-13T07:17:19Z</time>
      </trkpt>
      <trkpt lat="45.08735" lon="5.08582">
        <ele>195.22599792481</ele>
        <time>2010-06-13T07:17:21Z</time>
      </trkpt>
      <trkpt lat="45.08726" lon="5.08667">
        <ele>193.88000488281</ele>
        <time>2010-06-13T07:17:27Z</time>
      </trkpt>
      <trkpt lat="45.08704" lon="5.08758">
        <ele>192.08000183106</ele>
        <time>2010-06-13T07:17:34Z</time>
      </trkpt>
      <trkpt lat="45.08673" lon="5.08872">
        <ele>191.03500366211</ele>
        <time>2010-06-13T07:17:43Z</time>
      </trkpt>
      <trkpt lat="45.08669" lon="5.08884">
        <ele>190.96099853516</ele>
        <time>2010-06-13T07:17:44Z</time>
      </trkpt>
      <trkpt lat="45.08632" lon="5.08964">
        <ele>190.35200500488</ele>
        <time>2010-06-13T07:17:51Z</time>
      </trkpt>
      <trkpt lat="45.0859" lon="5.09056">
        <ele>188.7559967041</ele>
        <time>2010-06-13T07:17:59Z</time>
      </trkpt>
      <trkpt lat="45.08571" lon="5.09133">
        <ele>188.22300720215</ele>
        <time>2010-06-13T07:18:05Z</time>
      </trkpt>
      <trkpt lat="45.08545" lon="5.0922">
        <ele>186.91799926758</ele>
        <time>2010-06-13T07:18:12Z</time>
      </trkpt>
      <trkpt lat="45.08512" lon="5.09269">
        <ele>187.19299316406</ele>
        <time>2010-06-13T07:18:17Z</time>
      </trkpt>
      <trkpt lat="45.08482" lon="5.09322">
        <ele>186.64799499512</ele>
        <time>2010-06-13T07:18:22Z</time>
      </trkpt>
      <trkpt lat="45.08468" lon="5.09374">
        <ele>185.52299499512</ele>
        <time>2010-06-13T07:18:26Z</time>
      </trkpt>
      <trkpt lat="45.08458" lon="5.09463">
        <ele>185.2140045166</ele>
        <time>2010-06-13T07:18:33Z</time>
      </trkpt>
      <trkpt lat="45.08451" lon="5.09542">
        <ele>185.19099426269</ele>
        <time>2010-06-13T07:18:40Z</time>
      </trkpt>
      <trkpt lat="45.08461" lon="5.09593">
        <ele>186.25199890137</ele>
        <time>2010-06-13T07:18:45Z</time>
      </trkpt>
      <trkpt lat="45.08484" lon="5.09648">
        <ele>185.96699523926</ele>
        <time>2010-06-13T07:18:51Z</time>
      </trkpt>
      <trkpt lat="45.08514" lon="5.0972">
        <ele>186.69400024414</ele>
        <time>2010-06-13T07:18:59Z</time>
      </trkpt>
      <trkpt lat="45.08536" lon="5.09777">
        <ele>187.27099609375</ele>
        <time>2010-06-13T07:19:06Z</time>
      </trkpt>
      <trkpt lat="45.08553" lon="5.09834">
        <ele>187.71899414062</ele>
        <time>2010-06-13T07:19:13Z</time>
      </trkpt>
      <trkpt lat="45.08577" lon="5.09923">
        <ele>187.84399414062</ele>
        <time>2010-06-13T07:19:23Z</time>
      </trkpt>
      <trkpt lat="45.08605" lon="5.10027">
        <ele>188.61799621582</ele>
        <time>2010-06-13T07:19:35Z</time>
      </trkpt>
      <trkpt lat="45.08625" lon="5.10107">
        <ele>189.88400268555</ele>
        <time>2010-06-13T07:19:45Z</time>
      </trkpt>
      <trkpt lat="45.08644" lon="5.10197">
        <ele>190.56900024414</ele>
        <time>2010-06-13T07:19:56Z</time>
      </trkpt>
      <trkpt lat="45.08658" lon="5.10261">
        <ele>190.47500610352</ele>
        <time>2010-06-13T07:20:03Z</time>
      </trkpt>
      <trkpt lat="45.08681" lon="5.10342">
        <ele>188.52799987793</ele>
        <time>2010-06-13T07:20:11Z</time>
      </trkpt>
      <trkpt lat="45.08716" lon="5.10463">
        <ele>188.58799743652</ele>
        <time>2010-06-13T07:20:23Z</time>
      </trkpt>
      <trkpt lat="45.08745" lon="5.10578">
        <ele>187.25399780273</ele>
        <time>2010-06-13T07:20:34Z</time>
      </trkpt>
      <trkpt lat="45.08769" lon="5.10681">
        <ele>187.44400024414</ele>
        <time>2010-06-13T07:20:44Z</time>
      </trkpt>
      <trkpt lat="45.08778" lon="5.10754">
        <ele>187.58000183106</ele>
        <time>2010-06-13T07:20:51Z</time>
      </trkpt>
      <trkpt lat="45.08781" lon="5.10861">
        <ele>187.88200378418</ele>
        <time>2010-06-13T07:21:01Z</time>
      </trkpt>
      <trkpt lat="45.08786" lon="5.10949">
        <ele>187.55799865723</ele>
        <time>2010-06-13T07:21:09Z</time>
      </trkpt>
      <trkpt lat="45.08795" lon="5.11014">
        <ele>187.33599853516</ele>
        <time>2010-06-13T07:21:15Z</time>
      </trkpt>
      <trkpt lat="45.08813" lon="5.11113">
        <ele>187.71600341797</ele>
        <time>2010-06-13T07:21:25Z</time>
      </trkpt>
      <trkpt lat="45.08822" lon="5.11161">
        <ele>188.68699645996</ele>
        <time>2010-06-13T07:21:30Z</time>
      </trkpt>
      <trkpt lat="45.08833" lon="5.11256">
        <ele>189.24200439453</ele>
        <time>2010-06-13T07:21:40Z</time>
      </trkpt>
      <trkpt lat="45.08844" lon="5.11388">
        <ele>190.42300415039</ele>
        <time>2010-06-13T07:21:54Z</time>
      </trkpt>
      <trkpt lat="45.08852" lon="5.11479">
        <ele>190.80099487305</ele>
        <time>2010-06-13T07:22:04Z</time>
      </trkpt>
      <trkpt lat="45.0886" lon="5.11578">
        <ele>192.06399536133</ele>
        <time>2010-06-13T07:22:15Z</time>
      </trkpt>
      <trkpt lat="45.08868" lon="5.11672">
        <ele>191.90400695801</ele>
        <time>2010-06-13T07:22:25Z</time>
      </trkpt>
      <trkpt lat="45.08876" lon="5.11795">
        <ele>191.59100341797</ele>
        <time>2010-06-13T07:22:37Z</time>
      </trkpt>
      <trkpt lat="45.08882" lon="5.11894">
        <ele>192.26400756836</ele>
        <time>2010-06-13T07:22:47Z</time>
      </trkpt>
      <trkpt lat="45.08891" lon="5.12008">
        <ele>193.06199645996</ele>
        <time>2010-06-13T07:22:59Z</time>
      </trkpt>
      <trkpt lat="45.08898" lon="5.12118">
        <ele>194.18400573731</ele>
        <time>2010-06-13T07:23:11Z</time>
      </trkpt>
      <trkpt lat="45.08903" lon="5.12214">
        <ele>195.48899841309</ele>
        <time>2010-06-13T07:23:22Z</time>
      </trkpt>
      <trkpt lat="45.08908" lon="5.12306">
        <ele>196.82800292969</ele>
        <time>2010-06-13T07:23:33Z</time>
      </trkpt>
      <trkpt lat="45.08914" lon="5.12432">
        <ele>199.06500244141</ele>
        <time>2010-06-13T07:23:48Z</time>
      </trkpt>
      <trkpt lat="45.08911" lon="5.12498">
        <ele>200.26899719238</ele>
        <time>2010-06-13T07:23:56Z</time>
      </trkpt>
      <trkpt lat="45.089" lon="5.12548">
        <ele>201.35400390625</ele>
        <time>2010-06-13T07:24:02Z</time>
      </trkpt>
      <trkpt lat="45.0888" lon="5.12609">
        <ele>201.00500488281</ele>
        <time>2010-06-13T07:24:09Z</time>
      </trkpt>
      <trkpt lat="45.08859" lon="5.12679">
        <ele>200.39199829102</ele>
        <time>2010-06-13T07:24:16Z</time>
      </trkpt>
      <trkpt lat="45.08833" lon="5.12764">
        <ele>199.15600585938</ele>
        <time>2010-06-13T07:24:24Z</time>
      </trkpt>
      <trkpt lat="45.08816" lon="5.12838">
        <ele>198.4109954834</ele>
        <time>2010-06-13T07:24:31Z</time>
      </trkpt>
      <trkpt lat="45.08805" lon="5.12905">
        <ele>197.40299987793</ele>
        <time>2010-06-13T07:24:37Z</time>
      </trkpt>
      <trkpt lat="45.08798" lon="5.1296">
        <ele>196.01800537109</ele>
        <time>2010-06-13T07:24:42Z</time>
      </trkpt>
      <trkpt lat="45.08796" lon="5.12977">
        <ele>196.10400390625</ele>
        <time>2010-06-13T07:24:44Z</time>
      </trkpt>
      <trkpt lat="45.08798" lon="5.13016">
        <ele>195.56799316406</ele>
        <time>2010-06-13T07:24:49Z</time>
      </trkpt>
      <trkpt lat="45.08799" lon="5.13024">
        <ele>195.47799682617</ele>
        <time>2010-06-13T07:24:50Z</time>
      </trkpt>
      <trkpt lat="45.08794" lon="5.13067">
        <ele>195.77900695801</ele>
        <time>2010-06-13T07:24:55Z</time>
      </trkpt>
      <trkpt lat="45.08788" lon="5.13103">
        <ele>195.60699462891</ele>
        <time>2010-06-13T07:24:59Z</time>
      </trkpt>
      <trkpt lat="45.0878" lon="5.13136">
        <ele>195.49099731445</ele>
        <time>2010-06-13T07:25:03Z</time>
      </trkpt>
      <trkpt lat="45.08768" lon="5.13164">
        <ele>195.68699645996</ele>
        <time>2010-06-13T07:25:07Z</time>
      </trkpt>
      <trkpt lat="45.08756" lon="5.13186">
        <ele>195.97900390625</ele>
        <time>2010-06-13T07:25:10Z</time>
      </trkpt>
      <trkpt lat="45.08716" lon="5.13267">
        <ele>195.64599609375</ele>
        <time>2010-06-13T07:25:20Z</time>
      </trkpt>
      <trkpt lat="45.08688" lon="5.13331">
        <ele>195.73399353027</ele>
        <time>2010-06-13T07:25:27Z</time>
      </trkpt>
      <trkpt lat="45.08664" lon="5.1339">
        <ele>196.1369934082</ele>
        <time>2010-06-13T07:25:33Z</time>
      </trkpt>
      <trkpt lat="45.08643" lon="5.13448">
        <ele>196.58200073242</ele>
        <time>2010-06-13T07:25:39Z</time>
      </trkpt>
      <trkpt lat="45.08628" lon="5.13474">
        <ele>196.47500610352</ele>
        <time>2010-06-13T07:25:42Z</time>
      </trkpt>
      <trkpt lat="45.08605" lon="5.13534">
        <ele>195.8390045166</ele>
        <time>2010-06-13T07:25:48Z</time>
      </trkpt>
      <trkpt lat="45.08576" lon="5.13593">
        <ele>196.00399780273</ele>
        <time>2010-06-13T07:25:54Z</time>
      </trkpt>
      <trkpt lat="45.08534" lon="5.13651">
        <ele>195.83799743652</ele>
        <time>2010-06-13T07:26:01Z</time>
      </trkpt>
      <trkpt lat="45.0848" lon="5.13721">
        <ele>195.9700012207</ele>
        <time>2010-06-13T07:26:10Z</time>
      </trkpt>
      <trkpt lat="45.08417" lon="5.13803">
        <ele>196.29899597168</ele>
        <time>2010-06-13T07:26:21Z</time>
      </trkpt>
      <trkpt lat="45.08369" lon="5.13871">
        <ele>196.79299926758</ele>
        <time>2010-06-13T07:26:30Z</time>
      </trkpt>
      <trkpt lat="45.08364" lon="5.1388">
        <ele>196.78999328613</ele>
        <time>2010-06-13T07:26:31Z</time>
      </trkpt>
      <trkpt lat="45.08335" lon="5.13959">
        <ele>195.2440032959</ele>
        <time>2010-06-13T07:26:39Z</time>
      </trkpt>
      <trkpt lat="45.08312" lon="5.14037">
        <ele>195.4700012207</ele>
        <time>2010-06-13T07:26:47Z</time>
      </trkpt>
      <trkpt lat="45.0829" lon="5.14111">
        <ele>196.42300415039</ele>
        <time>2010-06-13T07:26:55Z</time>
      </trkpt>
      <trkpt lat="45.0827" lon="5.14179">
        <ele>197.13600158691</ele>
        <time>2010-06-13T07:27:03Z</time>
      </trkpt>
      <trkpt lat="45.0825" lon="5.1425">
        <ele>198.35600280762</ele>
        <time>2010-06-13T07:27:12Z</time>
      </trkpt>
      <trkpt lat="45.08228" lon="5.1432">
        <ele>199.26100158691</ele>
        <time>2010-06-13T07:27:21Z</time>
      </trkpt>
      <trkpt lat="45.08205" lon="5.14387">
        <ele>199.44999694824</ele>
        <time>2010-06-13T07:27:29Z</time>
      </trkpt>
      <trkpt lat="45.08177" lon="5.14473">
        <ele>200.28799438477</ele>
        <time>2010-06-13T07:27:39Z</time>
      </trkpt>
      <trkpt lat="45.08162" lon="5.14526">
        <ele>200.64900207519</ele>
        <time>2010-06-13T07:27:45Z</time>
      </trkpt>
      <trkpt lat="45.08147" lon="5.14578">
        <ele>198.79200744629</ele>
        <time>2010-06-13T07:27:50Z</time>
      </trkpt>
      <trkpt lat="45.0812" lon="5.14659">
        <ele>196.1130065918</ele>
        <time>2010-06-13T07:27:57Z</time>
      </trkpt>
      <trkpt lat="45.08088" lon="5.14743">
        <ele>195.05900573731</ele>
        <time>2010-06-13T07:28:04Z</time>
      </trkpt>
      <trkpt lat="45.08054" lon="5.14839">
        <ele>194.78199768066</ele>
        <time>2010-06-13T07:28:12Z</time>
      </trkpt>
      <trkpt lat="45.0804" lon="5.149">
        <ele>195.52200317383</ele>
        <time>2010-06-13T07:28:17Z</time>
      </trkpt>
      <trkpt lat="45.0802" lon="5.14977">
        <ele>196.74099731445</ele>
        <time>2010-06-13T07:28:24Z</time>
      </trkpt>
      <trkpt lat="45.08004" lon="5.15041">
        <ele>198.72599792481</ele>
        <time>2010-06-13T07:28:31Z</time>
      </trkpt>
      <trkpt lat="45.0799" lon="5.15097">
        <ele>199.68699645996</ele>
        <time>2010-06-13T07:28:38Z</time>
      </trkpt>
      <trkpt lat="45.07981" lon="5.15157">
        <ele>198.58200073242</ele>
        <time>2010-06-13T07:28:44Z</time>
      </trkpt>
      <trkpt lat="45.07973" lon="5.15246">
        <ele>197.625</ele>
        <time>2010-06-13T07:28:52Z</time>
      </trkpt>
      <trkpt lat="45.07959" lon="5.1531">
        <ele>197.53399658203</ele>
        <time>2010-06-13T07:28:58Z</time>
      </trkpt>
      <trkpt lat="45.07939" lon="5.15386">
        <ele>199.28700256348</ele>
        <time>2010-06-13T07:29:06Z</time>
      </trkpt>
      <trkpt lat="45.07919" lon="5.15468">
        <ele>199.41000366211</ele>
        <time>2010-06-13T07:29:15Z</time>
      </trkpt>
      <trkpt lat="45.079" lon="5.15553">
        <ele>197.95599365234</ele>
        <time>2010-06-13T07:29:23Z</time>
      </trkpt>
      <trkpt lat="45.07879" lon="5.15659">
        <ele>195.80499267578</ele>
        <time>2010-06-13T07:29:32Z</time>
      </trkpt>
      <trkpt lat="45.07857" lon="5.1577">
        <ele>194.38800048828</ele>
        <time>2010-06-13T07:29:41Z</time>
      </trkpt>
      <trkpt lat="45.0783" lon="5.15881">
        <ele>193.76499938965</ele>
        <time>2010-06-13T07:29:50Z</time>
      </trkpt>
      <trkpt lat="45.07808" lon="5.15961">
        <ele>193.2140045166</ele>
        <time>2010-06-13T07:29:57Z</time>
      </trkpt>
      <trkpt lat="45.07799" lon="5.15993">
        <ele>192.81199645996</ele>
        <time>2010-06-13T07:30:00Z</time>
      </trkpt>
      <trkpt lat="45.07786" lon="5.16048">
        <ele>191.44599914551</ele>
        <time>2010-06-13T07:30:05Z</time>
      </trkpt>
      <trkpt lat="45.07779" lon="5.16071">
        <ele>190.43200683594</ele>
        <time>2010-06-13T07:30:07Z</time>
      </trkpt>
      <trkpt lat="45.07775" lon="5.16082">
        <ele>189.71899414062</ele>
        <time>2010-06-13T07:30:08Z</time>
      </trkpt>
      <trkpt lat="45.07745" lon="5.16135">
        <ele>186.48599243164</ele>
        <time>2010-06-13T07:30:13Z</time>
      </trkpt>
      <trkpt lat="45.07716" lon="5.16185">
        <ele>184.84800720215</ele>
        <time>2010-06-13T07:30:18Z</time>
      </trkpt>
      <trkpt lat="45.07689" lon="5.16228">
        <ele>184.36700439453</ele>
        <time>2010-06-13T07:30:24Z</time>
      </trkpt>
      <trkpt lat="45.07684" lon="5.16235">
        <ele>184.33000183106</ele>
        <time>2010-06-13T07:30:25Z</time>
      </trkpt>
      <trkpt lat="45.0767" lon="5.16254">
        <ele>184.40100097656</ele>
        <time>2010-06-13T07:30:29Z</time>
      </trkpt>
      <trkpt lat="45.07662" lon="5.16261">
        <ele>184.6369934082</ele>
        <time>2010-06-13T07:30:33Z</time>
      </trkpt>
      <trkpt lat="45.07661" lon="5.16271">
        <ele>184.62199401856</ele>
        <time>2010-06-13T07:30:36Z</time>
      </trkpt>
      <trkpt lat="45.07662" lon="5.16271">
        <ele>184.83999633789</ele>
        <time>2010-06-13T07:30:38Z</time>
      </trkpt>
      <trkpt lat="45.07665" lon="5.16277">
        <ele>184.79100036621</ele>
        <time>2010-06-13T07:31:16Z</time>
      </trkpt>
      <trkpt lat="45.0767" lon="5.16297">
        <ele>184.56900024414</ele>
        <time>2010-06-13T07:31:21Z</time>
      </trkpt>
      <trkpt lat="45.07677" lon="5.16324">
        <ele>184.1130065918</ele>
        <time>2010-06-13T07:31:25Z</time>
      </trkpt>
      <trkpt lat="45.07681" lon="5.16346">
        <ele>183.91700744629</ele>
        <time>2010-06-13T07:31:28Z</time>
      </trkpt>
      <trkpt lat="45.07696" lon="5.16415">
        <ele>184.30499267578</ele>
        <time>2010-06-13T07:31:37Z</time>
      </trkpt>
      <trkpt lat="45.07711" lon="5.16483">
        <ele>184.50300598144</ele>
        <time>2010-06-13T07:31:45Z</time>
      </trkpt>
      <trkpt lat="45.0773" lon="5.16571">
        <ele>184.47500610352</ele>
        <time>2010-06-13T07:31:55Z</time>
      </trkpt>
      <trkpt lat="45.07747" lon="5.16645">
        <ele>184.27600097656</ele>
        <time>2010-06-13T07:32:03Z</time>
      </trkpt>
      <trkpt lat="45.07766" lon="5.16732">
        <ele>182.8630065918</ele>
        <time>2010-06-13T07:32:12Z</time>
      </trkpt>
      <trkpt lat="45.07786" lon="5.16822">
        <ele>182.52699279785</ele>
        <time>2010-06-13T07:32:21Z</time>
      </trkpt>
      <trkpt lat="45.07816" lon="5.16931">
        <ele>181.81500244141</ele>
        <time>2010-06-13T07:32:32Z</time>
      </trkpt>
      <trkpt lat="45.07845" lon="5.17018">
        <ele>180.82600402832</ele>
        <time>2010-06-13T07:32:41Z</time>
      </trkpt>
      <trkpt lat="45.07881" lon="5.17097">
        <ele>180.7619934082</ele>
        <time>2010-06-13T07:32:50Z</time>
      </trkpt>
      <trkpt lat="45.07921" lon="5.17173">
        <ele>180.57400512695</ele>
        <time>2010-06-13T07:32:59Z</time>
      </trkpt>
      <trkpt lat="45.07954" lon="5.17228">
        <ele>178.13200378418</ele>
        <time>2010-06-13T07:33:05Z</time>
      </trkpt>
      <trkpt lat="45.07993" lon="5.17288">
        <ele>175.08200073242</ele>
        <time>2010-06-13T07:33:11Z</time>
      </trkpt>
      <trkpt lat="45.08022" lon="5.17327">
        <ele>172.91999816894</ele>
        <time>2010-06-13T07:33:15Z</time>
      </trkpt>
      <trkpt lat="45.08066" lon="5.17394">
        <ele>169.78500366211</ele>
        <time>2010-06-13T07:33:21Z</time>
      </trkpt>
      <trkpt lat="45.08126" lon="5.17494">
        <ele>167.89900207519</ele>
        <time>2010-06-13T07:33:30Z</time>
      </trkpt>
      <trkpt lat="45.08202" lon="5.17604">
        <ele>165.82400512695</ele>
        <time>2010-06-13T07:33:41Z</time>
      </trkpt>
      <trkpt lat="45.08258" lon="5.17682">
        <ele>164.03999328613</ele>
        <time>2010-06-13T07:33:49Z</time>
      </trkpt>
      <trkpt lat="45.08315" lon="5.17753">
        <ele>163.69999694824</ele>
        <time>2010-06-13T07:33:57Z</time>
      </trkpt>
      <trkpt lat="45.08368" lon="5.1782">
        <ele>163.17100524902</ele>
        <time>2010-06-13T07:34:05Z</time>
      </trkpt>
      <trkpt lat="45.08405" lon="5.17879">
        <ele>161.98399353027</ele>
        <time>2010-06-13T07:34:11Z</time>
      </trkpt>
      <trkpt lat="45.08461" lon="5.17986">
        <ele>159.14399719238</ele>
        <time>2010-06-13T07:34:21Z</time>
      </trkpt>
      <trkpt lat="45.08495" lon="5.18066">
        <ele>157.28100585938</ele>
        <time>2010-06-13T07:34:28Z</time>
      </trkpt>
      <trkpt lat="45.08512" lon="5.18123">
        <ele>156.15199279785</ele>
        <time>2010-06-13T07:34:33Z</time>
      </trkpt>
      <trkpt lat="45.08537" lon="5.18203">
        <ele>155.24299621582</ele>
        <time>2010-06-13T07:34:40Z</time>
      </trkpt>
      <trkpt lat="45.08562" lon="5.18288">
        <ele>153.23300170898</ele>
        <time>2010-06-13T07:34:47Z</time>
      </trkpt>
      <trkpt lat="45.08569" lon="5.18356">
        <ele>150.94299316406</ele>
        <time>2010-06-13T07:34:52Z</time>
      </trkpt>
      <trkpt lat="45.0857" lon="5.18428">
        <ele>148.58700561523</ele>
        <time>2010-06-13T07:34:57Z</time>
      </trkpt>
      <trkpt lat="45.08572" lon="5.18472">
        <ele>147.06500244141</ele>
        <time>2010-06-13T07:35:00Z</time>
      </trkpt>
      <trkpt lat="45.08572" lon="5.18556">
        <ele>146.53300476074</ele>
        <time>2010-06-13T07:35:06Z</time>
      </trkpt>
      <trkpt lat="45.08573" lon="5.18596">
        <ele>147.39700317383</ele>
        <time>2010-06-13T07:35:09Z</time>
      </trkpt>
      <trkpt lat="45.08573" lon="5.18667">
        <ele>147.71899414062</ele>
        <time>2010-06-13T07:35:15Z</time>
      </trkpt>
      <trkpt lat="45.0857" lon="5.18746">
        <ele>148.04499816894</ele>
        <time>2010-06-13T07:35:22Z</time>
      </trkpt>
      <trkpt lat="45.08558" lon="5.18785">
        <ele>148.44099426269</ele>
        <time>2010-06-13T07:35:26Z</time>
      </trkpt>
      <trkpt lat="45.08551" lon="5.18832">
        <ele>148.55499267578</ele>
        <time>2010-06-13T07:35:31Z</time>
      </trkpt>
      <trkpt lat="45.08561" lon="5.18868">
        <ele>148.7440032959</ele>
        <time>2010-06-13T07:35:35Z</time>
      </trkpt>
      <trkpt lat="45.08554" lon="5.18959">
        <ele>148.66499328613</ele>
        <time>2010-06-13T07:35:44Z</time>
      </trkpt>
      <trkpt lat="45.08549" lon="5.19028">
        <ele>149.05200195312</ele>
        <time>2010-06-13T07:35:51Z</time>
      </trkpt>
      <trkpt lat="45.0854" lon="5.19151">
        <ele>149.36500549316</ele>
        <time>2010-06-13T07:36:04Z</time>
      </trkpt>
      <trkpt lat="45.08531" lon="5.1926">
        <ele>150.07299804688</ele>
        <time>2010-06-13T07:36:16Z</time>
      </trkpt>
      <trkpt lat="45.08526" lon="5.1934">
        <ele>150.73699951172</ele>
        <time>2010-06-13T07:36:25Z</time>
      </trkpt>
      <trkpt lat="45.08522" lon="5.19392">
        <ele>151.20500183106</ele>
        <time>2010-06-13T07:36:31Z</time>
      </trkpt>
      <trkpt lat="45.08514" lon="5.19486">
        <ele>152.59899902344</ele>
        <time>2010-06-13T07:36:42Z</time>
      </trkpt>
      <trkpt lat="45.0851" lon="5.19553">
        <ele>154.20300292969</ele>
        <time>2010-06-13T07:36:51Z</time>
      </trkpt>
      <trkpt lat="45.0851" lon="5.1956">
        <ele>154.33000183106</ele>
        <time>2010-06-13T07:36:52Z</time>
      </trkpt>
      <trkpt lat="45.08508" lon="5.19605">
        <ele>155.57699584961</ele>
        <time>2010-06-13T07:36:58Z</time>
      </trkpt>
      <trkpt lat="45.08507" lon="5.1968">
        <ele>155.75399780273</ele>
        <time>2010-06-13T07:37:07Z</time>
      </trkpt>
      <trkpt lat="45.08506" lon="5.19752">
        <ele>156.06799316406</ele>
        <time>2010-06-13T07:37:15Z</time>
      </trkpt>
      <trkpt lat="45.08504" lon="5.19845">
        <ele>156.96699523926</ele>
        <time>2010-06-13T07:37:25Z</time>
      </trkpt>
      <trkpt lat="45.08503" lon="5.1994">
        <ele>157.64300537109</ele>
        <time>2010-06-13T07:37:35Z</time>
      </trkpt>
      <trkpt lat="45.08503" lon="5.20015">
        <ele>157.41000366211</ele>
        <time>2010-06-13T07:37:43Z</time>
      </trkpt>
      <trkpt lat="45.08505" lon="5.20125">
        <ele>157.45300292969</ele>
        <time>2010-06-13T07:37:54Z</time>
      </trkpt>
      <trkpt lat="45.08507" lon="5.20205">
        <ele>157.91700744629</ele>
        <time>2010-06-13T07:38:02Z</time>
      </trkpt>
      <trkpt lat="45.08508" lon="5.20291">
        <ele>158.17100524902</ele>
        <time>2010-06-13T07:38:11Z</time>
      </trkpt>
      <trkpt lat="45.08511" lon="5.20399">
        <ele>158.53999328613</ele>
        <time>2010-06-13T07:38:22Z</time>
      </trkpt>
      <trkpt lat="45.08512" lon="5.20489">
        <ele>158.77099609375</ele>
        <time>2010-06-13T07:38:31Z</time>
      </trkpt>
      <trkpt lat="45.08514" lon="5.20589">
        <ele>159.2140045166</ele>
        <time>2010-06-13T07:38:41Z</time>
      </trkpt>
      <trkpt lat="45.08515" lon="5.2067">
        <ele>158.94900512695</ele>
        <time>2010-06-13T07:38:49Z</time>
      </trkpt>
      <trkpt lat="45.08517" lon="5.20816">
        <ele>158.87600708008</ele>
        <time>2010-06-13T07:39:03Z</time>
      </trkpt>
      <trkpt lat="45.08519" lon="5.20899">
        <ele>158.63200378418</ele>
        <time>2010-06-13T07:39:11Z</time>
      </trkpt>
      <trkpt lat="45.0852" lon="5.20987">
        <ele>159.23399353027</ele>
        <time>2010-06-13T07:39:20Z</time>
      </trkpt>
      <trkpt lat="45.08515" lon="5.21033">
        <ele>161.20300292969</ele>
        <time>2010-06-13T07:39:26Z</time>
      </trkpt>
      <trkpt lat="45.08504" lon="5.2107">
        <ele>162.89199829102</ele>
        <time>2010-06-13T07:39:32Z</time>
      </trkpt>
      <trkpt lat="45.08497" lon="5.21094">
        <ele>163.49299621582</ele>
        <time>2010-06-13T07:39:36Z</time>
      </trkpt>
      <trkpt lat="45.08493" lon="5.21105">
        <ele>163.53500366211</ele>
        <time>2010-06-13T07:39:38Z</time>
      </trkpt>
      <trkpt lat="45.0848" lon="5.21144">
        <ele>165.36399841309</ele>
        <time>2010-06-13T07:39:45Z</time>
      </trkpt>
      <trkpt lat="45.08474" lon="5.21186">
        <ele>166.53399658203</ele>
        <time>2010-06-13T07:39:52Z</time>
      </trkpt>
      <trkpt lat="45.0847" lon="5.21209">
        <ele>167.30099487305</ele>
        <time>2010-06-13T07:39:56Z</time>
      </trkpt>
      <trkpt lat="45.08452" lon="5.21248">
        <ele>168.18299865723</ele>
        <time>2010-06-13T07:40:03Z</time>
      </trkpt>
      <trkpt lat="45.08436" lon="5.21288">
        <ele>169.19200134277</ele>
        <time>2010-06-13T07:40:10Z</time>
      </trkpt>
      <trkpt lat="45.08429" lon="5.21323">
        <ele>171.68299865723</ele>
        <time>2010-06-13T07:40:17Z</time>
      </trkpt>
      <trkpt lat="45.08424" lon="5.21351">
        <ele>173.65199279785</ele>
        <time>2010-06-13T07:40:23Z</time>
      </trkpt>
      <trkpt lat="45.08422" lon="5.21362">
        <ele>173.82400512695</ele>
        <time>2010-06-13T07:40:25Z</time>
      </trkpt>
      <trkpt lat="45.08417" lon="5.21374">
        <ele>173.87899780273</ele>
        <time>2010-06-13T07:40:27Z</time>
      </trkpt>
      <trkpt lat="45.08399" lon="5.21416">
        <ele>173.7559967041</ele>
        <time>2010-06-13T07:40:34Z</time>
      </trkpt>
      <trkpt lat="45.08387" lon="5.21443">
        <ele>173.54899597168</ele>
        <time>2010-06-13T07:40:38Z</time>
      </trkpt>
      <trkpt lat="45.08382" lon="5.21473">
        <ele>174.15899658203</ele>
        <time>2010-06-13T07:40:42Z</time>
      </trkpt>
      <trkpt lat="45.08384" lon="5.2148">
        <ele>174.41299438477</ele>
        <time>2010-06-13T07:40:43Z</time>
      </trkpt>
      <trkpt lat="45.08384" lon="5.21518">
        <ele>174.72500610352</ele>
        <time>2010-06-13T07:40:49Z</time>
      </trkpt>
      <trkpt lat="45.08381" lon="5.21524">
        <ele>174.99800109863</ele>
        <time>2010-06-13T07:40:50Z</time>
      </trkpt>
      <trkpt lat="45.08372" lon="5.2154">
        <ele>175.42999267578</ele>
        <time>2010-06-13T07:40:53Z</time>
      </trkpt>
      <trkpt lat="45.0836" lon="5.21576">
        <ele>175.42900085449</ele>
        <time>2010-06-13T07:40:58Z</time>
      </trkpt>
      <trkpt lat="45.08364" lon="5.21601">
        <ele>175.31900024414</ele>
        <time>2010-06-13T07:41:01Z</time>
      </trkpt>
      <trkpt lat="45.08374" lon="5.21611">
        <ele>175.30200195312</ele>
        <time>2010-06-13T07:41:03Z</time>
      </trkpt>
      <trkpt lat="45.0839" lon="5.21621">
        <ele>175.6190032959</ele>
        <time>2010-06-13T07:41:06Z</time>
      </trkpt>
      <trkpt lat="45.0841" lon="5.21642">
        <ele>177.32699584961</ele>
        <time>2010-06-13T07:41:11Z</time>
      </trkpt>
      <trkpt lat="45.08416" lon="5.2166">
        <ele>178.2140045166</ele>
        <time>2010-06-13T07:41:14Z</time>
      </trkpt>
      <trkpt lat="45.08424" lon="5.21688">
        <ele>179.95399475098</ele>
        <time>2010-06-13T07:41:19Z</time>
      </trkpt>
      <trkpt lat="45.08432" lon="5.21719">
        <ele>182.09300231934</ele>
        <time>2010-06-13T07:41:24Z</time>
      </trkpt>
      <trkpt lat="45.08433" lon="5.21742">
        <ele>184.57899475098</ele>
        <time>2010-06-13T07:41:28Z</time>
      </trkpt>
      <trkpt lat="45.08433" lon="5.21763">
        <ele>185.98399353027</ele>
        <time>2010-06-13T07:41:32Z</time>
      </trkpt>
      <trkpt lat="45.08444" lon="5.21789">
        <ele>186.36199951172</ele>
        <time>2010-06-13T07:41:37Z</time>
      </trkpt>
      <trkpt lat="45.08448" lon="5.21794">
        <ele>186.6130065918</ele>
        <time>2010-06-13T07:41:38Z</time>
      </trkpt>
      <trkpt lat="45.08479" lon="5.21822">
        <ele>186.54499816894</ele>
        <time>2010-06-13T07:41:45Z</time>
      </trkpt>
      <trkpt lat="45.085" lon="5.2184">
        <ele>185.92900085449</ele>
        <time>2010-06-13T07:41:49Z</time>
      </trkpt>
      <trkpt lat="45.08523" lon="5.21856">
        <ele>186.23899841309</ele>
        <time>2010-06-13T07:41:54Z</time>
      </trkpt>
      <trkpt lat="45.0852" lon="5.21869">
        <ele>186.80700683594</ele>
        <time>2010-06-13T07:41:56Z</time>
      </trkpt>
      <trkpt lat="45.08496" lon="5.21924">
        <ele>186.82800292969</ele>
        <time>2010-06-13T07:42:04Z</time>
      </trkpt>
      <trkpt lat="45.08472" lon="5.21991">
        <ele>188.19400024414</ele>
        <time>2010-06-13T07:42:13Z</time>
      </trkpt>
      <trkpt lat="45.0844" lon="5.22058">
        <ele>188.50100708008</ele>
        <time>2010-06-13T07:42:22Z</time>
      </trkpt>
      <trkpt lat="45.08402" lon="5.22117">
        <ele>188.52499389648</ele>
        <time>2010-06-13T07:42:30Z</time>
      </trkpt>
      <trkpt lat="45.08372" lon="5.22171">
        <ele>188.58000183106</ele>
        <time>2010-06-13T07:42:37Z</time>
      </trkpt>
      <trkpt lat="45.08349" lon="5.22238">
        <ele>187.76800537109</ele>
        <time>2010-06-13T07:42:44Z</time>
      </trkpt>
      <trkpt lat="45.08332" lon="5.22309">
        <ele>187.65199279785</ele>
        <time>2010-06-13T07:42:51Z</time>
      </trkpt>
      <trkpt lat="45.08325" lon="5.22372">
        <ele>187.45799255371</ele>
        <time>2010-06-13T07:42:57Z</time>
      </trkpt>
      <trkpt lat="45.0831" lon="5.22446">
        <ele>186.78100585938</ele>
        <time>2010-06-13T07:43:04Z</time>
      </trkpt>
      <trkpt lat="45.08291" lon="5.22496">
        <ele>186.19900512695</ele>
        <time>2010-06-13T07:43:09Z</time>
      </trkpt>
      <trkpt lat="45.08281" lon="5.22514">
        <ele>186.05700683594</ele>
        <time>2010-06-13T07:43:11Z</time>
      </trkpt>
      <trkpt lat="45.08236" lon="5.22574">
        <ele>186.35099792481</ele>
        <time>2010-06-13T07:43:19Z</time>
      </trkpt>
      <trkpt lat="45.08201" lon="5.22622">
        <ele>187.63600158691</ele>
        <time>2010-06-13T07:43:26Z</time>
      </trkpt>
      <trkpt lat="45.08168" lon="5.22669">
        <ele>189.65199279785</ele>
        <time>2010-06-13T07:43:34Z</time>
      </trkpt>
      <trkpt lat="45.08132" lon="5.22719">
        <ele>191.77699279785</ele>
        <time>2010-06-13T07:43:44Z</time>
      </trkpt>
      <trkpt lat="45.0811" lon="5.22753">
        <ele>194.02200317383</ele>
        <time>2010-06-13T07:43:51Z</time>
      </trkpt>
      <trkpt lat="45.0809" lon="5.22801">
        <ele>195.00799560547</ele>
        <time>2010-06-13T07:43:59Z</time>
      </trkpt>
      <trkpt lat="45.08063" lon="5.22868">
        <ele>195.91600036621</ele>
        <time>2010-06-13T07:44:09Z</time>
      </trkpt>
      <trkpt lat="45.08041" lon="5.22928">
        <ele>196.36199951172</ele>
        <time>2010-06-13T07:44:17Z</time>
      </trkpt>
      <trkpt lat="45.08032" lon="5.22985">
        <ele>196.70799255371</ele>
        <time>2010-06-13T07:44:24Z</time>
      </trkpt>
      <trkpt lat="45.08021" lon="5.23044">
        <ele>196.96699523926</ele>
        <time>2010-06-13T07:44:31Z</time>
      </trkpt>
      <trkpt lat="45.07999" lon="5.23106">
        <ele>198.17199707031</ele>
        <time>2010-06-13T07:44:39Z</time>
      </trkpt>
      <trkpt lat="45.0798" lon="5.23162">
        <ele>198.98699951172</ele>
        <time>2010-06-13T07:44:46Z</time>
      </trkpt>
      <trkpt lat="45.07956" lon="5.2323">
        <ele>199.24899291992</ele>
        <time>2010-06-13T07:44:54Z</time>
      </trkpt>
      <trkpt lat="45.07937" lon="5.23282">
        <ele>198.61599731445</ele>
        <time>2010-06-13T07:45:00Z</time>
      </trkpt>
      <trkpt lat="45.07904" lon="5.23351">
        <ele>198.61399841309</ele>
        <time>2010-06-13T07:45:08Z</time>
      </trkpt>
      <trkpt lat="45.07876" lon="5.23409">
        <ele>199.18899536133</ele>
        <time>2010-06-13T07:45:15Z</time>
      </trkpt>
      <trkpt lat="45.07856" lon="5.23473">
        <ele>199.62199401856</ele>
        <time>2010-06-13T07:45:22Z</time>
      </trkpt>
      <trkpt lat="45.07844" lon="5.23522">
        <ele>199.54800415039</ele>
        <time>2010-06-13T07:45:27Z</time>
      </trkpt>
      <trkpt lat="45.07819" lon="5.23616">
        <ele>200.23399353027</ele>
        <time>2010-06-13T07:45:37Z</time>
      </trkpt>
      <trkpt lat="45.07792" lon="5.23703">
        <ele>199.17500305176</ele>
        <time>2010-06-13T07:45:46Z</time>
      </trkpt>
      <trkpt lat="45.07766" lon="5.23794">
        <ele>199.10099792481</ele>
        <time>2010-06-13T07:45:55Z</time>
      </trkpt>
      <trkpt lat="45.07743" lon="5.23872">
        <ele>199.40299987793</ele>
        <time>2010-06-13T07:46:03Z</time>
      </trkpt>
      <trkpt lat="45.07707" lon="5.2399">
        <ele>198.94000244141</ele>
        <time>2010-06-13T07:46:15Z</time>
      </trkpt>
      <trkpt lat="45.07704" lon="5.24">
        <ele>198.8630065918</ele>
        <time>2010-06-13T07:46:16Z</time>
      </trkpt>
      <trkpt lat="45.07681" lon="5.24027">
        <ele>198.59199523926</ele>
        <time>2010-06-13T07:46:20Z</time>
      </trkpt>
      <trkpt lat="45.07653" lon="5.24034">
        <ele>197.97200012207</ele>
        <time>2010-06-13T07:46:24Z</time>
      </trkpt>
      <trkpt lat="45.07646" lon="5.24035">
        <ele>197.83999633789</ele>
        <time>2010-06-13T07:46:25Z</time>
      </trkpt>
      <trkpt lat="45.07579" lon="5.2404">
        <ele>196.85800170898</ele>
        <time>2010-06-13T07:46:34Z</time>
      </trkpt>
      <trkpt lat="45.07517" lon="5.24045">
        <ele>196.60600280762</ele>
        <time>2010-06-13T07:46:42Z</time>
      </trkpt>
      <trkpt lat="45.07456" lon="5.24051">
        <ele>196.33099365234</ele>
        <time>2010-06-13T07:46:50Z</time>
      </trkpt>
      <trkpt lat="45.07397" lon="5.24056">
        <ele>196.49699401856</ele>
        <time>2010-06-13T07:46:58Z</time>
      </trkpt>
      <trkpt lat="45.07335" lon="5.24062">
        <ele>195.70300292969</ele>
        <time>2010-06-13T07:47:06Z</time>
      </trkpt>
      <trkpt lat="45.07263" lon="5.24069">
        <ele>194.18299865723</ele>
        <time>2010-06-13T07:47:15Z</time>
      </trkpt>
      <trkpt lat="45.07219" lon="5.24072">
        <ele>191.69999694824</ele>
        <time>2010-06-13T07:47:20Z</time>
      </trkpt>
      <trkpt lat="45.072" lon="5.24072">
        <ele>190.81700134277</ele>
        <time>2010-06-13T07:47:22Z</time>
      </trkpt>
      <trkpt lat="45.07171" lon="5.24065">
        <ele>188.35800170898</ele>
        <time>2010-06-13T07:47:25Z</time>
      </trkpt>
      <trkpt lat="45.07153" lon="5.24056">
        <ele>187.83500671387</ele>
        <time>2010-06-13T07:47:27Z</time>
      </trkpt>
      <trkpt lat="45.07126" lon="5.24048">
        <ele>187.93800354004</ele>
        <time>2010-06-13T07:47:30Z</time>
      </trkpt>
      <trkpt lat="45.07109" lon="5.24059">
        <ele>188.05799865723</ele>
        <time>2010-06-13T07:47:32Z</time>
      </trkpt>
      <trkpt lat="45.07095" lon="5.24088">
        <ele>188.12199401856</ele>
        <time>2010-06-13T07:47:35Z</time>
      </trkpt>
      <trkpt lat="45.07079" lon="5.24162">
        <ele>188.51499938965</ele>
        <time>2010-06-13T07:47:42Z</time>
      </trkpt>
      <trkpt lat="45.07073" lon="5.24192">
        <ele>188.93600463867</ele>
        <time>2010-06-13T07:47:45Z</time>
      </trkpt>
      <trkpt lat="45.07063" lon="5.24242">
        <ele>189.2559967041</ele>
        <time>2010-06-13T07:47:50Z</time>
      </trkpt>
      <trkpt lat="45.07058" lon="5.24261">
        <ele>189.30400085449</ele>
        <time>2010-06-13T07:47:52Z</time>
      </trkpt>
      <trkpt lat="45.07033" lon="5.24323">
        <ele>189.11000061035</ele>
        <time>2010-06-13T07:47:59Z</time>
      </trkpt>
      <trkpt lat="45.07024" lon="5.24339">
        <ele>188.91700744629</ele>
        <time>2010-06-13T07:48:01Z</time>
      </trkpt>
      <trkpt lat="45.06986" lon="5.24388">
        <ele>188.1369934082</ele>
        <time>2010-06-13T07:48:08Z</time>
      </trkpt>
      <trkpt lat="45.06957" lon="5.24397">
        <ele>187.36599731445</ele>
        <time>2010-06-13T07:48:12Z</time>
      </trkpt>
      <trkpt lat="45.0695" lon="5.24393">
        <ele>187.10699462891</ele>
        <time>2010-06-13T07:48:13Z</time>
      </trkpt>
      <trkpt lat="45.06906" lon="5.2437">
        <ele>184.64300537109</ele>
        <time>2010-06-13T07:48:18Z</time>
      </trkpt>
      <trkpt lat="45.0685" lon="5.24349">
        <ele>181.94599914551</ele>
        <time>2010-06-13T07:48:24Z</time>
      </trkpt>
      <trkpt lat="45.0681" lon="5.24335">
        <ele>179.55000305176</ele>
        <time>2010-06-13T07:48:28Z</time>
      </trkpt>
      <trkpt lat="45.06752" lon="5.24313">
        <ele>178.46099853516</ele>
        <time>2010-06-13T07:48:34Z</time>
      </trkpt>
      <trkpt lat="45.06657" lon="5.24277">
        <ele>176.21499633789</ele>
        <time>2010-06-13T07:48:44Z</time>
      </trkpt>
      <trkpt lat="45.06585" lon="5.2425">
        <ele>175.66900634766</ele>
        <time>2010-06-13T07:48:52Z</time>
      </trkpt>
      <trkpt lat="45.06578" lon="5.24246">
        <ele>176.36099243164</ele>
        <time>2010-06-13T07:48:53Z</time>
      </trkpt>
      <trkpt lat="45.06565" lon="5.24238">
        <ele>177.2799987793</ele>
        <time>2010-06-13T07:48:55Z</time>
      </trkpt>
      <trkpt lat="45.06549" lon="5.24212">
        <ele>178.81599426269</ele>
        <time>2010-06-13T07:48:59Z</time>
      </trkpt>
      <trkpt lat="45.06542" lon="5.24191">
        <ele>179.90800476074</ele>
        <time>2010-06-13T07:49:02Z</time>
      </trkpt>
      <trkpt lat="45.06533" lon="5.24158">
        <ele>181.33799743652</ele>
        <time>2010-06-13T07:49:07Z</time>
      </trkpt>
      <trkpt lat="45.06528" lon="5.24139">
        <ele>182.11399841309</ele>
        <time>2010-06-13T07:49:10Z</time>
      </trkpt>
      <trkpt lat="45.06519" lon="5.24119">
        <ele>183.25700378418</ele>
        <time>2010-06-13T07:49:15Z</time>
      </trkpt>
      <trkpt lat="45.06506" lon="5.24116">
        <ele>183.74800109863</ele>
        <time>2010-06-13T07:49:19Z</time>
      </trkpt>
      <trkpt lat="45.06498" lon="5.2412">
        <ele>183.91200256348</ele>
        <time>2010-06-13T07:49:21Z</time>
      </trkpt>
      <trkpt lat="45.06458" lon="5.24143">
        <ele>184.77099609375</ele>
        <time>2010-06-13T07:49:29Z</time>
      </trkpt>
      <trkpt lat="45.06407" lon="5.24175">
        <ele>185.35699462891</ele>
        <time>2010-06-13T07:49:39Z</time>
      </trkpt>
      <trkpt lat="45.06356" lon="5.24207">
        <ele>185.61199951172</ele>
        <time>2010-06-13T07:49:48Z</time>
      </trkpt>
      <trkpt lat="45.06301" lon="5.24239">
        <ele>186.11099243164</ele>
        <time>2010-06-13T07:49:57Z</time>
      </trkpt>
      <trkpt lat="45.06257" lon="5.24245">
        <ele>185.39199829102</ele>
        <time>2010-06-13T07:50:03Z</time>
      </trkpt>
      <trkpt lat="45.062" lon="5.24255">
        <ele>184.27699279785</ele>
        <time>2010-06-13T07:50:10Z</time>
      </trkpt>
      <trkpt lat="45.06139" lon="5.24266">
        <ele>182.76300048828</ele>
        <time>2010-06-13T07:50:17Z</time>
      </trkpt>
      <trkpt lat="45.06092" lon="5.24268">
        <ele>181.43899536133</ele>
        <time>2010-06-13T07:50:22Z</time>
      </trkpt>
      <trkpt lat="45.06048" lon="5.24289">
        <ele>180.11000061035</ele>
        <time>2010-06-13T07:50:27Z</time>
      </trkpt>
      <trkpt lat="45.06026" lon="5.24311">
        <ele>179.79800415039</ele>
        <time>2010-06-13T07:50:30Z</time>
      </trkpt>
      <trkpt lat="45.06007" lon="5.24339">
        <ele>178.95700073242</ele>
        <time>2010-06-13T07:50:33Z</time>
      </trkpt>
      <trkpt lat="45.05986" lon="5.24381">
        <ele>177.71800231934</ele>
        <time>2010-06-13T07:50:37Z</time>
      </trkpt>
      <trkpt lat="45.05976" lon="5.24433">
        <ele>177.08299255371</ele>
        <time>2010-06-13T07:50:41Z</time>
      </trkpt>
      <trkpt lat="45.05976" lon="5.24445">
        <ele>176.96200561523</ele>
        <time>2010-06-13T07:50:42Z</time>
      </trkpt>
      <trkpt lat="45.05978" lon="5.24471">
        <ele>176.15100097656</ele>
        <time>2010-06-13T07:50:44Z</time>
      </trkpt>
      <trkpt lat="45.05976" lon="5.24534">
        <ele>174.06900024414</ele>
        <time>2010-06-13T07:50:49Z</time>
      </trkpt>
      <trkpt lat="45.05982" lon="5.24594">
        <ele>173.41200256348</ele>
        <time>2010-06-13T07:50:54Z</time>
      </trkpt>
      <trkpt lat="45.05991" lon="5.24665">
        <ele>171.16299438477</ele>
        <time>2010-06-13T07:51:00Z</time>
      </trkpt>
      <trkpt lat="45.06017" lon="5.24692">
        <ele>169.82099914551</ele>
        <time>2010-06-13T07:51:04Z</time>
      </trkpt>
      <trkpt lat="45.06024" lon="5.24695">
        <ele>169.71699523926</ele>
        <time>2010-06-13T07:51:05Z</time>
      </trkpt>
      <trkpt lat="45.06067" lon="5.24713">
        <ele>168.625</ele>
        <time>2010-06-13T07:51:10Z</time>
      </trkpt>
      <trkpt lat="45.0611" lon="5.24728">
        <ele>166.97099304199</ele>
        <time>2010-06-13T07:51:15Z</time>
      </trkpt>
      <trkpt lat="45.06158" lon="5.24745">
        <ele>167.56799316406</ele>
        <time>2010-06-13T07:51:21Z</time>
      </trkpt>
      <trkpt lat="45.06176" lon="5.24766">
        <ele>167.70700073242</ele>
        <time>2010-06-13T07:51:24Z</time>
      </trkpt>
      <trkpt lat="45.06179" lon="5.24777">
        <ele>167.91999816894</ele>
        <time>2010-06-13T07:51:25Z</time>
      </trkpt>
      <trkpt lat="45.06184" lon="5.24811">
        <ele>168.34800720215</ele>
        <time>2010-06-13T07:51:28Z</time>
      </trkpt>
      <trkpt lat="45.0619" lon="5.24868">
        <ele>169.00500488281</ele>
        <time>2010-06-13T07:51:33Z</time>
      </trkpt>
      <trkpt lat="45.06192" lon="5.24901">
        <ele>169.99600219727</ele>
        <time>2010-06-13T07:51:36Z</time>
      </trkpt>
      <trkpt lat="45.06192" lon="5.24912">
        <ele>170.10899353027</ele>
        <time>2010-06-13T07:51:37Z</time>
      </trkpt>
      <trkpt lat="45.06194" lon="5.24956">
        <ele>170.73300170898</ele>
        <time>2010-06-13T07:51:41Z</time>
      </trkpt>
      <trkpt lat="45.06192" lon="5.25032">
        <ele>171.36700439453</ele>
        <time>2010-06-13T07:51:48Z</time>
      </trkpt>
      <trkpt lat="45.06181" lon="5.25125">
        <ele>172.42700195312</ele>
        <time>2010-06-13T07:51:57Z</time>
      </trkpt>
      <trkpt lat="45.06172" lon="5.25202">
        <ele>173.43600463867</ele>
        <time>2010-06-13T07:52:05Z</time>
      </trkpt>
      <trkpt lat="45.0616" lon="5.25276">
        <ele>174.74099731445</ele>
        <time>2010-06-13T07:52:13Z</time>
      </trkpt>
      <trkpt lat="45.06147" lon="5.2535">
        <ele>175.38499450684</ele>
        <time>2010-06-13T07:52:21Z</time>
      </trkpt>
      <trkpt lat="45.06134" lon="5.25445">
        <ele>176.96499633789</ele>
        <time>2010-06-13T07:52:31Z</time>
      </trkpt>
      <trkpt lat="45.0613" lon="5.25499">
        <ele>177.6130065918</ele>
        <time>2010-06-13T07:52:37Z</time>
      </trkpt>
      <trkpt lat="45.06136" lon="5.25553">
        <ele>177.96200561523</ele>
        <time>2010-06-13T07:52:43Z</time>
      </trkpt>
      <trkpt lat="45.06152" lon="5.25623">
        <ele>178.79400634766</ele>
        <time>2010-06-13T07:52:51Z</time>
      </trkpt>
      <trkpt lat="45.06167" lon="5.25695">
        <ele>179.78399658203</ele>
        <time>2010-06-13T07:52:59Z</time>
      </trkpt>
      <trkpt lat="45.06174" lon="5.25769">
        <ele>181.00799560547</ele>
        <time>2010-06-13T07:53:07Z</time>
      </trkpt>
      <trkpt lat="45.06185" lon="5.25841">
        <ele>181.84700012207</ele>
        <time>2010-06-13T07:53:15Z</time>
      </trkpt>
      <trkpt lat="45.06199" lon="5.25895">
        <ele>182.23699951172</ele>
        <time>2010-06-13T07:53:21Z</time>
      </trkpt>
      <trkpt lat="45.0621" lon="5.2597">
        <ele>183.11500549316</ele>
        <time>2010-06-13T07:53:29Z</time>
      </trkpt>
      <trkpt lat="45.06217" lon="5.26052">
        <ele>183.76100158691</ele>
        <time>2010-06-13T07:53:38Z</time>
      </trkpt>
      <trkpt lat="45.06225" lon="5.26138">
        <ele>185.00100708008</ele>
        <time>2010-06-13T07:53:48Z</time>
      </trkpt>
      <trkpt lat="45.06232" lon="5.26224">
        <ele>186.35800170898</ele>
        <time>2010-06-13T07:53:58Z</time>
      </trkpt>
      <trkpt lat="45.06237" lon="5.26285">
        <ele>186.83200073242</ele>
        <time>2010-06-13T07:54:05Z</time>
      </trkpt>
      <trkpt lat="45.06245" lon="5.2637">
        <ele>188.24299621582</ele>
        <time>2010-06-13T07:54:15Z</time>
      </trkpt>
      <trkpt lat="45.06258" lon="5.26418">
        <ele>189.01400756836</ele>
        <time>2010-06-13T07:54:21Z</time>
      </trkpt>
      <trkpt lat="45.06277" lon="5.26453">
        <ele>189.26699829102</ele>
        <time>2010-06-13T07:54:26Z</time>
      </trkpt>
      <trkpt lat="45.06314" lon="5.26505">
        <ele>189.52799987793</ele>
        <time>2010-06-13T07:54:34Z</time>
      </trkpt>
      <trkpt lat="45.06344" lon="5.26578">
        <ele>189.99699401856</ele>
        <time>2010-06-13T07:54:43Z</time>
      </trkpt>
      <trkpt lat="45.06373" lon="5.2666">
        <ele>191.11099243164</ele>
        <time>2010-06-13T07:54:53Z</time>
      </trkpt>
      <trkpt lat="45.06399" lon="5.26733">
        <ele>192.01800537109</ele>
        <time>2010-06-13T07:55:02Z</time>
      </trkpt>
      <trkpt lat="45.06408" lon="5.26757">
        <ele>192.48699951172</ele>
        <time>2010-06-13T07:55:05Z</time>
      </trkpt>
      <trkpt lat="45.06414" lon="5.26782">
        <ele>192.53999328613</ele>
        <time>2010-06-13T07:55:08Z</time>
      </trkpt>
      <trkpt lat="45.06406" lon="5.26812">
        <ele>193.03199768066</ele>
        <time>2010-06-13T07:55:12Z</time>
      </trkpt>
      <trkpt lat="45.0638" lon="5.26822">
        <ele>192.62899780273</ele>
        <time>2010-06-13T07:55:16Z</time>
      </trkpt>
      <trkpt lat="45.06334" lon="5.26836">
        <ele>193.44200134277</ele>
        <time>2010-06-13T07:55:23Z</time>
      </trkpt>
      <trkpt lat="45.06306" lon="5.26861">
        <ele>193.37199401856</ele>
        <time>2010-06-13T07:55:28Z</time>
      </trkpt>
      <trkpt lat="45.06296" lon="5.26874">
        <ele>193.42300415039</ele>
        <time>2010-06-13T07:55:30Z</time>
      </trkpt>
      <trkpt lat="45.06282" lon="5.26909">
        <ele>193.15899658203</ele>
        <time>2010-06-13T07:55:34Z</time>
      </trkpt>
      <trkpt lat="45.06259" lon="5.27002">
        <ele>192.5890045166</ele>
        <time>2010-06-13T07:55:43Z</time>
      </trkpt>
      <trkpt lat="45.06237" lon="5.27053">
        <ele>191.42399597168</ele>
        <time>2010-06-13T07:55:48Z</time>
      </trkpt>
      <trkpt lat="45.06201" lon="5.27111">
        <ele>189.01600646973</ele>
        <time>2010-06-13T07:55:54Z</time>
      </trkpt>
      <trkpt lat="45.06177" lon="5.27149">
        <ele>187.45199584961</ele>
        <time>2010-06-13T07:55:58Z</time>
      </trkpt>
      <trkpt lat="45.06165" lon="5.27168">
        <ele>186.94700622559</ele>
        <time>2010-06-13T07:56:00Z</time>
      </trkpt>
      <trkpt lat="45.06147" lon="5.27197">
        <ele>186.18499755859</ele>
        <time>2010-06-13T07:56:03Z</time>
      </trkpt>
      <trkpt lat="45.06141" lon="5.27207">
        <ele>185.97500610352</ele>
        <time>2010-06-13T07:56:04Z</time>
      </trkpt>
      <trkpt lat="45.06117" lon="5.27265">
        <ele>184.35800170898</ele>
        <time>2010-06-13T07:56:09Z</time>
      </trkpt>
      <trkpt lat="45.0611" lon="5.27292">
        <ele>183.57899475098</ele>
        <time>2010-06-13T07:56:11Z</time>
      </trkpt>
      <trkpt lat="45.06098" lon="5.27349">
        <ele>181.39999389648</ele>
        <time>2010-06-13T07:56:15Z</time>
      </trkpt>
      <trkpt lat="45.0608" lon="5.27465">
        <ele>178.26499938965</ele>
        <time>2010-06-13T07:56:23Z</time>
      </trkpt>
      <trkpt lat="45.0608" lon="5.27538">
        <ele>176.50700378418</ele>
        <time>2010-06-13T07:56:28Z</time>
      </trkpt>
      <trkpt lat="45.06092" lon="5.27593">
        <ele>174.83500671387</ele>
        <time>2010-06-13T07:56:32Z</time>
      </trkpt>
      <trkpt lat="45.06099" lon="5.2762">
        <ele>174.10800170898</ele>
        <time>2010-06-13T07:56:34Z</time>
      </trkpt>
      <trkpt lat="45.06102" lon="5.27648">
        <ele>173.4109954834</ele>
        <time>2010-06-13T07:56:36Z</time>
      </trkpt>
      <trkpt lat="45.06102" lon="5.27731">
        <ele>172.37100219727</ele>
        <time>2010-06-13T07:56:42Z</time>
      </trkpt>
      <trkpt lat="45.06113" lon="5.27798">
        <ele>170.74899291992</ele>
        <time>2010-06-13T07:56:47Z</time>
      </trkpt>
      <trkpt lat="45.06123" lon="5.27838">
        <ele>170.44900512695</ele>
        <time>2010-06-13T07:56:50Z</time>
      </trkpt>
      <trkpt lat="45.06127" lon="5.2785">
        <ele>170.23500061035</ele>
        <time>2010-06-13T07:56:51Z</time>
      </trkpt>
      <trkpt lat="45.06143" lon="5.27885">
        <ele>169.53500366211</ele>
        <time>2010-06-13T07:56:54Z</time>
      </trkpt>
      <trkpt lat="45.06155" lon="5.27936">
        <ele>168.87699890137</ele>
        <time>2010-06-13T07:56:58Z</time>
      </trkpt>
      <trkpt lat="45.06154" lon="5.27949">
        <ele>169.10499572754</ele>
        <time>2010-06-13T07:56:59Z</time>
      </trkpt>
      <trkpt lat="45.0614" lon="5.28044">
        <ele>169.43200683594</ele>
        <time>2010-06-13T07:57:07Z</time>
      </trkpt>
      <trkpt lat="45.06132" lon="5.2809">
        <ele>169.49200439453</ele>
        <time>2010-06-13T07:57:11Z</time>
      </trkpt>
      <trkpt lat="45.06126" lon="5.28112">
        <ele>169.84100341797</ele>
        <time>2010-06-13T07:57:13Z</time>
      </trkpt>
      <trkpt lat="45.0611" lon="5.28199">
        <ele>171.33599853516</ele>
        <time>2010-06-13T07:57:21Z</time>
      </trkpt>
      <trkpt lat="45.06102" lon="5.28262">
        <ele>172.39900207519</ele>
        <time>2010-06-13T07:57:27Z</time>
      </trkpt>
      <trkpt lat="45.06088" lon="5.2832">
        <ele>173.31700134277</ele>
        <time>2010-06-13T07:57:33Z</time>
      </trkpt>
      <trkpt lat="45.06078" lon="5.28367">
        <ele>173.90699768066</ele>
        <time>2010-06-13T07:57:38Z</time>
      </trkpt>
      <trkpt lat="45.0607" lon="5.2845">
        <ele>174.17399597168</ele>
        <time>2010-06-13T07:57:46Z</time>
      </trkpt>
      <trkpt lat="45.0607" lon="5.28481">
        <ele>174.11199951172</ele>
        <time>2010-06-13T07:57:49Z</time>
      </trkpt>
      <trkpt lat="45.0608" lon="5.2855">
        <ele>174.2380065918</ele>
        <time>2010-06-13T07:57:56Z</time>
      </trkpt>
      <trkpt lat="45.06102" lon="5.28637">
        <ele>174.04499816894</ele>
        <time>2010-06-13T07:58:05Z</time>
      </trkpt>
      <trkpt lat="45.0613" lon="5.28739">
        <ele>174.60400390625</ele>
        <time>2010-06-13T07:58:16Z</time>
      </trkpt>
      <trkpt lat="45.06156" lon="5.288">
        <ele>174.93899536133</ele>
        <time>2010-06-13T07:58:23Z</time>
      </trkpt>
      <trkpt lat="45.06197" lon="5.28874">
        <ele>174.80700683594</ele>
        <time>2010-06-13T07:58:32Z</time>
      </trkpt>
      <trkpt lat="45.06246" lon="5.28953">
        <ele>175.31399536133</ele>
        <time>2010-06-13T07:58:42Z</time>
      </trkpt>
      <trkpt lat="45.06265" lon="5.2897">
        <ele>175.56100463867</ele>
        <time>2010-06-13T07:58:45Z</time>
      </trkpt>
      <trkpt lat="45.06322" lon="5.29">
        <ele>175.46899414062</ele>
        <time>2010-06-13T07:58:53Z</time>
      </trkpt>
      <trkpt lat="45.06354" lon="5.29031">
        <ele>175.39199829102</ele>
        <time>2010-06-13T07:58:58Z</time>
      </trkpt>
      <trkpt lat="45.06377" lon="5.29073">
        <ele>175.49800109863</ele>
        <time>2010-06-13T07:59:03Z</time>
      </trkpt>
      <trkpt lat="45.06392" lon="5.29123">
        <ele>175.46600341797</ele>
        <time>2010-06-13T07:59:08Z</time>
      </trkpt>
      <trkpt lat="45.06408" lon="5.29204">
        <ele>175.77200317383</ele>
        <time>2010-06-13T07:59:16Z</time>
      </trkpt>
      <trkpt lat="45.0641" lon="5.29261">
        <ele>176.25700378418</ele>
        <time>2010-06-13T07:59:22Z</time>
      </trkpt>
      <trkpt lat="45.06405" lon="5.29318">
        <ele>176.24200439453</ele>
        <time>2010-06-13T07:59:28Z</time>
      </trkpt>
      <trkpt lat="45.064" lon="5.29411">
        <ele>175.51600646973</ele>
        <time>2010-06-13T07:59:37Z</time>
      </trkpt>
      <trkpt lat="45.06396" lon="5.29504">
        <ele>175.64500427246</ele>
        <time>2010-06-13T07:59:46Z</time>
      </trkpt>
      <trkpt lat="45.06393" lon="5.29582">
        <ele>176.23100280762</ele>
        <time>2010-06-13T07:59:54Z</time>
      </trkpt>
      <trkpt lat="45.06388" lon="5.29676">
        <ele>176.80999755859</ele>
        <time>2010-06-13T08:00:04Z</time>
      </trkpt>
      <trkpt lat="45.06384" lon="5.29798">
        <ele>176.72599792481</ele>
        <time>2010-06-13T08:00:17Z</time>
      </trkpt>
      <trkpt lat="45.06379" lon="5.29876">
        <ele>178.05700683594</ele>
        <time>2010-06-13T08:00:26Z</time>
      </trkpt>
      <trkpt lat="45.06377" lon="5.29926">
        <ele>179.70300292969</ele>
        <time>2010-06-13T08:00:33Z</time>
      </trkpt>
      <trkpt lat="45.06375" lon="5.29981">
        <ele>181.01300048828</ele>
        <time>2010-06-13T08:00:41Z</time>
      </trkpt>
      <trkpt lat="45.06372" lon="5.30013">
        <ele>182.00199890137</ele>
        <time>2010-06-13T08:00:46Z</time>
      </trkpt>
      <trkpt lat="45.06367" lon="5.30044">
        <ele>183.08599853516</ele>
        <time>2010-06-13T08:00:51Z</time>
      </trkpt>
      <trkpt lat="45.06353" lon="5.30079">
        <ele>184.09899902344</ele>
        <time>2010-06-13T08:00:57Z</time>
      </trkpt>
      <trkpt lat="45.06331" lon="5.30132">
        <ele>185.30200195312</ele>
        <time>2010-06-13T08:01:06Z</time>
      </trkpt>
      <trkpt lat="45.06312" lon="5.30174">
        <ele>186.10099792481</ele>
        <time>2010-06-13T08:01:13Z</time>
      </trkpt>
      <trkpt lat="45.06301" lon="5.30198">
        <ele>186.5950012207</ele>
        <time>2010-06-13T08:01:17Z</time>
      </trkpt>
      <trkpt lat="45.06282" lon="5.3025">
        <ele>187.39399719238</ele>
        <time>2010-06-13T08:01:25Z</time>
      </trkpt>
      <trkpt lat="45.06269" lon="5.30295">
        <ele>187.19700622559</ele>
        <time>2010-06-13T08:01:31Z</time>
      </trkpt>
      <trkpt lat="45.06265" lon="5.30318">
        <ele>187.56300354004</ele>
        <time>2010-06-13T08:01:34Z</time>
      </trkpt>
      <trkpt lat="45.06261" lon="5.30337">
        <ele>187.8630065918</ele>
        <time>2010-06-13T08:01:37Z</time>
      </trkpt>
      <trkpt lat="45.06251" lon="5.30361">
        <ele>188.16000366211</ele>
        <time>2010-06-13T08:01:42Z</time>
      </trkpt>
      <trkpt lat="45.06244" lon="5.30375">
        <ele>188.18800354004</ele>
        <time>2010-06-13T08:01:45Z</time>
      </trkpt>
      <trkpt lat="45.06239" lon="5.30392">
        <ele>188.55900573731</ele>
        <time>2010-06-13T08:01:50Z</time>
      </trkpt>
      <trkpt lat="45.06239" lon="5.30392">
        <ele>187.21800231934</ele>
        <time>2010-06-13T08:01:51Z</time>
      </trkpt>
      <trkpt lat="45.06237" lon="5.30395">
        <ele>188.78900146484</ele>
        <time>2010-06-13T08:01:57Z</time>
      </trkpt>
      <trkpt lat="45.06228" lon="5.3041">
        <ele>189.00300598144</ele>
        <time>2010-06-13T08:02:03Z</time>
      </trkpt>
      <trkpt lat="45.0622" lon="5.30423">
        <ele>189.03199768066</ele>
        <time>2010-06-13T08:02:09Z</time>
      </trkpt>
      <trkpt lat="45.06214" lon="5.30434">
        <ele>189.30799865723</ele>
        <time>2010-06-13T08:02:14Z</time>
      </trkpt>
      <trkpt lat="45.06202" lon="5.30447">
        <ele>189.13999938965</ele>
        <time>2010-06-13T08:02:18Z</time>
      </trkpt>
      <trkpt lat="45.06187" lon="5.30474">
        <ele>189.72300720215</ele>
        <time>2010-06-13T08:02:23Z</time>
      </trkpt>
      <trkpt lat="45.06164" lon="5.3052">
        <ele>190.05000305176</ele>
        <time>2010-06-13T08:02:30Z</time>
      </trkpt>
      <trkpt lat="45.06148" lon="5.30577">
        <ele>190.43899536133</ele>
        <time>2010-06-13T08:02:37Z</time>
      </trkpt>
      <trkpt lat="45.06125" lon="5.30627">
        <ele>191.04800415039</ele>
        <time>2010-06-13T08:02:44Z</time>
      </trkpt>
      <trkpt lat="45.06096" lon="5.30686">
        <ele>191.72900390625</ele>
        <time>2010-06-13T08:02:52Z</time>
      </trkpt>
      <trkpt lat="45.06065" lon="5.30732">
        <ele>192.20899963379</ele>
        <time>2010-06-13T08:02:59Z</time>
      </trkpt>
      <trkpt lat="45.06031" lon="5.30771">
        <ele>192.47799682617</ele>
        <time>2010-06-13T08:03:06Z</time>
      </trkpt>
      <trkpt lat="45.05988" lon="5.30805">
        <ele>193.42799377441</ele>
        <time>2010-06-13T08:03:14Z</time>
      </trkpt>
      <trkpt lat="45.0596" lon="5.30822">
        <ele>193.71099853516</ele>
        <time>2010-06-13T08:03:19Z</time>
      </trkpt>
      <trkpt lat="45.05919" lon="5.30829">
        <ele>194.81100463867</ele>
        <time>2010-06-13T08:03:26Z</time>
      </trkpt>
      <trkpt lat="45.05893" lon="5.30843">
        <ele>195.26300048828</ele>
        <time>2010-06-13T08:03:31Z</time>
      </trkpt>
      <trkpt lat="45.05872" lon="5.3086">
        <ele>195.2200012207</ele>
        <time>2010-06-13T08:03:35Z</time>
      </trkpt>
      <trkpt lat="45.05848" lon="5.30869">
        <ele>195.29899597168</ele>
        <time>2010-06-13T08:03:39Z</time>
      </trkpt>
      <trkpt lat="45.05816" lon="5.30864">
        <ele>195.70700073242</ele>
        <time>2010-06-13T08:03:44Z</time>
      </trkpt>
      <trkpt lat="45.05765" lon="5.3084">
        <ele>196.72999572754</ele>
        <time>2010-06-13T08:03:52Z</time>
      </trkpt>
      <trkpt lat="45.05711" lon="5.30821">
        <ele>197.16999816894</ele>
        <time>2010-06-13T08:04:00Z</time>
      </trkpt>
      <trkpt lat="45.05704" lon="5.30818">
        <ele>197.15400695801</ele>
        <time>2010-06-13T08:04:01Z</time>
      </trkpt>
      <trkpt lat="45.05663" lon="5.30817">
        <ele>197.92199707031</ele>
        <time>2010-06-13T08:04:07Z</time>
      </trkpt>
      <trkpt lat="45.05622" lon="5.30832">
        <ele>198.53900146484</ele>
        <time>2010-06-13T08:04:13Z</time>
      </trkpt>
      <trkpt lat="45.05584" lon="5.30851">
        <ele>199.06100463867</ele>
        <time>2010-06-13T08:04:19Z</time>
      </trkpt>
      <trkpt lat="45.05558" lon="5.3088">
        <ele>199.38600158691</ele>
        <time>2010-06-13T08:04:24Z</time>
      </trkpt>
      <trkpt lat="45.05531" lon="5.30943">
        <ele>199.86399841309</ele>
        <time>2010-06-13T08:04:32Z</time>
      </trkpt>
      <trkpt lat="45.0551" lon="5.30997">
        <ele>201.48100280762</ele>
        <time>2010-06-13T08:04:39Z</time>
      </trkpt>
      <trkpt lat="45.05488" lon="5.31057">
        <ele>202.33799743652</ele>
        <time>2010-06-13T08:04:47Z</time>
      </trkpt>
      <trkpt lat="45.0547" lon="5.31115">
        <ele>203.53199768066</ele>
        <time>2010-06-13T08:04:55Z</time>
      </trkpt>
      <trkpt lat="45.05462" lon="5.31161">
        <ele>204.33999633789</ele>
        <time>2010-06-13T08:05:01Z</time>
      </trkpt>
      <trkpt lat="45.0546" lon="5.3123">
        <ele>205.36099243164</ele>
        <time>2010-06-13T08:05:09Z</time>
      </trkpt>
      <trkpt lat="45.05455" lon="5.3131">
        <ele>206.5059967041</ele>
        <time>2010-06-13T08:05:18Z</time>
      </trkpt>
      <trkpt lat="45.05455" lon="5.31319">
        <ele>206.55799865723</ele>
        <time>2010-06-13T08:05:19Z</time>
      </trkpt>
      <trkpt lat="45.0547" lon="5.31379">
        <ele>207.99000549316</ele>
        <time>2010-06-13T08:05:26Z</time>
      </trkpt>
      <trkpt lat="45.05502" lon="5.31467">
        <ele>209.40400695801</ele>
        <time>2010-06-13T08:05:37Z</time>
      </trkpt>
      <trkpt lat="45.0552" lon="5.31524">
        <ele>210.22700500488</ele>
        <time>2010-06-13T08:05:44Z</time>
      </trkpt>
      <trkpt lat="45.05526" lon="5.31573">
        <ele>211.21600341797</ele>
        <time>2010-06-13T08:05:50Z</time>
      </trkpt>
      <trkpt lat="45.05526" lon="5.31646">
        <ele>212.41000366211</ele>
        <time>2010-06-13T08:05:59Z</time>
      </trkpt>
      <trkpt lat="45.05523" lon="5.31709">
        <ele>213.53700256348</ele>
        <time>2010-06-13T08:06:07Z</time>
      </trkpt>
      <trkpt lat="45.05521" lon="5.31766">
        <ele>214.37100219727</ele>
        <time>2010-06-13T08:06:14Z</time>
      </trkpt>
      <trkpt lat="45.05521" lon="5.3179">
        <ele>214.73899841309</ele>
        <time>2010-06-13T08:06:17Z</time>
      </trkpt>
      <trkpt lat="45.05531" lon="5.31829">
        <ele>215.40800476074</ele>
        <time>2010-06-13T08:06:22Z</time>
      </trkpt>
      <trkpt lat="45.05547" lon="5.3185">
        <ele>215.74499511719</ele>
        <time>2010-06-13T08:06:26Z</time>
      </trkpt>
      <trkpt lat="45.05563" lon="5.31859">
        <ele>216.38999938965</ele>
        <time>2010-06-13T08:06:29Z</time>
      </trkpt>
      <trkpt lat="45.0561" lon="5.31874">
        <ele>217.50999450684</ele>
        <time>2010-06-13T08:06:37Z</time>
      </trkpt>
      <trkpt lat="45.05652" lon="5.31887">
        <ele>218.04800415039</ele>
        <time>2010-06-13T08:06:44Z</time>
      </trkpt>
      <trkpt lat="45.05693" lon="5.31903">
        <ele>218.54899597168</ele>
        <time>2010-06-13T08:06:51Z</time>
      </trkpt>
      <trkpt lat="45.05699" lon="5.31906">
        <ele>218.58599853516</ele>
        <time>2010-06-13T08:06:52Z</time>
      </trkpt>
      <trkpt lat="45.05735" lon="5.3194">
        <ele>218.70199584961</ele>
        <time>2010-06-13T08:06:59Z</time>
      </trkpt>
      <trkpt lat="45.05774" lon="5.31999">
        <ele>218.75399780273</ele>
        <time>2010-06-13T08:07:08Z</time>
      </trkpt>
      <trkpt lat="45.05809" lon="5.32053">
        <ele>219.11999511719</ele>
        <time>2010-06-13T08:07:16Z</time>
      </trkpt>
      <trkpt lat="45.05819" lon="5.32099">
        <ele>218.31500244141</ele>
        <time>2010-06-13T08:07:21Z</time>
      </trkpt>
      <trkpt lat="45.05819" lon="5.32109">
        <ele>218.41499328613</ele>
        <time>2010-06-13T08:07:22Z</time>
      </trkpt>
      <trkpt lat="45.05812" lon="5.32171">
        <ele>218.06599426269</ele>
        <time>2010-06-13T08:07:28Z</time>
      </trkpt>
      <trkpt lat="45.05819" lon="5.32213">
        <ele>217.73599243164</ele>
        <time>2010-06-13T08:07:32Z</time>
      </trkpt>
      <trkpt lat="45.05833" lon="5.32239">
        <ele>216.66999816894</ele>
        <time>2010-06-13T08:07:35Z</time>
      </trkpt>
      <trkpt lat="45.0584" lon="5.32246">
        <ele>216.52400207519</ele>
        <time>2010-06-13T08:07:36Z</time>
      </trkpt>
      <trkpt lat="45.05861" lon="5.32267">
        <ele>215.85800170898</ele>
        <time>2010-06-13T08:07:39Z</time>
      </trkpt>
      <trkpt lat="45.05887" lon="5.32312">
        <ele>215.33999633789</ele>
        <time>2010-06-13T08:07:44Z</time>
      </trkpt>
      <trkpt lat="45.05895" lon="5.32344">
        <ele>215.07000732422</ele>
        <time>2010-06-13T08:07:47Z</time>
      </trkpt>
      <trkpt lat="45.05901" lon="5.32412">
        <ele>213.83299255371</ele>
        <time>2010-06-13T08:07:53Z</time>
      </trkpt>
      <trkpt lat="45.059" lon="5.32518">
        <ele>212.82099914551</ele>
        <time>2010-06-13T08:08:02Z</time>
      </trkpt>
      <trkpt lat="45.05893" lon="5.32566">
        <ele>212.04400634766</ele>
        <time>2010-06-13T08:08:06Z</time>
      </trkpt>
      <trkpt lat="45.05887" lon="5.32588">
        <ele>211.69999694824</ele>
        <time>2010-06-13T08:08:08Z</time>
      </trkpt>
      <trkpt lat="45.05886" lon="5.32636">
        <ele>211.32099914551</ele>
        <time>2010-06-13T08:08:12Z</time>
      </trkpt>
      <trkpt lat="45.05903" lon="5.32661">
        <ele>210.75399780273</ele>
        <time>2010-06-13T08:08:15Z</time>
      </trkpt>
      <trkpt lat="45.05927" lon="5.3267">
        <ele>210.22399902344</ele>
        <time>2010-06-13T08:08:18Z</time>
      </trkpt>
      <trkpt lat="45.05961" lon="5.32683">
        <ele>209.21299743652</ele>
        <time>2010-06-13T08:08:22Z</time>
      </trkpt>
      <trkpt lat="45.05969" lon="5.32689">
        <ele>209.08700561523</ele>
        <time>2010-06-13T08:08:23Z</time>
      </trkpt>
      <trkpt lat="45.06017" lon="5.32741">
        <ele>208.07099914551</ele>
        <time>2010-06-13T08:08:30Z</time>
      </trkpt>
      <trkpt lat="45.06045" lon="5.32789">
        <ele>207.47200012207</ele>
        <time>2010-06-13T08:08:35Z</time>
      </trkpt>
      <trkpt lat="45.06068" lon="5.32843">
        <ele>206.74299621582</ele>
        <time>2010-06-13T08:08:40Z</time>
      </trkpt>
      <trkpt lat="45.06075" lon="5.32892">
        <ele>205.8809967041</ele>
        <time>2010-06-13T08:08:44Z</time>
      </trkpt>
      <trkpt lat="45.06075" lon="5.32956">
        <ele>204.99499511719</ele>
        <time>2010-06-13T08:08:49Z</time>
      </trkpt>
      <trkpt lat="45.06085" lon="5.33002">
        <ele>204.56100463867</ele>
        <time>2010-06-13T08:08:53Z</time>
      </trkpt>
      <trkpt lat="45.06115" lon="5.33083">
        <ele>203.13800048828</ele>
        <time>2010-06-13T08:09:01Z</time>
      </trkpt>
      <trkpt lat="45.06133" lon="5.3316">
        <ele>202.09700012207</ele>
        <time>2010-06-13T08:09:08Z</time>
      </trkpt>
      <trkpt lat="45.06152" lon="5.33225">
        <ele>201.60499572754</ele>
        <time>2010-06-13T08:09:14Z</time>
      </trkpt>
      <trkpt lat="45.06181" lon="5.33312">
        <ele>200.16400146484</ele>
        <time>2010-06-13T08:09:22Z</time>
      </trkpt>
      <trkpt lat="45.06208" lon="5.3337">
        <ele>199.84300231934</ele>
        <time>2010-06-13T08:09:28Z</time>
      </trkpt>
      <trkpt lat="45.06241" lon="5.33416">
        <ele>200.07699584961</ele>
        <time>2010-06-13T08:09:34Z</time>
      </trkpt>
      <trkpt lat="45.06246" lon="5.33423">
        <ele>200.12300109863</ele>
        <time>2010-06-13T08:09:35Z</time>
      </trkpt>
      <trkpt lat="45.06269" lon="5.33435">
        <ele>200.38600158691</ele>
        <time>2010-06-13T08:09:39Z</time>
      </trkpt>
      <trkpt lat="45.06276" lon="5.33437">
        <ele>200.05900573731</ele>
        <time>2010-06-13T08:09:40Z</time>
      </trkpt>
      <trkpt lat="45.06288" lon="5.33443">
        <ele>199.64700317383</ele>
        <time>2010-06-13T08:09:42Z</time>
      </trkpt>
      <trkpt lat="45.06325" lon="5.3345">
        <ele>198.31799316406</ele>
        <time>2010-06-13T08:09:47Z</time>
      </trkpt>
      <trkpt lat="45.06356" lon="5.33462">
        <ele>197.21200561523</ele>
        <time>2010-06-13T08:09:51Z</time>
      </trkpt>
      <trkpt lat="45.06403" lon="5.33498">
        <ele>195.81300354004</ele>
        <time>2010-06-13T08:09:57Z</time>
      </trkpt>
      <trkpt lat="45.06432" lon="5.33527">
        <ele>195.25500488281</ele>
        <time>2010-06-13T08:10:01Z</time>
      </trkpt>
      <trkpt lat="45.06448" lon="5.33566">
        <ele>194.67199707031</ele>
        <time>2010-06-13T08:10:05Z</time>
      </trkpt>
      <trkpt lat="45.06445" lon="5.336">
        <ele>194.07899475098</ele>
        <time>2010-06-13T08:10:08Z</time>
      </trkpt>
      <trkpt lat="45.06439" lon="5.33619">
        <ele>193.78700256348</ele>
        <time>2010-06-13T08:10:10Z</time>
      </trkpt>
      <trkpt lat="45.06416" lon="5.33681">
        <ele>193.64700317383</ele>
        <time>2010-06-13T08:10:17Z</time>
      </trkpt>
      <trkpt lat="45.06402" lon="5.33711">
        <ele>193.83200073242</ele>
        <time>2010-06-13T08:10:21Z</time>
      </trkpt>
      <trkpt lat="45.06382" lon="5.33748">
        <ele>193.65400695801</ele>
        <time>2010-06-13T08:10:26Z</time>
      </trkpt>
      <trkpt lat="45.06348" lon="5.33808">
        <ele>194.11599731445</ele>
        <time>2010-06-13T08:10:34Z</time>
      </trkpt>
      <trkpt lat="45.06313" lon="5.33871">
        <ele>194.46899414062</ele>
        <time>2010-06-13T08:10:43Z</time>
      </trkpt>
      <trkpt lat="45.0629" lon="5.33928">
        <ele>195.14500427246</ele>
        <time>2010-06-13T08:10:50Z</time>
      </trkpt>
      <trkpt lat="45.0626" lon="5.34015">
        <ele>195.0299987793</ele>
        <time>2010-06-13T08:11:00Z</time>
      </trkpt>
      <trkpt lat="45.06239" lon="5.34072">
        <ele>195.53500366211</ele>
        <time>2010-06-13T08:11:07Z</time>
      </trkpt>
      <trkpt lat="45.06229" lon="5.34111">
        <ele>196.24200439453</ele>
        <time>2010-06-13T08:11:12Z</time>
      </trkpt>
      <trkpt lat="45.06226" lon="5.34124">
        <ele>196.41499328613</ele>
        <time>2010-06-13T08:11:14Z</time>
      </trkpt>
      <trkpt lat="45.06223" lon="5.34153">
        <ele>196.55700683594</ele>
        <time>2010-06-13T08:11:18Z</time>
      </trkpt>
      <trkpt lat="45.06214" lon="5.34191">
        <ele>197.57299804688</ele>
        <time>2010-06-13T08:11:23Z</time>
      </trkpt>
      <trkpt lat="45.06211" lon="5.34205">
        <ele>197.60099792481</ele>
        <time>2010-06-13T08:11:25Z</time>
      </trkpt>
      <trkpt lat="45.06203" lon="5.34239">
        <ele>198.40600585938</ele>
        <time>2010-06-13T08:11:30Z</time>
      </trkpt>
      <trkpt lat="45.06183" lon="5.34296">
        <ele>200.24200439453</ele>
        <time>2010-06-13T08:11:39Z</time>
      </trkpt>
      <trkpt lat="45.06179" lon="5.34307">
        <ele>200.75300598144</ele>
        <time>2010-06-13T08:11:41Z</time>
      </trkpt>
      <trkpt lat="45.06164" lon="5.34333">
        <ele>201.5059967041</ele>
        <time>2010-06-13T08:11:46Z</time>
      </trkpt>
      <trkpt lat="45.06149" lon="5.34354">
        <ele>201.2799987793</ele>
        <time>2010-06-13T08:11:50Z</time>
      </trkpt>
      <trkpt lat="45.06142" lon="5.34368">
        <ele>200.94900512695</ele>
        <time>2010-06-13T08:11:52Z</time>
      </trkpt>
      <trkpt lat="45.06117" lon="5.34418">
        <ele>197.81900024414</ele>
        <time>2010-06-13T08:11:58Z</time>
      </trkpt>
      <trkpt lat="45.06108" lon="5.34449">
        <ele>198.07000732422</ele>
        <time>2010-06-13T08:12:02Z</time>
      </trkpt>
      <trkpt lat="45.06102" lon="5.3447">
        <ele>198.60000610352</ele>
        <time>2010-06-13T08:12:06Z</time>
      </trkpt>
      <trkpt lat="45.061" lon="5.34501">
        <ele>199.96800231934</ele>
        <time>2010-06-13T08:12:12Z</time>
      </trkpt>
      <trkpt lat="45.06099" lon="5.34527">
        <ele>201.68699645996</ele>
        <time>2010-06-13T08:12:17Z</time>
      </trkpt>
      <trkpt lat="45.06097" lon="5.34545">
        <ele>201.85699462891</ele>
        <time>2010-06-13T08:12:20Z</time>
      </trkpt>
      <trkpt lat="45.06089" lon="5.34574">
        <ele>202.375</ele>
        <time>2010-06-13T08:12:25Z</time>
      </trkpt>
      <trkpt lat="45.06086" lon="5.34597">
        <ele>202.17799377441</ele>
        <time>2010-06-13T08:12:29Z</time>
      </trkpt>
      <trkpt lat="45.06073" lon="5.3462">
        <ele>203.34700012207</ele>
        <time>2010-06-13T08:12:33Z</time>
      </trkpt>
      <trkpt lat="45.06062" lon="5.34637">
        <ele>204.88900756836</ele>
        <time>2010-06-13T08:12:37Z</time>
      </trkpt>
      <trkpt lat="45.06058" lon="5.34641">
        <ele>205.30099487305</ele>
        <time>2010-06-13T08:12:39Z</time>
      </trkpt>
      <trkpt lat="45.06055" lon="5.34654">
        <ele>206.40899658203</ele>
        <time>2010-06-13T08:12:42Z</time>
      </trkpt>
      <trkpt lat="45.06043" lon="5.34676">
        <ele>207.2619934082</ele>
        <time>2010-06-13T08:12:46Z</time>
      </trkpt>
      <trkpt lat="45.06042" lon="5.34698">
        <ele>207.81799316406</ele>
        <time>2010-06-13T08:12:49Z</time>
      </trkpt>
      <trkpt lat="45.06043" lon="5.34712">
        <ele>208.07899475098</ele>
        <time>2010-06-13T08:12:51Z</time>
      </trkpt>
      <trkpt lat="45.06052" lon="5.34737">
        <ele>208.4109954834</ele>
        <time>2010-06-13T08:12:55Z</time>
      </trkpt>
      <trkpt lat="45.06081" lon="5.34775">
        <ele>208.63800048828</ele>
        <time>2010-06-13T08:13:02Z</time>
      </trkpt>
      <trkpt lat="45.06112" lon="5.34815">
        <ele>210.04499816894</ele>
        <time>2010-06-13T08:13:09Z</time>
      </trkpt>
      <trkpt lat="45.06146" lon="5.34853">
        <ele>210.81799316406</ele>
        <time>2010-06-13T08:13:16Z</time>
      </trkpt>
      <trkpt lat="45.06182" lon="5.34892">
        <ele>212.13999938965</ele>
        <time>2010-06-13T08:13:23Z</time>
      </trkpt>
      <trkpt lat="45.06193" lon="5.34899">
        <ele>212.50500488281</ele>
        <time>2010-06-13T08:13:25Z</time>
      </trkpt>
      <trkpt lat="45.0624" lon="5.34913">
        <ele>213.53100585938</ele>
        <time>2010-06-13T08:13:32Z</time>
      </trkpt>
      <trkpt lat="45.06291" lon="5.34936">
        <ele>215.0359954834</ele>
        <time>2010-06-13T08:13:40Z</time>
      </trkpt>
      <trkpt lat="45.06322" lon="5.34958">
        <ele>216.06799316406</ele>
        <time>2010-06-13T08:13:45Z</time>
      </trkpt>
      <trkpt lat="45.06343" lon="5.34974">
        <ele>216.63200378418</ele>
        <time>2010-06-13T08:13:49Z</time>
      </trkpt>
      <trkpt lat="45.06358" lon="5.34989">
        <ele>217.26899719238</ele>
        <time>2010-06-13T08:13:52Z</time>
      </trkpt>
      <trkpt lat="45.06385" lon="5.35026">
        <ele>218.11500549316</ele>
        <time>2010-06-13T08:13:57Z</time>
      </trkpt>
      <trkpt lat="45.06414" lon="5.35104">
        <ele>219.2799987793</ele>
        <time>2010-06-13T08:14:06Z</time>
      </trkpt>
      <trkpt lat="45.06437" lon="5.35167">
        <ele>220.36700439453</ele>
        <time>2010-06-13T08:14:14Z</time>
      </trkpt>
      <trkpt lat="45.06455" lon="5.35227">
        <ele>221.77799987793</ele>
        <time>2010-06-13T08:14:22Z</time>
      </trkpt>
      <trkpt lat="45.0647" lon="5.3529">
        <ele>223.29200744629</ele>
        <time>2010-06-13T08:14:30Z</time>
      </trkpt>
      <trkpt lat="45.06479" lon="5.3532">
        <ele>223.85699462891</ele>
        <time>2010-06-13T08:14:34Z</time>
      </trkpt>
      <trkpt lat="45.06483" lon="5.35343">
        <ele>224.42500305176</ele>
        <time>2010-06-13T08:14:37Z</time>
      </trkpt>
      <trkpt lat="45.06485" lon="5.35376">
        <ele>224.77900695801</ele>
        <time>2010-06-13T08:14:41Z</time>
      </trkpt>
      <trkpt lat="45.06497" lon="5.35404">
        <ele>224.80000305176</ele>
        <time>2010-06-13T08:14:45Z</time>
      </trkpt>
      <trkpt lat="45.06514" lon="5.35416">
        <ele>224.75399780273</ele>
        <time>2010-06-13T08:14:48Z</time>
      </trkpt>
      <trkpt lat="45.06536" lon="5.35443">
        <ele>224.94700622559</ele>
        <time>2010-06-13T08:14:53Z</time>
      </trkpt>
      <trkpt lat="45.06536" lon="5.35462">
        <ele>225.00100708008</ele>
        <time>2010-06-13T08:14:55Z</time>
      </trkpt>
      <trkpt lat="45.0652" lon="5.35545">
        <ele>225.00799560547</ele>
        <time>2010-06-13T08:15:04Z</time>
      </trkpt>
      <trkpt lat="45.06509" lon="5.3562">
        <ele>225.38600158691</ele>
        <time>2010-06-13T08:15:12Z</time>
      </trkpt>
      <trkpt lat="45.06503" lon="5.35658">
        <ele>225.98699951172</ele>
        <time>2010-06-13T08:15:16Z</time>
      </trkpt>
      <trkpt lat="45.06507" lon="5.35708">
        <ele>226.4640045166</ele>
        <time>2010-06-13T08:15:21Z</time>
      </trkpt>
      <trkpt lat="45.06525" lon="5.35743">
        <ele>226.46699523926</ele>
        <time>2010-06-13T08:15:25Z</time>
      </trkpt>
      <trkpt lat="45.06549" lon="5.35765">
        <ele>226.82699584961</ele>
        <time>2010-06-13T08:15:29Z</time>
      </trkpt>
      <trkpt lat="45.06556" lon="5.35768">
        <ele>226.91799926758</ele>
        <time>2010-06-13T08:15:30Z</time>
      </trkpt>
      <trkpt lat="45.06599" lon="5.35786">
        <ele>226.82899475098</ele>
        <time>2010-06-13T08:15:36Z</time>
      </trkpt>
      <trkpt lat="45.06624" lon="5.35814">
        <ele>226.32699584961</ele>
        <time>2010-06-13T08:15:40Z</time>
      </trkpt>
      <trkpt lat="45.06628" lon="5.35823">
        <ele>226.31799316406</ele>
        <time>2010-06-13T08:15:41Z</time>
      </trkpt>
      <trkpt lat="45.06651" lon="5.35918">
        <ele>227.02900695801</ele>
        <time>2010-06-13T08:15:50Z</time>
      </trkpt>
      <trkpt lat="45.06657" lon="5.35994">
        <ele>227.44400024414</ele>
        <time>2010-06-13T08:15:57Z</time>
      </trkpt>
      <trkpt lat="45.06655" lon="5.36058">
        <ele>227.79600524902</ele>
        <time>2010-06-13T08:16:03Z</time>
      </trkpt>
      <trkpt lat="45.06647" lon="5.36119">
        <ele>228.43600463867</ele>
        <time>2010-06-13T08:16:09Z</time>
      </trkpt>
      <trkpt lat="45.06629" lon="5.36217">
        <ele>228.62699890137</ele>
        <time>2010-06-13T08:16:19Z</time>
      </trkpt>
      <trkpt lat="45.06615" lon="5.36296">
        <ele>228.90199279785</ele>
        <time>2010-06-13T08:16:27Z</time>
      </trkpt>
      <trkpt lat="45.06608" lon="5.36356">
        <ele>229.47399902344</ele>
        <time>2010-06-13T08:16:33Z</time>
      </trkpt>
      <trkpt lat="45.06614" lon="5.36418">
        <ele>229.49899291992</ele>
        <time>2010-06-13T08:16:39Z</time>
      </trkpt>
      <trkpt lat="45.06625" lon="5.3648">
        <ele>229.75300598144</ele>
        <time>2010-06-13T08:16:45Z</time>
      </trkpt>
      <trkpt lat="45.06631" lon="5.36521">
        <ele>229.96000671387</ele>
        <time>2010-06-13T08:16:49Z</time>
      </trkpt>
      <trkpt lat="45.0665" lon="5.36551">
        <ele>230.11599731445</ele>
        <time>2010-06-13T08:16:53Z</time>
      </trkpt>
      <trkpt lat="45.06663" lon="5.3656">
        <ele>229.96899414062</ele>
        <time>2010-06-13T08:16:55Z</time>
      </trkpt>
      <trkpt lat="45.06696" lon="5.36603">
        <ele>230.3450012207</ele>
        <time>2010-06-13T08:17:01Z</time>
      </trkpt>
      <trkpt lat="45.06714" lon="5.3665">
        <ele>230.32899475098</ele>
        <time>2010-06-13T08:17:06Z</time>
      </trkpt>
      <trkpt lat="45.06718" lon="5.36671">
        <ele>230.38999938965</ele>
        <time>2010-06-13T08:17:08Z</time>
      </trkpt>
      <trkpt lat="45.0672" lon="5.36736">
        <ele>230.78799438477</ele>
        <time>2010-06-13T08:17:14Z</time>
      </trkpt>
      <trkpt lat="45.06711" lon="5.36789">
        <ele>230.71200561523</ele>
        <time>2010-06-13T08:17:19Z</time>
      </trkpt>
      <trkpt lat="45.06684" lon="5.36841">
        <ele>231.6130065918</ele>
        <time>2010-06-13T08:17:25Z</time>
      </trkpt>
      <trkpt lat="45.06636" lon="5.36915">
        <ele>231.7859954834</ele>
        <time>2010-06-13T08:17:34Z</time>
      </trkpt>
      <trkpt lat="45.06604" lon="5.36975">
        <ele>231.99600219727</ele>
        <time>2010-06-13T08:17:41Z</time>
      </trkpt>
      <trkpt lat="45.06594" lon="5.36991">
        <ele>232.21800231934</ele>
        <time>2010-06-13T08:17:43Z</time>
      </trkpt>
      <trkpt lat="45.06567" lon="5.37038">
        <ele>232.55700683594</ele>
        <time>2010-06-13T08:17:49Z</time>
      </trkpt>
      <trkpt lat="45.06525" lon="5.3709">
        <ele>233.2440032959</ele>
        <time>2010-06-13T08:17:57Z</time>
      </trkpt>
      <trkpt lat="45.06488" lon="5.37133">
        <ele>233.35600280762</ele>
        <time>2010-06-13T08:18:04Z</time>
      </trkpt>
      <trkpt lat="45.06484" lon="5.37139">
        <ele>233.38900756836</ele>
        <time>2010-06-13T08:18:05Z</time>
      </trkpt>
      <trkpt lat="45.06471" lon="5.37172">
        <ele>234.02699279785</ele>
        <time>2010-06-13T08:18:09Z</time>
      </trkpt>
      <trkpt lat="45.06474" lon="5.372">
        <ele>234.17500305176</ele>
        <time>2010-06-13T08:18:12Z</time>
      </trkpt>
      <trkpt lat="45.06477" lon="5.3721">
        <ele>234.21699523926</ele>
        <time>2010-06-13T08:18:13Z</time>
      </trkpt>
      <trkpt lat="45.06495" lon="5.37252">
        <ele>234.60800170898</ele>
        <time>2010-06-13T08:18:18Z</time>
      </trkpt>
      <trkpt lat="45.06517" lon="5.37276">
        <ele>234.64700317383</ele>
        <time>2010-06-13T08:18:22Z</time>
      </trkpt>
      <trkpt lat="45.06564" lon="5.37299">
        <ele>234.92199707031</ele>
        <time>2010-06-13T08:18:29Z</time>
      </trkpt>
      <trkpt lat="45.06627" lon="5.37323">
        <ele>235.82699584961</ele>
        <time>2010-06-13T08:18:38Z</time>
      </trkpt>
      <trkpt lat="45.06663" lon="5.37336">
        <ele>235.77600097656</ele>
        <time>2010-06-13T08:18:43Z</time>
      </trkpt>
      <trkpt lat="45.06689" lon="5.37371">
        <ele>235.88900756836</ele>
        <time>2010-06-13T08:18:48Z</time>
      </trkpt>
      <trkpt lat="45.06696" lon="5.37389">
        <ele>236.08799743652</ele>
        <time>2010-06-13T08:18:50Z</time>
      </trkpt>
      <trkpt lat="45.0671" lon="5.37474">
        <ele>236.69799804688</ele>
        <time>2010-06-13T08:18:59Z</time>
      </trkpt>
      <trkpt lat="45.06709" lon="5.37541">
        <ele>236.90400695801</ele>
        <time>2010-06-13T08:19:06Z</time>
      </trkpt>
      <trkpt lat="45.06707" lon="5.37619">
        <ele>237.53300476074</ele>
        <time>2010-06-13T08:19:14Z</time>
      </trkpt>
      <trkpt lat="45.06716" lon="5.37687">
        <ele>238.24299621582</ele>
        <time>2010-06-13T08:19:21Z</time>
      </trkpt>
      <trkpt lat="45.06721" lon="5.37742">
        <ele>238.99800109863</ele>
        <time>2010-06-13T08:19:27Z</time>
      </trkpt>
      <trkpt lat="45.06717" lon="5.37809">
        <ele>240.99099731445</ele>
        <time>2010-06-13T08:19:35Z</time>
      </trkpt>
      <trkpt lat="45.06718" lon="5.37867">
        <ele>241.89700317383</ele>
        <time>2010-06-13T08:19:42Z</time>
      </trkpt>
      <trkpt lat="45.06724" lon="5.3795">
        <ele>243.47599792481</ele>
        <time>2010-06-13T08:19:52Z</time>
      </trkpt>
      <trkpt lat="45.06731" lon="5.38021">
        <ele>244.9049987793</ele>
        <time>2010-06-13T08:20:01Z</time>
      </trkpt>
      <trkpt lat="45.06744" lon="5.38082">
        <ele>246.68800354004</ele>
        <time>2010-06-13T08:20:09Z</time>
      </trkpt>
      <trkpt lat="45.06761" lon="5.38142">
        <ele>247.55400085449</ele>
        <time>2010-06-13T08:20:17Z</time>
      </trkpt>
      <trkpt lat="45.06772" lon="5.38189">
        <ele>248.42799377441</ele>
        <time>2010-06-13T08:20:23Z</time>
      </trkpt>
      <trkpt lat="45.06772" lon="5.38257">
        <ele>249.71600341797</ele>
        <time>2010-06-13T08:20:31Z</time>
      </trkpt>
      <trkpt lat="45.06776" lon="5.3831">
        <ele>250.68299865723</ele>
        <time>2010-06-13T08:20:37Z</time>
      </trkpt>
      <trkpt lat="45.06789" lon="5.3838">
        <ele>252.07699584961</ele>
        <time>2010-06-13T08:20:45Z</time>
      </trkpt>
      <trkpt lat="45.068" lon="5.38431">
        <ele>252.99299621582</ele>
        <time>2010-06-13T08:20:51Z</time>
      </trkpt>
      <trkpt lat="45.06806" lon="5.38483">
        <ele>253.69799804688</ele>
        <time>2010-06-13T08:20:57Z</time>
      </trkpt>
      <trkpt lat="45.068" lon="5.38535">
        <ele>254.56500244141</ele>
        <time>2010-06-13T08:21:03Z</time>
      </trkpt>
      <trkpt lat="45.06799" lon="5.38543">
        <ele>254.60299682617</ele>
        <time>2010-06-13T08:21:04Z</time>
      </trkpt>
      <trkpt lat="45.06779" lon="5.38597">
        <ele>256.11199951172</ele>
        <time>2010-06-13T08:21:11Z</time>
      </trkpt>
      <trkpt lat="45.06763" lon="5.38652">
        <ele>257.69198608398</ele>
        <time>2010-06-13T08:21:18Z</time>
      </trkpt>
      <trkpt lat="45.06752" lon="5.38708">
        <ele>258.82299804688</ele>
        <time>2010-06-13T08:21:25Z</time>
      </trkpt>
      <trkpt lat="45.06744" lon="5.38731">
        <ele>259.59799194336</ele>
        <time>2010-06-13T08:21:28Z</time>
      </trkpt>
      <trkpt lat="45.06739" lon="5.38765">
        <ele>260.3630065918</ele>
        <time>2010-06-13T08:21:32Z</time>
      </trkpt>
      <trkpt lat="45.06738" lon="5.3883">
        <ele>261.60998535156</ele>
        <time>2010-06-13T08:21:39Z</time>
      </trkpt>
      <trkpt lat="45.06736" lon="5.38839">
        <ele>261.88400268555</ele>
        <time>2010-06-13T08:21:40Z</time>
      </trkpt>
      <trkpt lat="45.06718" lon="5.38877">
        <ele>262.82400512695</ele>
        <time>2010-06-13T08:21:45Z</time>
      </trkpt>
      <trkpt lat="45.06701" lon="5.38885">
        <ele>263.23901367188</ele>
        <time>2010-06-13T08:21:48Z</time>
      </trkpt>
      <trkpt lat="45.06688" lon="5.38886">
        <ele>263.55700683594</ele>
        <time>2010-06-13T08:21:50Z</time>
      </trkpt>
      <trkpt lat="45.06665" lon="5.38898">
        <ele>264.57998657227</ele>
        <time>2010-06-13T08:21:54Z</time>
      </trkpt>
      <trkpt lat="45.06655" lon="5.38908">
        <ele>264.81298828125</ele>
        <time>2010-06-13T08:21:56Z</time>
      </trkpt>
      <trkpt lat="45.0664" lon="5.38945">
        <ele>265.58700561523</ele>
        <time>2010-06-13T08:22:01Z</time>
      </trkpt>
      <trkpt lat="45.06639" lon="5.38971">
        <ele>266.15200805664</ele>
        <time>2010-06-13T08:22:04Z</time>
      </trkpt>
      <trkpt lat="45.06641" lon="5.38988">
        <ele>266.45098876953</ele>
        <time>2010-06-13T08:22:06Z</time>
      </trkpt>
      <trkpt lat="45.06654" lon="5.39053">
        <ele>267.48599243164</ele>
        <time>2010-06-13T08:22:14Z</time>
      </trkpt>
      <trkpt lat="45.0666" lon="5.39071">
        <ele>267.95098876953</ele>
        <time>2010-06-13T08:22:17Z</time>
      </trkpt>
      <trkpt lat="45.06672" lon="5.39095">
        <ele>268.33200073242</ele>
        <time>2010-06-13T08:22:21Z</time>
      </trkpt>
      <trkpt lat="45.06681" lon="5.39115">
        <ele>268.80700683594</ele>
        <time>2010-06-13T08:22:24Z</time>
      </trkpt>
      <trkpt lat="45.06687" lon="5.39156">
        <ele>268.85000610352</ele>
        <time>2010-06-13T08:22:30Z</time>
      </trkpt>
      <trkpt lat="45.06687" lon="5.39163">
        <ele>268.62200927734</ele>
        <time>2010-06-13T08:22:31Z</time>
      </trkpt>
      <trkpt lat="45.06691" lon="5.39216">
        <ele>267.23400878906</ele>
        <time>2010-06-13T08:22:37Z</time>
      </trkpt>
      <trkpt lat="45.06696" lon="5.39232">
        <ele>267.14001464844</ele>
        <time>2010-06-13T08:22:39Z</time>
      </trkpt>
      <trkpt lat="45.06691" lon="5.39261">
        <ele>267.32000732422</ele>
        <time>2010-06-13T08:22:43Z</time>
      </trkpt>
      <trkpt lat="45.06676" lon="5.39267">
        <ele>267.70498657227</ele>
        <time>2010-06-13T08:22:46Z</time>
      </trkpt>
      <trkpt lat="45.06654" lon="5.39265">
        <ele>269.20599365234</ele>
        <time>2010-06-13T08:22:50Z</time>
      </trkpt>
      <trkpt lat="45.06629" lon="5.39282">
        <ele>270.32699584961</ele>
        <time>2010-06-13T08:22:55Z</time>
      </trkpt>
      <trkpt lat="45.06621" lon="5.39293">
        <ele>270.78698730469</ele>
        <time>2010-06-13T08:22:57Z</time>
      </trkpt>
      <trkpt lat="45.06604" lon="5.39326">
        <ele>271.7619934082</ele>
        <time>2010-06-13T08:23:02Z</time>
      </trkpt>
      <trkpt lat="45.0657" lon="5.39378">
        <ele>273.84298706055</ele>
        <time>2010-06-13T08:23:11Z</time>
      </trkpt>
      <trkpt lat="45.0656" lon="5.39396">
        <ele>274.62100219727</ele>
        <time>2010-06-13T08:23:14Z</time>
      </trkpt>
      <trkpt lat="45.06545" lon="5.39438">
        <ele>277.36999511719</ele>
        <time>2010-06-13T08:23:21Z</time>
      </trkpt>
      <trkpt lat="45.06543" lon="5.39455">
        <ele>278.08898925781</ele>
        <time>2010-06-13T08:23:24Z</time>
      </trkpt>
      <trkpt lat="45.06543" lon="5.39502">
        <ele>279.84698486328</ele>
        <time>2010-06-13T08:23:31Z</time>
      </trkpt>
      <trkpt lat="45.06545" lon="5.39561">
        <ele>282.27099609375</ele>
        <time>2010-06-13T08:23:40Z</time>
      </trkpt>
      <trkpt lat="45.06548" lon="5.3962">
        <ele>284.90100097656</ele>
        <time>2010-06-13T08:23:50Z</time>
      </trkpt>
      <trkpt lat="45.06544" lon="5.39651">
        <ele>286.46301269531</ele>
        <time>2010-06-13T08:23:56Z</time>
      </trkpt>
      <trkpt lat="45.06534" lon="5.39675">
        <ele>287.59399414062</ele>
        <time>2010-06-13T08:24:01Z</time>
      </trkpt>
      <trkpt lat="45.06513" lon="5.3971">
        <ele>289.39700317383</ele>
        <time>2010-06-13T08:24:09Z</time>
      </trkpt>
      <trkpt lat="45.06496" lon="5.39742">
        <ele>291.17599487305</ele>
        <time>2010-06-13T08:24:16Z</time>
      </trkpt>
      <trkpt lat="45.06474" lon="5.39787">
        <ele>293.30700683594</ele>
        <time>2010-06-13T08:24:25Z</time>
      </trkpt>
      <trkpt lat="45.06457" lon="5.3982">
        <ele>295.54598999023</ele>
        <time>2010-06-13T08:24:32Z</time>
      </trkpt>
      <trkpt lat="45.0644" lon="5.39852">
        <ele>297.14199829102</ele>
        <time>2010-06-13T08:24:39Z</time>
      </trkpt>
      <trkpt lat="45.06423" lon="5.39882">
        <ele>298.9580078125</ele>
        <time>2010-06-13T08:24:46Z</time>
      </trkpt>
      <trkpt lat="45.06396" lon="5.39907">
        <ele>301.48098754883</ele>
        <time>2010-06-13T08:24:54Z</time>
      </trkpt>
      <trkpt lat="45.06369" lon="5.39936">
        <ele>303.58999633789</ele>
        <time>2010-06-13T08:25:02Z</time>
      </trkpt>
      <trkpt lat="45.06342" lon="5.39965">
        <ele>305.77200317383</ele>
        <time>2010-06-13T08:25:10Z</time>
      </trkpt>
      <trkpt lat="45.06314" lon="5.39986">
        <ele>308.09201049805</ele>
        <time>2010-06-13T08:25:17Z</time>
      </trkpt>
      <trkpt lat="45.06291" lon="5.40005">
        <ele>309.82299804688</ele>
        <time>2010-06-13T08:25:23Z</time>
      </trkpt>
      <trkpt lat="45.0627" lon="5.40034">
        <ele>311.60000610352</ele>
        <time>2010-06-13T08:25:29Z</time>
      </trkpt>
      <trkpt lat="45.06251" lon="5.40085">
        <ele>314.16198730469</ele>
        <time>2010-06-13T08:25:37Z</time>
      </trkpt>
      <trkpt lat="45.06239" lon="5.40134">
        <ele>316.55700683594</ele>
        <time>2010-06-13T08:25:45Z</time>
      </trkpt>
      <trkpt lat="45.06233" lon="5.40189">
        <ele>319.07998657227</ele>
        <time>2010-06-13T08:25:54Z</time>
      </trkpt>
      <trkpt lat="45.06234" lon="5.40242">
        <ele>321.40301513672</ele>
        <time>2010-06-13T08:26:03Z</time>
      </trkpt>
      <trkpt lat="45.06231" lon="5.40274">
        <ele>322.76901245117</ele>
        <time>2010-06-13T08:26:09Z</time>
      </trkpt>
      <trkpt lat="45.06219" lon="5.40299">
        <ele>324.3330078125</ele>
        <time>2010-06-13T08:26:15Z</time>
      </trkpt>
      <trkpt lat="45.062" lon="5.40332">
        <ele>326.16400146484</ele>
        <time>2010-06-13T08:26:23Z</time>
      </trkpt>
      <trkpt lat="45.06189" lon="5.4036">
        <ele>327.64498901367</ele>
        <time>2010-06-13T08:26:29Z</time>
      </trkpt>
      <trkpt lat="45.06182" lon="5.40387">
        <ele>328.91500854492</ele>
        <time>2010-06-13T08:26:34Z</time>
      </trkpt>
      <trkpt lat="45.06172" lon="5.40431">
        <ele>330.76599121094</ele>
        <time>2010-06-13T08:26:42Z</time>
      </trkpt>
      <trkpt lat="45.06166" lon="5.40462">
        <ele>332.06500244141</ele>
        <time>2010-06-13T08:26:48Z</time>
      </trkpt>
      <trkpt lat="45.06161" lon="5.4049">
        <ele>333.25601196289</ele>
        <time>2010-06-13T08:26:53Z</time>
      </trkpt>
      <trkpt lat="45.06163" lon="5.40514">
        <ele>333.97900390625</ele>
        <time>2010-06-13T08:26:57Z</time>
      </trkpt>
      <trkpt lat="45.06169" lon="5.40538">
        <ele>334.53500366211</ele>
        <time>2010-06-13T08:27:01Z</time>
      </trkpt>
      <trkpt lat="45.06168" lon="5.40562">
        <ele>335.54998779297</ele>
        <time>2010-06-13T08:27:05Z</time>
      </trkpt>
      <trkpt lat="45.0616" lon="5.40581">
        <ele>336.63598632812</ele>
        <time>2010-06-13T08:27:09Z</time>
      </trkpt>
      <trkpt lat="45.06144" lon="5.4061">
        <ele>338.33999633789</ele>
        <time>2010-06-13T08:27:16Z</time>
      </trkpt>
      <trkpt lat="45.06134" lon="5.40638">
        <ele>339.67498779297</ele>
        <time>2010-06-13T08:27:22Z</time>
      </trkpt>
      <trkpt lat="45.06121" lon="5.40646">
        <ele>340.32901000977</ele>
        <time>2010-06-13T08:27:26Z</time>
      </trkpt>
      <trkpt lat="45.06092" lon="5.40645">
        <ele>342.12100219727</ele>
        <time>2010-06-13T08:27:34Z</time>
      </trkpt>
      <trkpt lat="45.0607" lon="5.40651">
        <ele>344.00698852539</ele>
        <time>2010-06-13T08:27:40Z</time>
      </trkpt>
      <trkpt lat="45.0605" lon="5.40676">
        <ele>345.45599365234</ele>
        <time>2010-06-13T08:27:46Z</time>
      </trkpt>
      <trkpt lat="45.06031" lon="5.40721">
        <ele>347.27200317383</ele>
        <time>2010-06-13T08:27:54Z</time>
      </trkpt>
      <trkpt lat="45.06028" lon="5.40726">
        <ele>347.5419921875</ele>
        <time>2010-06-13T08:27:55Z</time>
      </trkpt>
      <trkpt lat="45.05995" lon="5.40763">
        <ele>350.375</ele>
        <time>2010-06-13T08:28:05Z</time>
      </trkpt>
      <trkpt lat="45.05955" lon="5.40799">
        <ele>352.83700561523</ele>
        <time>2010-06-13T08:28:16Z</time>
      </trkpt>
      <trkpt lat="45.0593" lon="5.40821">
        <ele>354.81399536133</ele>
        <time>2010-06-13T08:28:23Z</time>
      </trkpt>
      <trkpt lat="45.05908" lon="5.40843">
        <ele>356.51098632812</ele>
        <time>2010-06-13T08:28:30Z</time>
      </trkpt>
      <trkpt lat="45.05901" lon="5.40863">
        <ele>357.23098754883</ele>
        <time>2010-06-13T08:28:34Z</time>
      </trkpt>
      <trkpt lat="45.05899" lon="5.40874">
        <ele>357.80499267578</ele>
        <time>2010-06-13T08:28:36Z</time>
      </trkpt>
      <trkpt lat="45.05898" lon="5.40909">
        <ele>359.26599121094</ele>
        <time>2010-06-13T08:28:42Z</time>
      </trkpt>
      <trkpt lat="45.0589" lon="5.40943">
        <ele>360.12799072266</ele>
        <time>2010-06-13T08:28:48Z</time>
      </trkpt>
      <trkpt lat="45.05884" lon="5.40952">
        <ele>360.87600708008</ele>
        <time>2010-06-13T08:28:50Z</time>
      </trkpt>
      <trkpt lat="45.05875" lon="5.40965">
        <ele>361.59100341797</ele>
        <time>2010-06-13T08:28:53Z</time>
      </trkpt>
      <trkpt lat="45.05864" lon="5.40995">
        <ele>363.38598632812</ele>
        <time>2010-06-13T08:28:59Z</time>
      </trkpt>
      <trkpt lat="45.05868" lon="5.41024">
        <ele>364.48599243164</ele>
        <time>2010-06-13T08:29:04Z</time>
      </trkpt>
      <trkpt lat="45.0587" lon="5.41029">
        <ele>364.64700317383</ele>
        <time>2010-06-13T08:29:05Z</time>
      </trkpt>
      <trkpt lat="45.05886" lon="5.41065">
        <ele>365.62701416016</ele>
        <time>2010-06-13T08:29:12Z</time>
      </trkpt>
      <trkpt lat="45.05913" lon="5.41095">
        <ele>367.60900878906</ele>
        <time>2010-06-13T08:29:20Z</time>
      </trkpt>
      <trkpt lat="45.0594" lon="5.41111">
        <ele>369.10800170898</ele>
        <time>2010-06-13T08:29:26Z</time>
      </trkpt>
      <trkpt lat="45.0595" lon="5.41115">
        <ele>369.69000244141</ele>
        <time>2010-06-13T08:29:28Z</time>
      </trkpt>
      <trkpt lat="45.05971" lon="5.41136">
        <ele>370.89498901367</ele>
        <time>2010-06-13T08:29:33Z</time>
      </trkpt>
      <trkpt lat="45.05978" lon="5.41162">
        <ele>372.29598999023</ele>
        <time>2010-06-13T08:29:37Z</time>
      </trkpt>
      <trkpt lat="45.05984" lon="5.41231">
        <ele>374.58700561523</ele>
        <time>2010-06-13T08:29:47Z</time>
      </trkpt>
      <trkpt lat="45.05987" lon="5.41271">
        <ele>375.76098632812</ele>
        <time>2010-06-13T08:29:53Z</time>
      </trkpt>
      <trkpt lat="45.05996" lon="5.413">
        <ele>376.88500976562</ele>
        <time>2010-06-13T08:29:58Z</time>
      </trkpt>
      <trkpt lat="45.06009" lon="5.41326">
        <ele>377.80801391602</ele>
        <time>2010-06-13T08:30:03Z</time>
      </trkpt>
      <trkpt lat="45.06022" lon="5.41366">
        <ele>379.23400878906</ele>
        <time>2010-06-13T08:30:10Z</time>
      </trkpt>
      <trkpt lat="45.06023" lon="5.4142">
        <ele>381.03201293945</ele>
        <time>2010-06-13T08:30:19Z</time>
      </trkpt>
      <trkpt lat="45.06023" lon="5.41432">
        <ele>381.32000732422</ele>
        <time>2010-06-13T08:30:21Z</time>
      </trkpt>
      <trkpt lat="45.06026" lon="5.41449">
        <ele>382.15399169922</ele>
        <time>2010-06-13T08:30:24Z</time>
      </trkpt>
      <trkpt lat="45.06035" lon="5.41469">
        <ele>382.86999511719</ele>
        <time>2010-06-13T08:30:28Z</time>
      </trkpt>
      <trkpt lat="45.06057" lon="5.41493">
        <ele>384.22299194336</ele>
        <time>2010-06-13T08:30:35Z</time>
      </trkpt>
      <trkpt lat="45.06078" lon="5.41516">
        <ele>385.38101196289</ele>
        <time>2010-06-13T08:30:42Z</time>
      </trkpt>
      <trkpt lat="45.0608" lon="5.41521">
        <ele>385.54098510742</ele>
        <time>2010-06-13T08:30:43Z</time>
      </trkpt>
      <trkpt lat="45.06084" lon="5.41553">
        <ele>387.14001464844</ele>
        <time>2010-06-13T08:30:49Z</time>
      </trkpt>
      <trkpt lat="45.06079" lon="5.41601">
        <ele>389.36599731445</ele>
        <time>2010-06-13T08:30:58Z</time>
      </trkpt>
      <trkpt lat="45.0608" lon="5.41644">
        <ele>391.22399902344</ele>
        <time>2010-06-13T08:31:06Z</time>
      </trkpt>
      <trkpt lat="45.06091" lon="5.41686">
        <ele>393.09399414062</ele>
        <time>2010-06-13T08:31:14Z</time>
      </trkpt>
      <trkpt lat="45.06105" lon="5.41744">
        <ele>395.81698608398</ele>
        <time>2010-06-13T08:31:25Z</time>
      </trkpt>
      <trkpt lat="45.0611" lon="5.4179">
        <ele>397.60101318359</ele>
        <time>2010-06-13T08:31:33Z</time>
      </trkpt>
      <trkpt lat="45.06116" lon="5.4183">
        <ele>399.28698730469</ele>
        <time>2010-06-13T08:31:40Z</time>
      </trkpt>
      <trkpt lat="45.06127" lon="5.41865">
        <ele>400.9580078125</ele>
        <time>2010-06-13T08:31:47Z</time>
      </trkpt>
      <trkpt lat="45.06146" lon="5.41903">
        <ele>402.50698852539</ele>
        <time>2010-06-13T08:31:55Z</time>
      </trkpt>
      <trkpt lat="45.06172" lon="5.41941">
        <ele>404.93399047852</ele>
        <time>2010-06-13T08:32:04Z</time>
      </trkpt>
      <trkpt lat="45.06196" lon="5.41972">
        <ele>407.16101074219</ele>
        <time>2010-06-13T08:32:12Z</time>
      </trkpt>
      <trkpt lat="45.06226" lon="5.4201">
        <ele>409.53799438477</ele>
        <time>2010-06-13T08:32:22Z</time>
      </trkpt>
      <trkpt lat="45.06254" lon="5.42044">
        <ele>411.95401000977</ele>
        <time>2010-06-13T08:32:32Z</time>
      </trkpt>
      <trkpt lat="45.06283" lon="5.42074">
        <ele>413.94198608398</ele>
        <time>2010-06-13T08:32:42Z</time>
      </trkpt>
      <trkpt lat="45.06299" lon="5.42102">
        <ele>415.48199462891</ele>
        <time>2010-06-13T08:32:49Z</time>
      </trkpt>
      <trkpt lat="45.06307" lon="5.42141">
        <ele>417.51098632812</ele>
        <time>2010-06-13T08:32:57Z</time>
      </trkpt>
      <trkpt lat="45.06312" lon="5.42182">
        <ele>419.18899536133</ele>
        <time>2010-06-13T08:33:05Z</time>
      </trkpt>
      <trkpt lat="45.06318" lon="5.42225">
        <ele>420.7619934082</ele>
        <time>2010-06-13T08:33:13Z</time>
      </trkpt>
      <trkpt lat="45.06321" lon="5.42263">
        <ele>422.52700805664</ele>
        <time>2010-06-13T08:33:20Z</time>
      </trkpt>
      <trkpt lat="45.06324" lon="5.42299">
        <ele>423.89001464844</ele>
        <time>2010-06-13T08:33:27Z</time>
      </trkpt>
      <trkpt lat="45.06328" lon="5.42338">
        <ele>426.08599853516</ele>
        <time>2010-06-13T08:33:35Z</time>
      </trkpt>
      <trkpt lat="45.0633" lon="5.42368">
        <ele>427.40301513672</ele>
        <time>2010-06-13T08:33:41Z</time>
      </trkpt>
      <trkpt lat="45.06334" lon="5.42422">
        <ele>429.68200683594</ele>
        <time>2010-06-13T08:33:51Z</time>
      </trkpt>
      <trkpt lat="45.06339" lon="5.42472">
        <ele>432.16000366211</ele>
        <time>2010-06-13T08:34:00Z</time>
      </trkpt>
      <trkpt lat="45.06349" lon="5.4252">
        <ele>434.42199707031</ele>
        <time>2010-06-13T08:34:09Z</time>
      </trkpt>
      <trkpt lat="45.06356" lon="5.42561">
        <ele>436.12701416016</ele>
        <time>2010-06-13T08:34:17Z</time>
      </trkpt>
      <trkpt lat="45.06363" lon="5.42603">
        <ele>438.11898803711</ele>
        <time>2010-06-13T08:34:25Z</time>
      </trkpt>
      <trkpt lat="45.0637" lon="5.42649">
        <ele>440.2380065918</ele>
        <time>2010-06-13T08:34:34Z</time>
      </trkpt>
      <trkpt lat="45.0638" lon="5.42677">
        <ele>441.3030090332</ele>
        <time>2010-06-13T08:34:40Z</time>
      </trkpt>
      <trkpt lat="45.06403" lon="5.42705">
        <ele>443.15701293945</ele>
        <time>2010-06-13T08:34:48Z</time>
      </trkpt>
      <trkpt lat="45.06425" lon="5.42722">
        <ele>444.14498901367</ele>
        <time>2010-06-13T08:34:54Z</time>
      </trkpt>
      <trkpt lat="45.06448" lon="5.42734">
        <ele>445.81298828125</ele>
        <time>2010-06-13T08:35:00Z</time>
      </trkpt>
      <trkpt lat="45.06479" lon="5.42746">
        <ele>447.5830078125</ele>
        <time>2010-06-13T08:35:08Z</time>
      </trkpt>
      <trkpt lat="45.06498" lon="5.42763">
        <ele>449.04098510742</ele>
        <time>2010-06-13T08:35:14Z</time>
      </trkpt>
      <trkpt lat="45.06515" lon="5.42798">
        <ele>450.50698852539</ele>
        <time>2010-06-13T08:35:22Z</time>
      </trkpt>
      <trkpt lat="45.06528" lon="5.42834">
        <ele>452.46899414062</ele>
        <time>2010-06-13T08:35:30Z</time>
      </trkpt>
      <trkpt lat="45.06538" lon="5.42864">
        <ele>454.01000976562</ele>
        <time>2010-06-13T08:35:37Z</time>
      </trkpt>
      <trkpt lat="45.0656" lon="5.42896">
        <ele>455.8630065918</ele>
        <time>2010-06-13T08:35:46Z</time>
      </trkpt>
      <trkpt lat="45.06587" lon="5.42928">
        <ele>457.96301269531</ele>
        <time>2010-06-13T08:35:56Z</time>
      </trkpt>
      <trkpt lat="45.06609" lon="5.42952">
        <ele>459.30899047852</ele>
        <time>2010-06-13T08:36:03Z</time>
      </trkpt>
      <trkpt lat="45.06638" lon="5.42979">
        <ele>461.02099609375</ele>
        <time>2010-06-13T08:36:12Z</time>
      </trkpt>
      <trkpt lat="45.06668" lon="5.43009">
        <ele>462.93798828125</ele>
        <time>2010-06-13T08:36:22Z</time>
      </trkpt>
      <trkpt lat="45.06681" lon="5.43033">
        <ele>464.02600097656</ele>
        <time>2010-06-13T08:36:28Z</time>
      </trkpt>
      <trkpt lat="45.06691" lon="5.43068">
        <ele>465.57000732422</ele>
        <time>2010-06-13T08:36:36Z</time>
      </trkpt>
      <trkpt lat="45.06707" lon="5.43092">
        <ele>467.17001342773</ele>
        <time>2010-06-13T08:36:43Z</time>
      </trkpt>
      <trkpt lat="45.06731" lon="5.43116">
        <ele>468.54098510742</ele>
        <time>2010-06-13T08:36:51Z</time>
      </trkpt>
      <trkpt lat="45.06744" lon="5.43139">
        <ele>469.39801025391</ele>
        <time>2010-06-13T08:36:56Z</time>
      </trkpt>
      <trkpt lat="45.0677" lon="5.43191">
        <ele>471.60800170898</ele>
        <time>2010-06-13T08:37:06Z</time>
      </trkpt>
      <trkpt lat="45.0678" lon="5.43217">
        <ele>472.79501342773</ele>
        <time>2010-06-13T08:37:11Z</time>
      </trkpt>
      <trkpt lat="45.06791" lon="5.43242">
        <ele>473.94198608398</ele>
        <time>2010-06-13T08:37:16Z</time>
      </trkpt>
      <trkpt lat="45.06804" lon="5.43276">
        <ele>475.33499145508</ele>
        <time>2010-06-13T08:37:23Z</time>
      </trkpt>
      <trkpt lat="45.06819" lon="5.43324">
        <ele>476.95700073242</ele>
        <time>2010-06-13T08:37:32Z</time>
      </trkpt>
      <trkpt lat="45.06828" lon="5.43373">
        <ele>478.53601074219</ele>
        <time>2010-06-13T08:37:41Z</time>
      </trkpt>
      <trkpt lat="45.06828" lon="5.43418">
        <ele>480.31100463867</ele>
        <time>2010-06-13T08:37:49Z</time>
      </trkpt>
      <trkpt lat="45.06827" lon="5.43458">
        <ele>481.60198974609</ele>
        <time>2010-06-13T08:37:56Z</time>
      </trkpt>
      <trkpt lat="45.06829" lon="5.43495">
        <ele>483.23400878906</ele>
        <time>2010-06-13T08:38:03Z</time>
      </trkpt>
      <trkpt lat="45.06836" lon="5.43538">
        <ele>484.82901000977</ele>
        <time>2010-06-13T08:38:11Z</time>
      </trkpt>
      <trkpt lat="45.06843" lon="5.4357">
        <ele>485.95199584961</ele>
        <time>2010-06-13T08:38:17Z</time>
      </trkpt>
      <trkpt lat="45.06854" lon="5.43605">
        <ele>487.2380065918</ele>
        <time>2010-06-13T08:38:24Z</time>
      </trkpt>
      <trkpt lat="45.06867" lon="5.43638">
        <ele>488.89001464844</ele>
        <time>2010-06-13T08:38:31Z</time>
      </trkpt>
      <trkpt lat="45.06882" lon="5.4367">
        <ele>489.9580078125</ele>
        <time>2010-06-13T08:38:38Z</time>
      </trkpt>
      <trkpt lat="45.06897" lon="5.43712">
        <ele>491.82998657227</ele>
        <time>2010-06-13T08:38:47Z</time>
      </trkpt>
      <trkpt lat="45.06915" lon="5.43753">
        <ele>493.72799682617</ele>
        <time>2010-06-13T08:38:56Z</time>
      </trkpt>
      <trkpt lat="45.06928" lon="5.43782">
        <ele>495.56698608398</ele>
        <time>2010-06-13T08:39:03Z</time>
      </trkpt>
      <trkpt lat="45.06938" lon="5.43803">
        <ele>496.55499267578</ele>
        <time>2010-06-13T08:39:09Z</time>
      </trkpt>
      <trkpt lat="45.06948" lon="5.43834">
        <ele>497.85800170898</ele>
        <time>2010-06-13T08:39:16Z</time>
      </trkpt>
      <trkpt lat="45.06954" lon="5.43867">
        <ele>499.53900146484</ele>
        <time>2010-06-13T08:39:23Z</time>
      </trkpt>
      <trkpt lat="45.06966" lon="5.43898">
        <ele>501.13800048828</ele>
        <time>2010-06-13T08:39:30Z</time>
      </trkpt>
      <trkpt lat="45.06981" lon="5.4393">
        <ele>502.52899169922</ele>
        <time>2010-06-13T08:39:37Z</time>
      </trkpt>
      <trkpt lat="45.07" lon="5.43967">
        <ele>504.64300537109</ele>
        <time>2010-06-13T08:39:46Z</time>
      </trkpt>
      <trkpt lat="45.07022" lon="5.43998">
        <ele>506.39199829102</ele>
        <time>2010-06-13T08:39:55Z</time>
      </trkpt>
      <trkpt lat="45.07046" lon="5.44025">
        <ele>508.38500976562</ele>
        <time>2010-06-13T08:40:03Z</time>
      </trkpt>
      <trkpt lat="45.07064" lon="5.44051">
        <ele>509.86199951172</ele>
        <time>2010-06-13T08:40:10Z</time>
      </trkpt>
      <trkpt lat="45.07088" lon="5.44085">
        <ele>511.87399291992</ele>
        <time>2010-06-13T08:40:19Z</time>
      </trkpt>
      <trkpt lat="45.07101" lon="5.44123">
        <ele>513.77801513672</ele>
        <time>2010-06-13T08:40:27Z</time>
      </trkpt>
      <trkpt lat="45.07115" lon="5.44158">
        <ele>515.59399414062</ele>
        <time>2010-06-13T08:40:35Z</time>
      </trkpt>
      <trkpt lat="45.07127" lon="5.44193">
        <ele>517.82299804688</ele>
        <time>2010-06-13T08:40:43Z</time>
      </trkpt>
      <trkpt lat="45.07136" lon="5.44216">
        <ele>519.11901855469</ele>
        <time>2010-06-13T08:40:49Z</time>
      </trkpt>
      <trkpt lat="45.07145" lon="5.44239">
        <ele>520.55700683594</ele>
        <time>2010-06-13T08:40:55Z</time>
      </trkpt>
      <trkpt lat="45.07151" lon="5.44258">
        <ele>521.91900634766</ele>
        <time>2010-06-13T08:41:00Z</time>
      </trkpt>
      <trkpt lat="45.0715" lon="5.44279">
        <ele>523.30999755859</ele>
        <time>2010-06-13T08:41:06Z</time>
      </trkpt>
      <trkpt lat="45.07149" lon="5.44304">
        <ele>524.40399169922</ele>
        <time>2010-06-13T08:41:11Z</time>
      </trkpt>
      <trkpt lat="45.07162" lon="5.44323">
        <ele>525.625</ele>
        <time>2010-06-13T08:41:17Z</time>
      </trkpt>
      <trkpt lat="45.07168" lon="5.44335">
        <ele>525.93298339844</ele>
        <time>2010-06-13T08:41:20Z</time>
      </trkpt>
      <trkpt lat="45.07164" lon="5.44359">
        <ele>526.63000488281</ele>
        <time>2010-06-13T08:41:25Z</time>
      </trkpt>
      <trkpt lat="45.07179" lon="5.44396">
        <ele>529.35400390625</ele>
        <time>2010-06-13T08:41:35Z</time>
      </trkpt>
      <trkpt lat="45.07213" lon="5.44403">
        <ele>530.57897949219</ele>
        <time>2010-06-13T08:41:40Z</time>
      </trkpt>
      <trkpt lat="45.07222" lon="5.44419">
        <ele>531.43701171875</ele>
        <time>2010-06-13T08:41:44Z</time>
      </trkpt>
      <trkpt lat="45.07236" lon="5.44442">
        <ele>533.04400634766</ele>
        <time>2010-06-13T08:41:50Z</time>
      </trkpt>
      <trkpt lat="45.07247" lon="5.4448">
        <ele>534.76501464844</ele>
        <time>2010-06-13T08:41:57Z</time>
      </trkpt>
      <trkpt lat="45.0724" lon="5.4452">
        <ele>535.59002685547</ele>
        <time>2010-06-13T08:42:01Z</time>
      </trkpt>
      <trkpt lat="45.07246" lon="5.44557">
        <ele>537.89099121094</ele>
        <time>2010-06-13T08:42:09Z</time>
      </trkpt>
      <trkpt lat="45.07261" lon="5.44589">
        <ele>539.5009765625</ele>
        <time>2010-06-13T08:42:17Z</time>
      </trkpt>
      <trkpt lat="45.0727" lon="5.44626">
        <ele>541.45501708984</ele>
        <time>2010-06-13T08:42:25Z</time>
      </trkpt>
      <trkpt lat="45.07272" lon="5.44648">
        <ele>543.03802490234</ele>
        <time>2010-06-13T08:42:30Z</time>
      </trkpt>
      <trkpt lat="45.07271" lon="5.44673">
        <ele>544.0830078125</ele>
        <time>2010-06-13T08:42:35Z</time>
      </trkpt>
      <trkpt lat="45.07284" lon="5.44694">
        <ele>545.70098876953</ele>
        <time>2010-06-13T08:42:40Z</time>
      </trkpt>
      <trkpt lat="45.07299" lon="5.4472">
        <ele>547.041015625</ele>
        <time>2010-06-13T08:42:45Z</time>
      </trkpt>
      <trkpt lat="45.0732" lon="5.44739">
        <ele>548.59002685547</ele>
        <time>2010-06-13T08:42:51Z</time>
      </trkpt>
      <trkpt lat="45.07359" lon="5.44742">
        <ele>550.77001953125</ele>
        <time>2010-06-13T08:43:00Z</time>
      </trkpt>
      <trkpt lat="45.07374" lon="5.44752">
        <ele>551.39398193359</ele>
        <time>2010-06-13T08:43:04Z</time>
      </trkpt>
      <trkpt lat="45.07388" lon="5.44764">
        <ele>552.30902099609</ele>
        <time>2010-06-13T08:43:08Z</time>
      </trkpt>
      <trkpt lat="45.07404" lon="5.44799">
        <ele>553.88397216797</ele>
        <time>2010-06-13T08:43:15Z</time>
      </trkpt>
      <trkpt lat="45.07412" lon="5.44804">
        <ele>554.45202636719</ele>
        <time>2010-06-13T08:43:17Z</time>
      </trkpt>
      <trkpt lat="45.07423" lon="5.4483">
        <ele>556.09197998047</ele>
        <time>2010-06-13T08:43:23Z</time>
      </trkpt>
      <trkpt lat="45.07426" lon="5.44841">
        <ele>556.48297119141</ele>
        <time>2010-06-13T08:43:25Z</time>
      </trkpt>
      <trkpt lat="45.0744" lon="5.44863">
        <ele>557.76599121094</ele>
        <time>2010-06-13T08:43:30Z</time>
      </trkpt>
      <trkpt lat="45.07448" lon="5.44868">
        <ele>558.40301513672</ele>
        <time>2010-06-13T08:43:32Z</time>
      </trkpt>
      <trkpt lat="45.07471" lon="5.44881">
        <ele>559.96301269531</ele>
        <time>2010-06-13T08:43:38Z</time>
      </trkpt>
      <trkpt lat="45.07499" lon="5.44896">
        <ele>562.04400634766</ele>
        <time>2010-06-13T08:43:45Z</time>
      </trkpt>
      <trkpt lat="45.07519" lon="5.44913">
        <ele>563.23901367188</ele>
        <time>2010-06-13T08:43:51Z</time>
      </trkpt>
      <trkpt lat="45.07551" lon="5.44936">
        <ele>565.70001220703</ele>
        <time>2010-06-13T08:44:00Z</time>
      </trkpt>
      <trkpt lat="45.07568" lon="5.44951">
        <ele>567.06201171875</ele>
        <time>2010-06-13T08:44:05Z</time>
      </trkpt>
      <trkpt lat="45.0759" lon="5.44971">
        <ele>568.65301513672</ele>
        <time>2010-06-13T08:44:12Z</time>
      </trkpt>
      <trkpt lat="45.0761" lon="5.44984">
        <ele>569.96002197266</ele>
        <time>2010-06-13T08:44:18Z</time>
      </trkpt>
      <trkpt lat="45.07627" lon="5.45002">
        <ele>571.51501464844</ele>
        <time>2010-06-13T08:44:25Z</time>
      </trkpt>
      <trkpt lat="45.07639" lon="5.45012">
        <ele>572.33502197266</ele>
        <time>2010-06-13T08:44:29Z</time>
      </trkpt>
      <trkpt lat="45.07655" lon="5.45021">
        <ele>573.43298339844</ele>
        <time>2010-06-13T08:44:34Z</time>
      </trkpt>
      <trkpt lat="45.07674" lon="5.45036">
        <ele>574.59301757812</ele>
        <time>2010-06-13T08:44:40Z</time>
      </trkpt>
      <trkpt lat="45.07697" lon="5.45052">
        <ele>575.99597167969</ele>
        <time>2010-06-13T08:44:47Z</time>
      </trkpt>
      <trkpt lat="45.07719" lon="5.45071">
        <ele>577.23498535156</ele>
        <time>2010-06-13T08:44:54Z</time>
      </trkpt>
      <trkpt lat="45.07744" lon="5.45084">
        <ele>579.09497070312</ele>
        <time>2010-06-13T08:45:01Z</time>
      </trkpt>
      <trkpt lat="45.0775" lon="5.45101">
        <ele>579.87097167969</ele>
        <time>2010-06-13T08:45:06Z</time>
      </trkpt>
      <trkpt lat="45.07751" lon="5.45121">
        <ele>580.86602783203</ele>
        <time>2010-06-13T08:45:10Z</time>
      </trkpt>
      <trkpt lat="45.07757" lon="5.45132">
        <ele>582.51800537109</ele>
        <time>2010-06-13T08:45:14Z</time>
      </trkpt>
      <trkpt lat="45.07778" lon="5.45323">
        <ele>592.75299072266</ele>
        <time>2010-06-13T08:45:50Z</time>
      </trkpt>
      <trkpt lat="45.07791" lon="5.45358">
        <ele>594.30200195312</ele>
        <time>2010-06-13T08:45:56Z</time>
      </trkpt>
      <trkpt lat="45.07797" lon="5.45366">
        <ele>594.71600341797</ele>
        <time>2010-06-13T08:45:58Z</time>
      </trkpt>
      <trkpt lat="45.07817" lon="5.45378">
        <ele>595.86499023438</ele>
        <time>2010-06-13T08:46:03Z</time>
      </trkpt>
      <trkpt lat="45.07843" lon="5.45405">
        <ele>598.13598632812</ele>
        <time>2010-06-13T08:46:11Z</time>
      </trkpt>
      <trkpt lat="45.0786" lon="5.45423">
        <ele>599.35101318359</ele>
        <time>2010-06-13T08:46:16Z</time>
      </trkpt>
      <trkpt lat="45.07866" lon="5.45431">
        <ele>599.90899658203</ele>
        <time>2010-06-13T08:46:18Z</time>
      </trkpt>
      <trkpt lat="45.0788" lon="5.45445">
        <ele>600.89300537109</ele>
        <time>2010-06-13T08:46:22Z</time>
      </trkpt>
      <trkpt lat="45.07906" lon="5.45456">
        <ele>602.4990234375</ele>
        <time>2010-06-13T08:46:29Z</time>
      </trkpt>
      <trkpt lat="45.07927" lon="5.45471">
        <ele>604.083984375</ele>
        <time>2010-06-13T08:46:36Z</time>
      </trkpt>
      <trkpt lat="45.0793" lon="5.45473">
        <ele>604.55297851562</ele>
        <time>2010-06-13T08:46:38Z</time>
      </trkpt>
      <trkpt lat="45.07938" lon="5.45482">
        <ele>605.20397949219</ele>
        <time>2010-06-13T08:46:43Z</time>
      </trkpt>
      <trkpt lat="45.07951" lon="5.45497">
        <ele>606.18298339844</ele>
        <time>2010-06-13T08:46:50Z</time>
      </trkpt>
      <trkpt lat="45.07959" lon="5.45507">
        <ele>606.97497558594</ele>
        <time>2010-06-13T08:46:55Z</time>
      </trkpt>
      <trkpt lat="45.07961" lon="5.45509">
        <ele>607.14801025391</ele>
        <time>2010-06-13T08:46:56Z</time>
      </trkpt>
      <trkpt lat="45.07973" lon="5.4552">
        <ele>607.84997558594</ele>
        <time>2010-06-13T08:47:02Z</time>
      </trkpt>
      <trkpt lat="45.07982" lon="5.45531">
        <ele>608.89099121094</ele>
        <time>2010-06-13T08:47:07Z</time>
      </trkpt>
      <trkpt lat="45.07992" lon="5.45542">
        <ele>609.78802490234</ele>
        <time>2010-06-13T08:47:12Z</time>
      </trkpt>
      <trkpt lat="45.08009" lon="5.45552">
        <ele>610.71099853516</ele>
        <time>2010-06-13T08:47:19Z</time>
      </trkpt>
      <trkpt lat="45.08023" lon="5.45566">
        <ele>612.19299316406</ele>
        <time>2010-06-13T08:47:26Z</time>
      </trkpt>
      <trkpt lat="45.08033" lon="5.45576">
        <ele>613.40899658203</ele>
        <time>2010-06-13T08:47:31Z</time>
      </trkpt>
      <trkpt lat="45.08042" lon="5.45597">
        <ele>614.71899414062</ele>
        <time>2010-06-13T08:47:38Z</time>
      </trkpt>
      <trkpt lat="45.08052" lon="5.45608">
        <ele>615.55401611328</ele>
        <time>2010-06-13T08:47:42Z</time>
      </trkpt>
      <trkpt lat="45.08083" lon="5.45631">
        <ele>617.45397949219</ele>
        <time>2010-06-13T08:47:50Z</time>
      </trkpt>
      <trkpt lat="45.0811" lon="5.45652">
        <ele>619.21398925781</ele>
        <time>2010-06-13T08:47:56Z</time>
      </trkpt>
      <trkpt lat="45.08124" lon="5.45667">
        <ele>620.29797363281</ele>
        <time>2010-06-13T08:48:00Z</time>
      </trkpt>
      <trkpt lat="45.08132" lon="5.45674">
        <ele>621.083984375</ele>
        <time>2010-06-13T08:48:02Z</time>
      </trkpt>
      <trkpt lat="45.08141" lon="5.4568">
        <ele>621.54400634766</ele>
        <time>2010-06-13T08:48:04Z</time>
      </trkpt>
      <trkpt lat="45.08169" lon="5.457">
        <ele>623.76000976562</ele>
        <time>2010-06-13T08:48:11Z</time>
      </trkpt>
      <trkpt lat="45.08173" lon="5.4571">
        <ele>624.79400634766</ele>
        <time>2010-06-13T08:48:15Z</time>
      </trkpt>
      <trkpt lat="45.08179" lon="5.45714">
        <ele>625.5009765625</ele>
        <time>2010-06-13T08:48:17Z</time>
      </trkpt>
      <trkpt lat="45.08187" lon="5.45752">
        <ele>626.09197998047</ele>
        <time>2010-06-13T08:48:20Z</time>
      </trkpt>
      <trkpt lat="45.08197" lon="5.45757">
        <ele>626.39801025391</ele>
        <time>2010-06-13T08:48:22Z</time>
      </trkpt>
      <trkpt lat="45.08221" lon="5.45772">
        <ele>627.82000732422</ele>
        <time>2010-06-13T08:48:27Z</time>
      </trkpt>
      <trkpt lat="45.0824" lon="5.45778">
        <ele>629.03601074219</ele>
        <time>2010-06-13T08:48:31Z</time>
      </trkpt>
      <trkpt lat="45.08274" lon="5.45777">
        <ele>631.07598876953</ele>
        <time>2010-06-13T08:48:38Z</time>
      </trkpt>
      <trkpt lat="45.08278" lon="5.45777">
        <ele>631.28399658203</ele>
        <time>2010-06-13T08:48:39Z</time>
      </trkpt>
      <trkpt lat="45.08295" lon="5.45768">
        <ele>632.03002929688</ele>
        <time>2010-06-13T08:48:43Z</time>
      </trkpt>
      <trkpt lat="45.08303" lon="5.45761">
        <ele>632.38299560547</ele>
        <time>2010-06-13T08:48:45Z</time>
      </trkpt>
      <trkpt lat="45.0832" lon="5.45764">
        <ele>632.77398681641</ele>
        <time>2010-06-13T08:48:49Z</time>
      </trkpt>
      <trkpt lat="45.08329" lon="5.45779">
        <ele>633.59301757812</ele>
        <time>2010-06-13T08:48:52Z</time>
      </trkpt>
      <trkpt lat="45.08339" lon="5.45793">
        <ele>634.15899658203</ele>
        <time>2010-06-13T08:48:55Z</time>
      </trkpt>
      <trkpt lat="45.08361" lon="5.45813">
        <ele>634.93402099609</ele>
        <time>2010-06-13T08:49:00Z</time>
      </trkpt>
      <trkpt lat="45.08385" lon="5.4583">
        <ele>635.45202636719</ele>
        <time>2010-06-13T08:49:05Z</time>
      </trkpt>
      <trkpt lat="45.08413" lon="5.45863">
        <ele>635.22698974609</ele>
        <time>2010-06-13T08:49:11Z</time>
      </trkpt>
      <trkpt lat="45.0843" lon="5.45887">
        <ele>634.87097167969</ele>
        <time>2010-06-13T08:49:15Z</time>
      </trkpt>
      <trkpt lat="45.08448" lon="5.4591">
        <ele>635.51000976562</ele>
        <time>2010-06-13T08:49:19Z</time>
      </trkpt>
      <trkpt lat="45.08458" lon="5.45921">
        <ele>635.74401855469</ele>
        <time>2010-06-13T08:49:21Z</time>
      </trkpt>
      <trkpt lat="45.08476" lon="5.45938">
        <ele>636.27502441406</ele>
        <time>2010-06-13T08:49:24Z</time>
      </trkpt>
      <trkpt lat="45.08487" lon="5.45949">
        <ele>636.37298583984</ele>
        <time>2010-06-13T08:49:26Z</time>
      </trkpt>
      <trkpt lat="45.08516" lon="5.45978">
        <ele>636.60302734375</ele>
        <time>2010-06-13T08:49:31Z</time>
      </trkpt>
      <trkpt lat="45.0854" lon="5.46001">
        <ele>636.70300292969</ele>
        <time>2010-06-13T08:49:35Z</time>
      </trkpt>
      <trkpt lat="45.0858" lon="5.46026">
        <ele>636.90802001953</ele>
        <time>2010-06-13T08:49:41Z</time>
      </trkpt>
      <trkpt lat="45.0862" lon="5.4605">
        <ele>636.79797363281</ele>
        <time>2010-06-13T08:49:47Z</time>
      </trkpt>
      <trkpt lat="45.08641" lon="5.46076">
        <ele>637.23199462891</ele>
        <time>2010-06-13T08:49:51Z</time>
      </trkpt>
      <trkpt lat="45.08674" lon="5.46148">
        <ele>638.31799316406</ele>
        <time>2010-06-13T08:50:00Z</time>
      </trkpt>
      <trkpt lat="45.08681" lon="5.46198">
        <ele>638.23901367188</ele>
        <time>2010-06-13T08:50:05Z</time>
      </trkpt>
      <trkpt lat="45.0868" lon="5.46246">
        <ele>640.44000244141</ele>
        <time>2010-06-13T08:50:10Z</time>
      </trkpt>
      <trkpt lat="45.08689" lon="5.46292">
        <ele>641.72399902344</ele>
        <time>2010-06-13T08:50:15Z</time>
      </trkpt>
      <trkpt lat="45.08713" lon="5.46361">
        <ele>642.71502685547</ele>
        <time>2010-06-13T08:50:23Z</time>
      </trkpt>
      <trkpt lat="45.08726" lon="5.46417">
        <ele>642.96899414062</ele>
        <time>2010-06-13T08:50:29Z</time>
      </trkpt>
      <trkpt lat="45.08732" lon="5.46462">
        <ele>643.18402099609</ele>
        <time>2010-06-13T08:50:34Z</time>
      </trkpt>
      <trkpt lat="45.08728" lon="5.46527">
        <ele>644.26702880859</ele>
        <time>2010-06-13T08:50:41Z</time>
      </trkpt>
      <trkpt lat="45.08728" lon="5.46556">
        <ele>644.79302978516</ele>
        <time>2010-06-13T08:50:44Z</time>
      </trkpt>
      <trkpt lat="45.08741" lon="5.466">
        <ele>646.15002441406</ele>
        <time>2010-06-13T08:50:49Z</time>
      </trkpt>
      <trkpt lat="45.08768" lon="5.46654">
        <ele>647.10498046875</ele>
        <time>2010-06-13T08:50:56Z</time>
      </trkpt>
      <trkpt lat="45.08791" lon="5.4671">
        <ele>647.02801513672</ele>
        <time>2010-06-13T08:51:03Z</time>
      </trkpt>
      <trkpt lat="45.08796" lon="5.46728">
        <ele>646.7509765625</ele>
        <time>2010-06-13T08:51:05Z</time>
      </trkpt>
      <trkpt lat="45.08813" lon="5.46773">
        <ele>646.97601318359</ele>
        <time>2010-06-13T08:51:11Z</time>
      </trkpt>
      <trkpt lat="45.08824" lon="5.46788">
        <ele>646.87701416016</ele>
        <time>2010-06-13T08:51:15Z</time>
      </trkpt>
      <trkpt lat="45.08828" lon="5.46785">
        <ele>647.10699462891</ele>
        <time>2010-06-13T08:51:20Z</time>
      </trkpt>
      <trkpt lat="45.08828" lon="5.46785">
        <ele>647.35601806641</ele>
        <time>2010-06-13T08:51:21Z</time>
      </trkpt>
      <trkpt lat="45.08822" lon="5.46788">
        <ele>646.8740234375</ele>
        <time>2010-06-13T08:51:51Z</time>
      </trkpt>
      <trkpt lat="45.08823" lon="5.46803">
        <ele>646.97100830078</ele>
        <time>2010-06-13T08:51:54Z</time>
      </trkpt>
      <trkpt lat="45.08827" lon="5.46814">
        <ele>646.71301269531</ele>
        <time>2010-06-13T08:51:56Z</time>
      </trkpt>
      <trkpt lat="45.08847" lon="5.46843">
        <ele>647.46398925781</ele>
        <time>2010-06-13T08:52:03Z</time>
      </trkpt>
      <trkpt lat="45.08883" lon="5.46861">
        <ele>647.76800537109</ele>
        <time>2010-06-13T08:52:10Z</time>
      </trkpt>
      <trkpt lat="45.08924" lon="5.46887">
        <ele>647.92199707031</ele>
        <time>2010-06-13T08:52:17Z</time>
      </trkpt>
      <trkpt lat="45.08952" lon="5.46916">
        <ele>648.06799316406</ele>
        <time>2010-06-13T08:52:22Z</time>
      </trkpt>
      <trkpt lat="45.08971" lon="5.46958">
        <ele>647.34100341797</ele>
        <time>2010-06-13T08:52:27Z</time>
      </trkpt>
      <trkpt lat="45.08976" lon="5.47021">
        <ele>647.166015625</ele>
        <time>2010-06-13T08:52:33Z</time>
      </trkpt>
      <trkpt lat="45.08962" lon="5.47068">
        <ele>647.916015625</ele>
        <time>2010-06-13T08:52:38Z</time>
      </trkpt>
      <trkpt lat="45.08958" lon="5.47076">
        <ele>648.14398193359</ele>
        <time>2010-06-13T08:52:39Z</time>
      </trkpt>
      <trkpt lat="45.08923" lon="5.47135">
        <ele>649.56597900391</ele>
        <time>2010-06-13T08:52:47Z</time>
      </trkpt>
      <trkpt lat="45.08883" lon="5.47196">
        <ele>650.07397460938</ele>
        <time>2010-06-13T08:52:55Z</time>
      </trkpt>
      <trkpt lat="45.08854" lon="5.47245">
        <ele>650.96002197266</ele>
        <time>2010-06-13T08:53:01Z</time>
      </trkpt>
      <trkpt lat="45.08818" lon="5.47302">
        <ele>651.59802246094</ele>
        <time>2010-06-13T08:53:08Z</time>
      </trkpt>
      <trkpt lat="45.08783" lon="5.4736">
        <ele>652.23699951172</ele>
        <time>2010-06-13T08:53:15Z</time>
      </trkpt>
      <trkpt lat="45.08764" lon="5.47406">
        <ele>652.48199462891</ele>
        <time>2010-06-13T08:53:20Z</time>
      </trkpt>
      <trkpt lat="45.08758" lon="5.47426">
        <ele>652.67498779297</ele>
        <time>2010-06-13T08:53:22Z</time>
      </trkpt>
      <trkpt lat="45.08721" lon="5.4751">
        <ele>653.44299316406</ele>
        <time>2010-06-13T08:53:31Z</time>
      </trkpt>
      <trkpt lat="45.08684" lon="5.47585">
        <ele>654.68402099609</ele>
        <time>2010-06-13T08:53:39Z</time>
      </trkpt>
      <trkpt lat="45.08657" lon="5.47628">
        <ele>655.38897705078</ele>
        <time>2010-06-13T08:53:44Z</time>
      </trkpt>
      <trkpt lat="45.08634" lon="5.47677">
        <ele>655.30798339844</ele>
        <time>2010-06-13T08:53:49Z</time>
      </trkpt>
      <trkpt lat="45.08624" lon="5.4771">
        <ele>655.8759765625</ele>
        <time>2010-06-13T08:53:52Z</time>
      </trkpt>
      <trkpt lat="45.08593" lon="5.47768">
        <ele>656.23699951172</ele>
        <time>2010-06-13T08:53:58Z</time>
      </trkpt>
      <trkpt lat="45.08578" lon="5.47796">
        <ele>656.64398193359</ele>
        <time>2010-06-13T08:54:01Z</time>
      </trkpt>
      <trkpt lat="45.08568" lon="5.47854">
        <ele>657.25402832031</ele>
        <time>2010-06-13T08:54:06Z</time>
      </trkpt>
      <trkpt lat="45.08565" lon="5.47877">
        <ele>657.53900146484</ele>
        <time>2010-06-13T08:54:08Z</time>
      </trkpt>
      <trkpt lat="45.08552" lon="5.47916">
        <ele>658.41302490234</ele>
        <time>2010-06-13T08:54:12Z</time>
      </trkpt>
      <trkpt lat="45.08524" lon="5.47968">
        <ele>659.0830078125</ele>
        <time>2010-06-13T08:54:18Z</time>
      </trkpt>
      <trkpt lat="45.08509" lon="5.48028">
        <ele>659.94598388672</ele>
        <time>2010-06-13T08:54:24Z</time>
      </trkpt>
      <trkpt lat="45.08501" lon="5.48058">
        <ele>660.13800048828</ele>
        <time>2010-06-13T08:54:27Z</time>
      </trkpt>
      <trkpt lat="45.08473" lon="5.48107">
        <ele>660.51000976562</ele>
        <time>2010-06-13T08:54:33Z</time>
      </trkpt>
      <trkpt lat="45.08432" lon="5.4817">
        <ele>661.18597412109</ele>
        <time>2010-06-13T08:54:41Z</time>
      </trkpt>
      <trkpt lat="45.08417" lon="5.48219">
        <ele>661.95300292969</ele>
        <time>2010-06-13T08:54:46Z</time>
      </trkpt>
      <trkpt lat="45.08408" lon="5.48259">
        <ele>662.09600830078</ele>
        <time>2010-06-13T08:54:50Z</time>
      </trkpt>
      <trkpt lat="45.08412" lon="5.48315">
        <ele>662.20397949219</ele>
        <time>2010-06-13T08:54:55Z</time>
      </trkpt>
      <trkpt lat="45.0841" lon="5.48338">
        <ele>662.19799804688</ele>
        <time>2010-06-13T08:54:57Z</time>
      </trkpt>
      <trkpt lat="45.08403" lon="5.48369">
        <ele>662.62200927734</ele>
        <time>2010-06-13T08:55:00Z</time>
      </trkpt>
      <trkpt lat="45.08399" lon="5.48412">
        <ele>663.14300537109</ele>
        <time>2010-06-13T08:55:04Z</time>
      </trkpt>
      <trkpt lat="45.08386" lon="5.48451">
        <ele>663.43499755859</ele>
        <time>2010-06-13T08:55:08Z</time>
      </trkpt>
      <trkpt lat="45.08364" lon="5.48466">
        <ele>663.76300048828</ele>
        <time>2010-06-13T08:55:11Z</time>
      </trkpt>
      <trkpt lat="45.08356" lon="5.48469">
        <ele>663.86700439453</ele>
        <time>2010-06-13T08:55:12Z</time>
      </trkpt>
      <trkpt lat="45.08292" lon="5.48483">
        <ele>665.26202392578</ele>
        <time>2010-06-13T08:55:20Z</time>
      </trkpt>
      <trkpt lat="45.08252" lon="5.48497">
        <ele>665.78900146484</ele>
        <time>2010-06-13T08:55:25Z</time>
      </trkpt>
      <trkpt lat="45.08216" lon="5.48527">
        <ele>666.06896972656</ele>
        <time>2010-06-13T08:55:30Z</time>
      </trkpt>
      <trkpt lat="45.082" lon="5.48551">
        <ele>666.59301757812</ele>
        <time>2010-06-13T08:55:33Z</time>
      </trkpt>
      <trkpt lat="45.08186" lon="5.48598">
        <ele>668.21997070312</ele>
        <time>2010-06-13T08:55:38Z</time>
      </trkpt>
      <trkpt lat="45.08185" lon="5.48607">
        <ele>668.57501220703</ele>
        <time>2010-06-13T08:55:39Z</time>
      </trkpt>
      <trkpt lat="45.08183" lon="5.48685">
        <ele>670.52600097656</ele>
        <time>2010-06-13T08:55:48Z</time>
      </trkpt>
      <trkpt lat="45.08178" lon="5.48734">
        <ele>672.46697998047</ele>
        <time>2010-06-13T08:55:55Z</time>
      </trkpt>
      <trkpt lat="45.08172" lon="5.48785">
        <ele>673.8740234375</ele>
        <time>2010-06-13T08:56:03Z</time>
      </trkpt>
      <trkpt lat="45.08154" lon="5.48822">
        <ele>675.06896972656</ele>
        <time>2010-06-13T08:56:10Z</time>
      </trkpt>
      <trkpt lat="45.0815" lon="5.48825">
        <ele>675.28601074219</ele>
        <time>2010-06-13T08:56:11Z</time>
      </trkpt>
      <trkpt lat="45.08102" lon="5.48863">
        <ele>677.49597167969</ele>
        <time>2010-06-13T08:56:22Z</time>
      </trkpt>
      <trkpt lat="45.08056" lon="5.4889">
        <ele>679.41400146484</ele>
        <time>2010-06-13T08:56:32Z</time>
      </trkpt>
      <trkpt lat="45.08016" lon="5.48907">
        <ele>681.14501953125</ele>
        <time>2010-06-13T08:56:40Z</time>
      </trkpt>
      <trkpt lat="45.07973" lon="5.48925">
        <ele>683.11700439453</ele>
        <time>2010-06-13T08:56:49Z</time>
      </trkpt>
      <trkpt lat="45.07961" lon="5.48931">
        <ele>683.88397216797</ele>
        <time>2010-06-13T08:56:52Z</time>
      </trkpt>
      <trkpt lat="45.0793" lon="5.48946">
        <ele>685.14300537109</ele>
        <time>2010-06-13T08:56:59Z</time>
      </trkpt>
      <trkpt lat="45.07912" lon="5.48957">
        <ele>685.58898925781</ele>
        <time>2010-06-13T08:57:03Z</time>
      </trkpt>
      <trkpt lat="45.07874" lon="5.48987">
        <ele>687.458984375</ele>
        <time>2010-06-13T08:57:12Z</time>
      </trkpt>
      <trkpt lat="45.07866" lon="5.48993">
        <ele>688.10699462891</ele>
        <time>2010-06-13T08:57:14Z</time>
      </trkpt>
      <trkpt lat="45.07858" lon="5.48998">
        <ele>688.43103027344</ele>
        <time>2010-06-13T08:57:16Z</time>
      </trkpt>
      <trkpt lat="45.07827" lon="5.48997">
        <ele>689.64501953125</ele>
        <time>2010-06-13T08:57:23Z</time>
      </trkpt>
      <trkpt lat="45.078" lon="5.48992">
        <ele>691.25201416016</ele>
        <time>2010-06-13T08:57:29Z</time>
      </trkpt>
      <trkpt lat="45.07766" lon="5.48999">
        <ele>692.5830078125</ele>
        <time>2010-06-13T08:57:36Z</time>
      </trkpt>
      <trkpt lat="45.07724" lon="5.49013">
        <ele>694.23901367188</ele>
        <time>2010-06-13T08:57:44Z</time>
      </trkpt>
      <trkpt lat="45.07685" lon="5.49027">
        <ele>695.90502929688</ele>
        <time>2010-06-13T08:57:52Z</time>
      </trkpt>
      <trkpt lat="45.07652" lon="5.49042">
        <ele>697.27502441406</ele>
        <time>2010-06-13T08:57:59Z</time>
      </trkpt>
      <trkpt lat="45.07621" lon="5.49068">
        <ele>698.4990234375</ele>
        <time>2010-06-13T08:58:06Z</time>
      </trkpt>
      <trkpt lat="45.076" lon="5.49084">
        <ele>699.46600341797</ele>
        <time>2010-06-13T08:58:11Z</time>
      </trkpt>
      <trkpt lat="45.07566" lon="5.49111">
        <ele>701.16302490234</ele>
        <time>2010-06-13T08:58:19Z</time>
      </trkpt>
      <trkpt lat="45.07544" lon="5.49128">
        <ele>701.75799560547</ele>
        <time>2010-06-13T08:58:25Z</time>
      </trkpt>
      <trkpt lat="45.07532" lon="5.49135">
        <ele>701.78002929688</ele>
        <time>2010-06-13T08:58:28Z</time>
      </trkpt>
      <trkpt lat="45.07506" lon="5.49146">
        <ele>703.28997802734</ele>
        <time>2010-06-13T08:58:34Z</time>
      </trkpt>
      <trkpt lat="45.07489" lon="5.49155">
        <ele>704.02001953125</ele>
        <time>2010-06-13T08:58:38Z</time>
      </trkpt>
      <trkpt lat="45.07456" lon="5.4919">
        <ele>705.53802490234</ele>
        <time>2010-06-13T08:58:47Z</time>
      </trkpt>
      <trkpt lat="45.07451" lon="5.492">
        <ele>705.99597167969</ele>
        <time>2010-06-13T08:58:49Z</time>
      </trkpt>
      <trkpt lat="45.07418" lon="5.4923">
        <ele>708.34100341797</ele>
        <time>2010-06-13T08:58:58Z</time>
      </trkpt>
      <trkpt lat="45.07402" lon="5.49225">
        <ele>708.78002929688</ele>
        <time>2010-06-13T08:59:02Z</time>
      </trkpt>
      <trkpt lat="45.07381" lon="5.4921">
        <ele>709.36199951172</ele>
        <time>2010-06-13T08:59:07Z</time>
      </trkpt>
      <trkpt lat="45.07356" lon="5.49209">
        <ele>709.583984375</ele>
        <time>2010-06-13T08:59:12Z</time>
      </trkpt>
      <trkpt lat="45.07344" lon="5.49229">
        <ele>710.93200683594</ele>
        <time>2010-06-13T08:59:17Z</time>
      </trkpt>
      <trkpt lat="45.07333" lon="5.49246">
        <ele>712.01702880859</ele>
        <time>2010-06-13T08:59:22Z</time>
      </trkpt>
      <trkpt lat="45.07328" lon="5.49253">
        <ele>712.56500244141</ele>
        <time>2010-06-13T08:59:24Z</time>
      </trkpt>
      <trkpt lat="45.07315" lon="5.49271">
        <ele>713.44097900391</ele>
        <time>2010-06-13T08:59:29Z</time>
      </trkpt>
      <trkpt lat="45.07279" lon="5.49285">
        <ele>715.28302001953</ele>
        <time>2010-06-13T08:59:35Z</time>
      </trkpt>
      <trkpt lat="45.07259" lon="5.49294">
        <ele>716.30902099609</ele>
        <time>2010-06-13T08:59:40Z</time>
      </trkpt>
      <trkpt lat="45.07256" lon="5.49306">
        <ele>717.31896972656</ele>
        <time>2010-06-13T08:59:44Z</time>
      </trkpt>
      <trkpt lat="45.07256" lon="5.49323">
        <ele>718.32202148438</ele>
        <time>2010-06-13T08:59:49Z</time>
      </trkpt>
      <trkpt lat="45.07256" lon="5.49346">
        <ele>719.05401611328</ele>
        <time>2010-06-13T08:59:54Z</time>
      </trkpt>
      <trkpt lat="45.07254" lon="5.49379">
        <ele>720.36602783203</ele>
        <time>2010-06-13T09:00:01Z</time>
      </trkpt>
      <trkpt lat="45.07251" lon="5.49401">
        <ele>722.11297607422</ele>
        <time>2010-06-13T09:00:06Z</time>
      </trkpt>
      <trkpt lat="45.07242" lon="5.49414">
        <ele>723.26599121094</ele>
        <time>2010-06-13T09:00:11Z</time>
      </trkpt>
      <trkpt lat="45.07238" lon="5.49418">
        <ele>723.67498779297</ele>
        <time>2010-06-13T09:00:13Z</time>
      </trkpt>
      <trkpt lat="45.07245" lon="5.49438">
        <ele>725.22998046875</ele>
        <time>2010-06-13T09:00:18Z</time>
      </trkpt>
      <trkpt lat="45.07248" lon="5.49451">
        <ele>726.33099365234</ele>
        <time>2010-06-13T09:00:21Z</time>
      </trkpt>
      <trkpt lat="45.07247" lon="5.49467">
        <ele>727.38702392578</ele>
        <time>2010-06-13T09:00:24Z</time>
      </trkpt>
      <trkpt lat="45.07246" lon="5.49499">
        <ele>729.08099365234</ele>
        <time>2010-06-13T09:00:30Z</time>
      </trkpt>
      <trkpt lat="45.07251" lon="5.49539">
        <ele>731.34100341797</ele>
        <time>2010-06-13T09:00:37Z</time>
      </trkpt>
      <trkpt lat="45.07252" lon="5.49563">
        <ele>733.01599121094</ele>
        <time>2010-06-13T09:00:42Z</time>
      </trkpt>
      <trkpt lat="45.0725" lon="5.49586">
        <ele>734.84997558594</ele>
        <time>2010-06-13T09:00:47Z</time>
      </trkpt>
      <trkpt lat="45.07249" lon="5.49611">
        <ele>736.23797607422</ele>
        <time>2010-06-13T09:00:52Z</time>
      </trkpt>
      <trkpt lat="45.07242" lon="5.49642">
        <ele>737.85797119141</ele>
        <time>2010-06-13T09:00:58Z</time>
      </trkpt>
      <trkpt lat="45.07237" lon="5.49661">
        <ele>739.29602050781</ele>
        <time>2010-06-13T09:01:02Z</time>
      </trkpt>
      <trkpt lat="45.07227" lon="5.49679">
        <ele>740.39398193359</ele>
        <time>2010-06-13T09:01:06Z</time>
      </trkpt>
      <trkpt lat="45.07223" lon="5.49682">
        <ele>740.60302734375</ele>
        <time>2010-06-13T09:01:07Z</time>
      </trkpt>
      <trkpt lat="45.07212" lon="5.49714">
        <ele>742.76702880859</ele>
        <time>2010-06-13T09:01:14Z</time>
      </trkpt>
      <trkpt lat="45.07203" lon="5.49731">
        <ele>744.41802978516</ele>
        <time>2010-06-13T09:01:19Z</time>
      </trkpt>
      <trkpt lat="45.07193" lon="5.49752">
        <ele>745.78302001953</ele>
        <time>2010-06-13T09:01:24Z</time>
      </trkpt>
      <trkpt lat="45.07189" lon="5.49779">
        <ele>747.79302978516</ele>
        <time>2010-06-13T09:01:30Z</time>
      </trkpt>
      <trkpt lat="45.07194" lon="5.498">
        <ele>749.37097167969</ele>
        <time>2010-06-13T09:01:35Z</time>
      </trkpt>
      <trkpt lat="45.07191" lon="5.4982">
        <ele>750.5830078125</ele>
        <time>2010-06-13T09:01:39Z</time>
      </trkpt>
      <trkpt lat="45.07188" lon="5.49844">
        <ele>751.83099365234</ele>
        <time>2010-06-13T09:01:44Z</time>
      </trkpt>
      <trkpt lat="45.07183" lon="5.49858">
        <ele>753.14501953125</ele>
        <time>2010-06-13T09:01:48Z</time>
      </trkpt>
      <trkpt lat="45.0718" lon="5.49885">
        <ele>754.68701171875</ele>
        <time>2010-06-13T09:01:53Z</time>
      </trkpt>
      <trkpt lat="45.07177" lon="5.49918">
        <ele>756.2919921875</ele>
        <time>2010-06-13T09:01:59Z</time>
      </trkpt>
      <trkpt lat="45.07174" lon="5.49955">
        <ele>758.05102539062</ele>
        <time>2010-06-13T09:02:05Z</time>
      </trkpt>
      <trkpt lat="45.07167" lon="5.49998">
        <ele>759.62097167969</ele>
        <time>2010-06-13T09:02:12Z</time>
      </trkpt>
      <trkpt lat="45.07156" lon="5.50021">
        <ele>760.77099609375</ele>
        <time>2010-06-13T09:02:16Z</time>
      </trkpt>
      <trkpt lat="45.07137" lon="5.50046">
        <ele>762.50897216797</ele>
        <time>2010-06-13T09:02:21Z</time>
      </trkpt>
      <trkpt lat="45.07129" lon="5.50057">
        <ele>762.833984375</ele>
        <time>2010-06-13T09:02:23Z</time>
      </trkpt>
      <trkpt lat="45.07124" lon="5.50068">
        <ele>763.43798828125</ele>
        <time>2010-06-13T09:02:25Z</time>
      </trkpt>
      <trkpt lat="45.07113" lon="5.50077">
        <ele>764.01300048828</ele>
        <time>2010-06-13T09:02:27Z</time>
      </trkpt>
      <trkpt lat="45.07096" lon="5.50099">
        <ele>764.98101806641</ele>
        <time>2010-06-13T09:02:31Z</time>
      </trkpt>
      <trkpt lat="45.07083" lon="5.50119">
        <ele>765.97998046875</ele>
        <time>2010-06-13T09:02:35Z</time>
      </trkpt>
      <trkpt lat="45.07067" lon="5.50157">
        <ele>767.6669921875</ele>
        <time>2010-06-13T09:02:42Z</time>
      </trkpt>
      <trkpt lat="45.07059" lon="5.50186">
        <ele>769.08801269531</ele>
        <time>2010-06-13T09:02:47Z</time>
      </trkpt>
      <trkpt lat="45.07057" lon="5.50197">
        <ele>769.65600585938</ele>
        <time>2010-06-13T09:02:49Z</time>
      </trkpt>
      <trkpt lat="45.07049" lon="5.50213">
        <ele>770.55499267578</ele>
        <time>2010-06-13T09:02:52Z</time>
      </trkpt>
      <trkpt lat="45.07051" lon="5.50244">
        <ele>771.69799804688</ele>
        <time>2010-06-13T09:02:57Z</time>
      </trkpt>
      <trkpt lat="45.07046" lon="5.50269">
        <ele>773.17102050781</ele>
        <time>2010-06-13T09:03:02Z</time>
      </trkpt>
      <trkpt lat="45.07041" lon="5.5029">
        <ele>773.73901367188</ele>
        <time>2010-06-13T09:03:06Z</time>
      </trkpt>
      <trkpt lat="45.07035" lon="5.50352">
        <ele>776.16302490234</ele>
        <time>2010-06-13T09:03:17Z</time>
      </trkpt>
      <trkpt lat="45.07033" lon="5.50391">
        <ele>777.68499755859</ele>
        <time>2010-06-13T09:03:24Z</time>
      </trkpt>
      <trkpt lat="45.07037" lon="5.50429">
        <ele>778.91198730469</ele>
        <time>2010-06-13T09:03:31Z</time>
      </trkpt>
      <trkpt lat="45.07051" lon="5.50482">
        <ele>781.15197753906</ele>
        <time>2010-06-13T09:03:41Z</time>
      </trkpt>
      <trkpt lat="45.07056" lon="5.50515">
        <ele>782.78002929688</ele>
        <time>2010-06-13T09:03:47Z</time>
      </trkpt>
      <trkpt lat="45.07054" lon="5.50549">
        <ele>784.33099365234</ele>
        <time>2010-06-13T09:03:53Z</time>
      </trkpt>
      <trkpt lat="45.07047" lon="5.50574">
        <ele>785.50500488281</ele>
        <time>2010-06-13T09:03:58Z</time>
      </trkpt>
      <trkpt lat="45.07034" lon="5.50594">
        <ele>786.71099853516</ele>
        <time>2010-06-13T09:04:03Z</time>
      </trkpt>
      <trkpt lat="45.07016" lon="5.50621">
        <ele>787.9580078125</ele>
        <time>2010-06-13T09:04:10Z</time>
      </trkpt>
      <trkpt lat="45.07006" lon="5.50639">
        <ele>788.81896972656</ele>
        <time>2010-06-13T09:04:14Z</time>
      </trkpt>
      <trkpt lat="45.06994" lon="5.50673">
        <ele>790.28997802734</ele>
        <time>2010-06-13T09:04:21Z</time>
      </trkpt>
      <trkpt lat="45.06981" lon="5.50703">
        <ele>791.73901367188</ele>
        <time>2010-06-13T09:04:28Z</time>
      </trkpt>
      <trkpt lat="45.06967" lon="5.50732">
        <ele>793.81298828125</ele>
        <time>2010-06-13T09:04:35Z</time>
      </trkpt>
      <trkpt lat="45.06961" lon="5.5076">
        <ele>794.6259765625</ele>
        <time>2010-06-13T09:04:41Z</time>
      </trkpt>
      <trkpt lat="45.06955" lon="5.50786">
        <ele>796.23999023438</ele>
        <time>2010-06-13T09:04:47Z</time>
      </trkpt>
      <trkpt lat="45.06949" lon="5.50814">
        <ele>797.54998779297</ele>
        <time>2010-06-13T09:04:53Z</time>
      </trkpt>
      <trkpt lat="45.06943" lon="5.5085">
        <ele>798.76300048828</ele>
        <time>2010-06-13T09:05:00Z</time>
      </trkpt>
      <trkpt lat="45.06937" lon="5.50876">
        <ele>800.06701660156</ele>
        <time>2010-06-13T09:05:05Z</time>
      </trkpt>
      <trkpt lat="45.06931" lon="5.50909">
        <ele>801.62298583984</ele>
        <time>2010-06-13T09:05:11Z</time>
      </trkpt>
      <trkpt lat="45.0693" lon="5.5092">
        <ele>802.32598876953</ele>
        <time>2010-06-13T09:05:13Z</time>
      </trkpt>
      <trkpt lat="45.06924" lon="5.50974">
        <ele>804.43103027344</ele>
        <time>2010-06-13T09:05:22Z</time>
      </trkpt>
      <trkpt lat="45.06926" lon="5.51002">
        <ele>805.36901855469</ele>
        <time>2010-06-13T09:05:26Z</time>
      </trkpt>
      <trkpt lat="45.06922" lon="5.51055">
        <ele>807.48498535156</ele>
        <time>2010-06-13T09:05:34Z</time>
      </trkpt>
      <trkpt lat="45.06914" lon="5.51092">
        <ele>809.32598876953</ele>
        <time>2010-06-13T09:05:40Z</time>
      </trkpt>
      <trkpt lat="45.06909" lon="5.51118">
        <ele>810.32702636719</ele>
        <time>2010-06-13T09:05:44Z</time>
      </trkpt>
      <trkpt lat="45.06902" lon="5.5114">
        <ele>811.52099609375</ele>
        <time>2010-06-13T09:05:48Z</time>
      </trkpt>
      <trkpt lat="45.06896" lon="5.51157">
        <ele>812.27197265625</ele>
        <time>2010-06-13T09:05:51Z</time>
      </trkpt>
      <trkpt lat="45.06889" lon="5.51197">
        <ele>814.18597412109</ele>
        <time>2010-06-13T09:05:58Z</time>
      </trkpt>
      <trkpt lat="45.06881" lon="5.51234">
        <ele>815.55603027344</ele>
        <time>2010-06-13T09:06:05Z</time>
      </trkpt>
      <trkpt lat="45.06869" lon="5.51263">
        <ele>816.71099853516</ele>
        <time>2010-06-13T09:06:11Z</time>
      </trkpt>
      <trkpt lat="45.06854" lon="5.51303">
        <ele>818.57501220703</ele>
        <time>2010-06-13T09:06:19Z</time>
      </trkpt>
      <trkpt lat="45.06844" lon="5.51328">
        <ele>820.05798339844</ele>
        <time>2010-06-13T09:06:24Z</time>
      </trkpt>
      <trkpt lat="45.06837" lon="5.51361">
        <ele>821.40600585938</ele>
        <time>2010-06-13T09:06:30Z</time>
      </trkpt>
      <trkpt lat="45.06835" lon="5.51372">
        <ele>821.72998046875</ele>
        <time>2010-06-13T09:06:32Z</time>
      </trkpt>
      <trkpt lat="45.06828" lon="5.51392">
        <ele>822.68402099609</ele>
        <time>2010-06-13T09:06:36Z</time>
      </trkpt>
      <trkpt lat="45.0682" lon="5.51426">
        <ele>824.28302001953</ele>
        <time>2010-06-13T09:06:42Z</time>
      </trkpt>
      <trkpt lat="45.06819" lon="5.51438">
        <ele>824.9580078125</ele>
        <time>2010-06-13T09:06:44Z</time>
      </trkpt>
      <trkpt lat="45.06822" lon="5.5149">
        <ele>827.22698974609</ele>
        <time>2010-06-13T09:06:53Z</time>
      </trkpt>
      <trkpt lat="45.06824" lon="5.51521">
        <ele>828.458984375</ele>
        <time>2010-06-13T09:06:59Z</time>
      </trkpt>
      <trkpt lat="45.06817" lon="5.51556">
        <ele>829.70397949219</ele>
        <time>2010-06-13T09:07:06Z</time>
      </trkpt>
      <trkpt lat="45.06809" lon="5.5159">
        <ele>831.82702636719</ele>
        <time>2010-06-13T09:07:13Z</time>
      </trkpt>
      <trkpt lat="45.06799" lon="5.51628">
        <ele>833.40301513672</ele>
        <time>2010-06-13T09:07:20Z</time>
      </trkpt>
      <trkpt lat="45.06802" lon="5.51667">
        <ele>835.01397705078</ele>
        <time>2010-06-13T09:07:26Z</time>
      </trkpt>
      <trkpt lat="45.06808" lon="5.51679">
        <ele>835.63897705078</ele>
        <time>2010-06-13T09:07:28Z</time>
      </trkpt>
      <trkpt lat="45.06816" lon="5.51691">
        <ele>836.28900146484</ele>
        <time>2010-06-13T09:07:30Z</time>
      </trkpt>
      <trkpt lat="45.06833" lon="5.51708">
        <ele>837.56201171875</ele>
        <time>2010-06-13T09:07:34Z</time>
      </trkpt>
      <trkpt lat="45.06845" lon="5.51718">
        <ele>838.40002441406</ele>
        <time>2010-06-13T09:07:37Z</time>
      </trkpt>
      <trkpt lat="45.06865" lon="5.51738">
        <ele>839.37097167969</ele>
        <time>2010-06-13T09:07:42Z</time>
      </trkpt>
      <trkpt lat="45.06876" lon="5.51752">
        <ele>839.89599609375</ele>
        <time>2010-06-13T09:07:45Z</time>
      </trkpt>
      <trkpt lat="45.06887" lon="5.51765">
        <ele>840.83898925781</ele>
        <time>2010-06-13T09:07:48Z</time>
      </trkpt>
      <trkpt lat="45.06903" lon="5.5179">
        <ele>842.32397460938</ele>
        <time>2010-06-13T09:07:53Z</time>
      </trkpt>
      <trkpt lat="45.06917" lon="5.51841">
        <ele>844.44598388672</ele>
        <time>2010-06-13T09:08:01Z</time>
      </trkpt>
      <trkpt lat="45.06922" lon="5.51859">
        <ele>845.25897216797</ele>
        <time>2010-06-13T09:08:04Z</time>
      </trkpt>
      <trkpt lat="45.06936" lon="5.51895">
        <ele>846.96099853516</ele>
        <time>2010-06-13T09:08:11Z</time>
      </trkpt>
      <trkpt lat="45.06945" lon="5.51913">
        <ele>847.92297363281</ele>
        <time>2010-06-13T09:08:15Z</time>
      </trkpt>
      <trkpt lat="45.0697" lon="5.51919">
        <ele>849.26501464844</ele>
        <time>2010-06-13T09:08:20Z</time>
      </trkpt>
      <trkpt lat="45.06988" lon="5.51943">
        <ele>851.03601074219</ele>
        <time>2010-06-13T09:08:26Z</time>
      </trkpt>
      <trkpt lat="45.07005" lon="5.51959">
        <ele>852.32897949219</ele>
        <time>2010-06-13T09:08:31Z</time>
      </trkpt>
      <trkpt lat="45.07008" lon="5.51963">
        <ele>852.53100585938</ele>
        <time>2010-06-13T09:08:32Z</time>
      </trkpt>
      <trkpt lat="45.07026" lon="5.5199">
        <ele>854.34899902344</ele>
        <time>2010-06-13T09:08:38Z</time>
      </trkpt>
      <trkpt lat="45.07073" lon="5.52083">
        <ele>857.21697998047</ele>
        <time>2010-06-13T09:08:48Z</time>
      </trkpt>
      <trkpt lat="45.07065" lon="5.52086">
        <ele>857.94097900391</ele>
        <time>2010-06-13T09:08:51Z</time>
      </trkpt>
      <trkpt lat="45.07085" lon="5.52084">
        <ele>859.01800537109</ele>
        <time>2010-06-13T09:08:56Z</time>
      </trkpt>
      <trkpt lat="45.07103" lon="5.52078">
        <ele>860.67401123047</ele>
        <time>2010-06-13T09:09:01Z</time>
      </trkpt>
      <trkpt lat="45.07113" lon="5.52073">
        <ele>861.47100830078</ele>
        <time>2010-06-13T09:09:04Z</time>
      </trkpt>
      <trkpt lat="45.07114" lon="5.52071">
        <ele>862.19396972656</ele>
        <time>2010-06-13T09:09:06Z</time>
      </trkpt>
      <trkpt lat="45.07145" lon="5.52017">
        <ele>864.916015625</ele>
        <time>2010-06-13T09:09:14Z</time>
      </trkpt>
      <trkpt lat="45.07158" lon="5.5202">
        <ele>865.08502197266</ele>
        <time>2010-06-13T09:09:15Z</time>
      </trkpt>
      <trkpt lat="45.0719" lon="5.52029">
        <ele>866.60797119141</ele>
        <time>2010-06-13T09:09:20Z</time>
      </trkpt>
      <trkpt lat="45.07208" lon="5.52038">
        <ele>867.96398925781</ele>
        <time>2010-06-13T09:09:25Z</time>
      </trkpt>
      <trkpt lat="45.07225" lon="5.52043">
        <ele>869.37200927734</ele>
        <time>2010-06-13T09:09:29Z</time>
      </trkpt>
      <trkpt lat="45.07241" lon="5.52048">
        <ele>870.58197021484</ele>
        <time>2010-06-13T09:09:32Z</time>
      </trkpt>
      <trkpt lat="45.07256" lon="5.5205">
        <ele>871.52697753906</ele>
        <time>2010-06-13T09:09:35Z</time>
      </trkpt>
      <trkpt lat="45.07266" lon="5.52051">
        <ele>872.14099121094</ele>
        <time>2010-06-13T09:09:37Z</time>
      </trkpt>
      <trkpt lat="45.07276" lon="5.52055">
        <ele>872.49200439453</ele>
        <time>2010-06-13T09:09:39Z</time>
      </trkpt>
      <trkpt lat="45.07306" lon="5.52055">
        <ele>874.76898193359</ele>
        <time>2010-06-13T09:09:45Z</time>
      </trkpt>
      <trkpt lat="45.07322" lon="5.52056">
        <ele>875.93597412109</ele>
        <time>2010-06-13T09:09:49Z</time>
      </trkpt>
      <trkpt lat="45.0734" lon="5.52059">
        <ele>877.0419921875</ele>
        <time>2010-06-13T09:09:53Z</time>
      </trkpt>
      <trkpt lat="45.07361" lon="5.52059">
        <ele>878.60198974609</ele>
        <time>2010-06-13T09:09:58Z</time>
      </trkpt>
      <trkpt lat="45.07376" lon="5.52059">
        <ele>879.70599365234</ele>
        <time>2010-06-13T09:10:02Z</time>
      </trkpt>
      <trkpt lat="45.07395" lon="5.52062">
        <ele>880.96997070312</ele>
        <time>2010-06-13T09:10:06Z</time>
      </trkpt>
      <trkpt lat="45.07425" lon="5.52064">
        <ele>882.37200927734</ele>
        <time>2010-06-13T09:10:10Z</time>
      </trkpt>
      <trkpt lat="45.07458" lon="5.52069">
        <ele>884.34301757812</ele>
        <time>2010-06-13T09:10:16Z</time>
      </trkpt>
      <trkpt lat="45.07472" lon="5.52059">
        <ele>885.89697265625</ele>
        <time>2010-06-13T09:10:21Z</time>
      </trkpt>
      <trkpt lat="45.07489" lon="5.52061">
        <ele>887.17700195312</ele>
        <time>2010-06-13T09:10:25Z</time>
      </trkpt>
      <trkpt lat="45.07504" lon="5.52084">
        <ele>888.76202392578</ele>
        <time>2010-06-13T09:10:30Z</time>
      </trkpt>
      <trkpt lat="45.07524" lon="5.52098">
        <ele>890.42401123047</ele>
        <time>2010-06-13T09:10:34Z</time>
      </trkpt>
      <trkpt lat="45.07539" lon="5.52109">
        <ele>891.63800048828</ele>
        <time>2010-06-13T09:10:38Z</time>
      </trkpt>
      <trkpt lat="45.07571" lon="5.52133">
        <ele>893.43701171875</ele>
        <time>2010-06-13T09:10:45Z</time>
      </trkpt>
      <trkpt lat="45.07586" lon="5.52135">
        <ele>894.39801025391</ele>
        <time>2010-06-13T09:10:49Z</time>
      </trkpt>
      <trkpt lat="45.07598" lon="5.52143">
        <ele>896.18402099609</ele>
        <time>2010-06-13T09:10:53Z</time>
      </trkpt>
      <trkpt lat="45.07611" lon="5.52159">
        <ele>897.76800537109</ele>
        <time>2010-06-13T09:10:59Z</time>
      </trkpt>
      <trkpt lat="45.07636" lon="5.5216">
        <ele>899.51800537109</ele>
        <time>2010-06-13T09:11:04Z</time>
      </trkpt>
      <trkpt lat="45.0764" lon="5.52159">
        <ele>899.88000488281</ele>
        <time>2010-06-13T09:11:05Z</time>
      </trkpt>
      <trkpt lat="45.07671" lon="5.52146">
        <ele>901.04699707031</ele>
        <time>2010-06-13T09:11:09Z</time>
      </trkpt>
      <trkpt lat="45.07684" lon="5.52137">
        <ele>901.51800537109</ele>
        <time>2010-06-13T09:11:11Z</time>
      </trkpt>
      <trkpt lat="45.077" lon="5.52128">
        <ele>902.78399658203</ele>
        <time>2010-06-13T09:11:15Z</time>
      </trkpt>
      <trkpt lat="45.07714" lon="5.52118">
        <ele>904.29302978516</ele>
        <time>2010-06-13T09:11:19Z</time>
      </trkpt>
      <trkpt lat="45.07728" lon="5.5211">
        <ele>906.49700927734</ele>
        <time>2010-06-13T09:11:25Z</time>
      </trkpt>
      <trkpt lat="45.07744" lon="5.5211">
        <ele>908.69000244141</ele>
        <time>2010-06-13T09:11:30Z</time>
      </trkpt>
      <trkpt lat="45.07773" lon="5.52119">
        <ele>911.44396972656</ele>
        <time>2010-06-13T09:11:37Z</time>
      </trkpt>
      <trkpt lat="45.07807" lon="5.52131">
        <ele>914.60699462891</ele>
        <time>2010-06-13T09:11:45Z</time>
      </trkpt>
      <trkpt lat="45.07835" lon="5.52129">
        <ele>917.33001708984</ele>
        <time>2010-06-13T09:11:52Z</time>
      </trkpt>
      <trkpt lat="45.07848" lon="5.5213">
        <ele>917.93103027344</ele>
        <time>2010-06-13T09:11:55Z</time>
      </trkpt>
      <trkpt lat="45.07881" lon="5.52125">
        <ele>919.66900634766</ele>
        <time>2010-06-13T09:12:02Z</time>
      </trkpt>
      <trkpt lat="45.07898" lon="5.52135">
        <ele>920.97900390625</ele>
        <time>2010-06-13T09:12:07Z</time>
      </trkpt>
      <trkpt lat="45.07923" lon="5.52142">
        <ele>922.71899414062</ele>
        <time>2010-06-13T09:12:13Z</time>
      </trkpt>
      <trkpt lat="45.07953" lon="5.5216">
        <ele>924.16998291016</ele>
        <time>2010-06-13T09:12:19Z</time>
      </trkpt>
      <trkpt lat="45.07977" lon="5.52183">
        <ele>925.37298583984</ele>
        <time>2010-06-13T09:12:25Z</time>
      </trkpt>
      <trkpt lat="45.07998" lon="5.5219">
        <ele>926.39099121094</ele>
        <time>2010-06-13T09:12:30Z</time>
      </trkpt>
      <trkpt lat="45.08005" lon="5.52188">
        <ele>926.65197753906</ele>
        <time>2010-06-13T09:12:31Z</time>
      </trkpt>
      <trkpt lat="45.08049" lon="5.52172">
        <ele>927.46002197266</ele>
        <time>2010-06-13T09:12:36Z</time>
      </trkpt>
      <trkpt lat="45.08083" lon="5.52155">
        <ele>928.69897460938</ele>
        <time>2010-06-13T09:12:41Z</time>
      </trkpt>
      <trkpt lat="45.08091" lon="5.52149">
        <ele>929.23297119141</ele>
        <time>2010-06-13T09:12:43Z</time>
      </trkpt>
      <trkpt lat="45.08115" lon="5.52135">
        <ele>929.78802490234</ele>
        <time>2010-06-13T09:12:48Z</time>
      </trkpt>
      <trkpt lat="45.08139" lon="5.52128">
        <ele>930.26702880859</ele>
        <time>2010-06-13T09:12:53Z</time>
      </trkpt>
      <trkpt lat="45.08152" lon="5.52134">
        <ele>930.24298095703</ele>
        <time>2010-06-13T09:12:57Z</time>
      </trkpt>
      <trkpt lat="45.08179" lon="5.52133">
        <ele>930.71502685547</ele>
        <time>2010-06-13T09:13:00Z</time>
      </trkpt>
      <trkpt lat="45.0821" lon="5.52116">
        <ele>931.73797607422</ele>
        <time>2010-06-13T09:13:04Z</time>
      </trkpt>
      <trkpt lat="45.0822" lon="5.52111">
        <ele>932.00299072266</ele>
        <time>2010-06-13T09:13:05Z</time>
      </trkpt>
      <trkpt lat="45.08248" lon="5.52084">
        <ele>932.60797119141</ele>
        <time>2010-06-13T09:13:09Z</time>
      </trkpt>
      <trkpt lat="45.08263" lon="5.52053">
        <ele>933.43798828125</ele>
        <time>2010-06-13T09:13:13Z</time>
      </trkpt>
      <trkpt lat="45.08271" lon="5.52035">
        <ele>933.96099853516</ele>
        <time>2010-06-13T09:13:16Z</time>
      </trkpt>
      <trkpt lat="45.08282" lon="5.52022">
        <ele>934.72998046875</ele>
        <time>2010-06-13T09:13:20Z</time>
      </trkpt>
      <trkpt lat="45.08299" lon="5.52017">
        <ele>934.93499755859</ele>
        <time>2010-06-13T09:13:23Z</time>
      </trkpt>
      <trkpt lat="45.08334" lon="5.52016">
        <ele>935.57299804688</ele>
        <time>2010-06-13T09:13:28Z</time>
      </trkpt>
      <trkpt lat="45.08375" lon="5.52026">
        <ele>937.07897949219</ele>
        <time>2010-06-13T09:13:34Z</time>
      </trkpt>
      <trkpt lat="45.08395" lon="5.52034">
        <ele>937.45397949219</ele>
        <time>2010-06-13T09:13:37Z</time>
      </trkpt>
      <trkpt lat="45.08409" lon="5.52037">
        <ele>937.89501953125</ele>
        <time>2010-06-13T09:13:39Z</time>
      </trkpt>
      <trkpt lat="45.08423" lon="5.52037">
        <ele>938.43902587891</ele>
        <time>2010-06-13T09:13:41Z</time>
      </trkpt>
      <trkpt lat="45.08443" lon="5.52032">
        <ele>939.06701660156</ele>
        <time>2010-06-13T09:13:44Z</time>
      </trkpt>
      <trkpt lat="45.08466" lon="5.52042">
        <ele>939.56799316406</ele>
        <time>2010-06-13T09:13:49Z</time>
      </trkpt>
      <trkpt lat="45.08472" lon="5.5205">
        <ele>939.65600585938</ele>
        <time>2010-06-13T09:13:51Z</time>
      </trkpt>
      <trkpt lat="45.08489" lon="5.52081">
        <ele>939.89501953125</ele>
        <time>2010-06-13T09:13:58Z</time>
      </trkpt>
      <trkpt lat="45.08493" lon="5.52091">
        <ele>940.00201416016</ele>
        <time>2010-06-13T09:14:00Z</time>
      </trkpt>
      <trkpt lat="45.0851" lon="5.52115">
        <ele>940.19299316406</ele>
        <time>2010-06-13T09:14:05Z</time>
      </trkpt>
      <trkpt lat="45.08533" lon="5.52163">
        <ele>939.38702392578</ele>
        <time>2010-06-13T09:14:12Z</time>
      </trkpt>
      <trkpt lat="45.08559" lon="5.52206">
        <ele>939.35400390625</ele>
        <time>2010-06-13T09:14:18Z</time>
      </trkpt>
      <trkpt lat="45.08589" lon="5.52244">
        <ele>938.94897460938</ele>
        <time>2010-06-13T09:14:24Z</time>
      </trkpt>
      <trkpt lat="45.08602" lon="5.52275">
        <ele>938.86901855469</ele>
        <time>2010-06-13T09:14:28Z</time>
      </trkpt>
      <trkpt lat="45.08599" lon="5.52311">
        <ele>938.38800048828</ele>
        <time>2010-06-13T09:14:32Z</time>
      </trkpt>
      <trkpt lat="45.08582" lon="5.52383">
        <ele>938.07702636719</ele>
        <time>2010-06-13T09:14:40Z</time>
      </trkpt>
      <trkpt lat="45.08578" lon="5.52402">
        <ele>937.53997802734</ele>
        <time>2010-06-13T09:14:42Z</time>
      </trkpt>
      <trkpt lat="45.08589" lon="5.5243">
        <ele>937.5</ele>
        <time>2010-06-13T09:14:46Z</time>
      </trkpt>
      <trkpt lat="45.08608" lon="5.52429">
        <ele>938.01702880859</ele>
        <time>2010-06-13T09:14:49Z</time>
      </trkpt>
      <trkpt lat="45.08643" lon="5.52423">
        <ele>938.37298583984</ele>
        <time>2010-06-13T09:14:55Z</time>
      </trkpt>
      <trkpt lat="45.08693" lon="5.52414">
        <ele>939.23797607422</ele>
        <time>2010-06-13T09:15:02Z</time>
      </trkpt>
      <trkpt lat="45.08749" lon="5.52405">
        <ele>939.94299316406</ele>
        <time>2010-06-13T09:15:10Z</time>
      </trkpt>
      <trkpt lat="45.08764" lon="5.52404">
        <ele>939.90301513672</ele>
        <time>2010-06-13T09:15:12Z</time>
      </trkpt>
      <trkpt lat="45.08787" lon="5.52406">
        <ele>940.12799072266</ele>
        <time>2010-06-13T09:15:15Z</time>
      </trkpt>
      <trkpt lat="45.0883" lon="5.52431">
        <ele>940.56597900391</ele>
        <time>2010-06-13T09:15:21Z</time>
      </trkpt>
      <trkpt lat="45.08836" lon="5.52438">
        <ele>940.63098144531</ele>
        <time>2010-06-13T09:15:22Z</time>
      </trkpt>
      <trkpt lat="45.08876" lon="5.52493">
        <ele>940.80499267578</ele>
        <time>2010-06-13T09:15:29Z</time>
      </trkpt>
      <trkpt lat="45.08916" lon="5.5253">
        <ele>940.80700683594</ele>
        <time>2010-06-13T09:15:35Z</time>
      </trkpt>
      <trkpt lat="45.08937" lon="5.52542">
        <ele>941.45501708984</ele>
        <time>2010-06-13T09:15:38Z</time>
      </trkpt>
      <trkpt lat="45.08978" lon="5.52542">
        <ele>942.08197021484</ele>
        <time>2010-06-13T09:15:44Z</time>
      </trkpt>
      <trkpt lat="45.08996" lon="5.52532">
        <ele>941.92498779297</ele>
        <time>2010-06-13T09:15:47Z</time>
      </trkpt>
      <trkpt lat="45.0904" lon="5.5249">
        <ele>942.30499267578</ele>
        <time>2010-06-13T09:15:55Z</time>
      </trkpt>
      <trkpt lat="45.09081" lon="5.52444">
        <ele>943.42901611328</ele>
        <time>2010-06-13T09:16:03Z</time>
      </trkpt>
      <trkpt lat="45.09114" lon="5.52427">
        <ele>943.76300048828</ele>
        <time>2010-06-13T09:16:08Z</time>
      </trkpt>
      <trkpt lat="45.09143" lon="5.52437">
        <ele>943.85400390625</ele>
        <time>2010-06-13T09:16:12Z</time>
      </trkpt>
      <trkpt lat="45.09159" lon="5.52454">
        <ele>944.12200927734</ele>
        <time>2010-06-13T09:16:15Z</time>
      </trkpt>
      <trkpt lat="45.09163" lon="5.52465">
        <ele>944.15301513672</ele>
        <time>2010-06-13T09:16:16Z</time>
      </trkpt>
      <trkpt lat="45.09185" lon="5.52538">
        <ele>944.43402099609</ele>
        <time>2010-06-13T09:16:23Z</time>
      </trkpt>
      <trkpt lat="45.09201" lon="5.52611">
        <ele>946.32702636719</ele>
        <time>2010-06-13T09:16:30Z</time>
      </trkpt>
      <trkpt lat="45.09205" lon="5.52643">
        <ele>946.68402099609</ele>
        <time>2010-06-13T09:16:33Z</time>
      </trkpt>
      <trkpt lat="45.09214" lon="5.52682">
        <ele>947.23999023438</ele>
        <time>2010-06-13T09:16:37Z</time>
      </trkpt>
      <trkpt lat="45.09227" lon="5.52706">
        <ele>947.37902832031</ele>
        <time>2010-06-13T09:16:40Z</time>
      </trkpt>
      <trkpt lat="45.09255" lon="5.52734">
        <ele>947.92297363281</ele>
        <time>2010-06-13T09:16:45Z</time>
      </trkpt>
      <trkpt lat="45.09275" lon="5.5274">
        <ele>948.01202392578</ele>
        <time>2010-06-13T09:16:48Z</time>
      </trkpt>
      <trkpt lat="45.09312" lon="5.52737">
        <ele>949.01000976562</ele>
        <time>2010-06-13T09:16:55Z</time>
      </trkpt>
      <trkpt lat="45.09344" lon="5.52722">
        <ele>948.82202148438</ele>
        <time>2010-06-13T09:17:01Z</time>
      </trkpt>
      <trkpt lat="45.09374" lon="5.52694">
        <ele>949.19897460938</ele>
        <time>2010-06-13T09:17:07Z</time>
      </trkpt>
      <trkpt lat="45.09415" lon="5.52652">
        <ele>949.66302490234</ele>
        <time>2010-06-13T09:17:15Z</time>
      </trkpt>
      <trkpt lat="45.0943" lon="5.52633">
        <ele>950.21697998047</ele>
        <time>2010-06-13T09:17:18Z</time>
      </trkpt>
      <trkpt lat="45.0946" lon="5.52614">
        <ele>951.2490234375</ele>
        <time>2010-06-13T09:17:23Z</time>
      </trkpt>
      <trkpt lat="45.09473" lon="5.52619">
        <ele>951.74798583984</ele>
        <time>2010-06-13T09:17:25Z</time>
      </trkpt>
      <trkpt lat="45.09518" lon="5.52647">
        <ele>952.17999267578</ele>
        <time>2010-06-13T09:17:32Z</time>
      </trkpt>
      <trkpt lat="45.09574" lon="5.52662">
        <ele>952.57800292969</ele>
        <time>2010-06-13T09:17:40Z</time>
      </trkpt>
      <trkpt lat="45.09601" lon="5.52654">
        <ele>953.22698974609</ele>
        <time>2010-06-13T09:17:44Z</time>
      </trkpt>
      <trkpt lat="45.09607" lon="5.52649">
        <ele>953.41198730469</ele>
        <time>2010-06-13T09:17:45Z</time>
      </trkpt>
      <trkpt lat="45.09645" lon="5.52619">
        <ele>953.89801025391</ele>
        <time>2010-06-13T09:17:51Z</time>
      </trkpt>
      <trkpt lat="45.09674" lon="5.52615">
        <ele>953.53302001953</ele>
        <time>2010-06-13T09:17:55Z</time>
      </trkpt>
      <trkpt lat="45.09702" lon="5.5263">
        <ele>953.46600341797</ele>
        <time>2010-06-13T09:17:59Z</time>
      </trkpt>
      <trkpt lat="45.09718" lon="5.52653">
        <ele>954.19702148438</ele>
        <time>2010-06-13T09:18:02Z</time>
      </trkpt>
      <trkpt lat="45.0975" lon="5.52723">
        <ele>954.85302734375</ele>
        <time>2010-06-13T09:18:10Z</time>
      </trkpt>
      <trkpt lat="45.09772" lon="5.52748">
        <ele>954.67700195312</ele>
        <time>2010-06-13T09:18:14Z</time>
      </trkpt>
      <trkpt lat="45.09793" lon="5.52748">
        <ele>954.38598632812</ele>
        <time>2010-06-13T09:18:17Z</time>
      </trkpt>
      <trkpt lat="45.09813" lon="5.52735">
        <ele>954.70300292969</ele>
        <time>2010-06-13T09:18:20Z</time>
      </trkpt>
      <trkpt lat="45.09835" lon="5.52712">
        <ele>954.81402587891</ele>
        <time>2010-06-13T09:18:24Z</time>
      </trkpt>
      <trkpt lat="45.09856" lon="5.52675">
        <ele>955.36700439453</ele>
        <time>2010-06-13T09:18:29Z</time>
      </trkpt>
      <trkpt lat="45.09874" lon="5.5261">
        <ele>955.93701171875</ele>
        <time>2010-06-13T09:18:36Z</time>
      </trkpt>
      <trkpt lat="45.0989" lon="5.52551">
        <ele>956.41198730469</ele>
        <time>2010-06-13T09:18:42Z</time>
      </trkpt>
      <trkpt lat="45.09914" lon="5.52522">
        <ele>956.32800292969</ele>
        <time>2010-06-13T09:18:46Z</time>
      </trkpt>
      <trkpt lat="45.09939" lon="5.52525">
        <ele>955.40997314453</ele>
        <time>2010-06-13T09:18:49Z</time>
      </trkpt>
      <trkpt lat="45.09947" lon="5.5253">
        <ele>955.65600585938</ele>
        <time>2010-06-13T09:18:50Z</time>
      </trkpt>
      <trkpt lat="45.09994" lon="5.52562">
        <ele>956.23999023438</ele>
        <time>2010-06-13T09:18:56Z</time>
      </trkpt>
      <trkpt lat="45.10019" lon="5.52602">
        <ele>955.43103027344</ele>
        <time>2010-06-13T09:19:00Z</time>
      </trkpt>
      <trkpt lat="45.10057" lon="5.52694">
        <ele>954.10198974609</ele>
        <time>2010-06-13T09:19:08Z</time>
      </trkpt>
      <trkpt lat="45.10081" lon="5.52736">
        <ele>953.11999511719</ele>
        <time>2010-06-13T09:19:12Z</time>
      </trkpt>
      <trkpt lat="45.10129" lon="5.52783">
        <ele>952.30401611328</ele>
        <time>2010-06-13T09:19:18Z</time>
      </trkpt>
      <trkpt lat="45.10175" lon="5.52795">
        <ele>952.06597900391</ele>
        <time>2010-06-13T09:19:23Z</time>
      </trkpt>
      <trkpt lat="45.102" lon="5.5278">
        <ele>952.56500244141</ele>
        <time>2010-06-13T09:19:26Z</time>
      </trkpt>
      <trkpt lat="45.10225" lon="5.5275">
        <ele>953.59497070312</ele>
        <time>2010-06-13T09:19:30Z</time>
      </trkpt>
      <trkpt lat="45.1023" lon="5.52741">
        <ele>953.74401855469</ele>
        <time>2010-06-13T09:19:31Z</time>
      </trkpt>
      <trkpt lat="45.10244" lon="5.52707">
        <ele>954.38800048828</ele>
        <time>2010-06-13T09:19:35Z</time>
      </trkpt>
      <trkpt lat="45.10262" lon="5.52686">
        <ele>954.92999267578</ele>
        <time>2010-06-13T09:19:39Z</time>
      </trkpt>
      <trkpt lat="45.10284" lon="5.52684">
        <ele>956.01898193359</ele>
        <time>2010-06-13T09:19:43Z</time>
      </trkpt>
      <trkpt lat="45.10328" lon="5.5269">
        <ele>956.43298339844</ele>
        <time>2010-06-13T09:19:50Z</time>
      </trkpt>
      <trkpt lat="45.10365" lon="5.52687">
        <ele>956.58697509766</ele>
        <time>2010-06-13T09:19:55Z</time>
      </trkpt>
      <trkpt lat="45.10403" lon="5.52671">
        <ele>957.22698974609</ele>
        <time>2010-06-13T09:20:00Z</time>
      </trkpt>
      <trkpt lat="45.10443" lon="5.52671">
        <ele>957.53802490234</ele>
        <time>2010-06-13T09:20:05Z</time>
      </trkpt>
      <trkpt lat="45.10521" lon="5.52699">
        <ele>958.17297363281</ele>
        <time>2010-06-13T09:20:15Z</time>
      </trkpt>
      <trkpt lat="45.10537" lon="5.52727">
        <ele>958.09997558594</ele>
        <time>2010-06-13T09:20:18Z</time>
      </trkpt>
      <trkpt lat="45.1053" lon="5.52759">
        <ele>958.43298339844</ele>
        <time>2010-06-13T09:20:21Z</time>
      </trkpt>
      <trkpt lat="45.10512" lon="5.52794">
        <ele>958.88702392578</ele>
        <time>2010-06-13T09:20:25Z</time>
      </trkpt>
      <trkpt lat="45.10493" lon="5.52843">
        <ele>959.07098388672</ele>
        <time>2010-06-13T09:20:30Z</time>
      </trkpt>
      <trkpt lat="45.10485" lon="5.52886">
        <ele>959.48999023438</ele>
        <time>2010-06-13T09:20:34Z</time>
      </trkpt>
      <trkpt lat="45.10485" lon="5.52942">
        <ele>959.64001464844</ele>
        <time>2010-06-13T09:20:39Z</time>
      </trkpt>
      <trkpt lat="45.10495" lon="5.52973">
        <ele>959.72601318359</ele>
        <time>2010-06-13T09:20:42Z</time>
      </trkpt>
      <trkpt lat="45.10511" lon="5.53002">
        <ele>959.88201904297</ele>
        <time>2010-06-13T09:20:46Z</time>
      </trkpt>
      <trkpt lat="45.10535" lon="5.53009">
        <ele>959.77600097656</ele>
        <time>2010-06-13T09:20:49Z</time>
      </trkpt>
      <trkpt lat="45.10559" lon="5.53004">
        <ele>959.88299560547</ele>
        <time>2010-06-13T09:20:52Z</time>
      </trkpt>
      <trkpt lat="45.10578" lon="5.52983">
        <ele>959.97998046875</ele>
        <time>2010-06-13T09:20:55Z</time>
      </trkpt>
      <trkpt lat="45.10601" lon="5.52949">
        <ele>960.125</ele>
        <time>2010-06-13T09:20:59Z</time>
      </trkpt>
      <trkpt lat="45.1063" lon="5.52926">
        <ele>960.06896972656</ele>
        <time>2010-06-13T09:21:03Z</time>
      </trkpt>
      <trkpt lat="45.10664" lon="5.52929">
        <ele>960.15698242188</ele>
        <time>2010-06-13T09:21:07Z</time>
      </trkpt>
      <trkpt lat="45.10729" lon="5.52963">
        <ele>960.05401611328</ele>
        <time>2010-06-13T09:21:15Z</time>
      </trkpt>
      <trkpt lat="45.10775" lon="5.52989">
        <ele>960.18902587891</ele>
        <time>2010-06-13T09:21:21Z</time>
      </trkpt>
      <trkpt lat="45.10806" lon="5.52989">
        <ele>960.39599609375</ele>
        <time>2010-06-13T09:21:25Z</time>
      </trkpt>
      <trkpt lat="45.10832" lon="5.52971">
        <ele>960.44396972656</ele>
        <time>2010-06-13T09:21:29Z</time>
      </trkpt>
      <trkpt lat="45.10843" lon="5.52957">
        <ele>960.36297607422</ele>
        <time>2010-06-13T09:21:31Z</time>
      </trkpt>
      <trkpt lat="45.10854" lon="5.52943">
        <ele>960.3740234375</ele>
        <time>2010-06-13T09:21:33Z</time>
      </trkpt>
      <trkpt lat="45.10882" lon="5.52933">
        <ele>960.48498535156</ele>
        <time>2010-06-13T09:21:37Z</time>
      </trkpt>
      <trkpt lat="45.10931" lon="5.5295">
        <ele>960.958984375</ele>
        <time>2010-06-13T09:21:44Z</time>
      </trkpt>
      <trkpt lat="45.10988" lon="5.5298">
        <ele>960.57800292969</ele>
        <time>2010-06-13T09:21:52Z</time>
      </trkpt>
      <trkpt lat="45.11052" lon="5.53013">
        <ele>960.42999267578</ele>
        <time>2010-06-13T09:22:01Z</time>
      </trkpt>
      <trkpt lat="45.11112" lon="5.53048">
        <ele>961.02197265625</ele>
        <time>2010-06-13T09:22:10Z</time>
      </trkpt>
      <trkpt lat="45.11171" lon="5.53081">
        <ele>961.39099121094</ele>
        <time>2010-06-13T09:22:19Z</time>
      </trkpt>
      <trkpt lat="45.11229" lon="5.53114">
        <ele>961.76300048828</ele>
        <time>2010-06-13T09:22:28Z</time>
      </trkpt>
      <trkpt lat="45.11272" lon="5.53129">
        <ele>961.17498779297</ele>
        <time>2010-06-13T09:22:34Z</time>
      </trkpt>
      <trkpt lat="45.11326" lon="5.5313">
        <ele>960.83801269531</ele>
        <time>2010-06-13T09:22:41Z</time>
      </trkpt>
      <trkpt lat="45.11396" lon="5.53127">
        <ele>960.47601318359</ele>
        <time>2010-06-13T09:22:50Z</time>
      </trkpt>
      <trkpt lat="45.11453" lon="5.53133">
        <ele>960.54602050781</ele>
        <time>2010-06-13T09:22:57Z</time>
      </trkpt>
      <trkpt lat="45.1151" lon="5.53153">
        <ele>960.97497558594</ele>
        <time>2010-06-13T09:23:04Z</time>
      </trkpt>
      <trkpt lat="45.11578" lon="5.53184">
        <ele>962.09997558594</ele>
        <time>2010-06-13T09:23:13Z</time>
      </trkpt>
      <trkpt lat="45.11613" lon="5.53186">
        <ele>963.20697021484</ele>
        <time>2010-06-13T09:23:18Z</time>
      </trkpt>
      <trkpt lat="45.11657" lon="5.53171">
        <ele>963.48901367188</ele>
        <time>2010-06-13T09:23:24Z</time>
      </trkpt>
      <trkpt lat="45.11664" lon="5.53168">
        <ele>963.40502929688</ele>
        <time>2010-06-13T09:23:25Z</time>
      </trkpt>
      <trkpt lat="45.11736" lon="5.53154">
        <ele>963.07598876953</ele>
        <time>2010-06-13T09:23:34Z</time>
      </trkpt>
      <trkpt lat="45.11797" lon="5.53142">
        <ele>963.15997314453</ele>
        <time>2010-06-13T09:23:42Z</time>
      </trkpt>
      <trkpt lat="45.11855" lon="5.53131">
        <ele>963.55603027344</ele>
        <time>2010-06-13T09:23:50Z</time>
      </trkpt>
      <trkpt lat="45.11916" lon="5.5312">
        <ele>964.55603027344</ele>
        <time>2010-06-13T09:23:59Z</time>
      </trkpt>
      <trkpt lat="45.11978" lon="5.53109">
        <ele>964.31799316406</ele>
        <time>2010-06-13T09:24:08Z</time>
      </trkpt>
      <trkpt lat="45.12032" lon="5.53098">
        <ele>964.93402099609</ele>
        <time>2010-06-13T09:24:16Z</time>
      </trkpt>
      <trkpt lat="45.12106" lon="5.53084">
        <ele>966.27001953125</ele>
        <time>2010-06-13T09:24:27Z</time>
      </trkpt>
      <trkpt lat="45.12173" lon="5.53071">
        <ele>967.07702636719</ele>
        <time>2010-06-13T09:24:38Z</time>
      </trkpt>
      <trkpt lat="45.12179" lon="5.53069">
        <ele>967.12799072266</ele>
        <time>2010-06-13T09:24:39Z</time>
      </trkpt>
      <trkpt lat="45.12218" lon="5.53063">
        <ele>968.21697998047</ele>
        <time>2010-06-13T09:24:47Z</time>
      </trkpt>
      <trkpt lat="45.12252" lon="5.53058">
        <ele>969.58599853516</ele>
        <time>2010-06-13T09:24:54Z</time>
      </trkpt>
      <trkpt lat="45.12286" lon="5.53049">
        <ele>971.10601806641</ele>
        <time>2010-06-13T09:25:01Z</time>
      </trkpt>
      <trkpt lat="45.12318" lon="5.53035">
        <ele>972.53002929688</ele>
        <time>2010-06-13T09:25:08Z</time>
      </trkpt>
      <trkpt lat="45.12354" lon="5.53022">
        <ele>973.57397460938</ele>
        <time>2010-06-13T09:25:16Z</time>
      </trkpt>
      <trkpt lat="45.12387" lon="5.53011">
        <ele>975.05499267578</ele>
        <time>2010-06-13T09:25:23Z</time>
      </trkpt>
      <trkpt lat="45.12432" lon="5.52994">
        <ele>976.77899169922</ele>
        <time>2010-06-13T09:25:33Z</time>
      </trkpt>
      <trkpt lat="45.12475" lon="5.5298">
        <ele>977.60400390625</ele>
        <time>2010-06-13T09:25:42Z</time>
      </trkpt>
      <trkpt lat="45.12505" lon="5.52958">
        <ele>979.26898193359</ele>
        <time>2010-06-13T09:25:49Z</time>
      </trkpt>
      <trkpt lat="45.12534" lon="5.52925">
        <ele>980.95501708984</ele>
        <time>2010-06-13T09:25:57Z</time>
      </trkpt>
      <trkpt lat="45.12564" lon="5.52885">
        <ele>983.01000976562</ele>
        <time>2010-06-13T09:26:06Z</time>
      </trkpt>
      <trkpt lat="45.12567" lon="5.5288">
        <ele>983.29400634766</ele>
        <time>2010-06-13T09:26:07Z</time>
      </trkpt>
      <trkpt lat="45.12585" lon="5.52852">
        <ele>984.04602050781</ele>
        <time>2010-06-13T09:26:13Z</time>
      </trkpt>
      <trkpt lat="45.12607" lon="5.52816">
        <ele>985.97399902344</ele>
        <time>2010-06-13T09:26:20Z</time>
      </trkpt>
      <trkpt lat="45.12619" lon="5.52802">
        <ele>986.43499755859</ele>
        <time>2010-06-13T09:26:23Z</time>
      </trkpt>
      <trkpt lat="45.12651" lon="5.52781">
        <ele>987.68499755859</ele>
        <time>2010-06-13T09:26:30Z</time>
      </trkpt>
      <trkpt lat="45.12663" lon="5.52773">
        <ele>988.08898925781</ele>
        <time>2010-06-13T09:26:33Z</time>
      </trkpt>
      <trkpt lat="45.12682" lon="5.52749">
        <ele>987.25</ele>
        <time>2010-06-13T09:26:38Z</time>
      </trkpt>
      <trkpt lat="45.12705" lon="5.52722">
        <ele>986.26202392578</ele>
        <time>2010-06-13T09:26:43Z</time>
      </trkpt>
      <trkpt lat="45.12726" lon="5.52713">
        <ele>986.09899902344</ele>
        <time>2010-06-13T09:26:47Z</time>
      </trkpt>
      <trkpt lat="45.12741" lon="5.52722">
        <ele>986.30798339844</ele>
        <time>2010-06-13T09:26:50Z</time>
      </trkpt>
      <trkpt lat="45.12745" lon="5.52726">
        <ele>986.32800292969</ele>
        <time>2010-06-13T09:26:51Z</time>
      </trkpt>
      <trkpt lat="45.12785" lon="5.52756">
        <ele>986.01098632812</ele>
        <time>2010-06-13T09:26:59Z</time>
      </trkpt>
      <trkpt lat="45.1279" lon="5.52759">
        <ele>986.23199462891</ele>
        <time>2010-06-13T09:27:00Z</time>
      </trkpt>
      <trkpt lat="45.12821" lon="5.52774">
        <ele>986.61901855469</ele>
        <time>2010-06-13T09:27:06Z</time>
      </trkpt>
      <trkpt lat="45.12861" lon="5.52782">
        <ele>984.68103027344</ele>
        <time>2010-06-13T09:27:12Z</time>
      </trkpt>
      <trkpt lat="45.12916" lon="5.52788">
        <ele>983.20098876953</ele>
        <time>2010-06-13T09:27:20Z</time>
      </trkpt>
      <trkpt lat="45.12944" lon="5.52789">
        <ele>981.77099609375</ele>
        <time>2010-06-13T09:27:24Z</time>
      </trkpt>
      <trkpt lat="45.13006" lon="5.52799">
        <ele>978.99401855469</ele>
        <time>2010-06-13T09:27:32Z</time>
      </trkpt>
      <trkpt lat="45.13059" lon="5.52805">
        <ele>974.97698974609</ele>
        <time>2010-06-13T09:27:38Z</time>
      </trkpt>
      <trkpt lat="45.13077" lon="5.52806">
        <ele>974.25701904297</ele>
        <time>2010-06-13T09:27:40Z</time>
      </trkpt>
      <trkpt lat="45.131" lon="5.52822">
        <ele>973.46502685547</ele>
        <time>2010-06-13T09:27:43Z</time>
      </trkpt>
      <trkpt lat="45.13123" lon="5.52855">
        <ele>973.64398193359</ele>
        <time>2010-06-13T09:27:47Z</time>
      </trkpt>
      <trkpt lat="45.13145" lon="5.52862">
        <ele>972.71502685547</ele>
        <time>2010-06-13T09:27:50Z</time>
      </trkpt>
      <trkpt lat="45.13152" lon="5.52858">
        <ele>972.59497070312</ele>
        <time>2010-06-13T09:27:51Z</time>
      </trkpt>
      <trkpt lat="45.13197" lon="5.52839">
        <ele>973.56597900391</ele>
        <time>2010-06-13T09:27:58Z</time>
      </trkpt>
      <trkpt lat="45.13237" lon="5.52824">
        <ele>973.25500488281</ele>
        <time>2010-06-13T09:28:05Z</time>
      </trkpt>
      <trkpt lat="45.13292" lon="5.52801">
        <ele>973.33898925781</ele>
        <time>2010-06-13T09:28:15Z</time>
      </trkpt>
      <trkpt lat="45.13338" lon="5.52783">
        <ele>973.88098144531</ele>
        <time>2010-06-13T09:28:23Z</time>
      </trkpt>
      <trkpt lat="45.13382" lon="5.52765">
        <ele>975.14300537109</ele>
        <time>2010-06-13T09:28:31Z</time>
      </trkpt>
      <trkpt lat="45.13429" lon="5.52746">
        <ele>975.07202148438</ele>
        <time>2010-06-13T09:28:40Z</time>
      </trkpt>
      <trkpt lat="45.13471" lon="5.52729">
        <ele>975.66198730469</ele>
        <time>2010-06-13T09:28:48Z</time>
      </trkpt>
      <trkpt lat="45.13508" lon="5.52714">
        <ele>975.84197998047</ele>
        <time>2010-06-13T09:28:55Z</time>
      </trkpt>
      <trkpt lat="45.1355" lon="5.52698">
        <ele>976.82800292969</ele>
        <time>2010-06-13T09:29:03Z</time>
      </trkpt>
      <trkpt lat="45.13596" lon="5.5268">
        <ele>977.32897949219</ele>
        <time>2010-06-13T09:29:12Z</time>
      </trkpt>
      <trkpt lat="45.13638" lon="5.52663">
        <ele>977.98699951172</ele>
        <time>2010-06-13T09:29:20Z</time>
      </trkpt>
      <trkpt lat="45.13692" lon="5.52645">
        <ele>979.06799316406</ele>
        <time>2010-06-13T09:29:30Z</time>
      </trkpt>
      <trkpt lat="45.13726" lon="5.52638">
        <ele>980.06799316406</ele>
        <time>2010-06-13T09:29:37Z</time>
      </trkpt>
      <trkpt lat="45.13763" lon="5.52633">
        <ele>980.74401855469</ele>
        <time>2010-06-13T09:29:45Z</time>
      </trkpt>
      <trkpt lat="45.13816" lon="5.52632">
        <ele>983.20300292969</ele>
        <time>2010-06-13T09:29:56Z</time>
      </trkpt>
      <trkpt lat="45.13861" lon="5.52631">
        <ele>983.49102783203</ele>
        <time>2010-06-13T09:30:05Z</time>
      </trkpt>
      <trkpt lat="45.13886" lon="5.52627">
        <ele>984.73400878906</ele>
        <time>2010-06-13T09:30:10Z</time>
      </trkpt>
      <trkpt lat="45.13925" lon="5.5263">
        <ele>985.91998291016</ele>
        <time>2010-06-13T09:30:18Z</time>
      </trkpt>
      <trkpt lat="45.13964" lon="5.52634">
        <ele>987.81201171875</ele>
        <time>2010-06-13T09:30:26Z</time>
      </trkpt>
      <trkpt lat="45.13987" lon="5.52637">
        <ele>988.84600830078</ele>
        <time>2010-06-13T09:30:31Z</time>
      </trkpt>
      <trkpt lat="45.14026" lon="5.52639">
        <ele>989.40997314453</ele>
        <time>2010-06-13T09:30:39Z</time>
      </trkpt>
      <trkpt lat="45.14072" lon="5.52641">
        <ele>989.20098876953</ele>
        <time>2010-06-13T09:30:47Z</time>
      </trkpt>
      <trkpt lat="45.14134" lon="5.5264">
        <ele>989.02600097656</ele>
        <time>2010-06-13T09:30:57Z</time>
      </trkpt>
      <trkpt lat="45.14197" lon="5.52638">
        <ele>989.3759765625</ele>
        <time>2010-06-13T09:31:07Z</time>
      </trkpt>
      <trkpt lat="45.1426" lon="5.52635">
        <ele>990.51098632812</ele>
        <time>2010-06-13T09:31:17Z</time>
      </trkpt>
      <trkpt lat="45.143" lon="5.52635">
        <ele>991.51397705078</ele>
        <time>2010-06-13T09:31:24Z</time>
      </trkpt>
      <trkpt lat="45.1434" lon="5.52633">
        <ele>992.98101806641</ele>
        <time>2010-06-13T09:31:32Z</time>
      </trkpt>
      <trkpt lat="45.14396" lon="5.52632">
        <ele>994.54602050781</ele>
        <time>2010-06-13T09:31:43Z</time>
      </trkpt>
      <trkpt lat="45.14434" lon="5.5263">
        <ele>995.16400146484</ele>
        <time>2010-06-13T09:31:50Z</time>
      </trkpt>
      <trkpt lat="45.14471" lon="5.52629">
        <ele>995.333984375</ele>
        <time>2010-06-13T09:31:57Z</time>
      </trkpt>
      <trkpt lat="45.14505" lon="5.52628">
        <ele>995.28802490234</ele>
        <time>2010-06-13T09:32:03Z</time>
      </trkpt>
      <trkpt lat="45.14562" lon="5.52626">
        <ele>994.79400634766</ele>
        <time>2010-06-13T09:32:12Z</time>
      </trkpt>
      <trkpt lat="45.14627" lon="5.5262">
        <ele>994.99597167969</ele>
        <time>2010-06-13T09:32:22Z</time>
      </trkpt>
      <trkpt lat="45.14681" lon="5.52612">
        <ele>995.02697753906</ele>
        <time>2010-06-13T09:32:30Z</time>
      </trkpt>
      <trkpt lat="45.14743" lon="5.52603">
        <ele>995.10101318359</ele>
        <time>2010-06-13T09:32:39Z</time>
      </trkpt>
      <trkpt lat="45.148" lon="5.52595">
        <ele>996.31701660156</ele>
        <time>2010-06-13T09:32:48Z</time>
      </trkpt>
      <trkpt lat="45.14872" lon="5.52585">
        <ele>995.04302978516</ele>
        <time>2010-06-13T09:32:59Z</time>
      </trkpt>
      <trkpt lat="45.14947" lon="5.52574">
        <ele>995.77801513672</ele>
        <time>2010-06-13T09:33:10Z</time>
      </trkpt>
      <trkpt lat="45.1502" lon="5.5257">
        <ele>995.2919921875</ele>
        <time>2010-06-13T09:33:20Z</time>
      </trkpt>
      <trkpt lat="45.15055" lon="5.5258">
        <ele>996.03497314453</ele>
        <time>2010-06-13T09:33:25Z</time>
      </trkpt>
      <trkpt lat="45.15114" lon="5.52602">
        <ele>996.49102783203</ele>
        <time>2010-06-13T09:33:34Z</time>
      </trkpt>
      <trkpt lat="45.15201" lon="5.52637">
        <ele>997.53198242188</ele>
        <time>2010-06-13T09:33:48Z</time>
      </trkpt>
      <trkpt lat="45.1525" lon="5.52656">
        <ele>997.62902832031</ele>
        <time>2010-06-13T09:33:56Z</time>
      </trkpt>
      <trkpt lat="45.15302" lon="5.52677">
        <ele>998.14501953125</ele>
        <time>2010-06-13T09:34:05Z</time>
      </trkpt>
      <trkpt lat="45.15348" lon="5.52696">
        <ele>999.28601074219</ele>
        <time>2010-06-13T09:34:13Z</time>
      </trkpt>
      <trkpt lat="45.15403" lon="5.52718">
        <ele>999.60699462891</ele>
        <time>2010-06-13T09:34:22Z</time>
      </trkpt>
      <trkpt lat="45.15471" lon="5.52745">
        <ele>1000.2600097656</ele>
        <time>2010-06-13T09:34:33Z</time>
      </trkpt>
      <trkpt lat="45.15533" lon="5.5277">
        <ele>1001.1920166016</ele>
        <time>2010-06-13T09:34:43Z</time>
      </trkpt>
      <trkpt lat="45.156" lon="5.52796">
        <ele>1002.4390258789</ele>
        <time>2010-06-13T09:34:54Z</time>
      </trkpt>
      <trkpt lat="45.1566" lon="5.5282">
        <ele>1002.7199707031</ele>
        <time>2010-06-13T09:35:04Z</time>
      </trkpt>
      <trkpt lat="45.157" lon="5.52836">
        <ele>1003.2340087891</ele>
        <time>2010-06-13T09:35:11Z</time>
      </trkpt>
      <trkpt lat="45.15749" lon="5.52855">
        <ele>1003.716003418</ele>
        <time>2010-06-13T09:35:20Z</time>
      </trkpt>
      <trkpt lat="45.15791" lon="5.52871">
        <ele>1004.0599975586</ele>
        <time>2010-06-13T09:35:28Z</time>
      </trkpt>
      <trkpt lat="45.15836" lon="5.52895">
        <ele>1005.2880249023</ele>
        <time>2010-06-13T09:35:37Z</time>
      </trkpt>
      <trkpt lat="45.15872" lon="5.52919">
        <ele>1005.8159790039</ele>
        <time>2010-06-13T09:35:44Z</time>
      </trkpt>
      <trkpt lat="45.15932" lon="5.5296">
        <ele>1006.4970092773</ele>
        <time>2010-06-13T09:35:55Z</time>
      </trkpt>
      <trkpt lat="45.15983" lon="5.52995">
        <ele>1007.3209838867</ele>
        <time>2010-06-13T09:36:04Z</time>
      </trkpt>
      <trkpt lat="45.16023" lon="5.53022">
        <ele>1007.8289794922</ele>
        <time>2010-06-13T09:36:11Z</time>
      </trkpt>
      <trkpt lat="45.16074" lon="5.53057">
        <ele>1008.7020263672</ele>
        <time>2010-06-13T09:36:20Z</time>
      </trkpt>
      <trkpt lat="45.16133" lon="5.53096">
        <ele>1008.9680175781</ele>
        <time>2010-06-13T09:36:30Z</time>
      </trkpt>
      <trkpt lat="45.16173" lon="5.53124">
        <ele>1009.424987793</ele>
        <time>2010-06-13T09:36:37Z</time>
      </trkpt>
      <trkpt lat="45.16228" lon="5.53162">
        <ele>1010.1149902344</ele>
        <time>2010-06-13T09:36:47Z</time>
      </trkpt>
      <trkpt lat="45.16282" lon="5.53197">
        <ele>1010.9769897461</ele>
        <time>2010-06-13T09:36:57Z</time>
      </trkpt>
      <trkpt lat="45.16309" lon="5.53216">
        <ele>1011.7890014648</ele>
        <time>2010-06-13T09:37:03Z</time>
      </trkpt>
      <trkpt lat="45.16333" lon="5.53232">
        <ele>1012.4349975586</ele>
        <time>2010-06-13T09:37:08Z</time>
      </trkpt>
      <trkpt lat="45.16379" lon="5.53263">
        <ele>1012.5430297852</ele>
        <time>2010-06-13T09:37:17Z</time>
      </trkpt>
      <trkpt lat="45.16416" lon="5.53288">
        <ele>1013.1560058594</ele>
        <time>2010-06-13T09:37:24Z</time>
      </trkpt>
      <trkpt lat="45.16457" lon="5.53317">
        <ele>1013.9739990234</ele>
        <time>2010-06-13T09:37:32Z</time>
      </trkpt>
      <trkpt lat="45.16502" lon="5.53348">
        <ele>1014.7109985352</ele>
        <time>2010-06-13T09:37:40Z</time>
      </trkpt>
      <trkpt lat="45.16545" lon="5.53383">
        <ele>1014.9110107422</ele>
        <time>2010-06-13T09:37:48Z</time>
      </trkpt>
      <trkpt lat="45.16556" lon="5.53393">
        <ele>1014.9340209961</ele>
        <time>2010-06-13T09:37:50Z</time>
      </trkpt>
      <trkpt lat="45.16609" lon="5.53421">
        <ele>1016</ele>
        <time>2010-06-13T09:37:59Z</time>
      </trkpt>
      <trkpt lat="45.1665" lon="5.53448">
        <ele>1016.0599975586</ele>
        <time>2010-06-13T09:38:06Z</time>
      </trkpt>
      <trkpt lat="45.16692" lon="5.53477">
        <ele>1017.0449829102</ele>
        <time>2010-06-13T09:38:13Z</time>
      </trkpt>
      <trkpt lat="45.16745" lon="5.53512">
        <ele>1017.8880004883</ele>
        <time>2010-06-13T09:38:22Z</time>
      </trkpt>
      <trkpt lat="45.16756" lon="5.5352">
        <ele>1018.1950073242</ele>
        <time>2010-06-13T09:38:24Z</time>
      </trkpt>
      <trkpt lat="45.1678" lon="5.53545">
        <ele>1019.3510131836</ele>
        <time>2010-06-13T09:38:29Z</time>
      </trkpt>
      <trkpt lat="45.16786" lon="5.53547">
        <ele>1019.0419921875</ele>
        <time>2010-06-13T09:38:30Z</time>
      </trkpt>
      <trkpt lat="45.16821" lon="5.53565">
        <ele>1019.9260253906</ele>
        <time>2010-06-13T09:38:36Z</time>
      </trkpt>
      <trkpt lat="45.1688" lon="5.53606">
        <ele>1020.866027832</ele>
        <time>2010-06-13T09:38:46Z</time>
      </trkpt>
      <trkpt lat="45.1694" lon="5.53646">
        <ele>1021.3020019531</ele>
        <time>2010-06-13T09:38:56Z</time>
      </trkpt>
      <trkpt lat="45.16978" lon="5.53674">
        <ele>1021.8540039062</ele>
        <time>2010-06-13T09:39:03Z</time>
      </trkpt>
      <trkpt lat="45.1703" lon="5.53709">
        <ele>1023.2960205078</ele>
        <time>2010-06-13T09:39:13Z</time>
      </trkpt>
      <trkpt lat="45.17035" lon="5.53712">
        <ele>1023.5560302734</ele>
        <time>2010-06-13T09:39:14Z</time>
      </trkpt>
      <trkpt lat="45.17062" lon="5.53731">
        <ele>1023.5789794922</ele>
        <time>2010-06-13T09:39:20Z</time>
      </trkpt>
      <trkpt lat="45.17092" lon="5.53752">
        <ele>1024.5260009766</ele>
        <time>2010-06-13T09:39:26Z</time>
      </trkpt>
      <trkpt lat="45.17132" lon="5.53782">
        <ele>1025.2409667969</ele>
        <time>2010-06-13T09:39:33Z</time>
      </trkpt>
      <trkpt lat="45.17181" lon="5.53833">
        <ele>1025.0760498047</ele>
        <time>2010-06-13T09:39:42Z</time>
      </trkpt>
      <trkpt lat="45.17225" lon="5.53881">
        <ele>1026.6750488281</ele>
        <time>2010-06-13T09:39:50Z</time>
      </trkpt>
      <trkpt lat="45.17252" lon="5.53911">
        <ele>1026.4210205078</ele>
        <time>2010-06-13T09:39:55Z</time>
      </trkpt>
      <trkpt lat="45.1727" lon="5.53952">
        <ele>1026.3520507812</ele>
        <time>2010-06-13T09:40:00Z</time>
      </trkpt>
      <trkpt lat="45.17281" lon="5.54019">
        <ele>1027.8459472656</ele>
        <time>2010-06-13T09:40:07Z</time>
      </trkpt>
      <trkpt lat="45.17287" lon="5.54092">
        <ele>1028.8630371094</ele>
        <time>2010-06-13T09:40:14Z</time>
      </trkpt>
      <trkpt lat="45.17296" lon="5.54175">
        <ele>1029.7230224609</ele>
        <time>2010-06-13T09:40:22Z</time>
      </trkpt>
      <trkpt lat="45.17301" lon="5.54246">
        <ele>1031.0810546875</ele>
        <time>2010-06-13T09:40:29Z</time>
      </trkpt>
      <trkpt lat="45.1731" lon="5.5431">
        <ele>1031.9200439453</ele>
        <time>2010-06-13T09:40:36Z</time>
      </trkpt>
      <trkpt lat="45.17325" lon="5.54382">
        <ele>1034.0880126953</ele>
        <time>2010-06-13T09:40:45Z</time>
      </trkpt>
      <trkpt lat="45.17342" lon="5.54431">
        <ele>1034.4420166016</ele>
        <time>2010-06-13T09:40:52Z</time>
      </trkpt>
      <trkpt lat="45.17347" lon="5.54444">
        <ele>1034.8830566406</ele>
        <time>2010-06-13T09:40:54Z</time>
      </trkpt>
      <trkpt lat="45.17352" lon="5.54468">
        <ele>1035.9370117188</ele>
        <time>2010-06-13T09:40:58Z</time>
      </trkpt>
      <trkpt lat="45.17352" lon="5.5448">
        <ele>1036.7950439453</ele>
        <time>2010-06-13T09:41:00Z</time>
      </trkpt>
      <trkpt lat="45.17353" lon="5.54486">
        <ele>1037.0729980469</ele>
        <time>2010-06-13T09:41:01Z</time>
      </trkpt>
      <trkpt lat="45.17361" lon="5.54505">
        <ele>1037.5520019531</ele>
        <time>2010-06-13T09:41:05Z</time>
      </trkpt>
      <trkpt lat="45.17365" lon="5.54506">
        <ele>1037.498046875</ele>
        <time>2010-06-13T09:41:06Z</time>
      </trkpt>
      <trkpt lat="45.17386" lon="5.54521">
        <ele>1036.9110107422</ele>
        <time>2010-06-13T09:41:11Z</time>
      </trkpt>
      <trkpt lat="45.17419" lon="5.54564">
        <ele>1037.5729980469</ele>
        <time>2010-06-13T09:41:18Z</time>
      </trkpt>
      <trkpt lat="45.17456" lon="5.54614">
        <ele>1039.0179443359</ele>
        <time>2010-06-13T09:41:27Z</time>
      </trkpt>
      <trkpt lat="45.17491" lon="5.5466">
        <ele>1041.1789550781</ele>
        <time>2010-06-13T09:41:35Z</time>
      </trkpt>
      <trkpt lat="45.17513" lon="5.54689">
        <ele>1041.873046875</ele>
        <time>2010-06-13T09:41:41Z</time>
      </trkpt>
      <trkpt lat="45.17521" lon="5.54705">
        <ele>1043.3819580078</ele>
        <time>2010-06-13T09:41:46Z</time>
      </trkpt>
      <trkpt lat="45.17523" lon="5.54711">
        <ele>1043.416015625</ele>
        <time>2010-06-13T09:41:49Z</time>
      </trkpt>
      <trkpt lat="45.17519" lon="5.54739">
        <ele>1043.2099609375</ele>
        <time>2010-06-13T09:41:55Z</time>
      </trkpt>
      <trkpt lat="45.17516" lon="5.54769">
        <ele>1044.0810546875</ele>
        <time>2010-06-13T09:42:00Z</time>
      </trkpt>
      <trkpt lat="45.17512" lon="5.54813">
        <ele>1044.6629638672</ele>
        <time>2010-06-13T09:42:06Z</time>
      </trkpt>
      <trkpt lat="45.17508" lon="5.54877">
        <ele>1045.7550048828</ele>
        <time>2010-06-13T09:42:14Z</time>
      </trkpt>
      <trkpt lat="45.17508" lon="5.54885">
        <ele>1045.8590087891</ele>
        <time>2010-06-13T09:42:15Z</time>
      </trkpt>
      <trkpt lat="45.17508" lon="5.54907">
        <ele>1047.1180419922</ele>
        <time>2010-06-13T09:42:19Z</time>
      </trkpt>
      <trkpt lat="45.17512" lon="5.54905">
        <ele>1047.3270263672</ele>
        <time>2010-06-13T09:42:21Z</time>
      </trkpt>
      <trkpt lat="45.17509" lon="5.54891">
        <ele>1047.0799560547</ele>
        <time>2010-06-13T09:42:24Z</time>
      </trkpt>
      <trkpt lat="45.17509" lon="5.5486">
        <ele>1046.1180419922</ele>
        <time>2010-06-13T09:42:28Z</time>
      </trkpt>
      <trkpt lat="45.17509" lon="5.54852">
        <ele>1046.0050048828</ele>
        <time>2010-06-13T09:42:29Z</time>
      </trkpt>
      <trkpt lat="45.17511" lon="5.54824">
        <ele>1044.9200439453</ele>
        <time>2010-06-13T09:42:32Z</time>
      </trkpt>
      <trkpt lat="45.17514" lon="5.54805">
        <ele>1044.3759765625</ele>
        <time>2010-06-13T09:42:34Z</time>
      </trkpt>
      <trkpt lat="45.17517" lon="5.54748">
        <ele>1042.9250488281</ele>
        <time>2010-06-13T09:42:40Z</time>
      </trkpt>
      <trkpt lat="45.1752" lon="5.5473">
        <ele>1042.9909667969</ele>
        <time>2010-06-13T09:42:42Z</time>
      </trkpt>
      <trkpt lat="45.17528" lon="5.54676">
        <ele>1041.6600341797</ele>
        <time>2010-06-13T09:42:48Z</time>
      </trkpt>
      <trkpt lat="45.17533" lon="5.54659">
        <ele>1040.8229980469</ele>
        <time>2010-06-13T09:42:50Z</time>
      </trkpt>
      <trkpt lat="45.17546" lon="5.54627">
        <ele>1040.1090087891</ele>
        <time>2010-06-13T09:42:54Z</time>
      </trkpt>
      <trkpt lat="45.17566" lon="5.54589">
        <ele>1038.5269775391</ele>
        <time>2010-06-13T09:42:59Z</time>
      </trkpt>
      <trkpt lat="45.17574" lon="5.54572">
        <ele>1037.8020019531</ele>
        <time>2010-06-13T09:43:01Z</time>
      </trkpt>
      <trkpt lat="45.17597" lon="5.54524">
        <ele>1035.2490234375</ele>
        <time>2010-06-13T09:43:06Z</time>
      </trkpt>
      <trkpt lat="45.17609" lon="5.54496">
        <ele>1034.3790283203</ele>
        <time>2010-06-13T09:43:09Z</time>
      </trkpt>
      <trkpt lat="45.17626" lon="5.54491">
        <ele>1035.2640380859</ele>
        <time>2010-06-13T09:43:12Z</time>
      </trkpt>
      <trkpt lat="45.17637" lon="5.54509">
        <ele>1035.8530273438</ele>
        <time>2010-06-13T09:43:15Z</time>
      </trkpt>
      <trkpt lat="45.17657" lon="5.54564">
        <ele>1035.5799560547</ele>
        <time>2010-06-13T09:43:22Z</time>
      </trkpt>
      <trkpt lat="45.1767" lon="5.54598">
        <ele>1036.2919921875</ele>
        <time>2010-06-13T09:43:26Z</time>
      </trkpt>
      <trkpt lat="45.17685" lon="5.54644">
        <ele>1036.4350585938</ele>
        <time>2010-06-13T09:43:31Z</time>
      </trkpt>
      <trkpt lat="45.17691" lon="5.54675">
        <ele>1036.873046875</ele>
        <time>2010-06-13T09:43:34Z</time>
      </trkpt>
      <trkpt lat="45.17694" lon="5.54729">
        <ele>1037.541015625</ele>
        <time>2010-06-13T09:43:39Z</time>
      </trkpt>
      <trkpt lat="45.17705" lon="5.5478">
        <ele>1038.4899902344</ele>
        <time>2010-06-13T09:43:44Z</time>
      </trkpt>
      <trkpt lat="45.17731" lon="5.5484">
        <ele>1040.8559570312</ele>
        <time>2010-06-13T09:43:51Z</time>
      </trkpt>
      <trkpt lat="45.17734" lon="5.54848">
        <ele>1041.0610351562</ele>
        <time>2010-06-13T09:43:52Z</time>
      </trkpt>
      <trkpt lat="45.17763" lon="5.54909">
        <ele>1043.2769775391</ele>
        <time>2010-06-13T09:44:00Z</time>
      </trkpt>
      <trkpt lat="45.17788" lon="5.54965">
        <ele>1044.8129882812</ele>
        <time>2010-06-13T09:44:08Z</time>
      </trkpt>
      <trkpt lat="45.17819" lon="5.5503">
        <ele>1047.3079833984</ele>
        <time>2010-06-13T09:44:18Z</time>
      </trkpt>
      <trkpt lat="45.17844" lon="5.55074">
        <ele>1047.3280029297</ele>
        <time>2010-06-13T09:44:25Z</time>
      </trkpt>
      <trkpt lat="45.17865" lon="5.55113">
        <ele>1047.5030517578</ele>
        <time>2010-06-13T09:44:32Z</time>
      </trkpt>
      <trkpt lat="45.17873" lon="5.55134">
        <ele>1048.126953125</ele>
        <time>2010-06-13T09:44:37Z</time>
      </trkpt>
      <trkpt lat="45.17876" lon="5.55143">
        <ele>1048.20703125</ele>
        <time>2010-06-13T09:44:42Z</time>
      </trkpt>
      <trkpt lat="45.17878" lon="5.55152">
        <ele>1048.1889648438</ele>
        <time>2010-06-13T09:44:47Z</time>
      </trkpt>
      <trkpt lat="45.17879" lon="5.55153">
        <ele>1048.3199462891</ele>
        <time>2010-06-13T09:44:48Z</time>
      </trkpt>
      <trkpt lat="45.17881" lon="5.55147">
        <ele>1048.7950439453</ele>
        <time>2010-06-13T09:44:52Z</time>
      </trkpt>
      <trkpt lat="45.17875" lon="5.55134">
        <ele>1048.4749755859</ele>
        <time>2010-06-13T09:44:58Z</time>
      </trkpt>
      <trkpt lat="45.17874" lon="5.55134">
        <ele>1048.7209472656</ele>
        <time>2010-06-13T09:44:59Z</time>
      </trkpt>
      <trkpt lat="45.1787" lon="5.55134">
        <ele>1048.5649414062</ele>
        <time>2010-06-13T09:45:04Z</time>
      </trkpt>
      <trkpt lat="45.17868" lon="5.55134">
        <ele>1048.4270019531</ele>
        <time>2010-06-13T09:45:05Z</time>
      </trkpt>
      <trkpt lat="45.17867" lon="5.55133">
        <ele>1048.3840332031</ele>
        <time>2010-06-13T09:45:06Z</time>
      </trkpt>
      <trkpt lat="45.17865" lon="5.5512">
        <ele>1046.9840087891</ele>
        <time>2010-06-13T09:45:10Z</time>
      </trkpt>
      <trkpt lat="45.17865" lon="5.55114">
        <ele>1046.9339599609</ele>
        <time>2010-06-13T09:45:11Z</time>
      </trkpt>
      <trkpt lat="45.17855" lon="5.55089">
        <ele>1048.0689697266</ele>
        <time>2010-06-13T09:45:15Z</time>
      </trkpt>
      <trkpt lat="45.17823" lon="5.55029">
        <ele>1045.9210205078</ele>
        <time>2010-06-13T09:45:23Z</time>
      </trkpt>
      <trkpt lat="45.17803" lon="5.54987">
        <ele>1045.9300537109</ele>
        <time>2010-06-13T09:45:28Z</time>
      </trkpt>
      <trkpt lat="45.17781" lon="5.54933">
        <ele>1044.5529785156</ele>
        <time>2010-06-13T09:45:33Z</time>
      </trkpt>
      <trkpt lat="45.17751" lon="5.54868">
        <ele>1042.0439453125</ele>
        <time>2010-06-13T09:45:39Z</time>
      </trkpt>
      <trkpt lat="45.17731" lon="5.54824">
        <ele>1040.5340576172</ele>
        <time>2010-06-13T09:45:43Z</time>
      </trkpt>
      <trkpt lat="45.17718" lon="5.54791">
        <ele>1039.2740478516</ele>
        <time>2010-06-13T09:45:46Z</time>
      </trkpt>
      <trkpt lat="45.177" lon="5.54745">
        <ele>1038.0930175781</ele>
        <time>2010-06-13T09:45:50Z</time>
      </trkpt>
      <trkpt lat="45.17696" lon="5.54692">
        <ele>1035.123046875</ele>
        <time>2010-06-13T09:45:54Z</time>
      </trkpt>
      <trkpt lat="45.17695" lon="5.5468">
        <ele>1034.8900146484</ele>
        <time>2010-06-13T09:45:55Z</time>
      </trkpt>
      <trkpt lat="45.17686" lon="5.54632">
        <ele>1035.0529785156</ele>
        <time>2010-06-13T09:45:59Z</time>
      </trkpt>
      <trkpt lat="45.17664" lon="5.5457">
        <ele>1035.1369628906</ele>
        <time>2010-06-13T09:46:05Z</time>
      </trkpt>
      <trkpt lat="45.17657" lon="5.5455">
        <ele>1035.2939453125</ele>
        <time>2010-06-13T09:46:07Z</time>
      </trkpt>
      <trkpt lat="45.17636" lon="5.5449">
        <ele>1034.7919921875</ele>
        <time>2010-06-13T09:46:14Z</time>
      </trkpt>
      <trkpt lat="45.17629" lon="5.54471">
        <ele>1035.4200439453</ele>
        <time>2010-06-13T09:46:17Z</time>
      </trkpt>
      <trkpt lat="45.17619" lon="5.54463">
        <ele>1035.0810546875</ele>
        <time>2010-06-13T09:46:21Z</time>
      </trkpt>
      <trkpt lat="45.17617" lon="5.5446">
        <ele>1035.3189697266</ele>
        <time>2010-06-13T09:46:25Z</time>
      </trkpt>
      <trkpt lat="45.17614" lon="5.54439">
        <ele>1035.2180175781</ele>
        <time>2010-06-13T09:46:35Z</time>
      </trkpt>
      <trkpt lat="45.17611" lon="5.54433">
        <ele>1034.9689941406</ele>
        <time>2010-06-13T09:46:36Z</time>
      </trkpt>
      <trkpt lat="45.17599" lon="5.54416">
        <ele>1034.1970214844</ele>
        <time>2010-06-13T09:46:39Z</time>
      </trkpt>
      <trkpt lat="45.17578" lon="5.54377">
        <ele>1033.8979492188</ele>
        <time>2010-06-13T09:46:44Z</time>
      </trkpt>
      <trkpt lat="45.17569" lon="5.54358">
        <ele>1034.4090576172</ele>
        <time>2010-06-13T09:46:47Z</time>
      </trkpt>
      <trkpt lat="45.17563" lon="5.54348">
        <ele>1034.5939941406</ele>
        <time>2010-06-13T09:46:50Z</time>
      </trkpt>
      <trkpt lat="45.17558" lon="5.54337">
        <ele>1034.0179443359</ele>
        <time>2010-06-13T09:46:52Z</time>
      </trkpt>
      <trkpt lat="45.17552" lon="5.5431">
        <ele>1033.5009765625</ele>
        <time>2010-06-13T09:46:56Z</time>
      </trkpt>
      <trkpt lat="45.17537" lon="5.54274">
        <ele>1034.3210449219</ele>
        <time>2010-06-13T09:47:02Z</time>
      </trkpt>
      <trkpt lat="45.17503" lon="5.54249">
        <ele>1033.7690429688</ele>
        <time>2010-06-13T09:47:08Z</time>
      </trkpt>
      <trkpt lat="45.17486" lon="5.54241">
        <ele>1034.7299804688</ele>
        <time>2010-06-13T09:47:13Z</time>
      </trkpt>
      <trkpt lat="45.17484" lon="5.54241">
        <ele>1034.9000244141</ele>
        <time>2010-06-13T09:47:14Z</time>
      </trkpt>
      <trkpt lat="45.17479" lon="5.54242">
        <ele>1034.7569580078</ele>
        <time>2010-06-13T09:47:17Z</time>
      </trkpt>
      <trkpt lat="45.17474" lon="5.54233">
        <ele>1035.0169677734</ele>
        <time>2010-06-13T09:47:22Z</time>
      </trkpt>
      <trkpt lat="45.17476" lon="5.54231">
        <ele>1034.9639892578</ele>
        <time>2010-06-13T09:47:24Z</time>
      </trkpt>
      <trkpt lat="45.1748" lon="5.54224">
        <ele>1035.2540283203</ele>
        <time>2010-06-13T09:47:28Z</time>
      </trkpt>
      <trkpt lat="45.17484" lon="5.54219">
        <ele>1035.4439697266</ele>
        <time>2010-06-13T09:47:33Z</time>
      </trkpt>
      <trkpt lat="45.17495" lon="5.54225">
        <ele>1038.3399658203</ele>
        <time>2010-06-13T09:51:08Z</time>
      </trkpt>
      <trkpt lat="45.17495" lon="5.54224">
        <ele>1038.3549804688</ele>
        <time>2010-06-13T09:51:09Z</time>
      </trkpt>
      <trkpt lat="45.17495" lon="5.54223">
        <ele>1038.2869873047</ele>
        <time>2010-06-13T09:51:10Z</time>
      </trkpt>
      <trkpt lat="45.17496" lon="5.54219">
        <ele>1038.5739746094</ele>
        <time>2010-06-13T09:51:16Z</time>
      </trkpt>
      <trkpt lat="45.17501" lon="5.54219">
        <ele>1040.5939941406</ele>
        <time>2010-06-13T09:54:07Z</time>
      </trkpt>
      <trkpt lat="45.17502" lon="5.54218">
        <ele>1040.6409912109</ele>
        <time>2010-06-13T09:54:08Z</time>
      </trkpt>
      <trkpt lat="45.17502" lon="5.54218">
        <ele>1040.7679443359</ele>
        <time>2010-06-13T09:54:09Z</time>
      </trkpt>
      <trkpt lat="45.17505" lon="5.54218">
        <ele>1041.2459716797</ele>
        <time>2010-06-13T09:54:43Z</time>
      </trkpt>
      <trkpt lat="45.17504" lon="5.54212">
        <ele>1041.5240478516</ele>
        <time>2010-06-13T09:54:57Z</time>
      </trkpt>
      <trkpt lat="45.17507" lon="5.54213">
        <ele>1041.4549560547</ele>
        <time>2010-06-13T09:55:04Z</time>
      </trkpt>
      <trkpt lat="45.17507" lon="5.54213">
        <ele>1041.4949951172</ele>
        <time>2010-06-13T09:55:05Z</time>
      </trkpt>
      <trkpt lat="45.17503" lon="5.54208">
        <ele>1041.7030029297</ele>
        <time>2010-06-13T09:56:35Z</time>
      </trkpt>
      <trkpt lat="45.17503" lon="5.54205">
        <ele>1041.9129638672</ele>
        <time>2010-06-13T09:56:39Z</time>
      </trkpt>
      <trkpt lat="45.17505" lon="5.542">
        <ele>1042.2440185547</ele>
        <time>2010-06-13T09:58:42Z</time>
      </trkpt>
      <trkpt lat="45.17505" lon="5.542">
        <ele>1042.2629394531</ele>
        <time>2010-06-13T09:58:43Z</time>
      </trkpt>
      <trkpt lat="45.17505" lon="5.542">
        <ele>1042.3609619141</ele>
        <time>2010-06-13T09:58:46Z</time>
      </trkpt>
      <trkpt lat="45.17508" lon="5.54208">
        <ele>1043.7509765625</ele>
        <time>2010-06-13T10:02:12Z</time>
      </trkpt>
      <trkpt lat="45.17509" lon="5.54208">
        <ele>1043.8129882812</ele>
        <time>2010-06-13T10:02:14Z</time>
      </trkpt>
      <trkpt lat="45.1751" lon="5.54207">
        <ele>1042.2960205078</ele>
        <time>2010-06-13T10:05:06Z</time>
      </trkpt>
      <trkpt lat="45.17504" lon="5.54224">
        <ele>1041.4549560547</ele>
        <time>2010-06-13T10:05:11Z</time>
      </trkpt>
      <trkpt lat="45.17503" lon="5.54229">
        <ele>1041.1550292969</ele>
        <time>2010-06-13T10:05:12Z</time>
      </trkpt>
      <trkpt lat="45.17508" lon="5.54238">
        <ele>1040.9709472656</ele>
        <time>2010-06-13T10:05:15Z</time>
      </trkpt>
      <trkpt lat="45.17512" lon="5.54249">
        <ele>1040.3909912109</ele>
        <time>2010-06-13T10:05:18Z</time>
      </trkpt>
      <trkpt lat="45.17518" lon="5.54252">
        <ele>1040.0939941406</ele>
        <time>2010-06-13T10:05:20Z</time>
      </trkpt>
      <trkpt lat="45.17532" lon="5.54263">
        <ele>1039.8370361328</ele>
        <time>2010-06-13T10:05:24Z</time>
      </trkpt>
      <trkpt lat="45.17546" lon="5.54276">
        <ele>1039.6989746094</ele>
        <time>2010-06-13T10:05:27Z</time>
      </trkpt>
      <trkpt lat="45.17559" lon="5.54302">
        <ele>1039.4820556641</ele>
        <time>2010-06-13T10:05:31Z</time>
      </trkpt>
      <trkpt lat="45.17564" lon="5.54319">
        <ele>1039.3640136719</ele>
        <time>2010-06-13T10:05:33Z</time>
      </trkpt>
      <trkpt lat="45.17572" lon="5.54354">
        <ele>1038.9139404297</ele>
        <time>2010-06-13T10:05:37Z</time>
      </trkpt>
      <trkpt lat="45.1758" lon="5.5437">
        <ele>1039.4279785156</ele>
        <time>2010-06-13T10:05:39Z</time>
      </trkpt>
      <trkpt lat="45.1761" lon="5.54429">
        <ele>1039.4730224609</ele>
        <time>2010-06-13T10:05:47Z</time>
      </trkpt>
      <trkpt lat="45.17625" lon="5.54456">
        <ele>1039.6610107422</ele>
        <time>2010-06-13T10:05:51Z</time>
      </trkpt>
      <trkpt lat="45.17646" lon="5.54519">
        <ele>1040.3640136719</ele>
        <time>2010-06-13T10:05:59Z</time>
      </trkpt>
      <trkpt lat="45.1767" lon="5.54586">
        <ele>1040.6359863281</ele>
        <time>2010-06-13T10:06:07Z</time>
      </trkpt>
      <trkpt lat="45.17691" lon="5.54647">
        <ele>1040.9410400391</ele>
        <time>2010-06-13T10:06:14Z</time>
      </trkpt>
      <trkpt lat="45.17698" lon="5.54695">
        <ele>1042.0009765625</ele>
        <time>2010-06-13T10:06:19Z</time>
      </trkpt>
      <trkpt lat="45.17699" lon="5.54724">
        <ele>1041.9329833984</ele>
        <time>2010-06-13T10:06:22Z</time>
      </trkpt>
      <trkpt lat="45.17709" lon="5.54775">
        <ele>1043.0639648438</ele>
        <time>2010-06-13T10:06:28Z</time>
      </trkpt>
      <trkpt lat="45.17734" lon="5.54834">
        <ele>1045.3740234375</ele>
        <time>2010-06-13T10:06:37Z</time>
      </trkpt>
      <trkpt lat="45.17757" lon="5.54884">
        <ele>1047.5649414062</ele>
        <time>2010-06-13T10:06:45Z</time>
      </trkpt>
      <trkpt lat="45.17789" lon="5.54953">
        <ele>1048.7060546875</ele>
        <time>2010-06-13T10:06:55Z</time>
      </trkpt>
      <trkpt lat="45.17817" lon="5.55013">
        <ele>1050.3669433594</ele>
        <time>2010-06-13T10:07:04Z</time>
      </trkpt>
      <trkpt lat="45.17839" lon="5.55052">
        <ele>1051.5589599609</ele>
        <time>2010-06-13T10:07:10Z</time>
      </trkpt>
      <trkpt lat="45.17872" lon="5.55112">
        <ele>1050.9339599609</ele>
        <time>2010-06-13T10:07:18Z</time>
      </trkpt>
      <trkpt lat="45.1789" lon="5.55167">
        <ele>1051.4200439453</ele>
        <time>2010-06-13T10:07:24Z</time>
      </trkpt>
      <trkpt lat="45.17907" lon="5.55219">
        <ele>1052.8199462891</ele>
        <time>2010-06-13T10:07:30Z</time>
      </trkpt>
      <trkpt lat="45.17924" lon="5.55265">
        <ele>1053.4439697266</ele>
        <time>2010-06-13T10:07:36Z</time>
      </trkpt>
      <trkpt lat="45.17931" lon="5.55283">
        <ele>1054.2370605469</ele>
        <time>2010-06-13T10:07:39Z</time>
      </trkpt>
      <trkpt lat="45.17942" lon="5.55293">
        <ele>1054.7969970703</ele>
        <time>2010-06-13T10:07:43Z</time>
      </trkpt>
      <trkpt lat="45.17944" lon="5.553">
        <ele>1054.8709716797</ele>
        <time>2010-06-13T10:07:47Z</time>
      </trkpt>
      <trkpt lat="45.17941" lon="5.55294">
        <ele>1054.7860107422</ele>
        <time>2010-06-13T10:07:51Z</time>
      </trkpt>
      <trkpt lat="45.17936" lon="5.55283">
        <ele>1054.5269775391</ele>
        <time>2010-06-13T10:07:57Z</time>
      </trkpt>
      <trkpt lat="45.17939" lon="5.55276">
        <ele>1054.5169677734</ele>
        <time>2010-06-13T10:08:01Z</time>
      </trkpt>
      <trkpt lat="45.17936" lon="5.55273">
        <ele>1054.4659423828</ele>
        <time>2010-06-13T10:08:05Z</time>
      </trkpt>
      <trkpt lat="45.17935" lon="5.55275">
        <ele>1054.3470458984</ele>
        <time>2010-06-13T10:08:07Z</time>
      </trkpt>
      <trkpt lat="45.17934" lon="5.55278">
        <ele>1054.3489990234</ele>
        <time>2010-06-13T10:08:09Z</time>
      </trkpt>
      <trkpt lat="45.17939" lon="5.55291">
        <ele>1054.3909912109</ele>
        <time>2010-06-13T10:08:15Z</time>
      </trkpt>
      <trkpt lat="45.17945" lon="5.55295">
        <ele>1054.5030517578</ele>
        <time>2010-06-13T10:08:19Z</time>
      </trkpt>
      <trkpt lat="45.17945" lon="5.55295">
        <ele>1054.7459716797</ele>
        <time>2010-06-13T10:08:21Z</time>
      </trkpt>
      <trkpt lat="45.1754" lon="5.54277">
        <ele>1040.8959960938</ele>
        <time>2010-06-13T12:19:35Z</time>
      </trkpt>
      <trkpt lat="45.1754" lon="5.54277">
        <ele>1041.1899414062</ele>
        <time>2010-06-13T12:19:36Z</time>
      </trkpt>
      <trkpt lat="45.17535" lon="5.54282">
        <ele>1042.498046875</ele>
        <time>2010-06-13T12:19:44Z</time>
      </trkpt>
      <trkpt lat="45.17532" lon="5.54278">
        <ele>1042.7969970703</ele>
        <time>2010-06-13T12:19:47Z</time>
      </trkpt>
      <trkpt lat="45.17517" lon="5.54269">
        <ele>1044.6080322266</ele>
        <time>2010-06-13T12:19:54Z</time>
      </trkpt>
      <trkpt lat="45.17499" lon="5.54257">
        <ele>1046.2619628906</ele>
        <time>2010-06-13T12:20:01Z</time>
      </trkpt>
      <trkpt lat="45.17482" lon="5.54249">
        <ele>1048.2800292969</ele>
        <time>2010-06-13T12:20:08Z</time>
      </trkpt>
      <trkpt lat="45.17471" lon="5.5426">
        <ele>1048.8900146484</ele>
        <time>2010-06-13T12:20:12Z</time>
      </trkpt>
      <trkpt lat="45.17464" lon="5.54277">
        <ele>1048.8310546875</ele>
        <time>2010-06-13T12:20:15Z</time>
      </trkpt>
      <trkpt lat="45.1745" lon="5.54305">
        <ele>1049.2530517578</ele>
        <time>2010-06-13T12:20:21Z</time>
      </trkpt>
      <trkpt lat="45.17441" lon="5.54321">
        <ele>1049.9110107422</ele>
        <time>2010-06-13T12:20:27Z</time>
      </trkpt>
      <trkpt lat="45.17435" lon="5.54334">
        <ele>1049.7690429688</ele>
        <time>2010-06-13T12:20:32Z</time>
      </trkpt>
      <trkpt lat="45.17427" lon="5.54349">
        <ele>1049.9770507812</ele>
        <time>2010-06-13T12:20:39Z</time>
      </trkpt>
      <trkpt lat="45.17419" lon="5.54368">
        <ele>1051.0639648438</ele>
        <time>2010-06-13T12:20:44Z</time>
      </trkpt>
      <trkpt lat="45.1741" lon="5.54391">
        <ele>1052.4029541016</ele>
        <time>2010-06-13T12:20:49Z</time>
      </trkpt>
      <trkpt lat="45.17402" lon="5.54406">
        <ele>1053.2039794922</ele>
        <time>2010-06-13T12:20:52Z</time>
      </trkpt>
      <trkpt lat="45.17384" lon="5.54447">
        <ele>1053.8370361328</ele>
        <time>2010-06-13T12:21:00Z</time>
      </trkpt>
      <trkpt lat="45.1737" lon="5.54473">
        <ele>1054.6610107422</ele>
        <time>2010-06-13T12:21:06Z</time>
      </trkpt>
      <trkpt lat="45.17353" lon="5.54484">
        <ele>1055.4189453125</ele>
        <time>2010-06-13T12:21:11Z</time>
      </trkpt>
      <trkpt lat="45.17351" lon="5.54488">
        <ele>1055.3990478516</ele>
        <time>2010-06-13T12:21:12Z</time>
      </trkpt>
      <trkpt lat="45.17348" lon="5.54518">
        <ele>1055.4470214844</ele>
        <time>2010-06-13T12:21:17Z</time>
      </trkpt>
      <trkpt lat="45.17345" lon="5.54529">
        <ele>1055.4420166016</ele>
        <time>2010-06-13T12:21:19Z</time>
      </trkpt>
      <trkpt lat="45.17328" lon="5.54563">
        <ele>1055.4210205078</ele>
        <time>2010-06-13T12:21:26Z</time>
      </trkpt>
      <trkpt lat="45.17317" lon="5.54587">
        <ele>1058.2950439453</ele>
        <time>2010-06-13T12:21:31Z</time>
      </trkpt>
      <trkpt lat="45.17302" lon="5.5462">
        <ele>1059.5679931641</ele>
        <time>2010-06-13T12:21:38Z</time>
      </trkpt>
      <trkpt lat="45.17285" lon="5.54656">
        <ele>1061.0439453125</ele>
        <time>2010-06-13T12:21:46Z</time>
      </trkpt>
      <trkpt lat="45.17265" lon="5.54696">
        <ele>1062.3199462891</ele>
        <time>2010-06-13T12:21:55Z</time>
      </trkpt>
      <trkpt lat="45.17244" lon="5.54742">
        <ele>1064.0529785156</ele>
        <time>2010-06-13T12:22:05Z</time>
      </trkpt>
      <trkpt lat="45.17231" lon="5.5477">
        <ele>1064.4720458984</ele>
        <time>2010-06-13T12:22:11Z</time>
      </trkpt>
      <trkpt lat="45.17215" lon="5.54802">
        <ele>1066.2039794922</ele>
        <time>2010-06-13T12:22:18Z</time>
      </trkpt>
      <trkpt lat="45.17201" lon="5.54837">
        <ele>1068.4479980469</ele>
        <time>2010-06-13T12:22:26Z</time>
      </trkpt>
      <trkpt lat="45.17184" lon="5.54873">
        <ele>1070.1820068359</ele>
        <time>2010-06-13T12:22:35Z</time>
      </trkpt>
      <trkpt lat="45.17173" lon="5.54897">
        <ele>1070.6689453125</ele>
        <time>2010-06-13T12:22:41Z</time>
      </trkpt>
      <trkpt lat="45.17167" lon="5.54909">
        <ele>1072.08203125</ele>
        <time>2010-06-13T12:22:44Z</time>
      </trkpt>
      <trkpt lat="45.17151" lon="5.54944">
        <ele>1073.7280273438</ele>
        <time>2010-06-13T12:22:53Z</time>
      </trkpt>
      <trkpt lat="45.17138" lon="5.54974">
        <ele>1075.2619628906</ele>
        <time>2010-06-13T12:23:01Z</time>
      </trkpt>
      <trkpt lat="45.17122" lon="5.55009">
        <ele>1076.8780517578</ele>
        <time>2010-06-13T12:23:10Z</time>
      </trkpt>
      <trkpt lat="45.17106" lon="5.55044">
        <ele>1078.6180419922</ele>
        <time>2010-06-13T12:23:19Z</time>
      </trkpt>
      <trkpt lat="45.17091" lon="5.55076">
        <ele>1080.0959472656</ele>
        <time>2010-06-13T12:23:27Z</time>
      </trkpt>
      <trkpt lat="45.17075" lon="5.55111">
        <ele>1082.166015625</ele>
        <time>2010-06-13T12:23:36Z</time>
      </trkpt>
      <trkpt lat="45.17058" lon="5.55148">
        <ele>1083.8669433594</ele>
        <time>2010-06-13T12:23:46Z</time>
      </trkpt>
      <trkpt lat="45.1704" lon="5.55176">
        <ele>1085.4749755859</ele>
        <time>2010-06-13T12:23:54Z</time>
      </trkpt>
      <trkpt lat="45.1701" lon="5.55206">
        <ele>1087.2509765625</ele>
        <time>2010-06-13T12:24:04Z</time>
      </trkpt>
      <trkpt lat="45.16983" lon="5.55227">
        <ele>1088.4060058594</ele>
        <time>2010-06-13T12:24:12Z</time>
      </trkpt>
      <trkpt lat="45.16956" lon="5.55238">
        <ele>1089.1330566406</ele>
        <time>2010-06-13T12:24:19Z</time>
      </trkpt>
      <trkpt lat="45.16914" lon="5.55248">
        <ele>1090.7309570312</ele>
        <time>2010-06-13T12:24:29Z</time>
      </trkpt>
      <trkpt lat="45.16874" lon="5.55257">
        <ele>1090.3399658203</ele>
        <time>2010-06-13T12:24:37Z</time>
      </trkpt>
      <trkpt lat="45.16845" lon="5.55264">
        <ele>1089.3520507812</ele>
        <time>2010-06-13T12:24:42Z</time>
      </trkpt>
      <trkpt lat="45.16803" lon="5.55275">
        <ele>1087.6789550781</ele>
        <time>2010-06-13T12:24:48Z</time>
      </trkpt>
      <trkpt lat="45.16771" lon="5.55282">
        <ele>1086.2869873047</ele>
        <time>2010-06-13T12:24:52Z</time>
      </trkpt>
      <trkpt lat="45.16726" lon="5.55287">
        <ele>1083.6169433594</ele>
        <time>2010-06-13T12:24:57Z</time>
      </trkpt>
      <trkpt lat="45.16716" lon="5.55287">
        <ele>1083.3599853516</ele>
        <time>2010-06-13T12:24:58Z</time>
      </trkpt>
      <trkpt lat="45.16656" lon="5.5529">
        <ele>1079.9739990234</ele>
        <time>2010-06-13T12:25:04Z</time>
      </trkpt>
      <trkpt lat="45.16623" lon="5.55292">
        <ele>1078.5760498047</ele>
        <time>2010-06-13T12:25:07Z</time>
      </trkpt>
      <trkpt lat="45.16542" lon="5.55296">
        <ele>1074.4300537109</ele>
        <time>2010-06-13T12:25:14Z</time>
      </trkpt>
      <trkpt lat="45.16457" lon="5.55295">
        <ele>1070.5059814453</ele>
        <time>2010-06-13T12:25:21Z</time>
      </trkpt>
      <trkpt lat="45.16406" lon="5.55287">
        <ele>1067.8409423828</ele>
        <time>2010-06-13T12:25:25Z</time>
      </trkpt>
      <trkpt lat="45.16331" lon="5.55282">
        <ele>1064.5050048828</ele>
        <time>2010-06-13T12:25:31Z</time>
      </trkpt>
      <trkpt lat="45.16245" lon="5.55286">
        <ele>1061.6820068359</ele>
        <time>2010-06-13T12:25:38Z</time>
      </trkpt>
      <trkpt lat="45.16164" lon="5.55289">
        <ele>1060.4849853516</ele>
        <time>2010-06-13T12:25:45Z</time>
      </trkpt>
      <trkpt lat="45.16103" lon="5.55293">
        <ele>1060.0579833984</ele>
        <time>2010-06-13T12:25:51Z</time>
      </trkpt>
      <trkpt lat="45.16041" lon="5.55295">
        <ele>1060.6629638672</ele>
        <time>2010-06-13T12:25:58Z</time>
      </trkpt>
      <trkpt lat="45.1599" lon="5.55297">
        <ele>1060.0939941406</ele>
        <time>2010-06-13T12:26:04Z</time>
      </trkpt>
      <trkpt lat="45.15964" lon="5.55297">
        <ele>1058.9429931641</ele>
        <time>2010-06-13T12:26:07Z</time>
      </trkpt>
      <trkpt lat="45.1587" lon="5.55298">
        <ele>1057.7530517578</ele>
        <time>2010-06-13T12:26:17Z</time>
      </trkpt>
      <trkpt lat="45.15769" lon="5.55297">
        <ele>1058.7629394531</ele>
        <time>2010-06-13T12:26:28Z</time>
      </trkpt>
      <trkpt lat="45.15714" lon="5.55299">
        <ele>1060.3940429688</ele>
        <time>2010-06-13T12:26:35Z</time>
      </trkpt>
      <trkpt lat="45.15681" lon="5.55314">
        <ele>1061.6820068359</ele>
        <time>2010-06-13T12:26:40Z</time>
      </trkpt>
      <trkpt lat="45.1567" lon="5.55322">
        <ele>1062.8029785156</ele>
        <time>2010-06-13T12:26:42Z</time>
      </trkpt>
      <trkpt lat="45.15636" lon="5.55357">
        <ele>1064.6469726562</ele>
        <time>2010-06-13T12:26:50Z</time>
      </trkpt>
      <trkpt lat="45.156" lon="5.55393">
        <ele>1064.6569824219</ele>
        <time>2010-06-13T12:26:58Z</time>
      </trkpt>
      <trkpt lat="45.15566" lon="5.55427">
        <ele>1066.8129882812</ele>
        <time>2010-06-13T12:27:06Z</time>
      </trkpt>
      <trkpt lat="45.15539" lon="5.55441">
        <ele>1069.0179443359</ele>
        <time>2010-06-13T12:27:13Z</time>
      </trkpt>
      <trkpt lat="45.15508" lon="5.5544">
        <ele>1071.1710205078</ele>
        <time>2010-06-13T12:27:20Z</time>
      </trkpt>
      <trkpt lat="45.15463" lon="5.55431">
        <ele>1073.1040039062</ele>
        <time>2010-06-13T12:27:29Z</time>
      </trkpt>
      <trkpt lat="45.15435" lon="5.55424">
        <ele>1075.3199462891</ele>
        <time>2010-06-13T12:27:35Z</time>
      </trkpt>
      <trkpt lat="45.15392" lon="5.55412">
        <ele>1077.5389404297</ele>
        <time>2010-06-13T12:27:45Z</time>
      </trkpt>
      <trkpt lat="45.15355" lon="5.55402">
        <ele>1079.7330322266</ele>
        <time>2010-06-13T12:27:55Z</time>
      </trkpt>
      <trkpt lat="45.15326" lon="5.55397">
        <ele>1081.5760498047</ele>
        <time>2010-06-13T12:28:03Z</time>
      </trkpt>
      <trkpt lat="45.15299" lon="5.55399">
        <ele>1083.2979736328</ele>
        <time>2010-06-13T12:28:11Z</time>
      </trkpt>
      <trkpt lat="45.15276" lon="5.55408">
        <ele>1084.6619873047</ele>
        <time>2010-06-13T12:28:18Z</time>
      </trkpt>
      <trkpt lat="45.15264" lon="5.55416">
        <ele>1085.5040283203</ele>
        <time>2010-06-13T12:28:22Z</time>
      </trkpt>
      <trkpt lat="45.15255" lon="5.55422">
        <ele>1085.8079833984</ele>
        <time>2010-06-13T12:28:25Z</time>
      </trkpt>
      <trkpt lat="45.1523" lon="5.55428">
        <ele>1087.0639648438</ele>
        <time>2010-06-13T12:28:32Z</time>
      </trkpt>
      <trkpt lat="45.15209" lon="5.5542">
        <ele>1088.7810058594</ele>
        <time>2010-06-13T12:28:38Z</time>
      </trkpt>
      <trkpt lat="45.15184" lon="5.554">
        <ele>1091.5389404297</ele>
        <time>2010-06-13T12:28:46Z</time>
      </trkpt>
      <trkpt lat="45.15154" lon="5.55379">
        <ele>1093.6739501953</ele>
        <time>2010-06-13T12:28:55Z</time>
      </trkpt>
      <trkpt lat="45.15128" lon="5.55372">
        <ele>1095.4050292969</ele>
        <time>2010-06-13T12:29:02Z</time>
      </trkpt>
      <trkpt lat="45.15116" lon="5.55373">
        <ele>1095.9870605469</ele>
        <time>2010-06-13T12:29:05Z</time>
      </trkpt>
      <trkpt lat="45.15088" lon="5.55388">
        <ele>1097.4339599609</ele>
        <time>2010-06-13T12:29:12Z</time>
      </trkpt>
      <trkpt lat="45.15051" lon="5.55414">
        <ele>1099.6619873047</ele>
        <time>2010-06-13T12:29:22Z</time>
      </trkpt>
      <trkpt lat="45.15026" lon="5.55423">
        <ele>1101.1989746094</ele>
        <time>2010-06-13T12:29:29Z</time>
      </trkpt>
      <trkpt lat="45.14997" lon="5.55425">
        <ele>1102.7370605469</ele>
        <time>2010-06-13T12:29:37Z</time>
      </trkpt>
      <trkpt lat="45.14967" lon="5.55425">
        <ele>1104.1610107422</ele>
        <time>2010-06-13T12:29:45Z</time>
      </trkpt>
      <trkpt lat="45.14932" lon="5.55425">
        <ele>1106.4389648438</ele>
        <time>2010-06-13T12:29:55Z</time>
      </trkpt>
      <trkpt lat="45.14906" lon="5.55424">
        <ele>1107.6490478516</ele>
        <time>2010-06-13T12:30:02Z</time>
      </trkpt>
      <trkpt lat="45.14872" lon="5.55419">
        <ele>1109.5679931641</ele>
        <time>2010-06-13T12:30:11Z</time>
      </trkpt>
      <trkpt lat="45.1484" lon="5.55413">
        <ele>1111.5889892578</ele>
        <time>2010-06-13T12:30:19Z</time>
      </trkpt>
      <trkpt lat="45.14803" lon="5.55405">
        <ele>1113.6169433594</ele>
        <time>2010-06-13T12:30:28Z</time>
      </trkpt>
      <trkpt lat="45.14776" lon="5.55401">
        <ele>1115.3649902344</ele>
        <time>2010-06-13T12:30:35Z</time>
      </trkpt>
      <trkpt lat="45.14747" lon="5.55405">
        <ele>1117.4079589844</ele>
        <time>2010-06-13T12:30:43Z</time>
      </trkpt>
      <trkpt lat="45.14728" lon="5.55418">
        <ele>1119.1820068359</ele>
        <time>2010-06-13T12:30:49Z</time>
      </trkpt>
      <trkpt lat="45.14714" lon="5.5544">
        <ele>1120.9019775391</ele>
        <time>2010-06-13T12:30:55Z</time>
      </trkpt>
      <trkpt lat="45.14706" lon="5.55474">
        <ele>1122.0909423828</ele>
        <time>2010-06-13T12:31:02Z</time>
      </trkpt>
      <trkpt lat="45.14691" lon="5.55509">
        <ele>1123.6789550781</ele>
        <time>2010-06-13T12:31:10Z</time>
      </trkpt>
      <trkpt lat="45.14668" lon="5.55531">
        <ele>1125.1419677734</ele>
        <time>2010-06-13T12:31:18Z</time>
      </trkpt>
      <trkpt lat="45.14646" lon="5.55537">
        <ele>1126.3509521484</ele>
        <time>2010-06-13T12:31:24Z</time>
      </trkpt>
      <trkpt lat="45.14617" lon="5.55528">
        <ele>1128.6479492188</ele>
        <time>2010-06-13T12:31:32Z</time>
      </trkpt>
      <trkpt lat="45.1458" lon="5.55513">
        <ele>1131.0639648438</ele>
        <time>2010-06-13T12:31:42Z</time>
      </trkpt>
      <trkpt lat="45.14545" lon="5.55506">
        <ele>1132.9670410156</ele>
        <time>2010-06-13T12:31:51Z</time>
      </trkpt>
      <trkpt lat="45.14506" lon="5.55507">
        <ele>1135.0290527344</ele>
        <time>2010-06-13T12:32:01Z</time>
      </trkpt>
      <trkpt lat="45.14468" lon="5.55514">
        <ele>1137.0799560547</ele>
        <time>2010-06-13T12:32:11Z</time>
      </trkpt>
      <trkpt lat="45.14442" lon="5.55525">
        <ele>1138.6109619141</ele>
        <time>2010-06-13T12:32:18Z</time>
      </trkpt>
      <trkpt lat="45.14414" lon="5.55543">
        <ele>1140.3919677734</ele>
        <time>2010-06-13T12:32:26Z</time>
      </trkpt>
      <trkpt lat="45.14387" lon="5.55565">
        <ele>1141.7580566406</ele>
        <time>2010-06-13T12:32:34Z</time>
      </trkpt>
      <trkpt lat="45.14366" lon="5.55589">
        <ele>1143.6080322266</ele>
        <time>2010-06-13T12:32:41Z</time>
      </trkpt>
      <trkpt lat="45.1436" lon="5.5562">
        <ele>1144.5310058594</ele>
        <time>2010-06-13T12:32:47Z</time>
      </trkpt>
      <trkpt lat="45.14354" lon="5.55657">
        <ele>1145.9720458984</ele>
        <time>2010-06-13T12:32:54Z</time>
      </trkpt>
      <trkpt lat="45.14346" lon="5.55684">
        <ele>1147.0009765625</ele>
        <time>2010-06-13T12:32:59Z</time>
      </trkpt>
      <trkpt lat="45.14337" lon="5.55703">
        <ele>1147.8990478516</ele>
        <time>2010-06-13T12:33:03Z</time>
      </trkpt>
      <trkpt lat="45.14324" lon="5.55717">
        <ele>1148.9510498047</ele>
        <time>2010-06-13T12:33:07Z</time>
      </trkpt>
      <trkpt lat="45.14288" lon="5.5574">
        <ele>1151.1920166016</ele>
        <time>2010-06-13T12:33:16Z</time>
      </trkpt>
      <trkpt lat="45.14254" lon="5.55761">
        <ele>1153.1650390625</ele>
        <time>2010-06-13T12:33:24Z</time>
      </trkpt>
      <trkpt lat="45.1425" lon="5.55763">
        <ele>1153.41796875</ele>
        <time>2010-06-13T12:33:25Z</time>
      </trkpt>
      <trkpt lat="45.14224" lon="5.55783">
        <ele>1155.0360107422</ele>
        <time>2010-06-13T12:33:32Z</time>
      </trkpt>
      <trkpt lat="45.14202" lon="5.55801">
        <ele>1156.3430175781</ele>
        <time>2010-06-13T12:33:38Z</time>
      </trkpt>
      <trkpt lat="45.14194" lon="5.55806">
        <ele>1156.8039550781</ele>
        <time>2010-06-13T12:33:40Z</time>
      </trkpt>
      <trkpt lat="45.14186" lon="5.55809">
        <ele>1157.1989746094</ele>
        <time>2010-06-13T12:33:42Z</time>
      </trkpt>
      <trkpt lat="45.14155" lon="5.55808">
        <ele>1159.0369873047</ele>
        <time>2010-06-13T12:33:49Z</time>
      </trkpt>
      <trkpt lat="45.14121" lon="5.55798">
        <ele>1160.6829833984</ele>
        <time>2010-06-13T12:33:57Z</time>
      </trkpt>
      <trkpt lat="45.14086" lon="5.55784">
        <ele>1162.8740234375</ele>
        <time>2010-06-13T12:34:05Z</time>
      </trkpt>
      <trkpt lat="45.14051" lon="5.55775">
        <ele>1165.3060302734</ele>
        <time>2010-06-13T12:34:13Z</time>
      </trkpt>
      <trkpt lat="45.14016" lon="5.55774">
        <ele>1166.9479980469</ele>
        <time>2010-06-13T12:34:21Z</time>
      </trkpt>
      <trkpt lat="45.13986" lon="5.5577">
        <ele>1168.4630126953</ele>
        <time>2010-06-13T12:34:28Z</time>
      </trkpt>
      <trkpt lat="45.13945" lon="5.55765">
        <ele>1170.8299560547</ele>
        <time>2010-06-13T12:34:37Z</time>
      </trkpt>
      <trkpt lat="45.13911" lon="5.55756">
        <ele>1173.248046875</ele>
        <time>2010-06-13T12:34:45Z</time>
      </trkpt>
      <trkpt lat="45.13883" lon="5.55752">
        <ele>1174.4379882812</ele>
        <time>2010-06-13T12:34:51Z</time>
      </trkpt>
      <trkpt lat="45.13843" lon="5.5576">
        <ele>1176.8100585938</ele>
        <time>2010-06-13T12:35:00Z</time>
      </trkpt>
      <trkpt lat="45.13815" lon="5.55773">
        <ele>1178.2530517578</ele>
        <time>2010-06-13T12:35:07Z</time>
      </trkpt>
      <trkpt lat="45.1379" lon="5.55787">
        <ele>1179.9379882812</ele>
        <time>2010-06-13T12:35:14Z</time>
      </trkpt>
      <trkpt lat="45.13769" lon="5.55798">
        <ele>1181.6369628906</ele>
        <time>2010-06-13T12:35:20Z</time>
      </trkpt>
      <trkpt lat="45.13753" lon="5.55808">
        <ele>1182.6159667969</ele>
        <time>2010-06-13T12:35:24Z</time>
      </trkpt>
      <trkpt lat="45.13738" lon="5.55815">
        <ele>1183.7230224609</ele>
        <time>2010-06-13T12:35:28Z</time>
      </trkpt>
      <trkpt lat="45.13711" lon="5.55826">
        <ele>1185.4239501953</ele>
        <time>2010-06-13T12:35:34Z</time>
      </trkpt>
      <trkpt lat="45.13676" lon="5.55828">
        <ele>1186.6789550781</ele>
        <time>2010-06-13T12:35:41Z</time>
      </trkpt>
      <trkpt lat="45.13635" lon="5.55822">
        <ele>1189.1639404297</ele>
        <time>2010-06-13T12:35:50Z</time>
      </trkpt>
      <trkpt lat="45.13599" lon="5.55804">
        <ele>1191.0439453125</ele>
        <time>2010-06-13T12:35:59Z</time>
      </trkpt>
      <trkpt lat="45.13563" lon="5.5579">
        <ele>1192.9549560547</ele>
        <time>2010-06-13T12:36:08Z</time>
      </trkpt>
      <trkpt lat="45.13537" lon="5.55789">
        <ele>1194.5140380859</ele>
        <time>2010-06-13T12:36:15Z</time>
      </trkpt>
      <trkpt lat="45.1351" lon="5.55792">
        <ele>1196.5190429688</ele>
        <time>2010-06-13T12:36:22Z</time>
      </trkpt>
      <trkpt lat="45.13492" lon="5.55794">
        <ele>1197.6450195312</ele>
        <time>2010-06-13T12:36:27Z</time>
      </trkpt>
      <trkpt lat="45.13471" lon="5.55798">
        <ele>1198.83203125</ele>
        <time>2010-06-13T12:36:32Z</time>
      </trkpt>
      <trkpt lat="45.13445" lon="5.55802">
        <ele>1200.8000488281</ele>
        <time>2010-06-13T12:36:38Z</time>
      </trkpt>
      <trkpt lat="45.13426" lon="5.55806">
        <ele>1202.0179443359</ele>
        <time>2010-06-13T12:36:42Z</time>
      </trkpt>
      <trkpt lat="45.13386" lon="5.55812">
        <ele>1204.6569824219</ele>
        <time>2010-06-13T12:36:50Z</time>
      </trkpt>
      <trkpt lat="45.13358" lon="5.55814">
        <ele>1206.1490478516</ele>
        <time>2010-06-13T12:36:57Z</time>
      </trkpt>
      <trkpt lat="45.13331" lon="5.55817">
        <ele>1207.8850097656</ele>
        <time>2010-06-13T12:37:04Z</time>
      </trkpt>
      <trkpt lat="45.13309" lon="5.5582">
        <ele>1209.6850585938</ele>
        <time>2010-06-13T12:37:10Z</time>
      </trkpt>
      <trkpt lat="45.13279" lon="5.55823">
        <ele>1211.8719482422</ele>
        <time>2010-06-13T12:37:18Z</time>
      </trkpt>
      <trkpt lat="45.13255" lon="5.55825">
        <ele>1213.8050537109</ele>
        <time>2010-06-13T12:37:25Z</time>
      </trkpt>
      <trkpt lat="45.13232" lon="5.55827">
        <ele>1215.0760498047</ele>
        <time>2010-06-13T12:37:31Z</time>
      </trkpt>
      <trkpt lat="45.13202" lon="5.55834">
        <ele>1217.3220214844</ele>
        <time>2010-06-13T12:37:40Z</time>
      </trkpt>
      <trkpt lat="45.1318" lon="5.55844">
        <ele>1218.3590087891</ele>
        <time>2010-06-13T12:37:47Z</time>
      </trkpt>
      <trkpt lat="45.13174" lon="5.55849">
        <ele>1218.9449462891</ele>
        <time>2010-06-13T12:37:50Z</time>
      </trkpt>
      <trkpt lat="45.13161" lon="5.55858">
        <ele>1219.8360595703</ele>
        <time>2010-06-13T12:37:55Z</time>
      </trkpt>
      <trkpt lat="45.1314" lon="5.55878">
        <ele>1221.6529541016</ele>
        <time>2010-06-13T12:38:03Z</time>
      </trkpt>
      <trkpt lat="45.13123" lon="5.55899">
        <ele>1223.3039550781</ele>
        <time>2010-06-13T12:38:10Z</time>
      </trkpt>
      <trkpt lat="45.13104" lon="5.55916">
        <ele>1224.9189453125</ele>
        <time>2010-06-13T12:38:16Z</time>
      </trkpt>
      <trkpt lat="45.13085" lon="5.55936">
        <ele>1226.4610595703</ele>
        <time>2010-06-13T12:38:22Z</time>
      </trkpt>
      <trkpt lat="45.13065" lon="5.55956">
        <ele>1228.166015625</ele>
        <time>2010-06-13T12:38:28Z</time>
      </trkpt>
      <trkpt lat="45.1303" lon="5.55977">
        <ele>1229.7690429688</ele>
        <time>2010-06-13T12:38:38Z</time>
      </trkpt>
      <trkpt lat="45.13007" lon="5.55983">
        <ele>1229.9749755859</ele>
        <time>2010-06-13T12:38:45Z</time>
      </trkpt>
      <trkpt lat="45.12981" lon="5.55986">
        <ele>1229.1569824219</ele>
        <time>2010-06-13T12:38:51Z</time>
      </trkpt>
      <trkpt lat="45.12957" lon="5.55988">
        <ele>1227.3420410156</ele>
        <time>2010-06-13T12:38:55Z</time>
      </trkpt>
      <trkpt lat="45.12915" lon="5.55991">
        <ele>1223.6300048828</ele>
        <time>2010-06-13T12:39:00Z</time>
      </trkpt>
      <trkpt lat="45.12875" lon="5.55992">
        <ele>1221.1379394531</ele>
        <time>2010-06-13T12:39:04Z</time>
      </trkpt>
      <trkpt lat="45.12827" lon="5.55986">
        <ele>1216.75</ele>
        <time>2010-06-13T12:39:08Z</time>
      </trkpt>
      <trkpt lat="45.12763" lon="5.55972">
        <ele>1212.7359619141</ele>
        <time>2010-06-13T12:39:13Z</time>
      </trkpt>
      <trkpt lat="45.12711" lon="5.55951">
        <ele>1208.3110351562</ele>
        <time>2010-06-13T12:39:17Z</time>
      </trkpt>
      <trkpt lat="45.12701" lon="5.55945">
        <ele>1208.1159667969</ele>
        <time>2010-06-13T12:39:18Z</time>
      </trkpt>
      <trkpt lat="45.12684" lon="5.55931">
        <ele>1207.7819824219</ele>
        <time>2010-06-13T12:39:21Z</time>
      </trkpt>
      <trkpt lat="45.12674" lon="5.55924">
        <ele>1207.1240234375</ele>
        <time>2010-06-13T12:39:25Z</time>
      </trkpt>
      <trkpt lat="45.1267" lon="5.55921">
        <ele>1206.8719482422</ele>
        <time>2010-06-13T12:39:29Z</time>
      </trkpt>
      <trkpt lat="45.12651" lon="5.55923">
        <ele>1205.3659667969</ele>
        <time>2010-06-13T12:40:56Z</time>
      </trkpt>
      <trkpt lat="45.12626" lon="5.55928">
        <ele>1203.5030517578</ele>
        <time>2010-06-13T12:41:01Z</time>
      </trkpt>
      <trkpt lat="45.12614" lon="5.55931">
        <ele>1202.8709716797</ele>
        <time>2010-06-13T12:41:03Z</time>
      </trkpt>
      <trkpt lat="45.126" lon="5.55937">
        <ele>1202.1550292969</ele>
        <time>2010-06-13T12:41:05Z</time>
      </trkpt>
      <trkpt lat="45.12565" lon="5.55959">
        <ele>1199.8000488281</ele>
        <time>2010-06-13T12:41:09Z</time>
      </trkpt>
      <trkpt lat="45.1252" lon="5.56014">
        <ele>1195.6820068359</ele>
        <time>2010-06-13T12:41:14Z</time>
      </trkpt>
      <trkpt lat="45.12458" lon="5.56095">
        <ele>1191.0550537109</ele>
        <time>2010-06-13T12:41:21Z</time>
      </trkpt>
      <trkpt lat="45.12449" lon="5.56107">
        <ele>1190.8210449219</ele>
        <time>2010-06-13T12:41:22Z</time>
      </trkpt>
      <trkpt lat="45.12402" lon="5.56134">
        <ele>1187.1560058594</ele>
        <time>2010-06-13T12:41:26Z</time>
      </trkpt>
      <trkpt lat="45.12374" lon="5.56128">
        <ele>1185.1600341797</ele>
        <time>2010-06-13T12:41:28Z</time>
      </trkpt>
      <trkpt lat="45.12363" lon="5.56119">
        <ele>1184.8260498047</ele>
        <time>2010-06-13T12:41:29Z</time>
      </trkpt>
      <trkpt lat="45.12304" lon="5.56083">
        <ele>1183.6149902344</ele>
        <time>2010-06-13T12:41:34Z</time>
      </trkpt>
      <trkpt lat="45.12252" lon="5.56088">
        <ele>1180.2409667969</ele>
        <time>2010-06-13T12:41:38Z</time>
      </trkpt>
      <trkpt lat="45.12172" lon="5.56124">
        <ele>1175.1619873047</ele>
        <time>2010-06-13T12:41:44Z</time>
      </trkpt>
      <trkpt lat="45.12091" lon="5.56157">
        <ele>1168.6409912109</ele>
        <time>2010-06-13T12:41:50Z</time>
      </trkpt>
      <trkpt lat="45.1204" lon="5.5618">
        <ele>1166.1540527344</ele>
        <time>2010-06-13T12:41:54Z</time>
      </trkpt>
      <trkpt lat="45.1197" lon="5.5621">
        <ele>1160.5660400391</ele>
        <time>2010-06-13T12:41:59Z</time>
      </trkpt>
      <trkpt lat="45.11925" lon="5.56228">
        <ele>1157.5479736328</ele>
        <time>2010-06-13T12:42:02Z</time>
      </trkpt>
      <trkpt lat="45.11898" lon="5.56249">
        <ele>1155.8649902344</ele>
        <time>2010-06-13T12:42:04Z</time>
      </trkpt>
      <trkpt lat="45.11877" lon="5.5628">
        <ele>1154.1049804688</ele>
        <time>2010-06-13T12:42:06Z</time>
      </trkpt>
      <trkpt lat="45.11823" lon="5.5638">
        <ele>1149.1999511719</ele>
        <time>2010-06-13T12:42:12Z</time>
      </trkpt>
      <trkpt lat="45.11759" lon="5.56475">
        <ele>1144.0269775391</ele>
        <time>2010-06-13T12:42:18Z</time>
      </trkpt>
      <trkpt lat="45.11727" lon="5.56549">
        <ele>1139.6199951172</ele>
        <time>2010-06-13T12:42:22Z</time>
      </trkpt>
      <trkpt lat="45.11721" lon="5.56614">
        <ele>1135.1450195312</ele>
        <time>2010-06-13T12:42:25Z</time>
      </trkpt>
      <trkpt lat="45.11733" lon="5.56654">
        <ele>1132.6579589844</ele>
        <time>2010-06-13T12:42:27Z</time>
      </trkpt>
      <trkpt lat="45.11758" lon="5.5668">
        <ele>1131.5310058594</ele>
        <time>2010-06-13T12:42:29Z</time>
      </trkpt>
      <trkpt lat="45.11785" lon="5.56696">
        <ele>1130.0319824219</ele>
        <time>2010-06-13T12:42:31Z</time>
      </trkpt>
      <trkpt lat="45.11822" lon="5.5673">
        <ele>1127.1040039062</ele>
        <time>2010-06-13T12:42:34Z</time>
      </trkpt>
      <trkpt lat="45.11826" lon="5.56772">
        <ele>1124.7919921875</ele>
        <time>2010-06-13T12:42:36Z</time>
      </trkpt>
      <trkpt lat="45.11821" lon="5.56814">
        <ele>1123.2850341797</ele>
        <time>2010-06-13T12:42:38Z</time>
      </trkpt>
      <trkpt lat="45.11822" lon="5.56898">
        <ele>1118.9630126953</ele>
        <time>2010-06-13T12:42:42Z</time>
      </trkpt>
      <trkpt lat="45.11845" lon="5.56926">
        <ele>1116.1080322266</ele>
        <time>2010-06-13T12:42:44Z</time>
      </trkpt>
      <trkpt lat="45.1186" lon="5.56935">
        <ele>1114.7239990234</ele>
        <time>2010-06-13T12:42:45Z</time>
      </trkpt>
      <trkpt lat="45.11957" lon="5.56985">
        <ele>1107.8050537109</ele>
        <time>2010-06-13T12:42:52Z</time>
      </trkpt>
      <trkpt lat="45.11985" lon="5.56997">
        <ele>1106.6739501953</ele>
        <time>2010-06-13T12:42:54Z</time>
      </trkpt>
      <trkpt lat="45.12038" lon="5.57031">
        <ele>1103.2530517578</ele>
        <time>2010-06-13T12:42:58Z</time>
      </trkpt>
      <trkpt lat="45.12063" lon="5.57054">
        <ele>1100.7359619141</ele>
        <time>2010-06-13T12:43:00Z</time>
      </trkpt>
      <trkpt lat="45.12117" lon="5.57084">
        <ele>1097.7120361328</ele>
        <time>2010-06-13T12:43:04Z</time>
      </trkpt>
      <trkpt lat="45.12197" lon="5.57124">
        <ele>1091.7790527344</ele>
        <time>2010-06-13T12:43:10Z</time>
      </trkpt>
      <trkpt lat="45.12276" lon="5.57176">
        <ele>1087.376953125</ele>
        <time>2010-06-13T12:43:16Z</time>
      </trkpt>
      <trkpt lat="45.12341" lon="5.5723">
        <ele>1082.0670166016</ele>
        <time>2010-06-13T12:43:21Z</time>
      </trkpt>
      <trkpt lat="45.12407" lon="5.57283">
        <ele>1077.4549560547</ele>
        <time>2010-06-13T12:43:26Z</time>
      </trkpt>
      <trkpt lat="45.12499" lon="5.57368">
        <ele>1070.4320068359</ele>
        <time>2010-06-13T12:43:33Z</time>
      </trkpt>
      <trkpt lat="45.12591" lon="5.57462">
        <ele>1065.3050537109</ele>
        <time>2010-06-13T12:43:40Z</time>
      </trkpt>
      <trkpt lat="45.12653" lon="5.57536">
        <ele>1057.2309570312</ele>
        <time>2010-06-13T12:43:45Z</time>
      </trkpt>
      <trkpt lat="45.12678" lon="5.57565">
        <ele>1055.6030273438</ele>
        <time>2010-06-13T12:43:47Z</time>
      </trkpt>
      <trkpt lat="45.12733" lon="5.57608">
        <ele>1051.8449707031</ele>
        <time>2010-06-13T12:43:51Z</time>
      </trkpt>
      <trkpt lat="45.1278" lon="5.57663">
        <ele>1046.0389404297</ele>
        <time>2010-06-13T12:43:55Z</time>
      </trkpt>
      <trkpt lat="45.128" lon="5.57695">
        <ele>1044.6960449219</ele>
        <time>2010-06-13T12:43:57Z</time>
      </trkpt>
      <trkpt lat="45.12852" lon="5.5777">
        <ele>1040.4890136719</ele>
        <time>2010-06-13T12:44:02Z</time>
      </trkpt>
      <trkpt lat="45.12863" lon="5.57783">
        <ele>1040.1960449219</ele>
        <time>2010-06-13T12:44:03Z</time>
      </trkpt>
      <trkpt lat="45.12952" lon="5.57883">
        <ele>1032.5250244141</ele>
        <time>2010-06-13T12:44:11Z</time>
      </trkpt>
      <trkpt lat="45.13006" lon="5.57944">
        <ele>1029.4129638672</ele>
        <time>2010-06-13T12:44:16Z</time>
      </trkpt>
      <trkpt lat="45.13016" lon="5.57957">
        <ele>1029.1199951172</ele>
        <time>2010-06-13T12:44:17Z</time>
      </trkpt>
      <trkpt lat="45.13051" lon="5.58008">
        <ele>1026.2860107422</ele>
        <time>2010-06-13T12:44:21Z</time>
      </trkpt>
      <trkpt lat="45.13065" lon="5.58049">
        <ele>1024.6490478516</ele>
        <time>2010-06-13T12:44:24Z</time>
      </trkpt>
      <trkpt lat="45.13065" lon="5.58063">
        <ele>1024.41796875</ele>
        <time>2010-06-13T12:44:25Z</time>
      </trkpt>
      <trkpt lat="45.13054" lon="5.58081">
        <ele>1023.9559936523</ele>
        <time>2010-06-13T12:44:27Z</time>
      </trkpt>
      <trkpt lat="45.13034" lon="5.5808">
        <ele>1023.8590087891</ele>
        <time>2010-06-13T12:44:29Z</time>
      </trkpt>
      <trkpt lat="45.13026" lon="5.58076">
        <ele>1023.8560180664</ele>
        <time>2010-06-13T12:44:30Z</time>
      </trkpt>
      <trkpt lat="45.12976" lon="5.58041">
        <ele>1024.0219726562</ele>
        <time>2010-06-13T12:44:37Z</time>
      </trkpt>
      <trkpt lat="45.12954" lon="5.58025">
        <ele>1023.9290161133</ele>
        <time>2010-06-13T12:44:40Z</time>
      </trkpt>
      <trkpt lat="45.12918" lon="5.57996">
        <ele>1023.9340209961</ele>
        <time>2010-06-13T12:44:45Z</time>
      </trkpt>
      <trkpt lat="45.12873" lon="5.5796">
        <ele>1022.6909790039</ele>
        <time>2010-06-13T12:44:51Z</time>
      </trkpt>
      <trkpt lat="45.128" lon="5.57902">
        <ele>1022.4990234375</ele>
        <time>2010-06-13T12:45:01Z</time>
      </trkpt>
      <trkpt lat="45.12729" lon="5.57845">
        <ele>1022.8419799805</ele>
        <time>2010-06-13T12:45:11Z</time>
      </trkpt>
      <trkpt lat="45.12649" lon="5.57782">
        <ele>1021.7030029297</ele>
        <time>2010-06-13T12:45:22Z</time>
      </trkpt>
      <trkpt lat="45.12585" lon="5.57734">
        <ele>1021.8900146484</ele>
        <time>2010-06-13T12:45:31Z</time>
      </trkpt>
      <trkpt lat="45.12517" lon="5.5768">
        <ele>1021.6950073242</ele>
        <time>2010-06-13T12:45:41Z</time>
      </trkpt>
      <trkpt lat="45.12463" lon="5.57637">
        <ele>1018.8590087891</ele>
        <time>2010-06-13T12:45:49Z</time>
      </trkpt>
      <trkpt lat="45.12421" lon="5.57604">
        <ele>1018.958984375</ele>
        <time>2010-06-13T12:45:56Z</time>
      </trkpt>
      <trkpt lat="45.12415" lon="5.576">
        <ele>1019.1790161133</ele>
        <time>2010-06-13T12:45:57Z</time>
      </trkpt>
      <trkpt lat="45.12371" lon="5.57565">
        <ele>1020.5759887695</ele>
        <time>2010-06-13T12:46:04Z</time>
      </trkpt>
      <trkpt lat="45.12323" lon="5.57527">
        <ele>1020.5029907227</ele>
        <time>2010-06-13T12:46:12Z</time>
      </trkpt>
      <trkpt lat="45.12274" lon="5.57489">
        <ele>1021.1929931641</ele>
        <time>2010-06-13T12:46:21Z</time>
      </trkpt>
      <trkpt lat="45.12229" lon="5.57454">
        <ele>1022.5239868164</ele>
        <time>2010-06-13T12:46:30Z</time>
      </trkpt>
      <trkpt lat="45.12198" lon="5.57429">
        <ele>1022.5109863281</ele>
        <time>2010-06-13T12:46:37Z</time>
      </trkpt>
      <trkpt lat="45.12167" lon="5.57401">
        <ele>1023.8909912109</ele>
        <time>2010-06-13T12:46:44Z</time>
      </trkpt>
      <trkpt lat="45.12135" lon="5.57363">
        <ele>1024.4770507812</ele>
        <time>2010-06-13T12:46:51Z</time>
      </trkpt>
      <trkpt lat="45.12094" lon="5.57307">
        <ele>1026</ele>
        <time>2010-06-13T12:47:00Z</time>
      </trkpt>
      <trkpt lat="45.1206" lon="5.57277">
        <ele>1026.2320556641</ele>
        <time>2010-06-13T12:47:06Z</time>
      </trkpt>
      <trkpt lat="45.12017" lon="5.57254">
        <ele>1026.6639404297</ele>
        <time>2010-06-13T12:47:13Z</time>
      </trkpt>
      <trkpt lat="45.11962" lon="5.57237">
        <ele>1028.0959472656</ele>
        <time>2010-06-13T12:47:22Z</time>
      </trkpt>
      <trkpt lat="45.11901" lon="5.5722">
        <ele>1028.0939941406</ele>
        <time>2010-06-13T12:47:31Z</time>
      </trkpt>
      <trkpt lat="45.11829" lon="5.57199">
        <ele>1028.8649902344</ele>
        <time>2010-06-13T12:47:41Z</time>
      </trkpt>
      <trkpt lat="45.1176" lon="5.57185">
        <ele>1029.1519775391</ele>
        <time>2010-06-13T12:47:50Z</time>
      </trkpt>
      <trkpt lat="45.11694" lon="5.57181">
        <ele>1028.6359863281</ele>
        <time>2010-06-13T12:47:58Z</time>
      </trkpt>
      <trkpt lat="45.11652" lon="5.57195">
        <ele>1027.6490478516</ele>
        <time>2010-06-13T12:48:03Z</time>
      </trkpt>
      <trkpt lat="45.1161" lon="5.57223">
        <ele>1026.5450439453</ele>
        <time>2010-06-13T12:48:08Z</time>
      </trkpt>
      <trkpt lat="45.11592" lon="5.57234">
        <ele>1025.70703125</ele>
        <time>2010-06-13T12:48:10Z</time>
      </trkpt>
      <trkpt lat="45.11545" lon="5.57252">
        <ele>1025.0439453125</ele>
        <time>2010-06-13T12:48:15Z</time>
      </trkpt>
      <trkpt lat="45.11454" lon="5.57274">
        <ele>1022.4639892578</ele>
        <time>2010-06-13T12:48:24Z</time>
      </trkpt>
      <trkpt lat="45.11413" lon="5.57275">
        <ele>1021.7119750977</ele>
        <time>2010-06-13T12:48:28Z</time>
      </trkpt>
      <trkpt lat="45.11373" lon="5.57256">
        <ele>1020.2020263672</ele>
        <time>2010-06-13T12:48:32Z</time>
      </trkpt>
      <trkpt lat="45.11348" lon="5.5723">
        <ele>1017.5460205078</ele>
        <time>2010-06-13T12:48:35Z</time>
      </trkpt>
      <trkpt lat="45.11331" lon="5.57196">
        <ele>1017.0219726562</ele>
        <time>2010-06-13T12:48:38Z</time>
      </trkpt>
      <trkpt lat="45.11327" lon="5.57183">
        <ele>1017.0570068359</ele>
        <time>2010-06-13T12:48:39Z</time>
      </trkpt>
      <trkpt lat="45.11301" lon="5.57083">
        <ele>1015.8020019531</ele>
        <time>2010-06-13T12:48:47Z</time>
      </trkpt>
      <trkpt lat="45.11279" lon="5.57026">
        <ele>1015.7639770508</ele>
        <time>2010-06-13T12:48:52Z</time>
      </trkpt>
      <trkpt lat="45.11251" lon="5.56972">
        <ele>1013.3159790039</ele>
        <time>2010-06-13T12:48:57Z</time>
      </trkpt>
      <trkpt lat="45.11216" lon="5.56911">
        <ele>1011.7449951172</ele>
        <time>2010-06-13T12:49:03Z</time>
      </trkpt>
      <trkpt lat="45.11175" lon="5.56839">
        <ele>1010.6790161133</ele>
        <time>2010-06-13T12:49:10Z</time>
      </trkpt>
      <trkpt lat="45.11123" lon="5.5675">
        <ele>1006.7459716797</ele>
        <time>2010-06-13T12:49:18Z</time>
      </trkpt>
      <trkpt lat="45.11082" lon="5.56703">
        <ele>1006.6530151367</ele>
        <time>2010-06-13T12:49:23Z</time>
      </trkpt>
      <trkpt lat="45.11031" lon="5.56649">
        <ele>1005.6690063477</ele>
        <time>2010-06-13T12:49:29Z</time>
      </trkpt>
      <trkpt lat="45.10982" lon="5.56602">
        <ele>1005.8510131836</ele>
        <time>2010-06-13T12:49:35Z</time>
      </trkpt>
      <trkpt lat="45.10917" lon="5.56546">
        <ele>1004.6500244141</ele>
        <time>2010-06-13T12:49:43Z</time>
      </trkpt>
      <trkpt lat="45.10843" lon="5.56489">
        <ele>1004.6400146484</ele>
        <time>2010-06-13T12:49:52Z</time>
      </trkpt>
      <trkpt lat="45.10755" lon="5.56421">
        <ele>1004.6459960938</ele>
        <time>2010-06-13T12:50:03Z</time>
      </trkpt>
      <trkpt lat="45.10666" lon="5.56354">
        <ele>1004.1019897461</ele>
        <time>2010-06-13T12:50:14Z</time>
      </trkpt>
      <trkpt lat="45.10558" lon="5.56291">
        <ele>1003.9799804688</ele>
        <time>2010-06-13T12:50:27Z</time>
      </trkpt>
      <trkpt lat="45.10467" lon="5.56239">
        <ele>1003.5200195312</ele>
        <time>2010-06-13T12:50:38Z</time>
      </trkpt>
      <trkpt lat="45.10387" lon="5.56199">
        <ele>1003.0679931641</ele>
        <time>2010-06-13T12:50:48Z</time>
      </trkpt>
      <trkpt lat="45.10324" lon="5.5617">
        <ele>1003.1259765625</ele>
        <time>2010-06-13T12:50:56Z</time>
      </trkpt>
      <trkpt lat="45.10258" lon="5.56136">
        <ele>1003.5560302734</ele>
        <time>2010-06-13T12:51:05Z</time>
      </trkpt>
      <trkpt lat="45.10197" lon="5.56099">
        <ele>1002.8400268555</ele>
        <time>2010-06-13T12:51:13Z</time>
      </trkpt>
      <trkpt lat="45.10131" lon="5.56054">
        <ele>1000.9359741211</ele>
        <time>2010-06-13T12:51:21Z</time>
      </trkpt>
      <trkpt lat="45.10046" lon="5.55991">
        <ele>999.45001220703</ele>
        <time>2010-06-13T12:51:31Z</time>
      </trkpt>
      <trkpt lat="45.10006" lon="5.55941">
        <ele>1000.5510253906</ele>
        <time>2010-06-13T12:51:37Z</time>
      </trkpt>
      <trkpt lat="45.09948" lon="5.55865">
        <ele>999.7919921875</ele>
        <time>2010-06-13T12:51:46Z</time>
      </trkpt>
      <trkpt lat="45.09915" lon="5.55834">
        <ele>1000.8239746094</ele>
        <time>2010-06-13T12:51:51Z</time>
      </trkpt>
      <trkpt lat="45.09858" lon="5.55799">
        <ele>1002.1019897461</ele>
        <time>2010-06-13T12:51:59Z</time>
      </trkpt>
      <trkpt lat="45.09792" lon="5.55758">
        <ele>1001.6220092773</ele>
        <time>2010-06-13T12:52:08Z</time>
      </trkpt>
      <trkpt lat="45.09744" lon="5.55741">
        <ele>1002.0739746094</ele>
        <time>2010-06-13T12:52:14Z</time>
      </trkpt>
      <trkpt lat="45.09668" lon="5.55719">
        <ele>1001.2540283203</ele>
        <time>2010-06-13T12:52:23Z</time>
      </trkpt>
      <trkpt lat="45.09586" lon="5.55693">
        <ele>999.23999023438</ele>
        <time>2010-06-13T12:52:32Z</time>
      </trkpt>
      <trkpt lat="45.09501" lon="5.55673">
        <ele>998.27600097656</ele>
        <time>2010-06-13T12:52:41Z</time>
      </trkpt>
      <trkpt lat="45.09419" lon="5.55653">
        <ele>998.10302734375</ele>
        <time>2010-06-13T12:52:50Z</time>
      </trkpt>
      <trkpt lat="45.09318" lon="5.5563">
        <ele>998.15399169922</ele>
        <time>2010-06-13T12:53:01Z</time>
      </trkpt>
      <trkpt lat="45.09236" lon="5.55612">
        <ele>996.54498291016</ele>
        <time>2010-06-13T12:53:09Z</time>
      </trkpt>
      <trkpt lat="45.09133" lon="5.55588">
        <ele>994.40399169922</ele>
        <time>2010-06-13T12:53:19Z</time>
      </trkpt>
      <trkpt lat="45.09059" lon="5.55568">
        <ele>994.77301025391</ele>
        <time>2010-06-13T12:53:27Z</time>
      </trkpt>
      <trkpt lat="45.09042" lon="5.5556">
        <ele>995.21002197266</ele>
        <time>2010-06-13T12:53:29Z</time>
      </trkpt>
      <trkpt lat="45.09015" lon="5.55537">
        <ele>995.89898681641</ele>
        <time>2010-06-13T12:53:33Z</time>
      </trkpt>
      <trkpt lat="45.09" lon="5.55538">
        <ele>996.27099609375</ele>
        <time>2010-06-13T12:53:35Z</time>
      </trkpt>
      <trkpt lat="45.08961" lon="5.55541">
        <ele>996.03100585938</ele>
        <time>2010-06-13T12:53:40Z</time>
      </trkpt>
      <trkpt lat="45.08881" lon="5.55519">
        <ele>996.15100097656</ele>
        <time>2010-06-13T12:53:50Z</time>
      </trkpt>
      <trkpt lat="45.08784" lon="5.55491">
        <ele>995.76800537109</ele>
        <time>2010-06-13T12:54:02Z</time>
      </trkpt>
      <trkpt lat="45.08668" lon="5.55456">
        <ele>995.61199951172</ele>
        <time>2010-06-13T12:54:16Z</time>
      </trkpt>
      <trkpt lat="45.08591" lon="5.55433">
        <ele>995.30902099609</ele>
        <time>2010-06-13T12:54:25Z</time>
      </trkpt>
      <trkpt lat="45.08523" lon="5.55413">
        <ele>994.26000976562</ele>
        <time>2010-06-13T12:54:33Z</time>
      </trkpt>
      <trkpt lat="45.08464" lon="5.55399">
        <ele>993.97698974609</ele>
        <time>2010-06-13T12:54:40Z</time>
      </trkpt>
      <trkpt lat="45.08414" lon="5.55385">
        <ele>996.00897216797</ele>
        <time>2010-06-13T12:54:47Z</time>
      </trkpt>
      <trkpt lat="45.08384" lon="5.55378">
        <ele>997.75</ele>
        <time>2010-06-13T12:54:52Z</time>
      </trkpt>
      <trkpt lat="45.08335" lon="5.55377">
        <ele>998.04797363281</ele>
        <time>2010-06-13T12:55:00Z</time>
      </trkpt>
      <trkpt lat="45.0827" lon="5.55386">
        <ele>998.66198730469</ele>
        <time>2010-06-13T12:55:11Z</time>
      </trkpt>
      <trkpt lat="45.08209" lon="5.55394">
        <ele>1000.2059936523</ele>
        <time>2010-06-13T12:55:21Z</time>
      </trkpt>
      <trkpt lat="45.08161" lon="5.55396">
        <ele>1001.3540039062</ele>
        <time>2010-06-13T12:55:29Z</time>
      </trkpt>
      <trkpt lat="45.08149" lon="5.55393">
        <ele>1001.2930297852</ele>
        <time>2010-06-13T12:55:31Z</time>
      </trkpt>
      <trkpt lat="45.08102" lon="5.55362">
        <ele>1001.6790161133</ele>
        <time>2010-06-13T12:55:40Z</time>
      </trkpt>
      <trkpt lat="45.08044" lon="5.55319">
        <ele>1000.8150024414</ele>
        <time>2010-06-13T12:55:51Z</time>
      </trkpt>
      <trkpt lat="45.08038" lon="5.55316">
        <ele>1000.5739746094</ele>
        <time>2010-06-13T12:55:52Z</time>
      </trkpt>
      <trkpt lat="45.08008" lon="5.55305">
        <ele>1000.8220214844</ele>
        <time>2010-06-13T12:55:57Z</time>
      </trkpt>
      <trkpt lat="45.07961" lon="5.55309">
        <ele>998.96600341797</ele>
        <time>2010-06-13T12:56:04Z</time>
      </trkpt>
      <trkpt lat="45.07932" lon="5.55312">
        <ele>999.28100585938</ele>
        <time>2010-06-13T12:56:08Z</time>
      </trkpt>
      <trkpt lat="45.07906" lon="5.55327">
        <ele>999.67901611328</ele>
        <time>2010-06-13T12:56:12Z</time>
      </trkpt>
      <trkpt lat="45.07876" lon="5.5534">
        <ele>997.39001464844</ele>
        <time>2010-06-13T12:56:16Z</time>
      </trkpt>
      <trkpt lat="45.07843" lon="5.5534">
        <ele>995.43499755859</ele>
        <time>2010-06-13T12:56:20Z</time>
      </trkpt>
      <trkpt lat="45.07805" lon="5.55318">
        <ele>992.37298583984</ele>
        <time>2010-06-13T12:56:25Z</time>
      </trkpt>
      <trkpt lat="45.07795" lon="5.55302">
        <ele>991.28497314453</ele>
        <time>2010-06-13T12:56:27Z</time>
      </trkpt>
      <trkpt lat="45.07769" lon="5.55246">
        <ele>991.85900878906</ele>
        <time>2010-06-13T12:56:34Z</time>
      </trkpt>
      <trkpt lat="45.07743" lon="5.55194">
        <ele>992.5419921875</ele>
        <time>2010-06-13T12:56:41Z</time>
      </trkpt>
      <trkpt lat="45.07703" lon="5.55126">
        <ele>992.68103027344</ele>
        <time>2010-06-13T12:56:51Z</time>
      </trkpt>
      <trkpt lat="45.07658" lon="5.55072">
        <ele>992.13598632812</ele>
        <time>2010-06-13T12:57:00Z</time>
      </trkpt>
      <trkpt lat="45.07613" lon="5.55041">
        <ele>990.56701660156</ele>
        <time>2010-06-13T12:57:07Z</time>
      </trkpt>
      <trkpt lat="45.07561" lon="5.55006">
        <ele>989.67700195312</ele>
        <time>2010-06-13T12:57:15Z</time>
      </trkpt>
      <trkpt lat="45.07518" lon="5.54973">
        <ele>989.46801757812</ele>
        <time>2010-06-13T12:57:22Z</time>
      </trkpt>
      <trkpt lat="45.07476" lon="5.54929">
        <ele>987.02801513672</ele>
        <time>2010-06-13T12:57:29Z</time>
      </trkpt>
      <trkpt lat="45.07438" lon="5.54886">
        <ele>983.89398193359</ele>
        <time>2010-06-13T12:57:35Z</time>
      </trkpt>
      <trkpt lat="45.07407" lon="5.54851">
        <ele>982.22698974609</ele>
        <time>2010-06-13T12:57:40Z</time>
      </trkpt>
      <trkpt lat="45.0739" lon="5.54826">
        <ele>981.77099609375</ele>
        <time>2010-06-13T12:57:43Z</time>
      </trkpt>
      <trkpt lat="45.07376" lon="5.54795">
        <ele>980.82397460938</ele>
        <time>2010-06-13T12:57:46Z</time>
      </trkpt>
      <trkpt lat="45.07366" lon="5.54733">
        <ele>978.56597900391</ele>
        <time>2010-06-13T12:57:51Z</time>
      </trkpt>
      <trkpt lat="45.07371" lon="5.54702">
        <ele>979.04602050781</ele>
        <time>2010-06-13T12:57:56Z</time>
      </trkpt>
      <trkpt lat="45.07366" lon="5.54677">
        <ele>977.36798095703</ele>
        <time>2010-06-13T12:58:00Z</time>
      </trkpt>
      <trkpt lat="45.07361" lon="5.54674">
        <ele>977.07000732422</ele>
        <time>2010-06-13T12:58:01Z</time>
      </trkpt>
      <trkpt lat="45.07356" lon="5.54673">
        <ele>976.95202636719</ele>
        <time>2010-06-13T12:58:02Z</time>
      </trkpt>
      <trkpt lat="45.07345" lon="5.54673">
        <ele>977.28900146484</ele>
        <time>2010-06-13T12:58:04Z</time>
      </trkpt>
      <trkpt lat="45.07324" lon="5.54668">
        <ele>977.73297119141</ele>
        <time>2010-06-13T12:58:08Z</time>
      </trkpt>
      <trkpt lat="45.0728" lon="5.54651">
        <ele>977.53100585938</ele>
        <time>2010-06-13T12:58:16Z</time>
      </trkpt>
      <trkpt lat="45.07235" lon="5.54634">
        <ele>977.81097412109</ele>
        <time>2010-06-13T12:58:24Z</time>
      </trkpt>
      <trkpt lat="45.07186" lon="5.54616">
        <ele>979.36999511719</ele>
        <time>2010-06-13T12:58:33Z</time>
      </trkpt>
      <trkpt lat="45.07144" lon="5.54601">
        <ele>980.43701171875</ele>
        <time>2010-06-13T12:58:41Z</time>
      </trkpt>
      <trkpt lat="45.07099" lon="5.54585">
        <ele>982.19799804688</ele>
        <time>2010-06-13T12:58:50Z</time>
      </trkpt>
      <trkpt lat="45.07069" lon="5.54575">
        <ele>982.75897216797</ele>
        <time>2010-06-13T12:58:56Z</time>
      </trkpt>
      <trkpt lat="45.07018" lon="5.54558">
        <ele>983.58599853516</ele>
        <time>2010-06-13T12:59:06Z</time>
      </trkpt>
      <trkpt lat="45.06983" lon="5.54544">
        <ele>984.27099609375</ele>
        <time>2010-06-13T12:59:13Z</time>
      </trkpt>
      <trkpt lat="45.06937" lon="5.5453">
        <ele>985.39202880859</ele>
        <time>2010-06-13T12:59:22Z</time>
      </trkpt>
      <trkpt lat="45.06898" lon="5.54526">
        <ele>986.36199951172</ele>
        <time>2010-06-13T12:59:29Z</time>
      </trkpt>
      <trkpt lat="45.06858" lon="5.54529">
        <ele>987.02001953125</ele>
        <time>2010-06-13T12:59:36Z</time>
      </trkpt>
      <trkpt lat="45.06815" lon="5.54543">
        <ele>987.36700439453</ele>
        <time>2010-06-13T12:59:44Z</time>
      </trkpt>
      <trkpt lat="45.06785" lon="5.54558">
        <ele>988.03997802734</ele>
        <time>2010-06-13T12:59:50Z</time>
      </trkpt>
      <trkpt lat="45.06749" lon="5.54583">
        <ele>988.28601074219</ele>
        <time>2010-06-13T12:59:58Z</time>
      </trkpt>
      <trkpt lat="45.06741" lon="5.54589">
        <ele>988.59899902344</ele>
        <time>2010-06-13T13:00:00Z</time>
      </trkpt>
      <trkpt lat="45.06721" lon="5.54595">
        <ele>989.40197753906</ele>
        <time>2010-06-13T13:00:05Z</time>
      </trkpt>
      <trkpt lat="45.0672" lon="5.54584">
        <ele>990.77600097656</ele>
        <time>2010-06-13T13:00:07Z</time>
      </trkpt>
      <trkpt lat="45.06722" lon="5.54581">
        <ele>990.93902587891</ele>
        <time>2010-06-13T13:00:08Z</time>
      </trkpt>
      <trkpt lat="45.0673" lon="5.54576">
        <ele>991.16302490234</ele>
        <time>2010-06-13T13:00:10Z</time>
      </trkpt>
      <trkpt lat="45.0676" lon="5.54562">
        <ele>992.20501708984</ele>
        <time>2010-06-13T13:00:18Z</time>
      </trkpt>
      <trkpt lat="45.06789" lon="5.54544">
        <ele>993.99298095703</ele>
        <time>2010-06-13T13:00:26Z</time>
      </trkpt>
      <trkpt lat="45.06816" lon="5.54529">
        <ele>996.27697753906</ele>
        <time>2010-06-13T13:00:34Z</time>
      </trkpt>
      <trkpt lat="45.06836" lon="5.5452">
        <ele>997.77697753906</ele>
        <time>2010-06-13T13:00:40Z</time>
      </trkpt>
      <trkpt lat="45.06866" lon="5.54508">
        <ele>999.73999023438</ele>
        <time>2010-06-13T13:00:50Z</time>
      </trkpt>
      <trkpt lat="45.06881" lon="5.54506">
        <ele>1001.0390014648</ele>
        <time>2010-06-13T13:00:56Z</time>
      </trkpt>
      <trkpt lat="45.069" lon="5.5451">
        <ele>1002.7700195312</ele>
        <time>2010-06-13T13:01:03Z</time>
      </trkpt>
      <trkpt lat="45.06922" lon="5.54511">
        <ele>1004.5469970703</ele>
        <time>2010-06-13T13:01:11Z</time>
      </trkpt>
      <trkpt lat="45.06939" lon="5.5451">
        <ele>1005.9489746094</ele>
        <time>2010-06-13T13:01:17Z</time>
      </trkpt>
      <trkpt lat="45.06954" lon="5.54508">
        <ele>1007.3699951172</ele>
        <time>2010-06-13T13:01:23Z</time>
      </trkpt>
      <trkpt lat="45.06969" lon="5.54508">
        <ele>1009.4719848633</ele>
        <time>2010-06-13T13:01:29Z</time>
      </trkpt>
      <trkpt lat="45.0699" lon="5.5451">
        <ele>1011.4710083008</ele>
        <time>2010-06-13T13:01:37Z</time>
      </trkpt>
      <trkpt lat="45.07006" lon="5.54513">
        <ele>1012.9879760742</ele>
        <time>2010-06-13T13:01:44Z</time>
      </trkpt>
      <trkpt lat="45.07025" lon="5.54513">
        <ele>1014.1099853516</ele>
        <time>2010-06-13T13:01:51Z</time>
      </trkpt>
      <trkpt lat="45.0704" lon="5.54508">
        <ele>1015.174987793</ele>
        <time>2010-06-13T13:01:57Z</time>
      </trkpt>
      <trkpt lat="45.07066" lon="5.54498">
        <ele>1017.2849731445</ele>
        <time>2010-06-13T13:02:06Z</time>
      </trkpt>
      <trkpt lat="45.07093" lon="5.54488">
        <ele>1019.8400268555</ele>
        <time>2010-06-13T13:02:15Z</time>
      </trkpt>
      <trkpt lat="45.07121" lon="5.54472">
        <ele>1021.6489868164</ele>
        <time>2010-06-13T13:02:25Z</time>
      </trkpt>
      <trkpt lat="45.0714" lon="5.5445">
        <ele>1023.0079956055</ele>
        <time>2010-06-13T13:02:33Z</time>
      </trkpt>
      <trkpt lat="45.07154" lon="5.54422">
        <ele>1023.7349853516</ele>
        <time>2010-06-13T13:02:40Z</time>
      </trkpt>
      <trkpt lat="45.07172" lon="5.5439">
        <ele>1024.6550292969</ele>
        <time>2010-06-13T13:02:47Z</time>
      </trkpt>
      <trkpt lat="45.07178" lon="5.5438">
        <ele>1024.6829833984</ele>
        <time>2010-06-13T13:02:49Z</time>
      </trkpt>
      <trkpt lat="45.07192" lon="5.54335">
        <ele>1025.9730224609</ele>
        <time>2010-06-13T13:02:57Z</time>
      </trkpt>
      <trkpt lat="45.07188" lon="5.54294">
        <ele>1025.2600097656</ele>
        <time>2010-06-13T13:03:04Z</time>
      </trkpt>
      <trkpt lat="45.07181" lon="5.54271">
        <ele>1025.9429931641</ele>
        <time>2010-06-13T13:03:08Z</time>
      </trkpt>
      <trkpt lat="45.07161" lon="5.54218">
        <ele>1026.7230224609</ele>
        <time>2010-06-13T13:03:18Z</time>
      </trkpt>
      <trkpt lat="45.07145" lon="5.54182">
        <ele>1029.3100585938</ele>
        <time>2010-06-13T13:03:26Z</time>
      </trkpt>
      <trkpt lat="45.07132" lon="5.54149">
        <ele>1030.2659912109</ele>
        <time>2010-06-13T13:03:34Z</time>
      </trkpt>
      <trkpt lat="45.07123" lon="5.54118">
        <ele>1032.1929931641</ele>
        <time>2010-06-13T13:03:42Z</time>
      </trkpt>
      <trkpt lat="45.07119" lon="5.54095">
        <ele>1034.4100341797</ele>
        <time>2010-06-13T13:03:49Z</time>
      </trkpt>
      <trkpt lat="45.07109" lon="5.54069">
        <ele>1035.9820556641</ele>
        <time>2010-06-13T13:03:57Z</time>
      </trkpt>
      <trkpt lat="45.07094" lon="5.54044">
        <ele>1037.8070068359</ele>
        <time>2010-06-13T13:04:06Z</time>
      </trkpt>
      <trkpt lat="45.07081" lon="5.54019">
        <ele>1039.0849609375</ele>
        <time>2010-06-13T13:04:14Z</time>
      </trkpt>
      <trkpt lat="45.07064" lon="5.5399">
        <ele>1041.4139404297</ele>
        <time>2010-06-13T13:04:23Z</time>
      </trkpt>
      <trkpt lat="45.07049" lon="5.5397">
        <ele>1042.8139648438</ele>
        <time>2010-06-13T13:04:30Z</time>
      </trkpt>
      <trkpt lat="45.07034" lon="5.53959">
        <ele>1044.3179931641</ele>
        <time>2010-06-13T13:04:36Z</time>
      </trkpt>
      <trkpt lat="45.07019" lon="5.53951">
        <ele>1045.4759521484</ele>
        <time>2010-06-13T13:04:42Z</time>
      </trkpt>
      <trkpt lat="45.07005" lon="5.53944">
        <ele>1046.5849609375</ele>
        <time>2010-06-13T13:04:48Z</time>
      </trkpt>
      <trkpt lat="45.06989" lon="5.53933">
        <ele>1047.1209716797</ele>
        <time>2010-06-13T13:04:56Z</time>
      </trkpt>
      <trkpt lat="45.06976" lon="5.53927">
        <ele>1049.2690429688</ele>
        <time>2010-06-13T13:05:02Z</time>
      </trkpt>
      <trkpt lat="45.0696" lon="5.5392">
        <ele>1050.4770507812</ele>
        <time>2010-06-13T13:05:09Z</time>
      </trkpt>
      <trkpt lat="45.06942" lon="5.53903">
        <ele>1051.9000244141</ele>
        <time>2010-06-13T13:05:16Z</time>
      </trkpt>
      <trkpt lat="45.0693" lon="5.53892">
        <ele>1053.2619628906</ele>
        <time>2010-06-13T13:05:21Z</time>
      </trkpt>
      <trkpt lat="45.06915" lon="5.53879">
        <ele>1053.6989746094</ele>
        <time>2010-06-13T13:05:27Z</time>
      </trkpt>
      <trkpt lat="45.06902" lon="5.53869">
        <ele>1055.5520019531</ele>
        <time>2010-06-13T13:05:32Z</time>
      </trkpt>
      <trkpt lat="45.06884" lon="5.53856">
        <ele>1056.4940185547</ele>
        <time>2010-06-13T13:05:39Z</time>
      </trkpt>
      <trkpt lat="45.06862" lon="5.53841">
        <ele>1058.0050048828</ele>
        <time>2010-06-13T13:05:47Z</time>
      </trkpt>
      <trkpt lat="45.06845" lon="5.53827">
        <ele>1059.3909912109</ele>
        <time>2010-06-13T13:05:54Z</time>
      </trkpt>
      <trkpt lat="45.06821" lon="5.53812">
        <ele>1061.3580322266</ele>
        <time>2010-06-13T13:06:03Z</time>
      </trkpt>
      <trkpt lat="45.06801" lon="5.53799">
        <ele>1063.5169677734</ele>
        <time>2010-06-13T13:06:11Z</time>
      </trkpt>
      <trkpt lat="45.06784" lon="5.53788">
        <ele>1064.5980224609</ele>
        <time>2010-06-13T13:06:18Z</time>
      </trkpt>
      <trkpt lat="45.06768" lon="5.5378">
        <ele>1066.1710205078</ele>
        <time>2010-06-13T13:06:24Z</time>
      </trkpt>
      <trkpt lat="45.06754" lon="5.53772">
        <ele>1067.9250488281</ele>
        <time>2010-06-13T13:06:30Z</time>
      </trkpt>
      <trkpt lat="45.06736" lon="5.53765">
        <ele>1068.9720458984</ele>
        <time>2010-06-13T13:06:36Z</time>
      </trkpt>
      <trkpt lat="45.06718" lon="5.53757">
        <ele>1070.1760253906</ele>
        <time>2010-06-13T13:06:42Z</time>
      </trkpt>
      <trkpt lat="45.06704" lon="5.53746">
        <ele>1071.1400146484</ele>
        <time>2010-06-13T13:06:48Z</time>
      </trkpt>
      <trkpt lat="45.0669" lon="5.53731">
        <ele>1072.5379638672</ele>
        <time>2010-06-13T13:06:55Z</time>
      </trkpt>
      <trkpt lat="45.06672" lon="5.53716">
        <ele>1074.9350585938</ele>
        <time>2010-06-13T13:07:03Z</time>
      </trkpt>
      <trkpt lat="45.06653" lon="5.53695">
        <ele>1077.0360107422</ele>
        <time>2010-06-13T13:07:12Z</time>
      </trkpt>
      <trkpt lat="45.06639" lon="5.53683">
        <ele>1078.083984375</ele>
        <time>2010-06-13T13:07:18Z</time>
      </trkpt>
      <trkpt lat="45.06624" lon="5.53673">
        <ele>1079.5140380859</ele>
        <time>2010-06-13T13:07:24Z</time>
      </trkpt>
      <trkpt lat="45.06601" lon="5.53664">
        <ele>1081.4880371094</ele>
        <time>2010-06-13T13:07:30Z</time>
      </trkpt>
      <trkpt lat="45.0658" lon="5.53646">
        <ele>1083.4759521484</ele>
        <time>2010-06-13T13:07:38Z</time>
      </trkpt>
      <trkpt lat="45.06571" lon="5.53629">
        <ele>1084.6070556641</ele>
        <time>2010-06-13T13:07:43Z</time>
      </trkpt>
      <trkpt lat="45.06578" lon="5.53608">
        <ele>1085.6450195312</ele>
        <time>2010-06-13T13:07:49Z</time>
      </trkpt>
      <trkpt lat="45.06591" lon="5.53596">
        <ele>1087.3559570312</ele>
        <time>2010-06-13T13:07:55Z</time>
      </trkpt>
      <trkpt lat="45.06602" lon="5.53586">
        <ele>1088.9649658203</ele>
        <time>2010-06-13T13:08:01Z</time>
      </trkpt>
      <trkpt lat="45.06606" lon="5.53584">
        <ele>1089.5930175781</ele>
        <time>2010-06-13T13:08:05Z</time>
      </trkpt>
      <trkpt lat="45.06616" lon="5.53579">
        <ele>1090.7740478516</ele>
        <time>2010-06-13T13:08:12Z</time>
      </trkpt>
      <trkpt lat="45.06622" lon="5.53577">
        <ele>1091.5310058594</ele>
        <time>2010-06-13T13:08:15Z</time>
      </trkpt>
      <trkpt lat="45.06651" lon="5.53568">
        <ele>1092.8590087891</ele>
        <time>2010-06-13T13:08:21Z</time>
      </trkpt>
      <trkpt lat="45.06667" lon="5.53562">
        <ele>1093.9310302734</ele>
        <time>2010-06-13T13:08:27Z</time>
      </trkpt>
      <trkpt lat="45.0668" lon="5.53559">
        <ele>1094.9899902344</ele>
        <time>2010-06-13T13:08:32Z</time>
      </trkpt>
      <trkpt lat="45.06699" lon="5.53553">
        <ele>1096.9949951172</ele>
        <time>2010-06-13T13:08:39Z</time>
      </trkpt>
      <trkpt lat="45.06721" lon="5.53551">
        <ele>1098.1419677734</ele>
        <time>2010-06-13T13:08:45Z</time>
      </trkpt>
      <trkpt lat="45.06744" lon="5.53548">
        <ele>1099.8299560547</ele>
        <time>2010-06-13T13:08:52Z</time>
      </trkpt>
      <trkpt lat="45.06756" lon="5.53547">
        <ele>1100.9250488281</ele>
        <time>2010-06-13T13:08:57Z</time>
      </trkpt>
      <trkpt lat="45.0677" lon="5.53545">
        <ele>1102.1479492188</ele>
        <time>2010-06-13T13:09:03Z</time>
      </trkpt>
      <trkpt lat="45.06785" lon="5.53541">
        <ele>1103.5159912109</ele>
        <time>2010-06-13T13:09:09Z</time>
      </trkpt>
      <trkpt lat="45.06794" lon="5.53537">
        <ele>1104.3549804688</ele>
        <time>2010-06-13T13:09:14Z</time>
      </trkpt>
      <trkpt lat="45.06805" lon="5.53531">
        <ele>1105.3480224609</ele>
        <time>2010-06-13T13:09:19Z</time>
      </trkpt>
      <trkpt lat="45.06817" lon="5.53523">
        <ele>1106.3499755859</ele>
        <time>2010-06-13T13:09:24Z</time>
      </trkpt>
      <trkpt lat="45.06833" lon="5.53514">
        <ele>1107.6729736328</ele>
        <time>2010-06-13T13:09:30Z</time>
      </trkpt>
      <trkpt lat="45.06847" lon="5.53501">
        <ele>1109.4410400391</ele>
        <time>2010-06-13T13:09:37Z</time>
      </trkpt>
      <trkpt lat="45.06851" lon="5.53484">
        <ele>1110.9599609375</ele>
        <time>2010-06-13T13:09:43Z</time>
      </trkpt>
      <trkpt lat="45.06852" lon="5.53477">
        <ele>1111.3299560547</ele>
        <time>2010-06-13T13:09:45Z</time>
      </trkpt>
      <trkpt lat="45.0685" lon="5.53453">
        <ele>1112.9820556641</ele>
        <time>2010-06-13T13:09:53Z</time>
      </trkpt>
      <trkpt lat="45.06857" lon="5.53434">
        <ele>1114.0279541016</ele>
        <time>2010-06-13T13:09:59Z</time>
      </trkpt>
      <trkpt lat="45.06861" lon="5.53415">
        <ele>1114.9129638672</ele>
        <time>2010-06-13T13:10:05Z</time>
      </trkpt>
      <trkpt lat="45.06861" lon="5.53393">
        <ele>1116.4680175781</ele>
        <time>2010-06-13T13:10:12Z</time>
      </trkpt>
      <trkpt lat="45.06858" lon="5.53376">
        <ele>1116.8840332031</ele>
        <time>2010-06-13T13:10:17Z</time>
      </trkpt>
      <trkpt lat="45.06857" lon="5.53362">
        <ele>1117.9050292969</ele>
        <time>2010-06-13T13:10:22Z</time>
      </trkpt>
      <trkpt lat="45.06855" lon="5.53344">
        <ele>1118.5660400391</ele>
        <time>2010-06-13T13:10:28Z</time>
      </trkpt>
      <trkpt lat="45.06849" lon="5.53326">
        <ele>1119.8979492188</ele>
        <time>2010-06-13T13:10:35Z</time>
      </trkpt>
      <trkpt lat="45.06833" lon="5.53309">
        <ele>1121.1600341797</ele>
        <time>2010-06-13T13:10:43Z</time>
      </trkpt>
      <trkpt lat="45.06821" lon="5.53302">
        <ele>1121.5909423828</ele>
        <time>2010-06-13T13:10:48Z</time>
      </trkpt>
      <trkpt lat="45.06807" lon="5.53295">
        <ele>1122.5209960938</ele>
        <time>2010-06-13T13:10:53Z</time>
      </trkpt>
      <trkpt lat="45.06792" lon="5.53285">
        <ele>1123.3299560547</ele>
        <time>2010-06-13T13:10:59Z</time>
      </trkpt>
      <trkpt lat="45.06771" lon="5.53277">
        <ele>1124.6619873047</ele>
        <time>2010-06-13T13:11:07Z</time>
      </trkpt>
      <trkpt lat="45.06751" lon="5.53272">
        <ele>1126.4699707031</ele>
        <time>2010-06-13T13:11:14Z</time>
      </trkpt>
      <trkpt lat="45.06725" lon="5.53268">
        <ele>1127.9730224609</ele>
        <time>2010-06-13T13:11:23Z</time>
      </trkpt>
      <trkpt lat="45.067" lon="5.53264">
        <ele>1129.2690429688</ele>
        <time>2010-06-13T13:11:31Z</time>
      </trkpt>
      <trkpt lat="45.06675" lon="5.53261">
        <ele>1130.1999511719</ele>
        <time>2010-06-13T13:11:38Z</time>
      </trkpt>
      <trkpt lat="45.06652" lon="5.53263">
        <ele>1131.001953125</ele>
        <time>2010-06-13T13:11:45Z</time>
      </trkpt>
      <trkpt lat="45.06624" lon="5.53265">
        <ele>1132.0190429688</ele>
        <time>2010-06-13T13:11:53Z</time>
      </trkpt>
      <trkpt lat="45.06598" lon="5.53256">
        <ele>1132.6180419922</ele>
        <time>2010-06-13T13:12:00Z</time>
      </trkpt>
      <trkpt lat="45.06574" lon="5.5324">
        <ele>1133.623046875</ele>
        <time>2010-06-13T13:12:06Z</time>
      </trkpt>
      <trkpt lat="45.06564" lon="5.5323">
        <ele>1133.8100585938</ele>
        <time>2010-06-13T13:12:09Z</time>
      </trkpt>
      <trkpt lat="45.06558" lon="5.53207">
        <ele>1133.70703125</ele>
        <time>2010-06-13T13:12:13Z</time>
      </trkpt>
      <trkpt lat="45.06564" lon="5.53184">
        <ele>1133.8330078125</ele>
        <time>2010-06-13T13:12:17Z</time>
      </trkpt>
      <trkpt lat="45.06569" lon="5.53173">
        <ele>1134.0419921875</ele>
        <time>2010-06-13T13:12:19Z</time>
      </trkpt>
      <trkpt lat="45.06585" lon="5.53123">
        <ele>1134.4479980469</ele>
        <time>2010-06-13T13:12:27Z</time>
      </trkpt>
      <trkpt lat="45.06594" lon="5.53063">
        <ele>1135.1750488281</ele>
        <time>2010-06-13T13:12:36Z</time>
      </trkpt>
      <trkpt lat="45.06599" lon="5.53027">
        <ele>1136.6710205078</ele>
        <time>2010-06-13T13:12:42Z</time>
      </trkpt>
      <trkpt lat="45.06603" lon="5.52982">
        <ele>1137.8380126953</ele>
        <time>2010-06-13T13:12:50Z</time>
      </trkpt>
      <trkpt lat="45.06606" lon="5.52965">
        <ele>1138.4809570312</ele>
        <time>2010-06-13T13:12:53Z</time>
      </trkpt>
      <trkpt lat="45.06609" lon="5.52923">
        <ele>1138.9909667969</ele>
        <time>2010-06-13T13:13:00Z</time>
      </trkpt>
      <trkpt lat="45.06612" lon="5.52877">
        <ele>1140.6550292969</ele>
        <time>2010-06-13T13:13:08Z</time>
      </trkpt>
      <trkpt lat="45.06616" lon="5.52823">
        <ele>1141.4919433594</ele>
        <time>2010-06-13T13:13:18Z</time>
      </trkpt>
      <trkpt lat="45.06617" lon="5.52782">
        <ele>1143.3029785156</ele>
        <time>2010-06-13T13:13:25Z</time>
      </trkpt>
      <trkpt lat="45.06607" lon="5.52734">
        <ele>1144.2459716797</ele>
        <time>2010-06-13T13:13:34Z</time>
      </trkpt>
      <trkpt lat="45.0659" lon="5.52699">
        <ele>1144.0279541016</ele>
        <time>2010-06-13T13:13:41Z</time>
      </trkpt>
      <trkpt lat="45.06569" lon="5.52655">
        <ele>1144.6490478516</ele>
        <time>2010-06-13T13:13:49Z</time>
      </trkpt>
      <trkpt lat="45.06536" lon="5.52592">
        <ele>1145.1440429688</ele>
        <time>2010-06-13T13:14:00Z</time>
      </trkpt>
      <trkpt lat="45.06527" lon="5.52575">
        <ele>1146.0419921875</ele>
        <time>2010-06-13T13:14:03Z</time>
      </trkpt>
      <trkpt lat="45.0651" lon="5.52528">
        <ele>1145.9890136719</ele>
        <time>2010-06-13T13:14:10Z</time>
      </trkpt>
      <trkpt lat="45.06507" lon="5.52514">
        <ele>1146.1059570312</ele>
        <time>2010-06-13T13:14:12Z</time>
      </trkpt>
      <trkpt lat="45.06489" lon="5.52467">
        <ele>1146.5550537109</ele>
        <time>2010-06-13T13:14:19Z</time>
      </trkpt>
      <trkpt lat="45.06467" lon="5.52443">
        <ele>1146.3840332031</ele>
        <time>2010-06-13T13:14:24Z</time>
      </trkpt>
      <trkpt lat="45.06445" lon="5.52435">
        <ele>1146.7919921875</ele>
        <time>2010-06-13T13:14:28Z</time>
      </trkpt>
      <trkpt lat="45.06397" lon="5.52445">
        <ele>1147.0550537109</ele>
        <time>2010-06-13T13:14:36Z</time>
      </trkpt>
      <trkpt lat="45.06359" lon="5.5246">
        <ele>1146.6159667969</ele>
        <time>2010-06-13T13:14:42Z</time>
      </trkpt>
      <trkpt lat="45.06305" lon="5.5248">
        <ele>1146.5400390625</ele>
        <time>2010-06-13T13:14:50Z</time>
      </trkpt>
      <trkpt lat="45.06274" lon="5.52483">
        <ele>1146.1090087891</ele>
        <time>2010-06-13T13:14:54Z</time>
      </trkpt>
      <trkpt lat="45.06229" lon="5.52467">
        <ele>1145.1639404297</ele>
        <time>2010-06-13T13:15:00Z</time>
      </trkpt>
      <trkpt lat="45.06184" lon="5.52433">
        <ele>1146.1979980469</ele>
        <time>2010-06-13T13:15:07Z</time>
      </trkpt>
      <trkpt lat="45.06151" lon="5.52421">
        <ele>1145.1569824219</ele>
        <time>2010-06-13T13:15:12Z</time>
      </trkpt>
      <trkpt lat="45.06106" lon="5.52414">
        <ele>1145.3499755859</ele>
        <time>2010-06-13T13:15:19Z</time>
      </trkpt>
      <trkpt lat="45.061" lon="5.52413">
        <ele>1145.4749755859</ele>
        <time>2010-06-13T13:15:20Z</time>
      </trkpt>
      <trkpt lat="45.06071" lon="5.5239">
        <ele>1145.5889892578</ele>
        <time>2010-06-13T13:15:25Z</time>
      </trkpt>
      <trkpt lat="45.06068" lon="5.52382">
        <ele>1145.5980224609</ele>
        <time>2010-06-13T13:15:26Z</time>
      </trkpt>
      <trkpt lat="45.06054" lon="5.52339">
        <ele>1145.7399902344</ele>
        <time>2010-06-13T13:15:31Z</time>
      </trkpt>
      <trkpt lat="45.0604" lon="5.5231">
        <ele>1146.2340087891</ele>
        <time>2010-06-13T13:15:35Z</time>
      </trkpt>
      <trkpt lat="45.06034" lon="5.52307">
        <ele>1146.33203125</ele>
        <time>2010-06-13T13:15:36Z</time>
      </trkpt>
      <trkpt lat="45.05976" lon="5.52296">
        <ele>1145.5949707031</ele>
        <time>2010-06-13T13:15:45Z</time>
      </trkpt>
      <trkpt lat="45.05932" lon="5.5229">
        <ele>1144.8640136719</ele>
        <time>2010-06-13T13:15:51Z</time>
      </trkpt>
      <trkpt lat="45.05875" lon="5.52261">
        <ele>1144.1350097656</ele>
        <time>2010-06-13T13:15:59Z</time>
      </trkpt>
      <trkpt lat="45.0582" lon="5.52229">
        <ele>1144.5240478516</ele>
        <time>2010-06-13T13:16:07Z</time>
      </trkpt>
      <trkpt lat="45.05813" lon="5.52227">
        <ele>1144.5620117188</ele>
        <time>2010-06-13T13:16:08Z</time>
      </trkpt>
      <trkpt lat="45.05772" lon="5.5222">
        <ele>1144.5150146484</ele>
        <time>2010-06-13T13:16:14Z</time>
      </trkpt>
      <trkpt lat="45.05758" lon="5.52217">
        <ele>1144.7290039062</ele>
        <time>2010-06-13T13:16:16Z</time>
      </trkpt>
      <trkpt lat="45.05727" lon="5.52205">
        <ele>1145.4720458984</ele>
        <time>2010-06-13T13:16:21Z</time>
      </trkpt>
      <trkpt lat="45.05679" lon="5.52178">
        <ele>1146.4119873047</ele>
        <time>2010-06-13T13:16:29Z</time>
      </trkpt>
      <trkpt lat="45.05666" lon="5.5217">
        <ele>1146.5830078125</ele>
        <time>2010-06-13T13:16:31Z</time>
      </trkpt>
      <trkpt lat="45.05641" lon="5.52136">
        <ele>1147.1209716797</ele>
        <time>2010-06-13T13:16:36Z</time>
      </trkpt>
      <trkpt lat="45.05635" lon="5.5212">
        <ele>1147.3010253906</ele>
        <time>2010-06-13T13:16:38Z</time>
      </trkpt>
      <trkpt lat="45.05605" lon="5.52048">
        <ele>1148.2640380859</ele>
        <time>2010-06-13T13:16:47Z</time>
      </trkpt>
      <trkpt lat="45.0559" lon="5.52005">
        <ele>1147.6850585938</ele>
        <time>2010-06-13T13:16:52Z</time>
      </trkpt>
      <trkpt lat="45.05583" lon="5.51947">
        <ele>1148.3580322266</ele>
        <time>2010-06-13T13:16:58Z</time>
      </trkpt>
      <trkpt lat="45.05573" lon="5.5191">
        <ele>1147.6639404297</ele>
        <time>2010-06-13T13:17:02Z</time>
      </trkpt>
      <trkpt lat="45.0557" lon="5.51891">
        <ele>1147.7550048828</ele>
        <time>2010-06-13T13:17:04Z</time>
      </trkpt>
      <trkpt lat="45.05561" lon="5.51864">
        <ele>1148.1560058594</ele>
        <time>2010-06-13T13:17:07Z</time>
      </trkpt>
      <trkpt lat="45.05564" lon="5.51824">
        <ele>1148.1199951172</ele>
        <time>2010-06-13T13:17:11Z</time>
      </trkpt>
      <trkpt lat="45.05568" lon="5.51816">
        <ele>1147.9219970703</ele>
        <time>2010-06-13T13:17:12Z</time>
      </trkpt>
      <trkpt lat="45.05575" lon="5.51798">
        <ele>1147.7659912109</ele>
        <time>2010-06-13T13:17:14Z</time>
      </trkpt>
      <trkpt lat="45.05582" lon="5.51758">
        <ele>1148.3559570312</ele>
        <time>2010-06-13T13:17:18Z</time>
      </trkpt>
      <trkpt lat="45.05573" lon="5.5173">
        <ele>1147.9990234375</ele>
        <time>2010-06-13T13:17:21Z</time>
      </trkpt>
      <trkpt lat="45.05568" lon="5.51679">
        <ele>1147.8039550781</ele>
        <time>2010-06-13T13:17:25Z</time>
      </trkpt>
      <trkpt lat="45.05555" lon="5.51655">
        <ele>1147.8719482422</ele>
        <time>2010-06-13T13:17:28Z</time>
      </trkpt>
      <trkpt lat="45.05542" lon="5.51628">
        <ele>1148.0939941406</ele>
        <time>2010-06-13T13:17:31Z</time>
      </trkpt>
      <trkpt lat="45.0554" lon="5.51617">
        <ele>1148.2939453125</ele>
        <time>2010-06-13T13:17:32Z</time>
      </trkpt>
      <trkpt lat="45.05531" lon="5.51568">
        <ele>1149.8979492188</ele>
        <time>2010-06-13T13:17:37Z</time>
      </trkpt>
      <trkpt lat="45.05539" lon="5.51538">
        <ele>1151.0720214844</ele>
        <time>2010-06-13T13:17:41Z</time>
      </trkpt>
      <trkpt lat="45.05553" lon="5.51525">
        <ele>1152.8659667969</ele>
        <time>2010-06-13T13:17:45Z</time>
      </trkpt>
      <trkpt lat="45.05558" lon="5.51524">
        <ele>1153.5770263672</ele>
        <time>2010-06-13T13:17:46Z</time>
      </trkpt>
      <trkpt lat="45.05585" lon="5.51516">
        <ele>1155.2640380859</ele>
        <time>2010-06-13T13:17:54Z</time>
      </trkpt>
      <trkpt lat="45.05603" lon="5.51503">
        <ele>1156.6040039062</ele>
        <time>2010-06-13T13:18:01Z</time>
      </trkpt>
      <trkpt lat="45.05613" lon="5.51481">
        <ele>1158.2629394531</ele>
        <time>2010-06-13T13:18:07Z</time>
      </trkpt>
      <trkpt lat="45.05612" lon="5.51452">
        <ele>1159.6500244141</ele>
        <time>2010-06-13T13:18:14Z</time>
      </trkpt>
      <trkpt lat="45.05607" lon="5.51434">
        <ele>1160.8170166016</ele>
        <time>2010-06-13T13:18:19Z</time>
      </trkpt>
      <trkpt lat="45.05605" lon="5.51407">
        <ele>1161.8120117188</ele>
        <time>2010-06-13T13:18:25Z</time>
      </trkpt>
      <trkpt lat="45.05613" lon="5.51388">
        <ele>1162.8470458984</ele>
        <time>2010-06-13T13:18:30Z</time>
      </trkpt>
      <trkpt lat="45.05629" lon="5.51372">
        <ele>1163.9539794922</ele>
        <time>2010-06-13T13:18:36Z</time>
      </trkpt>
      <trkpt lat="45.05641" lon="5.51353">
        <ele>1165.3370361328</ele>
        <time>2010-06-13T13:18:41Z</time>
      </trkpt>
      <trkpt lat="45.05643" lon="5.51326">
        <ele>1166.8599853516</ele>
        <time>2010-06-13T13:18:46Z</time>
      </trkpt>
      <trkpt lat="45.0564" lon="5.5129">
        <ele>1168.6159667969</ele>
        <time>2010-06-13T13:18:53Z</time>
      </trkpt>
      <trkpt lat="45.05631" lon="5.51266">
        <ele>1169.2010498047</ele>
        <time>2010-06-13T13:18:58Z</time>
      </trkpt>
      <trkpt lat="45.05618" lon="5.51239">
        <ele>1171.4119873047</ele>
        <time>2010-06-13T13:19:04Z</time>
      </trkpt>
      <trkpt lat="45.05601" lon="5.51216">
        <ele>1172.9229736328</ele>
        <time>2010-06-13T13:19:11Z</time>
      </trkpt>
      <trkpt lat="45.05587" lon="5.51198">
        <ele>1174.1560058594</ele>
        <time>2010-06-13T13:19:17Z</time>
      </trkpt>
      <trkpt lat="45.05579" lon="5.51171">
        <ele>1175.1309814453</ele>
        <time>2010-06-13T13:19:23Z</time>
      </trkpt>
      <trkpt lat="45.05582" lon="5.51148">
        <ele>1175.7170410156</ele>
        <time>2010-06-13T13:19:28Z</time>
      </trkpt>
      <trkpt lat="45.056" lon="5.51136">
        <ele>1175.8229980469</ele>
        <time>2010-06-13T13:19:33Z</time>
      </trkpt>
      <trkpt lat="45.05605" lon="5.51135">
        <ele>1175.748046875</ele>
        <time>2010-06-13T13:19:34Z</time>
      </trkpt>
      <trkpt lat="45.05629" lon="5.51136">
        <ele>1176.0970458984</ele>
        <time>2010-06-13T13:19:39Z</time>
      </trkpt>
      <trkpt lat="45.05648" lon="5.51139">
        <ele>1176.2449951172</ele>
        <time>2010-06-13T13:19:43Z</time>
      </trkpt>
      <trkpt lat="45.0568" lon="5.51142">
        <ele>1176.6590576172</ele>
        <time>2010-06-13T13:19:50Z</time>
      </trkpt>
      <trkpt lat="45.0569" lon="5.51141">
        <ele>1176.8680419922</ele>
        <time>2010-06-13T13:19:52Z</time>
      </trkpt>
      <trkpt lat="45.05713" lon="5.51126">
        <ele>1177.0689697266</ele>
        <time>2010-06-13T13:19:57Z</time>
      </trkpt>
      <trkpt lat="45.05723" lon="5.51101">
        <ele>1177.2309570312</ele>
        <time>2010-06-13T13:20:01Z</time>
      </trkpt>
      <trkpt lat="45.05726" lon="5.51088">
        <ele>1177.3900146484</ele>
        <time>2010-06-13T13:20:03Z</time>
      </trkpt>
      <trkpt lat="45.05745" lon="5.51063">
        <ele>1177.7740478516</ele>
        <time>2010-06-13T13:20:08Z</time>
      </trkpt>
      <trkpt lat="45.05751" lon="5.51061">
        <ele>1177.8149414062</ele>
        <time>2010-06-13T13:20:09Z</time>
      </trkpt>
      <trkpt lat="45.05793" lon="5.51043">
        <ele>1178.7159423828</ele>
        <time>2010-06-13T13:20:17Z</time>
      </trkpt>
      <trkpt lat="45.05813" lon="5.51032">
        <ele>1178.4300537109</ele>
        <time>2010-06-13T13:20:21Z</time>
      </trkpt>
      <trkpt lat="45.05833" lon="5.51019">
        <ele>1178.7829589844</ele>
        <time>2010-06-13T13:20:25Z</time>
      </trkpt>
      <trkpt lat="45.05866" lon="5.50974">
        <ele>1179.6910400391</ele>
        <time>2010-06-13T13:20:33Z</time>
      </trkpt>
      <trkpt lat="45.05888" lon="5.50928">
        <ele>1180.2359619141</ele>
        <time>2010-06-13T13:20:40Z</time>
      </trkpt>
      <trkpt lat="45.05895" lon="5.50917">
        <ele>1180.3179931641</ele>
        <time>2010-06-13T13:20:42Z</time>
      </trkpt>
      <trkpt lat="45.05937" lon="5.50877">
        <ele>1181.2120361328</ele>
        <time>2010-06-13T13:20:50Z</time>
      </trkpt>
      <trkpt lat="45.05956" lon="5.50848">
        <ele>1181.8229980469</ele>
        <time>2010-06-13T13:20:55Z</time>
      </trkpt>
      <trkpt lat="45.05976" lon="5.50811">
        <ele>1182.0300292969</ele>
        <time>2010-06-13T13:21:01Z</time>
      </trkpt>
      <trkpt lat="45.05984" lon="5.50799">
        <ele>1182.0780029297</ele>
        <time>2010-06-13T13:21:03Z</time>
      </trkpt>
      <trkpt lat="45.06018" lon="5.50768">
        <ele>1182.7829589844</ele>
        <time>2010-06-13T13:21:10Z</time>
      </trkpt>
      <trkpt lat="45.06055" lon="5.50741">
        <ele>1183.5159912109</ele>
        <time>2010-06-13T13:21:17Z</time>
      </trkpt>
      <trkpt lat="45.06097" lon="5.50712">
        <ele>1184.3809814453</ele>
        <time>2010-06-13T13:21:25Z</time>
      </trkpt>
      <trkpt lat="45.06126" lon="5.50686">
        <ele>1184.9019775391</ele>
        <time>2010-06-13T13:21:31Z</time>
      </trkpt>
      <trkpt lat="45.06154" lon="5.5066">
        <ele>1186.2110595703</ele>
        <time>2010-06-13T13:21:37Z</time>
      </trkpt>
      <trkpt lat="45.06172" lon="5.50626">
        <ele>1186.0729980469</ele>
        <time>2010-06-13T13:21:42Z</time>
      </trkpt>
      <trkpt lat="45.06185" lon="5.50574">
        <ele>1186.2490234375</ele>
        <time>2010-06-13T13:21:48Z</time>
      </trkpt>
      <trkpt lat="45.06199" lon="5.50547">
        <ele>1186.7049560547</ele>
        <time>2010-06-13T13:21:52Z</time>
      </trkpt>
      <trkpt lat="45.06227" lon="5.50523">
        <ele>1187.9339599609</ele>
        <time>2010-06-13T13:21:57Z</time>
      </trkpt>
      <trkpt lat="45.06245" lon="5.5051">
        <ele>1187.3409423828</ele>
        <time>2010-06-13T13:22:00Z</time>
      </trkpt>
      <trkpt lat="45.06264" lon="5.50489">
        <ele>1187.8809814453</ele>
        <time>2010-06-13T13:22:04Z</time>
      </trkpt>
      <trkpt lat="45.06277" lon="5.50463">
        <ele>1188.6979980469</ele>
        <time>2010-06-13T13:22:08Z</time>
      </trkpt>
      <trkpt lat="45.06294" lon="5.50435">
        <ele>1189.1669921875</ele>
        <time>2010-06-13T13:22:13Z</time>
      </trkpt>
      <trkpt lat="45.06308" lon="5.50414">
        <ele>1188.9790039062</ele>
        <time>2010-06-13T13:22:17Z</time>
      </trkpt>
      <trkpt lat="45.06318" lon="5.5037">
        <ele>1189.8260498047</ele>
        <time>2010-06-13T13:22:23Z</time>
      </trkpt>
      <trkpt lat="45.06335" lon="5.50325">
        <ele>1190.1779785156</ele>
        <time>2010-06-13T13:22:29Z</time>
      </trkpt>
      <trkpt lat="45.0634" lon="5.50309">
        <ele>1190.0340576172</ele>
        <time>2010-06-13T13:22:31Z</time>
      </trkpt>
      <trkpt lat="45.06367" lon="5.50252">
        <ele>1189.9670410156</ele>
        <time>2010-06-13T13:22:38Z</time>
      </trkpt>
      <trkpt lat="45.0639" lon="5.50207">
        <ele>1190.3439941406</ele>
        <time>2010-06-13T13:22:43Z</time>
      </trkpt>
      <trkpt lat="45.064" lon="5.50179">
        <ele>1190.1960449219</ele>
        <time>2010-06-13T13:22:46Z</time>
      </trkpt>
      <trkpt lat="45.06435" lon="5.50123">
        <ele>1190.4479980469</ele>
        <time>2010-06-13T13:22:53Z</time>
      </trkpt>
      <trkpt lat="45.06451" lon="5.50107">
        <ele>1190.7679443359</ele>
        <time>2010-06-13T13:22:55Z</time>
      </trkpt>
      <trkpt lat="45.06481" lon="5.50089">
        <ele>1191.1639404297</ele>
        <time>2010-06-13T13:22:59Z</time>
      </trkpt>
      <trkpt lat="45.06522" lon="5.50072">
        <ele>1191.5219726562</ele>
        <time>2010-06-13T13:23:04Z</time>
      </trkpt>
      <trkpt lat="45.06559" lon="5.50051">
        <ele>1191.1459960938</ele>
        <time>2010-06-13T13:23:09Z</time>
      </trkpt>
      <trkpt lat="45.06595" lon="5.5003">
        <ele>1190.8050537109</ele>
        <time>2010-06-13T13:23:14Z</time>
      </trkpt>
      <trkpt lat="45.06622" lon="5.50008">
        <ele>1190.5560302734</ele>
        <time>2010-06-13T13:23:18Z</time>
      </trkpt>
      <trkpt lat="45.06639" lon="5.49975">
        <ele>1190.7659912109</ele>
        <time>2010-06-13T13:23:22Z</time>
      </trkpt>
      <trkpt lat="45.06636" lon="5.4996">
        <ele>1191.2669677734</ele>
        <time>2010-06-13T13:23:24Z</time>
      </trkpt>
      <trkpt lat="45.06631" lon="5.49955">
        <ele>1191.3070068359</ele>
        <time>2010-06-13T13:23:25Z</time>
      </trkpt>
      <trkpt lat="45.06604" lon="5.49917">
        <ele>1190.5670166016</ele>
        <time>2010-06-13T13:23:30Z</time>
      </trkpt>
      <trkpt lat="45.06601" lon="5.49883">
        <ele>1190.3680419922</ele>
        <time>2010-06-13T13:23:33Z</time>
      </trkpt>
      <trkpt lat="45.06608" lon="5.49865">
        <ele>1190.3620605469</ele>
        <time>2010-06-13T13:23:35Z</time>
      </trkpt>
      <trkpt lat="45.06617" lon="5.4985">
        <ele>1190.2750244141</ele>
        <time>2010-06-13T13:23:37Z</time>
      </trkpt>
      <trkpt lat="45.06619" lon="5.49819">
        <ele>1190.2249755859</ele>
        <time>2010-06-13T13:23:40Z</time>
      </trkpt>
      <trkpt lat="45.06614" lon="5.49808">
        <ele>1190.1020507812</ele>
        <time>2010-06-13T13:23:41Z</time>
      </trkpt>
      <trkpt lat="45.06583" lon="5.49734">
        <ele>1188.7239990234</ele>
        <time>2010-06-13T13:23:48Z</time>
      </trkpt>
      <trkpt lat="45.06566" lon="5.4968">
        <ele>1188.0169677734</ele>
        <time>2010-06-13T13:23:53Z</time>
      </trkpt>
      <trkpt lat="45.06544" lon="5.49652">
        <ele>1188.6259765625</ele>
        <time>2010-06-13T13:23:57Z</time>
      </trkpt>
      <trkpt lat="45.06502" lon="5.49623">
        <ele>1186.5909423828</ele>
        <time>2010-06-13T13:24:03Z</time>
      </trkpt>
      <trkpt lat="45.06481" lon="5.49602">
        <ele>1186.0970458984</ele>
        <time>2010-06-13T13:24:06Z</time>
      </trkpt>
      <trkpt lat="45.06452" lon="5.49559">
        <ele>1184.9899902344</ele>
        <time>2010-06-13T13:24:11Z</time>
      </trkpt>
      <trkpt lat="45.06435" lon="5.49518">
        <ele>1183.8959960938</ele>
        <time>2010-06-13T13:24:15Z</time>
      </trkpt>
      <trkpt lat="45.06417" lon="5.49499">
        <ele>1184.4119873047</ele>
        <time>2010-06-13T13:24:18Z</time>
      </trkpt>
      <trkpt lat="45.06401" lon="5.49494">
        <ele>1185.0350341797</ele>
        <time>2010-06-13T13:24:20Z</time>
      </trkpt>
      <trkpt lat="45.06387" lon="5.49492">
        <ele>1185.2399902344</ele>
        <time>2010-06-13T13:24:22Z</time>
      </trkpt>
      <trkpt lat="45.06356" lon="5.49473">
        <ele>1186.1810302734</ele>
        <time>2010-06-13T13:24:27Z</time>
      </trkpt>
      <trkpt lat="45.06352" lon="5.49467">
        <ele>1186.4549560547</ele>
        <time>2010-06-13T13:24:28Z</time>
      </trkpt>
      <trkpt lat="45.06339" lon="5.49449">
        <ele>1187.16796875</ele>
        <time>2010-06-13T13:24:31Z</time>
      </trkpt>
      <trkpt lat="45.06323" lon="5.49426">
        <ele>1188.2320556641</ele>
        <time>2010-06-13T13:24:35Z</time>
      </trkpt>
      <trkpt lat="45.06304" lon="5.49402">
        <ele>1189.7230224609</ele>
        <time>2010-06-13T13:24:40Z</time>
      </trkpt>
      <trkpt lat="45.06282" lon="5.49362">
        <ele>1190.8659667969</ele>
        <time>2010-06-13T13:24:47Z</time>
      </trkpt>
      <trkpt lat="45.06273" lon="5.49346">
        <ele>1191.4830322266</ele>
        <time>2010-06-13T13:24:50Z</time>
      </trkpt>
      <trkpt lat="45.0625" lon="5.49316">
        <ele>1192.8389892578</ele>
        <time>2010-06-13T13:24:56Z</time>
      </trkpt>
      <trkpt lat="45.0623" lon="5.49295">
        <ele>1193.6590576172</ele>
        <time>2010-06-13T13:25:01Z</time>
      </trkpt>
      <trkpt lat="45.06219" lon="5.49269">
        <ele>1193.79296875</ele>
        <time>2010-06-13T13:25:05Z</time>
      </trkpt>
      <trkpt lat="45.06231" lon="5.49242">
        <ele>1193.9969482422</ele>
        <time>2010-06-13T13:25:09Z</time>
      </trkpt>
      <trkpt lat="45.06236" lon="5.49238">
        <ele>1194.1739501953</ele>
        <time>2010-06-13T13:25:10Z</time>
      </trkpt>
      <trkpt lat="45.06256" lon="5.49201">
        <ele>1196.0600585938</ele>
        <time>2010-06-13T13:25:18Z</time>
      </trkpt>
      <trkpt lat="45.06275" lon="5.49166">
        <ele>1197.5040283203</ele>
        <time>2010-06-13T13:25:24Z</time>
      </trkpt>
      <trkpt lat="45.06278" lon="5.49154">
        <ele>1197.8129882812</ele>
        <time>2010-06-13T13:25:26Z</time>
      </trkpt>
      <trkpt lat="45.06287" lon="5.49112">
        <ele>1199.9670410156</ele>
        <time>2010-06-13T13:25:34Z</time>
      </trkpt>
      <trkpt lat="45.06293" lon="5.49089">
        <ele>1200.9809570312</ele>
        <time>2010-06-13T13:25:40Z</time>
      </trkpt>
      <trkpt lat="45.06298" lon="5.49065">
        <ele>1202.16796875</ele>
        <time>2010-06-13T13:25:45Z</time>
      </trkpt>
      <trkpt lat="45.06304" lon="5.49036">
        <ele>1203.2099609375</ele>
        <time>2010-06-13T13:25:51Z</time>
      </trkpt>
      <trkpt lat="45.06308" lon="5.49009">
        <ele>1204.2659912109</ele>
        <time>2010-06-13T13:25:57Z</time>
      </trkpt>
      <trkpt lat="45.06308" lon="5.48992">
        <ele>1205.0069580078</ele>
        <time>2010-06-13T13:26:01Z</time>
      </trkpt>
      <trkpt lat="45.06306" lon="5.48969">
        <ele>1206.5260009766</ele>
        <time>2010-06-13T13:26:07Z</time>
      </trkpt>
      <trkpt lat="45.06297" lon="5.4894">
        <ele>1207.9169921875</ele>
        <time>2010-06-13T13:26:13Z</time>
      </trkpt>
      <trkpt lat="45.06288" lon="5.48916">
        <ele>1209.2709960938</ele>
        <time>2010-06-13T13:26:19Z</time>
      </trkpt>
      <trkpt lat="45.06279" lon="5.489">
        <ele>1210.2309570312</ele>
        <time>2010-06-13T13:26:24Z</time>
      </trkpt>
      <trkpt lat="45.06268" lon="5.48881">
        <ele>1211.2159423828</ele>
        <time>2010-06-13T13:26:29Z</time>
      </trkpt>
      <trkpt lat="45.06257" lon="5.48863">
        <ele>1212.0500488281</ele>
        <time>2010-06-13T13:26:34Z</time>
      </trkpt>
      <trkpt lat="45.06243" lon="5.4884">
        <ele>1212.9360351562</ele>
        <time>2010-06-13T13:26:40Z</time>
      </trkpt>
      <trkpt lat="45.06232" lon="5.48822">
        <ele>1213.6369628906</ele>
        <time>2010-06-13T13:26:45Z</time>
      </trkpt>
      <trkpt lat="45.06215" lon="5.48796">
        <ele>1214.5920410156</ele>
        <time>2010-06-13T13:26:52Z</time>
      </trkpt>
      <trkpt lat="45.06199" lon="5.48771">
        <ele>1216.2390136719</ele>
        <time>2010-06-13T13:26:59Z</time>
      </trkpt>
      <trkpt lat="45.06181" lon="5.48751">
        <ele>1217.0419921875</ele>
        <time>2010-06-13T13:27:05Z</time>
      </trkpt>
      <trkpt lat="45.06163" lon="5.48731">
        <ele>1217.5030517578</ele>
        <time>2010-06-13T13:27:10Z</time>
      </trkpt>
      <trkpt lat="45.06142" lon="5.48711">
        <ele>1217.9169921875</ele>
        <time>2010-06-13T13:27:14Z</time>
      </trkpt>
      <trkpt lat="45.06124" lon="5.48699">
        <ele>1218.3850097656</ele>
        <time>2010-06-13T13:27:19Z</time>
      </trkpt>
      <trkpt lat="45.06104" lon="5.48682">
        <ele>1219.3360595703</ele>
        <time>2010-06-13T13:27:24Z</time>
      </trkpt>
      <trkpt lat="45.06086" lon="5.48662">
        <ele>1220.3270263672</ele>
        <time>2010-06-13T13:27:29Z</time>
      </trkpt>
      <trkpt lat="45.0607" lon="5.48636">
        <ele>1221.5209960938</ele>
        <time>2010-06-13T13:27:35Z</time>
      </trkpt>
      <trkpt lat="45.06055" lon="5.48611">
        <ele>1222.8480224609</ele>
        <time>2010-06-13T13:27:40Z</time>
      </trkpt>
      <trkpt lat="45.0603" lon="5.48572">
        <ele>1223.8520507812</ele>
        <time>2010-06-13T13:27:47Z</time>
      </trkpt>
      <trkpt lat="45.06024" lon="5.4856">
        <ele>1224.2869873047</ele>
        <time>2010-06-13T13:27:49Z</time>
      </trkpt>
      <trkpt lat="45.05993" lon="5.48507">
        <ele>1225.626953125</ele>
        <time>2010-06-13T13:27:59Z</time>
      </trkpt>
      <trkpt lat="45.05972" lon="5.48471">
        <ele>1226.3199462891</ele>
        <time>2010-06-13T13:28:06Z</time>
      </trkpt>
      <trkpt lat="45.05952" lon="5.48433">
        <ele>1226.8289794922</ele>
        <time>2010-06-13T13:28:13Z</time>
      </trkpt>
      <trkpt lat="45.05941" lon="5.48415">
        <ele>1227.25</ele>
        <time>2010-06-13T13:28:17Z</time>
      </trkpt>
      <trkpt lat="45.05921" lon="5.48377">
        <ele>1228.3430175781</ele>
        <time>2010-06-13T13:28:25Z</time>
      </trkpt>
      <trkpt lat="45.05908" lon="5.48354">
        <ele>1228.9010009766</ele>
        <time>2010-06-13T13:28:31Z</time>
      </trkpt>
      <trkpt lat="45.05893" lon="5.48328">
        <ele>1230.4880371094</ele>
        <time>2010-06-13T13:28:38Z</time>
      </trkpt>
      <trkpt lat="45.05882" lon="5.48309">
        <ele>1231.4090576172</ele>
        <time>2010-06-13T13:28:43Z</time>
      </trkpt>
      <trkpt lat="45.05867" lon="5.48281">
        <ele>1232.3120117188</ele>
        <time>2010-06-13T13:28:50Z</time>
      </trkpt>
      <trkpt lat="45.05851" lon="5.48254">
        <ele>1232.1619873047</ele>
        <time>2010-06-13T13:28:56Z</time>
      </trkpt>
      <trkpt lat="45.05839" lon="5.48233">
        <ele>1232.9079589844</ele>
        <time>2010-06-13T13:29:01Z</time>
      </trkpt>
      <trkpt lat="45.05824" lon="5.48206">
        <ele>1234.0190429688</ele>
        <time>2010-06-13T13:29:07Z</time>
      </trkpt>
      <trkpt lat="45.05813" lon="5.48181">
        <ele>1235.0520019531</ele>
        <time>2010-06-13T13:29:12Z</time>
      </trkpt>
      <trkpt lat="45.05799" lon="5.48148">
        <ele>1236.1350097656</ele>
        <time>2010-06-13T13:29:18Z</time>
      </trkpt>
      <trkpt lat="45.05791" lon="5.48126">
        <ele>1236.9919433594</ele>
        <time>2010-06-13T13:29:23Z</time>
      </trkpt>
      <trkpt lat="45.05782" lon="5.48095">
        <ele>1238.5030517578</ele>
        <time>2010-06-13T13:29:30Z</time>
      </trkpt>
      <trkpt lat="45.05781" lon="5.48092">
        <ele>1238.7170410156</ele>
        <time>2010-06-13T13:29:31Z</time>
      </trkpt>
      <trkpt lat="45.0578" lon="5.48072">
        <ele>1239.8029785156</ele>
        <time>2010-06-13T13:29:37Z</time>
      </trkpt>
      <trkpt lat="45.05777" lon="5.48052">
        <ele>1240.5959472656</ele>
        <time>2010-06-13T13:29:42Z</time>
      </trkpt>
      <trkpt lat="45.05767" lon="5.48026">
        <ele>1241.3459472656</ele>
        <time>2010-06-13T13:29:47Z</time>
      </trkpt>
      <trkpt lat="45.05759" lon="5.48004">
        <ele>1242.3890380859</ele>
        <time>2010-06-13T13:29:53Z</time>
      </trkpt>
      <trkpt lat="45.05756" lon="5.47985">
        <ele>1243.5970458984</ele>
        <time>2010-06-13T13:30:00Z</time>
      </trkpt>
      <trkpt lat="45.05753" lon="5.47976">
        <ele>1243.9219970703</ele>
        <time>2010-06-13T13:30:03Z</time>
      </trkpt>
      <trkpt lat="45.05748" lon="5.47953">
        <ele>1245.2629394531</ele>
        <time>2010-06-13T13:30:10Z</time>
      </trkpt>
      <trkpt lat="45.05741" lon="5.47931">
        <ele>1246.6180419922</ele>
        <time>2010-06-13T13:30:16Z</time>
      </trkpt>
      <trkpt lat="45.05735" lon="5.47919">
        <ele>1246.9739990234</ele>
        <time>2010-06-13T13:30:19Z</time>
      </trkpt>
      <trkpt lat="45.05724" lon="5.47892">
        <ele>1247.4169921875</ele>
        <time>2010-06-13T13:30:26Z</time>
      </trkpt>
      <trkpt lat="45.05716" lon="5.47871">
        <ele>1248.5069580078</ele>
        <time>2010-06-13T13:30:31Z</time>
      </trkpt>
      <trkpt lat="45.05705" lon="5.47848">
        <ele>1249.0679931641</ele>
        <time>2010-06-13T13:30:37Z</time>
      </trkpt>
      <trkpt lat="45.05692" lon="5.47834">
        <ele>1250.0629882812</ele>
        <time>2010-06-13T13:30:42Z</time>
      </trkpt>
      <trkpt lat="45.05678" lon="5.47814">
        <ele>1250.8270263672</ele>
        <time>2010-06-13T13:30:48Z</time>
      </trkpt>
      <trkpt lat="45.0566" lon="5.47786">
        <ele>1251.5649414062</ele>
        <time>2010-06-13T13:30:55Z</time>
      </trkpt>
      <trkpt lat="45.05638" lon="5.47763">
        <ele>1252.3759765625</ele>
        <time>2010-06-13T13:31:02Z</time>
      </trkpt>
      <trkpt lat="45.05618" lon="5.47741">
        <ele>1253.7559814453</ele>
        <time>2010-06-13T13:31:09Z</time>
      </trkpt>
      <trkpt lat="45.05594" lon="5.47717">
        <ele>1253.5489501953</ele>
        <time>2010-06-13T13:31:17Z</time>
      </trkpt>
      <trkpt lat="45.05573" lon="5.47699">
        <ele>1253.5810546875</ele>
        <time>2010-06-13T13:31:24Z</time>
      </trkpt>
      <trkpt lat="45.05563" lon="5.47686">
        <ele>1257.4840087891</ele>
        <time>2010-06-13T13:31:29Z</time>
      </trkpt>
      <trkpt lat="45.0556" lon="5.47683">
        <ele>1257.6889648438</ele>
        <time>2010-06-13T13:31:30Z</time>
      </trkpt>
      <trkpt lat="45.05549" lon="5.47662">
        <ele>1258.2270507812</ele>
        <time>2010-06-13T13:31:36Z</time>
      </trkpt>
      <trkpt lat="45.05535" lon="5.47651">
        <ele>1258.2530517578</ele>
        <time>2010-06-13T13:31:42Z</time>
      </trkpt>
      <trkpt lat="45.05521" lon="5.47647">
        <ele>1261.6030273438</ele>
        <time>2010-06-13T13:31:48Z</time>
      </trkpt>
      <trkpt lat="45.05508" lon="5.47641">
        <ele>1263.1800537109</ele>
        <time>2010-06-13T13:31:54Z</time>
      </trkpt>
      <trkpt lat="45.05493" lon="5.47636">
        <ele>1264.6970214844</ele>
        <time>2010-06-13T13:32:01Z</time>
      </trkpt>
      <trkpt lat="45.05478" lon="5.4763">
        <ele>1265.7330322266</ele>
        <time>2010-06-13T13:32:07Z</time>
      </trkpt>
      <trkpt lat="45.05466" lon="5.47623">
        <ele>1267.4709472656</ele>
        <time>2010-06-13T13:32:13Z</time>
      </trkpt>
      <trkpt lat="45.05455" lon="5.4762">
        <ele>1268.8649902344</ele>
        <time>2010-06-13T13:32:19Z</time>
      </trkpt>
      <trkpt lat="45.05444" lon="5.47618">
        <ele>1270.4320068359</ele>
        <time>2010-06-13T13:32:25Z</time>
      </trkpt>
      <trkpt lat="45.05428" lon="5.47613">
        <ele>1272.3170166016</ele>
        <time>2010-06-13T13:32:32Z</time>
      </trkpt>
      <trkpt lat="45.05419" lon="5.47609">
        <ele>1273.5209960938</ele>
        <time>2010-06-13T13:32:37Z</time>
      </trkpt>
      <trkpt lat="45.05407" lon="5.47604">
        <ele>1274.8959960938</ele>
        <time>2010-06-13T13:32:44Z</time>
      </trkpt>
      <trkpt lat="45.0539" lon="5.476">
        <ele>1276.9940185547</ele>
        <time>2010-06-13T13:32:52Z</time>
      </trkpt>
      <trkpt lat="45.05377" lon="5.47595">
        <ele>1278.2679443359</ele>
        <time>2010-06-13T13:32:58Z</time>
      </trkpt>
      <trkpt lat="45.05363" lon="5.47589">
        <ele>1279.7020263672</ele>
        <time>2010-06-13T13:33:04Z</time>
      </trkpt>
      <trkpt lat="45.05347" lon="5.47577">
        <ele>1281.2490234375</ele>
        <time>2010-06-13T13:33:10Z</time>
      </trkpt>
      <trkpt lat="45.05337" lon="5.47569">
        <ele>1282.7130126953</ele>
        <time>2010-06-13T13:33:15Z</time>
      </trkpt>
      <trkpt lat="45.05325" lon="5.47559">
        <ele>1284.4389648438</ele>
        <time>2010-06-13T13:33:21Z</time>
      </trkpt>
      <trkpt lat="45.05316" lon="5.47549">
        <ele>1285.5500488281</ele>
        <time>2010-06-13T13:33:26Z</time>
      </trkpt>
      <trkpt lat="45.05301" lon="5.47541">
        <ele>1287.1169433594</ele>
        <time>2010-06-13T13:33:33Z</time>
      </trkpt>
      <trkpt lat="45.05286" lon="5.47535">
        <ele>1288.7060546875</ele>
        <time>2010-06-13T13:33:40Z</time>
      </trkpt>
      <trkpt lat="45.05268" lon="5.47525">
        <ele>1290.1510009766</ele>
        <time>2010-06-13T13:33:46Z</time>
      </trkpt>
      <trkpt lat="45.05258" lon="5.47522">
        <ele>1291.4429931641</ele>
        <time>2010-06-13T13:33:51Z</time>
      </trkpt>
      <trkpt lat="45.05241" lon="5.47513">
        <ele>1293.3540039062</ele>
        <time>2010-06-13T13:33:58Z</time>
      </trkpt>
      <trkpt lat="45.05228" lon="5.47506">
        <ele>1294.8840332031</ele>
        <time>2010-06-13T13:34:04Z</time>
      </trkpt>
      <trkpt lat="45.05215" lon="5.47502">
        <ele>1296.6440429688</ele>
        <time>2010-06-13T13:34:10Z</time>
      </trkpt>
      <trkpt lat="45.0521" lon="5.47498">
        <ele>1297.6209716797</ele>
        <time>2010-06-13T13:34:14Z</time>
      </trkpt>
      <trkpt lat="45.05197" lon="5.4749">
        <ele>1299.2900390625</ele>
        <time>2010-06-13T13:34:21Z</time>
      </trkpt>
      <trkpt lat="45.05185" lon="5.47482">
        <ele>1300.9720458984</ele>
        <time>2010-06-13T13:34:28Z</time>
      </trkpt>
      <trkpt lat="45.05183" lon="5.47481">
        <ele>1301.2469482422</ele>
        <time>2010-06-13T13:34:29Z</time>
      </trkpt>
      <trkpt lat="45.05179" lon="5.47478">
        <ele>1301.5489501953</ele>
        <time>2010-06-13T13:34:31Z</time>
      </trkpt>
      <trkpt lat="45.0517" lon="5.47471">
        <ele>1302.8609619141</ele>
        <time>2010-06-13T13:34:37Z</time>
      </trkpt>
      <trkpt lat="45.05157" lon="5.47463">
        <ele>1304.4489746094</ele>
        <time>2010-06-13T13:34:43Z</time>
      </trkpt>
      <trkpt lat="45.05138" lon="5.47447">
        <ele>1306.0460205078</ele>
        <time>2010-06-13T13:34:51Z</time>
      </trkpt>
      <trkpt lat="45.05117" lon="5.47433">
        <ele>1307.8950195312</ele>
        <time>2010-06-13T13:34:59Z</time>
      </trkpt>
      <trkpt lat="45.05099" lon="5.47428">
        <ele>1309.5310058594</ele>
        <time>2010-06-13T13:35:07Z</time>
      </trkpt>
      <trkpt lat="45.05088" lon="5.47431">
        <ele>1310.8530273438</ele>
        <time>2010-06-13T13:35:13Z</time>
      </trkpt>
      <trkpt lat="45.05076" lon="5.47432">
        <ele>1312.2409667969</ele>
        <time>2010-06-13T13:35:20Z</time>
      </trkpt>
      <trkpt lat="45.05062" lon="5.4743">
        <ele>1313.4449462891</ele>
        <time>2010-06-13T13:35:25Z</time>
      </trkpt>
      <trkpt lat="45.05053" lon="5.47433">
        <ele>1314.4399414062</ele>
        <time>2010-06-13T13:35:30Z</time>
      </trkpt>
      <trkpt lat="45.0504" lon="5.47433">
        <ele>1315.6180419922</ele>
        <time>2010-06-13T13:35:36Z</time>
      </trkpt>
      <trkpt lat="45.05028" lon="5.47433">
        <ele>1316.9060058594</ele>
        <time>2010-06-13T13:35:41Z</time>
      </trkpt>
      <trkpt lat="45.05017" lon="5.47431">
        <ele>1317.8669433594</ele>
        <time>2010-06-13T13:35:46Z</time>
      </trkpt>
      <trkpt lat="45.05003" lon="5.47428">
        <ele>1319.5100097656</ele>
        <time>2010-06-13T13:35:53Z</time>
      </trkpt>
      <trkpt lat="45.0499" lon="5.47424">
        <ele>1320.7779541016</ele>
        <time>2010-06-13T13:35:59Z</time>
      </trkpt>
      <trkpt lat="45.04976" lon="5.4742">
        <ele>1322.3759765625</ele>
        <time>2010-06-13T13:36:05Z</time>
      </trkpt>
      <trkpt lat="45.04964" lon="5.47414">
        <ele>1323.4930419922</ele>
        <time>2010-06-13T13:36:10Z</time>
      </trkpt>
      <trkpt lat="45.04948" lon="5.4741">
        <ele>1325.1629638672</ele>
        <time>2010-06-13T13:36:17Z</time>
      </trkpt>
      <trkpt lat="45.04937" lon="5.47407">
        <ele>1326.5150146484</ele>
        <time>2010-06-13T13:36:23Z</time>
      </trkpt>
      <trkpt lat="45.04927" lon="5.47405">
        <ele>1327.4670410156</ele>
        <time>2010-06-13T13:36:28Z</time>
      </trkpt>
      <trkpt lat="45.04915" lon="5.47403">
        <ele>1328.6240234375</ele>
        <time>2010-06-13T13:36:33Z</time>
      </trkpt>
      <trkpt lat="45.04913" lon="5.47403">
        <ele>1328.9169921875</ele>
        <time>2010-06-13T13:36:34Z</time>
      </trkpt>
      <trkpt lat="45.04902" lon="5.47403">
        <ele>1329.9350585938</ele>
        <time>2010-06-13T13:36:39Z</time>
      </trkpt>
      <trkpt lat="45.04897" lon="5.47404">
        <ele>1330.3260498047</ele>
        <time>2010-06-13T13:36:41Z</time>
      </trkpt>
      <trkpt lat="45.04884" lon="5.47409">
        <ele>1331.7609863281</ele>
        <time>2010-06-13T13:36:48Z</time>
      </trkpt>
      <trkpt lat="45.04873" lon="5.47411">
        <ele>1332.4530029297</ele>
        <time>2010-06-13T13:36:52Z</time>
      </trkpt>
      <trkpt lat="45.04872" lon="5.47413">
        <ele>1332.8900146484</ele>
        <time>2010-06-13T13:36:54Z</time>
      </trkpt>
      <trkpt lat="45.04858" lon="5.47414">
        <ele>1334.5880126953</ele>
        <time>2010-06-13T13:37:01Z</time>
      </trkpt>
      <trkpt lat="45.04857" lon="5.47414">
        <ele>1334.7600097656</ele>
        <time>2010-06-13T13:37:02Z</time>
      </trkpt>
      <trkpt lat="45.04844" lon="5.47419">
        <ele>1336.1199951172</ele>
        <time>2010-06-13T13:37:09Z</time>
      </trkpt>
      <trkpt lat="45.04829" lon="5.47424">
        <ele>1337.7170410156</ele>
        <time>2010-06-13T13:37:15Z</time>
      </trkpt>
      <trkpt lat="45.04816" lon="5.47429">
        <ele>1338.8220214844</ele>
        <time>2010-06-13T13:37:20Z</time>
      </trkpt>
      <trkpt lat="45.04804" lon="5.47438">
        <ele>1340.4899902344</ele>
        <time>2010-06-13T13:37:26Z</time>
      </trkpt>
      <trkpt lat="45.0479" lon="5.47446">
        <ele>1341.9200439453</ele>
        <time>2010-06-13T13:37:32Z</time>
      </trkpt>
      <trkpt lat="45.04779" lon="5.47453">
        <ele>1343.2889404297</ele>
        <time>2010-06-13T13:37:38Z</time>
      </trkpt>
      <trkpt lat="45.0477" lon="5.47461">
        <ele>1344.5389404297</ele>
        <time>2010-06-13T13:37:43Z</time>
      </trkpt>
      <trkpt lat="45.04753" lon="5.47471">
        <ele>1346.5340576172</ele>
        <time>2010-06-13T13:37:51Z</time>
      </trkpt>
      <trkpt lat="45.04744" lon="5.47478">
        <ele>1348.1020507812</ele>
        <time>2010-06-13T13:37:57Z</time>
      </trkpt>
      <trkpt lat="45.04727" lon="5.47487">
        <ele>1349.7380371094</ele>
        <time>2010-06-13T13:38:04Z</time>
      </trkpt>
      <trkpt lat="45.04717" lon="5.47496">
        <ele>1350.9649658203</ele>
        <time>2010-06-13T13:38:09Z</time>
      </trkpt>
      <trkpt lat="45.04699" lon="5.47504">
        <ele>1352.7270507812</ele>
        <time>2010-06-13T13:38:16Z</time>
      </trkpt>
      <trkpt lat="45.0468" lon="5.4751">
        <ele>1354.1820068359</ele>
        <time>2010-06-13T13:38:23Z</time>
      </trkpt>
      <trkpt lat="45.04663" lon="5.47519">
        <ele>1355.2390136719</ele>
        <time>2010-06-13T13:38:29Z</time>
      </trkpt>
      <trkpt lat="45.04644" lon="5.47526">
        <ele>1356.416015625</ele>
        <time>2010-06-13T13:38:35Z</time>
      </trkpt>
      <trkpt lat="45.04628" lon="5.47528">
        <ele>1357.6379394531</ele>
        <time>2010-06-13T13:38:40Z</time>
      </trkpt>
      <trkpt lat="45.04613" lon="5.47528">
        <ele>1358.5479736328</ele>
        <time>2010-06-13T13:38:45Z</time>
      </trkpt>
      <trkpt lat="45.04599" lon="5.47531">
        <ele>1359.7010498047</ele>
        <time>2010-06-13T13:38:50Z</time>
      </trkpt>
      <trkpt lat="45.04583" lon="5.47535">
        <ele>1360.6099853516</ele>
        <time>2010-06-13T13:38:55Z</time>
      </trkpt>
      <trkpt lat="45.04566" lon="5.4754">
        <ele>1361.6590576172</ele>
        <time>2010-06-13T13:39:01Z</time>
      </trkpt>
      <trkpt lat="45.04552" lon="5.47545">
        <ele>1362.9189453125</ele>
        <time>2010-06-13T13:39:06Z</time>
      </trkpt>
      <trkpt lat="45.04537" lon="5.47554">
        <ele>1363.8170166016</ele>
        <time>2010-06-13T13:39:11Z</time>
      </trkpt>
      <trkpt lat="45.04519" lon="5.47563">
        <ele>1365.1479492188</ele>
        <time>2010-06-13T13:39:17Z</time>
      </trkpt>
      <trkpt lat="45.045" lon="5.47569">
        <ele>1366.3809814453</ele>
        <time>2010-06-13T13:39:23Z</time>
      </trkpt>
      <trkpt lat="45.04478" lon="5.47574">
        <ele>1367.3809814453</ele>
        <time>2010-06-13T13:39:29Z</time>
      </trkpt>
      <trkpt lat="45.04462" lon="5.47574">
        <ele>1368.3540039062</ele>
        <time>2010-06-13T13:39:34Z</time>
      </trkpt>
      <trkpt lat="45.04443" lon="5.47575">
        <ele>1369.4880371094</ele>
        <time>2010-06-13T13:39:40Z</time>
      </trkpt>
      <trkpt lat="45.04422" lon="5.47578">
        <ele>1370.4820556641</ele>
        <time>2010-06-13T13:39:46Z</time>
      </trkpt>
      <trkpt lat="45.04401" lon="5.47587">
        <ele>1371.3380126953</ele>
        <time>2010-06-13T13:39:52Z</time>
      </trkpt>
      <trkpt lat="45.04396" lon="5.4759">
        <ele>1371.9029541016</ele>
        <time>2010-06-13T13:39:54Z</time>
      </trkpt>
      <trkpt lat="45.04369" lon="5.47594">
        <ele>1372.7030029297</ele>
        <time>2010-06-13T13:40:02Z</time>
      </trkpt>
      <trkpt lat="45.04347" lon="5.47588">
        <ele>1373.7230224609</ele>
        <time>2010-06-13T13:40:08Z</time>
      </trkpt>
      <trkpt lat="45.04327" lon="5.47582">
        <ele>1374.7430419922</ele>
        <time>2010-06-13T13:40:15Z</time>
      </trkpt>
      <trkpt lat="45.04326" lon="5.47582">
        <ele>1374.8690185547</ele>
        <time>2010-06-13T13:40:18Z</time>
      </trkpt>
      <trkpt lat="45.04318" lon="5.47583">
        <ele>1375.6989746094</ele>
        <time>2010-06-13T13:42:01Z</time>
      </trkpt>
      <trkpt lat="45.04309" lon="5.47582">
        <ele>1376.0260009766</ele>
        <time>2010-06-13T13:42:08Z</time>
      </trkpt>
      <trkpt lat="45.04308" lon="5.47581">
        <ele>1376.0360107422</ele>
        <time>2010-06-13T13:42:11Z</time>
      </trkpt>
      <trkpt lat="45.04303" lon="5.4758">
        <ele>1376.501953125</ele>
        <time>2010-06-13T13:43:33Z</time>
      </trkpt>
      <trkpt lat="45.0429" lon="5.47578">
        <ele>1376.1080322266</ele>
        <time>2010-06-13T13:43:40Z</time>
      </trkpt>
      <trkpt lat="45.04286" lon="5.47582">
        <ele>1376.4200439453</ele>
        <time>2010-06-13T13:43:44Z</time>
      </trkpt>
      <trkpt lat="45.04286" lon="5.47583">
        <ele>1376.4520263672</ele>
        <time>2010-06-13T13:43:45Z</time>
      </trkpt>
      <trkpt lat="45.04283" lon="5.47584">
        <ele>1376.2879638672</ele>
        <time>2010-06-13T13:43:50Z</time>
      </trkpt>
      <trkpt lat="45.04285" lon="5.47584">
        <ele>1376.7020263672</ele>
        <time>2010-06-13T13:45:05Z</time>
      </trkpt>
      <trkpt lat="45.0427" lon="5.47578">
        <ele>1376.6870117188</ele>
        <time>2010-06-13T13:45:14Z</time>
      </trkpt>
      <trkpt lat="45.0425" lon="5.47572">
        <ele>1376.5109863281</ele>
        <time>2010-06-13T13:45:21Z</time>
      </trkpt>
      <trkpt lat="45.04239" lon="5.47569">
        <ele>1375.7299804688</ele>
        <time>2010-06-13T13:45:24Z</time>
      </trkpt>
      <trkpt lat="45.04222" lon="5.47572">
        <ele>1375.2619628906</ele>
        <time>2010-06-13T13:45:28Z</time>
      </trkpt>
      <trkpt lat="45.04186" lon="5.47595">
        <ele>1373.0109863281</ele>
        <time>2010-06-13T13:45:35Z</time>
      </trkpt>
      <trkpt lat="45.04162" lon="5.47613">
        <ele>1371.9279785156</ele>
        <time>2010-06-13T13:45:39Z</time>
      </trkpt>
      <trkpt lat="45.04143" lon="5.4763">
        <ele>1371.0539550781</ele>
        <time>2010-06-13T13:45:42Z</time>
      </trkpt>
      <trkpt lat="45.04114" lon="5.47643">
        <ele>1370.0450439453</ele>
        <time>2010-06-13T13:45:46Z</time>
      </trkpt>
      <trkpt lat="45.04081" lon="5.47646">
        <ele>1369.2440185547</ele>
        <time>2010-06-13T13:45:50Z</time>
      </trkpt>
      <trkpt lat="45.04029" lon="5.47644">
        <ele>1367.7769775391</ele>
        <time>2010-06-13T13:45:56Z</time>
      </trkpt>
      <trkpt lat="45.03976" lon="5.47635">
        <ele>1366.6650390625</ele>
        <time>2010-06-13T13:46:02Z</time>
      </trkpt>
      <trkpt lat="45.03929" lon="5.47628">
        <ele>1366.0689697266</ele>
        <time>2010-06-13T13:46:07Z</time>
      </trkpt>
      <trkpt lat="45.03884" lon="5.47625">
        <ele>1364.9580078125</ele>
        <time>2010-06-13T13:46:12Z</time>
      </trkpt>
      <trkpt lat="45.0384" lon="5.47619">
        <ele>1364.6259765625</ele>
        <time>2010-06-13T13:46:17Z</time>
      </trkpt>
      <trkpt lat="45.03797" lon="5.47633">
        <ele>1364.376953125</ele>
        <time>2010-06-13T13:46:22Z</time>
      </trkpt>
      <trkpt lat="45.03746" lon="5.47651">
        <ele>1363.6099853516</ele>
        <time>2010-06-13T13:46:28Z</time>
      </trkpt>
      <trkpt lat="45.03704" lon="5.47658">
        <ele>1363.3229980469</ele>
        <time>2010-06-13T13:46:33Z</time>
      </trkpt>
      <trkpt lat="45.03679" lon="5.47659">
        <ele>1363.8239746094</ele>
        <time>2010-06-13T13:46:36Z</time>
      </trkpt>
      <trkpt lat="45.03645" lon="5.47668">
        <ele>1363.4200439453</ele>
        <time>2010-06-13T13:46:40Z</time>
      </trkpt>
      <trkpt lat="45.03591" lon="5.4768">
        <ele>1361.3929443359</ele>
        <time>2010-06-13T13:46:46Z</time>
      </trkpt>
      <trkpt lat="45.03545" lon="5.47692">
        <ele>1359.9139404297</ele>
        <time>2010-06-13T13:46:51Z</time>
      </trkpt>
      <trkpt lat="45.03537" lon="5.47695">
        <ele>1359.4720458984</ele>
        <time>2010-06-13T13:46:52Z</time>
      </trkpt>
      <trkpt lat="45.03473" lon="5.4771">
        <ele>1358.8969726562</ele>
        <time>2010-06-13T13:46:59Z</time>
      </trkpt>
      <trkpt lat="45.03463" lon="5.47712">
        <ele>1358.7580566406</ele>
        <time>2010-06-13T13:47:00Z</time>
      </trkpt>
      <trkpt lat="45.03435" lon="5.47695">
        <ele>1357.2919921875</ele>
        <time>2010-06-13T13:47:03Z</time>
      </trkpt>
      <trkpt lat="45.03423" lon="5.47655">
        <ele>1355.4919433594</ele>
        <time>2010-06-13T13:47:06Z</time>
      </trkpt>
      <trkpt lat="45.03422" lon="5.47638">
        <ele>1355.1070556641</ele>
        <time>2010-06-13T13:47:07Z</time>
      </trkpt>
      <trkpt lat="45.03416" lon="5.47591">
        <ele>1352.4019775391</ele>
        <time>2010-06-13T13:47:10Z</time>
      </trkpt>
      <trkpt lat="45.03396" lon="5.4756">
        <ele>1350.3470458984</ele>
        <time>2010-06-13T13:47:13Z</time>
      </trkpt>
      <trkpt lat="45.03362" lon="5.47548">
        <ele>1348.5949707031</ele>
        <time>2010-06-13T13:47:16Z</time>
      </trkpt>
      <trkpt lat="45.03342" lon="5.47513">
        <ele>1346.1800537109</ele>
        <time>2010-06-13T13:47:19Z</time>
      </trkpt>
      <trkpt lat="45.03337" lon="5.47498">
        <ele>1345.5340576172</ele>
        <time>2010-06-13T13:47:20Z</time>
      </trkpt>
      <trkpt lat="45.03315" lon="5.47427">
        <ele>1342.0300292969</ele>
        <time>2010-06-13T13:47:25Z</time>
      </trkpt>
      <trkpt lat="45.03285" lon="5.47382">
        <ele>1338.9000244141</ele>
        <time>2010-06-13T13:47:29Z</time>
      </trkpt>
      <trkpt lat="45.03265" lon="5.47369">
        <ele>1338.0179443359</ele>
        <time>2010-06-13T13:47:31Z</time>
      </trkpt>
      <trkpt lat="45.03204" lon="5.47337">
        <ele>1334.3830566406</ele>
        <time>2010-06-13T13:47:37Z</time>
      </trkpt>
      <trkpt lat="45.03181" lon="5.47329">
        <ele>1333.4820556641</ele>
        <time>2010-06-13T13:47:39Z</time>
      </trkpt>
      <trkpt lat="45.03138" lon="5.47305">
        <ele>1330.2380371094</ele>
        <time>2010-06-13T13:47:43Z</time>
      </trkpt>
      <trkpt lat="45.03127" lon="5.47298">
        <ele>1329.7850341797</ele>
        <time>2010-06-13T13:47:44Z</time>
      </trkpt>
      <trkpt lat="45.03094" lon="5.47283">
        <ele>1327.5150146484</ele>
        <time>2010-06-13T13:47:47Z</time>
      </trkpt>
      <trkpt lat="45.03049" lon="5.47279">
        <ele>1325.2790527344</ele>
        <time>2010-06-13T13:47:51Z</time>
      </trkpt>
      <trkpt lat="45.03037" lon="5.47279">
        <ele>1324.4279785156</ele>
        <time>2010-06-13T13:47:52Z</time>
      </trkpt>
      <trkpt lat="45.0298" lon="5.47267">
        <ele>1321.6529541016</ele>
        <time>2010-06-13T13:47:57Z</time>
      </trkpt>
      <trkpt lat="45.02959" lon="5.47261">
        <ele>1320.4439697266</ele>
        <time>2010-06-13T13:47:59Z</time>
      </trkpt>
      <trkpt lat="45.02913" lon="5.47266">
        <ele>1317.7010498047</ele>
        <time>2010-06-13T13:48:03Z</time>
      </trkpt>
      <trkpt lat="45.02902" lon="5.47266">
        <ele>1317.4010009766</ele>
        <time>2010-06-13T13:48:04Z</time>
      </trkpt>
      <trkpt lat="45.02859" lon="5.47251">
        <ele>1315.7590332031</ele>
        <time>2010-06-13T13:48:08Z</time>
      </trkpt>
      <trkpt lat="45.02827" lon="5.47239">
        <ele>1314.1500244141</ele>
        <time>2010-06-13T13:48:11Z</time>
      </trkpt>
      <trkpt lat="45.02772" lon="5.47248">
        <ele>1310.8499755859</ele>
        <time>2010-06-13T13:48:16Z</time>
      </trkpt>
      <trkpt lat="45.02728" lon="5.47254">
        <ele>1308.6729736328</ele>
        <time>2010-06-13T13:48:20Z</time>
      </trkpt>
      <trkpt lat="45.0267" lon="5.47251">
        <ele>1304.7010498047</ele>
        <time>2010-06-13T13:48:25Z</time>
      </trkpt>
      <trkpt lat="45.02626" lon="5.47233">
        <ele>1303.2690429688</ele>
        <time>2010-06-13T13:48:29Z</time>
      </trkpt>
      <trkpt lat="45.02575" lon="5.47209">
        <ele>1304.625</ele>
        <time>2010-06-13T13:48:34Z</time>
      </trkpt>
      <trkpt lat="45.02539" lon="5.47198">
        <ele>1305.0260009766</ele>
        <time>2010-06-13T13:48:38Z</time>
      </trkpt>
      <trkpt lat="45.02512" lon="5.47196">
        <ele>1304.8439941406</ele>
        <time>2010-06-13T13:48:41Z</time>
      </trkpt>
      <trkpt lat="45.02485" lon="5.47191">
        <ele>1304.2330322266</ele>
        <time>2010-06-13T13:48:44Z</time>
      </trkpt>
      <trkpt lat="45.02432" lon="5.47193">
        <ele>1303.3089599609</ele>
        <time>2010-06-13T13:48:50Z</time>
      </trkpt>
      <trkpt lat="45.02406" lon="5.47197">
        <ele>1303.5589599609</ele>
        <time>2010-06-13T13:48:53Z</time>
      </trkpt>
      <trkpt lat="45.02355" lon="5.47189">
        <ele>1302.2149658203</ele>
        <time>2010-06-13T13:48:59Z</time>
      </trkpt>
      <trkpt lat="45.02314" lon="5.47186">
        <ele>1301.8620605469</ele>
        <time>2010-06-13T13:49:04Z</time>
      </trkpt>
      <trkpt lat="45.02274" lon="5.47176">
        <ele>1302.1369628906</ele>
        <time>2010-06-13T13:49:09Z</time>
      </trkpt>
      <trkpt lat="45.02266" lon="5.47173">
        <ele>1302.0179443359</ele>
        <time>2010-06-13T13:49:10Z</time>
      </trkpt>
      <trkpt lat="45.02232" lon="5.47174">
        <ele>1301.6130371094</ele>
        <time>2010-06-13T13:49:14Z</time>
      </trkpt>
      <trkpt lat="45.02217" lon="5.47181">
        <ele>1301.9680175781</ele>
        <time>2010-06-13T13:49:16Z</time>
      </trkpt>
      <trkpt lat="45.02174" lon="5.47203">
        <ele>1302.1199951172</ele>
        <time>2010-06-13T13:49:22Z</time>
      </trkpt>
      <trkpt lat="45.02139" lon="5.47213">
        <ele>1301.875</ele>
        <time>2010-06-13T13:49:27Z</time>
      </trkpt>
      <trkpt lat="45.02118" lon="5.47216">
        <ele>1302.1090087891</ele>
        <time>2010-06-13T13:49:30Z</time>
      </trkpt>
      <trkpt lat="45.02074" lon="5.47236">
        <ele>1302.4749755859</ele>
        <time>2010-06-13T13:49:37Z</time>
      </trkpt>
      <trkpt lat="45.02049" lon="5.47255">
        <ele>1303.2419433594</ele>
        <time>2010-06-13T13:49:42Z</time>
      </trkpt>
      <trkpt lat="45.02032" lon="5.4728">
        <ele>1304.1910400391</ele>
        <time>2010-06-13T13:49:47Z</time>
      </trkpt>
      <trkpt lat="45.02007" lon="5.4731">
        <ele>1305.2259521484</ele>
        <time>2010-06-13T13:49:54Z</time>
      </trkpt>
      <trkpt lat="45.0199" lon="5.47321">
        <ele>1306.1009521484</ele>
        <time>2010-06-13T13:49:58Z</time>
      </trkpt>
      <trkpt lat="45.01981" lon="5.47324">
        <ele>1306.416015625</ele>
        <time>2010-06-13T13:50:00Z</time>
      </trkpt>
      <trkpt lat="45.01959" lon="5.47324">
        <ele>1307.4090576172</ele>
        <time>2010-06-13T13:50:06Z</time>
      </trkpt>
      <trkpt lat="45.01929" lon="5.47312">
        <ele>1307.5400390625</ele>
        <time>2010-06-13T13:50:13Z</time>
      </trkpt>
      <trkpt lat="45.01895" lon="5.47299">
        <ele>1309.8969726562</ele>
        <time>2010-06-13T13:50:21Z</time>
      </trkpt>
      <trkpt lat="45.01892" lon="5.47297">
        <ele>1310.0760498047</ele>
        <time>2010-06-13T13:50:22Z</time>
      </trkpt>
      <trkpt lat="45.01865" lon="5.47279">
        <ele>1310.6729736328</ele>
        <time>2010-06-13T13:50:30Z</time>
      </trkpt>
      <trkpt lat="45.01831" lon="5.47256">
        <ele>1310.6750488281</ele>
        <time>2010-06-13T13:50:40Z</time>
      </trkpt>
      <trkpt lat="45.01805" lon="5.47244">
        <ele>1310.6760253906</ele>
        <time>2010-06-13T13:50:47Z</time>
      </trkpt>
      <trkpt lat="45.01762" lon="5.47238">
        <ele>1310.6949462891</ele>
        <time>2010-06-13T13:50:57Z</time>
      </trkpt>
      <trkpt lat="45.01736" lon="5.47233">
        <ele>1313.7399902344</ele>
        <time>2010-06-13T13:51:02Z</time>
      </trkpt>
      <trkpt lat="45.01716" lon="5.47231">
        <ele>1313.3940429688</ele>
        <time>2010-06-13T13:51:06Z</time>
      </trkpt>
      <trkpt lat="45.01706" lon="5.47232">
        <ele>1313.3590087891</ele>
        <time>2010-06-13T13:51:08Z</time>
      </trkpt>
      <trkpt lat="45.01685" lon="5.47249">
        <ele>1313.248046875</ele>
        <time>2010-06-13T13:51:13Z</time>
      </trkpt>
      <trkpt lat="45.01683" lon="5.47255">
        <ele>1313.2409667969</ele>
        <time>2010-06-13T13:51:14Z</time>
      </trkpt>
      <trkpt lat="45.01675" lon="5.47268">
        <ele>1313.2769775391</ele>
        <time>2010-06-13T13:51:17Z</time>
      </trkpt>
      <trkpt lat="45.01668" lon="5.47277">
        <ele>1313.2320556641</ele>
        <time>2010-06-13T13:51:19Z</time>
      </trkpt>
      <trkpt lat="45.01645" lon="5.47293">
        <ele>1312.373046875</ele>
        <time>2010-06-13T13:51:24Z</time>
      </trkpt>
      <trkpt lat="45.01623" lon="5.4732">
        <ele>1311.8360595703</ele>
        <time>2010-06-13T13:51:29Z</time>
      </trkpt>
      <trkpt lat="45.01614" lon="5.47328">
        <ele>1311.8370361328</ele>
        <time>2010-06-13T13:51:31Z</time>
      </trkpt>
      <trkpt lat="45.01589" lon="5.47337">
        <ele>1311.8389892578</ele>
        <time>2010-06-13T13:51:36Z</time>
      </trkpt>
      <trkpt lat="45.01561" lon="5.47338">
        <ele>1311.8420410156</ele>
        <time>2010-06-13T13:51:43Z</time>
      </trkpt>
      <trkpt lat="45.01546" lon="5.47331">
        <ele>1311.9350585938</ele>
        <time>2010-06-13T13:51:48Z</time>
      </trkpt>
      <trkpt lat="45.01539" lon="5.47325">
        <ele>1312.0710449219</ele>
        <time>2010-06-13T13:51:50Z</time>
      </trkpt>
      <trkpt lat="45.0153" lon="5.4732">
        <ele>1311.9150390625</ele>
        <time>2010-06-13T13:51:52Z</time>
      </trkpt>
      <trkpt lat="45.01506" lon="5.47327">
        <ele>1311.41796875</ele>
        <time>2010-06-13T13:51:57Z</time>
      </trkpt>
      <trkpt lat="45.01494" lon="5.47337">
        <ele>1311.3570556641</ele>
        <time>2010-06-13T13:52:00Z</time>
      </trkpt>
      <trkpt lat="45.01487" lon="5.47344">
        <ele>1311.3580322266</ele>
        <time>2010-06-13T13:52:02Z</time>
      </trkpt>
      <trkpt lat="45.01458" lon="5.47356">
        <ele>1311.08203125</ele>
        <time>2010-06-13T13:52:08Z</time>
      </trkpt>
      <trkpt lat="45.01443" lon="5.47346">
        <ele>1310.3800048828</ele>
        <time>2010-06-13T13:52:11Z</time>
      </trkpt>
      <trkpt lat="45.01442" lon="5.4732">
        <ele>1308.8719482422</ele>
        <time>2010-06-13T13:52:13Z</time>
      </trkpt>
      <trkpt lat="45.01436" lon="5.47284">
        <ele>1306.1519775391</ele>
        <time>2010-06-13T13:52:16Z</time>
      </trkpt>
      <trkpt lat="45.0143" lon="5.47274">
        <ele>1305.1920166016</ele>
        <time>2010-06-13T13:52:17Z</time>
      </trkpt>
      <trkpt lat="45.01385" lon="5.4721">
        <ele>1299.1560058594</ele>
        <time>2010-06-13T13:52:23Z</time>
      </trkpt>
      <trkpt lat="45.01361" lon="5.47173">
        <ele>1295.2869873047</ele>
        <time>2010-06-13T13:52:26Z</time>
      </trkpt>
      <trkpt lat="45.0134" lon="5.47112">
        <ele>1292.2249755859</ele>
        <time>2010-06-13T13:52:30Z</time>
      </trkpt>
      <trkpt lat="45.01339" lon="5.47096">
        <ele>1291.9449462891</ele>
        <time>2010-06-13T13:52:31Z</time>
      </trkpt>
      <trkpt lat="45.01321" lon="5.47036">
        <ele>1288.6140136719</ele>
        <time>2010-06-13T13:52:35Z</time>
      </trkpt>
      <trkpt lat="45.0129" lon="5.47009">
        <ele>1286.0529785156</ele>
        <time>2010-06-13T13:52:38Z</time>
      </trkpt>
      <trkpt lat="45.01255" lon="5.46993">
        <ele>1283.2130126953</ele>
        <time>2010-06-13T13:52:41Z</time>
      </trkpt>
      <trkpt lat="45.01243" lon="5.46992">
        <ele>1282.2729492188</ele>
        <time>2010-06-13T13:52:42Z</time>
      </trkpt>
      <trkpt lat="45.01168" lon="5.46983">
        <ele>1277.1970214844</ele>
        <time>2010-06-13T13:52:48Z</time>
      </trkpt>
      <trkpt lat="45.01143" lon="5.46977">
        <ele>1274.5529785156</ele>
        <time>2010-06-13T13:52:50Z</time>
      </trkpt>
      <trkpt lat="45.01089" lon="5.46981">
        <ele>1269.6040039062</ele>
        <time>2010-06-13T13:52:54Z</time>
      </trkpt>
      <trkpt lat="45.01033" lon="5.4699">
        <ele>1264.7290039062</ele>
        <time>2010-06-13T13:52:58Z</time>
      </trkpt>
      <trkpt lat="45.00978" lon="5.47025">
        <ele>1258.6159667969</ele>
        <time>2010-06-13T13:53:02Z</time>
      </trkpt>
      <trkpt lat="45.00925" lon="5.47071">
        <ele>1252.583984375</ele>
        <time>2010-06-13T13:53:06Z</time>
      </trkpt>
      <trkpt lat="45.00896" lon="5.47116">
        <ele>1250.1669921875</ele>
        <time>2010-06-13T13:53:09Z</time>
      </trkpt>
      <trkpt lat="45.00866" lon="5.47131">
        <ele>1247.8189697266</ele>
        <time>2010-06-13T13:53:12Z</time>
      </trkpt>
      <trkpt lat="45.00846" lon="5.47113">
        <ele>1245.8649902344</ele>
        <time>2010-06-13T13:53:14Z</time>
      </trkpt>
      <trkpt lat="45.00826" lon="5.471">
        <ele>1243.2309570312</ele>
        <time>2010-06-13T13:53:16Z</time>
      </trkpt>
      <trkpt lat="45.00801" lon="5.47105">
        <ele>1240.1400146484</ele>
        <time>2010-06-13T13:53:18Z</time>
      </trkpt>
      <trkpt lat="45.00763" lon="5.47112">
        <ele>1238.9709472656</ele>
        <time>2010-06-13T13:53:23Z</time>
      </trkpt>
      <trkpt lat="45.00766" lon="5.47093">
        <ele>1237.8449707031</ele>
        <time>2010-06-13T13:53:25Z</time>
      </trkpt>
      <trkpt lat="45.00781" lon="5.47087">
        <ele>1236.1030273438</ele>
        <time>2010-06-13T13:53:27Z</time>
      </trkpt>
      <trkpt lat="45.00804" lon="5.47071">
        <ele>1234.0279541016</ele>
        <time>2010-06-13T13:53:30Z</time>
      </trkpt>
      <trkpt lat="45.00822" lon="5.4704">
        <ele>1231.2259521484</ele>
        <time>2010-06-13T13:53:33Z</time>
      </trkpt>
      <trkpt lat="45.00826" lon="5.46994">
        <ele>1227.1879882812</ele>
        <time>2010-06-13T13:53:36Z</time>
      </trkpt>
      <trkpt lat="45.00815" lon="5.46964">
        <ele>1225.4870605469</ele>
        <time>2010-06-13T13:53:38Z</time>
      </trkpt>
      <trkpt lat="45.00799" lon="5.4695">
        <ele>1224.2669677734</ele>
        <time>2010-06-13T13:53:40Z</time>
      </trkpt>
      <trkpt lat="45.00777" lon="5.4696">
        <ele>1222.7130126953</ele>
        <time>2010-06-13T13:53:42Z</time>
      </trkpt>
      <trkpt lat="45.00767" lon="5.46966">
        <ele>1221.3780517578</ele>
        <time>2010-06-13T13:53:43Z</time>
      </trkpt>
      <trkpt lat="45.00711" lon="5.46961">
        <ele>1214.2530517578</ele>
        <time>2010-06-13T13:53:48Z</time>
      </trkpt>
      <trkpt lat="45.00677" lon="5.46928">
        <ele>1210.1300048828</ele>
        <time>2010-06-13T13:53:51Z</time>
      </trkpt>
      <trkpt lat="45.00648" lon="5.46931">
        <ele>1206.8649902344</ele>
        <time>2010-06-13T13:53:53Z</time>
      </trkpt>
      <trkpt lat="45.00614" lon="5.4696">
        <ele>1203.4329833984</ele>
        <time>2010-06-13T13:53:56Z</time>
      </trkpt>
      <trkpt lat="45.00603" lon="5.46969">
        <ele>1202.5880126953</ele>
        <time>2010-06-13T13:53:57Z</time>
      </trkpt>
      <trkpt lat="45.00563" lon="5.46965">
        <ele>1199.1970214844</ele>
        <time>2010-06-13T13:54:01Z</time>
      </trkpt>
      <trkpt lat="45.00539" lon="5.46937">
        <ele>1198.7149658203</ele>
        <time>2010-06-13T13:54:04Z</time>
      </trkpt>
      <trkpt lat="45.00529" lon="5.46931">
        <ele>1198.5939941406</ele>
        <time>2010-06-13T13:54:05Z</time>
      </trkpt>
      <trkpt lat="45.00501" lon="5.46915">
        <ele>1196.8199462891</ele>
        <time>2010-06-13T13:54:08Z</time>
      </trkpt>
      <trkpt lat="45.00466" lon="5.46879">
        <ele>1193.541015625</ele>
        <time>2010-06-13T13:54:12Z</time>
      </trkpt>
      <trkpt lat="45.00451" lon="5.46856">
        <ele>1192.0129394531</ele>
        <time>2010-06-13T13:54:14Z</time>
      </trkpt>
      <trkpt lat="45.00414" lon="5.46815">
        <ele>1187.5140380859</ele>
        <time>2010-06-13T13:54:18Z</time>
      </trkpt>
      <trkpt lat="45.0037" lon="5.46782">
        <ele>1183.91796875</ele>
        <time>2010-06-13T13:54:22Z</time>
      </trkpt>
      <trkpt lat="45.00352" lon="5.46767">
        <ele>1183.33203125</ele>
        <time>2010-06-13T13:54:24Z</time>
      </trkpt>
      <trkpt lat="45.00348" lon="5.46745">
        <ele>1182.7149658203</ele>
        <time>2010-06-13T13:54:27Z</time>
      </trkpt>
      <trkpt lat="45.00364" lon="5.46748">
        <ele>1181.3000488281</ele>
        <time>2010-06-13T13:54:29Z</time>
      </trkpt>
      <trkpt lat="45.00387" lon="5.46764">
        <ele>1177.7709960938</ele>
        <time>2010-06-13T13:54:32Z</time>
      </trkpt>
      <trkpt lat="45.00408" lon="5.46769">
        <ele>1176.2030029297</ele>
        <time>2010-06-13T13:54:34Z</time>
      </trkpt>
      <trkpt lat="45.00464" lon="5.46784">
        <ele>1170.3640136719</ele>
        <time>2010-06-13T13:54:39Z</time>
      </trkpt>
      <trkpt lat="45.00504" lon="5.46784">
        <ele>1165.4189453125</ele>
        <time>2010-06-13T13:54:42Z</time>
      </trkpt>
      <trkpt lat="45.00531" lon="5.46781">
        <ele>1162.8800048828</ele>
        <time>2010-06-13T13:54:44Z</time>
      </trkpt>
      <trkpt lat="45.00586" lon="5.46795">
        <ele>1157.7030029297</ele>
        <time>2010-06-13T13:54:48Z</time>
      </trkpt>
      <trkpt lat="45.00613" lon="5.46793">
        <ele>1155.6049804688</ele>
        <time>2010-06-13T13:54:50Z</time>
      </trkpt>
      <trkpt lat="45.00655" lon="5.46784">
        <ele>1153.5570068359</ele>
        <time>2010-06-13T13:54:53Z</time>
      </trkpt>
      <trkpt lat="45.00669" lon="5.46784">
        <ele>1152.3570556641</ele>
        <time>2010-06-13T13:54:54Z</time>
      </trkpt>
      <trkpt lat="45.00757" lon="5.46791">
        <ele>1144.7919921875</ele>
        <time>2010-06-13T13:55:00Z</time>
      </trkpt>
      <trkpt lat="45.00831" lon="5.46778">
        <ele>1139</ele>
        <time>2010-06-13T13:55:05Z</time>
      </trkpt>
      <trkpt lat="45.00906" lon="5.46774">
        <ele>1133.6169433594</ele>
        <time>2010-06-13T13:55:10Z</time>
      </trkpt>
      <trkpt lat="45.01006" lon="5.46766">
        <ele>1126.4449462891</ele>
        <time>2010-06-13T13:55:17Z</time>
      </trkpt>
      <trkpt lat="45.01075" lon="5.46737">
        <ele>1120.7609863281</ele>
        <time>2010-06-13T13:55:22Z</time>
      </trkpt>
      <trkpt lat="45.01134" lon="5.46722">
        <ele>1116.166015625</ele>
        <time>2010-06-13T13:55:26Z</time>
      </trkpt>
      <trkpt lat="45.01225" lon="5.46695">
        <ele>1107.4489746094</ele>
        <time>2010-06-13T13:55:32Z</time>
      </trkpt>
      <trkpt lat="45.01271" lon="5.46679">
        <ele>1104.0699462891</ele>
        <time>2010-06-13T13:55:35Z</time>
      </trkpt>
      <trkpt lat="45.01327" lon="5.46636">
        <ele>1098.9759521484</ele>
        <time>2010-06-13T13:55:39Z</time>
      </trkpt>
      <trkpt lat="45.01379" lon="5.46584">
        <ele>1093.4339599609</ele>
        <time>2010-06-13T13:55:43Z</time>
      </trkpt>
      <trkpt lat="45.01403" lon="5.46542">
        <ele>1093.291015625</ele>
        <time>2010-06-13T13:55:46Z</time>
      </trkpt>
      <trkpt lat="45.01405" lon="5.46512">
        <ele>1092.3990478516</ele>
        <time>2010-06-13T13:55:48Z</time>
      </trkpt>
      <trkpt lat="45.01391" lon="5.46478">
        <ele>1090.3029785156</ele>
        <time>2010-06-13T13:55:50Z</time>
      </trkpt>
      <trkpt lat="45.01372" lon="5.46458">
        <ele>1089.2619628906</ele>
        <time>2010-06-13T13:55:52Z</time>
      </trkpt>
      <trkpt lat="45.01311" lon="5.46412">
        <ele>1086.4530029297</ele>
        <time>2010-06-13T13:55:58Z</time>
      </trkpt>
      <trkpt lat="45.0126" lon="5.46382">
        <ele>1083.0579833984</ele>
        <time>2010-06-13T13:56:03Z</time>
      </trkpt>
      <trkpt lat="45.01251" lon="5.46378">
        <ele>1083.1590576172</ele>
        <time>2010-06-13T13:56:04Z</time>
      </trkpt>
      <trkpt lat="45.01248" lon="5.46355">
        <ele>1082.9090576172</ele>
        <time>2010-06-13T13:56:07Z</time>
      </trkpt>
      <trkpt lat="45.01264" lon="5.46354">
        <ele>1081.2419433594</ele>
        <time>2010-06-13T13:56:09Z</time>
      </trkpt>
      <trkpt lat="45.01283" lon="5.46355">
        <ele>1079.6879882812</ele>
        <time>2010-06-13T13:56:11Z</time>
      </trkpt>
      <trkpt lat="45.01321" lon="5.46336">
        <ele>1075.3850097656</ele>
        <time>2010-06-13T13:56:15Z</time>
      </trkpt>
      <trkpt lat="45.01376" lon="5.46304">
        <ele>1070.7390136719</ele>
        <time>2010-06-13T13:56:20Z</time>
      </trkpt>
      <trkpt lat="45.01424" lon="5.46276">
        <ele>1065.2729492188</ele>
        <time>2010-06-13T13:56:24Z</time>
      </trkpt>
      <trkpt lat="45.01436" lon="5.46267">
        <ele>1064.4520263672</ele>
        <time>2010-06-13T13:56:25Z</time>
      </trkpt>
      <trkpt lat="45.01479" lon="5.46218">
        <ele>1059.3979492188</ele>
        <time>2010-06-13T13:56:29Z</time>
      </trkpt>
      <trkpt lat="45.01516" lon="5.46188">
        <ele>1054.8289794922</ele>
        <time>2010-06-13T13:56:32Z</time>
      </trkpt>
      <trkpt lat="45.01559" lon="5.46177">
        <ele>1051.4790039062</ele>
        <time>2010-06-13T13:56:35Z</time>
      </trkpt>
      <trkpt lat="45.01633" lon="5.46161">
        <ele>1045.4759521484</ele>
        <time>2010-06-13T13:56:40Z</time>
      </trkpt>
      <trkpt lat="45.01722" lon="5.46137">
        <ele>1037.2530517578</ele>
        <time>2010-06-13T13:56:46Z</time>
      </trkpt>
      <trkpt lat="45.01801" lon="5.46131">
        <ele>1030.4930419922</ele>
        <time>2010-06-13T13:56:51Z</time>
      </trkpt>
      <trkpt lat="45.01879" lon="5.46123">
        <ele>1024.1330566406</ele>
        <time>2010-06-13T13:56:56Z</time>
      </trkpt>
      <trkpt lat="45.01942" lon="5.46117">
        <ele>1019.5609741211</ele>
        <time>2010-06-13T13:57:00Z</time>
      </trkpt>
      <trkpt lat="45.01973" lon="5.46123">
        <ele>1017.7990112305</ele>
        <time>2010-06-13T13:57:02Z</time>
      </trkpt>
      <trkpt lat="45.02036" lon="5.46119">
        <ele>1011.1840209961</ele>
        <time>2010-06-13T13:57:06Z</time>
      </trkpt>
      <trkpt lat="45.02098" lon="5.4612">
        <ele>1006.0139770508</ele>
        <time>2010-06-13T13:57:10Z</time>
      </trkpt>
      <trkpt lat="45.02192" lon="5.46104">
        <ele>998.77099609375</ele>
        <time>2010-06-13T13:57:16Z</time>
      </trkpt>
      <trkpt lat="45.02254" lon="5.46087">
        <ele>993.73400878906</ele>
        <time>2010-06-13T13:57:20Z</time>
      </trkpt>
      <trkpt lat="45.02308" lon="5.4604">
        <ele>987.61102294922</ele>
        <time>2010-06-13T13:57:24Z</time>
      </trkpt>
      <trkpt lat="45.02351" lon="5.46013">
        <ele>983.60498046875</ele>
        <time>2010-06-13T13:57:27Z</time>
      </trkpt>
      <trkpt lat="45.02366" lon="5.46007">
        <ele>982.23699951172</ele>
        <time>2010-06-13T13:57:28Z</time>
      </trkpt>
      <trkpt lat="45.02419" lon="5.45962">
        <ele>977.37200927734</ele>
        <time>2010-06-13T13:57:32Z</time>
      </trkpt>
      <trkpt lat="45.0244" lon="5.45937">
        <ele>975.09497070312</ele>
        <time>2010-06-13T13:57:34Z</time>
      </trkpt>
      <trkpt lat="45.02459" lon="5.45887">
        <ele>970.80603027344</ele>
        <time>2010-06-13T13:57:37Z</time>
      </trkpt>
      <trkpt lat="45.02475" lon="5.45809">
        <ele>964.80401611328</ele>
        <time>2010-06-13T13:57:41Z</time>
      </trkpt>
      <trkpt lat="45.02482" lon="5.45791">
        <ele>963.21197509766</ele>
        <time>2010-06-13T13:57:42Z</time>
      </trkpt>
      <trkpt lat="45.02495" lon="5.45756">
        <ele>961.82299804688</ele>
        <time>2010-06-13T13:57:44Z</time>
      </trkpt>
      <trkpt lat="45.025" lon="5.45743">
        <ele>961.7509765625</ele>
        <time>2010-06-13T13:57:45Z</time>
      </trkpt>
      <trkpt lat="45.02506" lon="5.45704">
        <ele>961.208984375</ele>
        <time>2010-06-13T13:57:49Z</time>
      </trkpt>
      <trkpt lat="45.02517" lon="5.45672">
        <ele>957.88800048828</ele>
        <time>2010-06-13T13:57:52Z</time>
      </trkpt>
      <trkpt lat="45.02543" lon="5.45625">
        <ele>953.68298339844</ele>
        <time>2010-06-13T13:57:56Z</time>
      </trkpt>
      <trkpt lat="45.02554" lon="5.45591">
        <ele>952.07202148438</ele>
        <time>2010-06-13T13:57:58Z</time>
      </trkpt>
      <trkpt lat="45.02591" lon="5.45541">
        <ele>946.59002685547</ele>
        <time>2010-06-13T13:58:02Z</time>
      </trkpt>
      <trkpt lat="45.02627" lon="5.45486">
        <ele>940.85101318359</ele>
        <time>2010-06-13T13:58:06Z</time>
      </trkpt>
      <trkpt lat="45.02658" lon="5.45458">
        <ele>937.35498046875</ele>
        <time>2010-06-13T13:58:09Z</time>
      </trkpt>
      <trkpt lat="45.02691" lon="5.4543">
        <ele>933.10998535156</ele>
        <time>2010-06-13T13:58:12Z</time>
      </trkpt>
      <trkpt lat="45.02699" lon="5.45417">
        <ele>932.15997314453</ele>
        <time>2010-06-13T13:58:13Z</time>
      </trkpt>
      <trkpt lat="45.02766" lon="5.45318">
        <ele>922.98901367188</ele>
        <time>2010-06-13T13:58:20Z</time>
      </trkpt>
      <trkpt lat="45.02777" lon="5.45305">
        <ele>922.33001708984</ele>
        <time>2010-06-13T13:58:21Z</time>
      </trkpt>
      <trkpt lat="45.02802" lon="5.45283">
        <ele>919.47100830078</ele>
        <time>2010-06-13T13:58:23Z</time>
      </trkpt>
      <trkpt lat="45.02841" lon="5.45223">
        <ele>914.94702148438</ele>
        <time>2010-06-13T13:58:27Z</time>
      </trkpt>
      <trkpt lat="45.02867" lon="5.4518">
        <ele>912.01300048828</ele>
        <time>2010-06-13T13:58:30Z</time>
      </trkpt>
      <trkpt lat="45.02891" lon="5.45168">
        <ele>909.67102050781</ele>
        <time>2010-06-13T13:58:32Z</time>
      </trkpt>
      <trkpt lat="45.02917" lon="5.45159">
        <ele>907.44000244141</ele>
        <time>2010-06-13T13:58:34Z</time>
      </trkpt>
      <trkpt lat="45.02966" lon="5.45121">
        <ele>903.22100830078</ele>
        <time>2010-06-13T13:58:38Z</time>
      </trkpt>
      <trkpt lat="45.02979" lon="5.45112">
        <ele>902.16101074219</ele>
        <time>2010-06-13T13:58:39Z</time>
      </trkpt>
      <trkpt lat="45.03046" lon="5.45076">
        <ele>896.61499023438</ele>
        <time>2010-06-13T13:58:44Z</time>
      </trkpt>
      <trkpt lat="45.03109" lon="5.45023">
        <ele>889.85699462891</ele>
        <time>2010-06-13T13:58:49Z</time>
      </trkpt>
      <trkpt lat="45.03134" lon="5.45003">
        <ele>887.27697753906</ele>
        <time>2010-06-13T13:58:51Z</time>
      </trkpt>
      <trkpt lat="45.03199" lon="5.44922">
        <ele>880.96398925781</ele>
        <time>2010-06-13T13:58:57Z</time>
      </trkpt>
      <trkpt lat="45.03209" lon="5.44904">
        <ele>880.42999267578</ele>
        <time>2010-06-13T13:58:58Z</time>
      </trkpt>
      <trkpt lat="45.03245" lon="5.44868">
        <ele>877.04498291016</ele>
        <time>2010-06-13T13:59:01Z</time>
      </trkpt>
      <trkpt lat="45.03299" lon="5.44845">
        <ele>871.97998046875</ele>
        <time>2010-06-13T13:59:05Z</time>
      </trkpt>
      <trkpt lat="45.03341" lon="5.44837">
        <ele>869.12701416016</ele>
        <time>2010-06-13T13:59:08Z</time>
      </trkpt>
      <trkpt lat="45.03362" lon="5.44811">
        <ele>867.40899658203</ele>
        <time>2010-06-13T13:59:10Z</time>
      </trkpt>
      <trkpt lat="45.0337" lon="5.44796">
        <ele>866.21301269531</ele>
        <time>2010-06-13T13:59:11Z</time>
      </trkpt>
      <trkpt lat="45.03414" lon="5.44693">
        <ele>860.82702636719</ele>
        <time>2010-06-13T13:59:17Z</time>
      </trkpt>
      <trkpt lat="45.03455" lon="5.44606">
        <ele>854.26599121094</ele>
        <time>2010-06-13T13:59:22Z</time>
      </trkpt>
      <trkpt lat="45.03508" lon="5.44509">
        <ele>846.90698242188</ele>
        <time>2010-06-13T13:59:28Z</time>
      </trkpt>
      <trkpt lat="45.03548" lon="5.44483">
        <ele>844.58697509766</ele>
        <time>2010-06-13T13:59:32Z</time>
      </trkpt>
      <trkpt lat="45.03565" lon="5.44474">
        <ele>843.8759765625</ele>
        <time>2010-06-13T13:59:34Z</time>
      </trkpt>
      <trkpt lat="45.03574" lon="5.44457">
        <ele>843.51397705078</ele>
        <time>2010-06-13T13:59:36Z</time>
      </trkpt>
      <trkpt lat="45.03573" lon="5.44441">
        <ele>843.17999267578</ele>
        <time>2010-06-13T13:59:38Z</time>
      </trkpt>
      <trkpt lat="45.03555" lon="5.44426">
        <ele>842.06500244141</ele>
        <time>2010-06-13T13:59:41Z</time>
      </trkpt>
      <trkpt lat="45.03546" lon="5.44423">
        <ele>841.36199951172</ele>
        <time>2010-06-13T13:59:42Z</time>
      </trkpt>
      <trkpt lat="45.03483" lon="5.44409">
        <ele>835.41198730469</ele>
        <time>2010-06-13T13:59:48Z</time>
      </trkpt>
      <trkpt lat="45.0346" lon="5.44403">
        <ele>834.13000488281</ele>
        <time>2010-06-13T13:59:50Z</time>
      </trkpt>
      <trkpt lat="45.03392" lon="5.44391">
        <ele>828.53100585938</ele>
        <time>2010-06-13T13:59:55Z</time>
      </trkpt>
      <trkpt lat="45.03292" lon="5.44385">
        <ele>821.08502197266</ele>
        <time>2010-06-13T14:00:02Z</time>
      </trkpt>
      <trkpt lat="45.03217" lon="5.44396">
        <ele>815.89001464844</ele>
        <time>2010-06-13T14:00:07Z</time>
      </trkpt>
      <trkpt lat="45.03156" lon="5.44397">
        <ele>810.99597167969</ele>
        <time>2010-06-13T14:00:11Z</time>
      </trkpt>
      <trkpt lat="45.0311" lon="5.44394">
        <ele>808.17498779297</ele>
        <time>2010-06-13T14:00:14Z</time>
      </trkpt>
      <trkpt lat="45.03064" lon="5.44404">
        <ele>804.61199951172</ele>
        <time>2010-06-13T14:00:17Z</time>
      </trkpt>
      <trkpt lat="45.03001" lon="5.44408">
        <ele>800.34197998047</ele>
        <time>2010-06-13T14:00:21Z</time>
      </trkpt>
      <trkpt lat="45.02907" lon="5.44394">
        <ele>794.42102050781</ele>
        <time>2010-06-13T14:00:27Z</time>
      </trkpt>
      <trkpt lat="45.02848" lon="5.4436">
        <ele>789.833984375</ele>
        <time>2010-06-13T14:00:31Z</time>
      </trkpt>
      <trkpt lat="45.02819" lon="5.44354">
        <ele>788.3330078125</ele>
        <time>2010-06-13T14:00:33Z</time>
      </trkpt>
      <trkpt lat="45.02775" lon="5.44364">
        <ele>785.98199462891</ele>
        <time>2010-06-13T14:00:36Z</time>
      </trkpt>
      <trkpt lat="45.02732" lon="5.44386">
        <ele>782.70599365234</ele>
        <time>2010-06-13T14:00:39Z</time>
      </trkpt>
      <trkpt lat="45.0269" lon="5.44397">
        <ele>780.60400390625</ele>
        <time>2010-06-13T14:00:42Z</time>
      </trkpt>
      <trkpt lat="45.02586" lon="5.4439">
        <ele>772.86798095703</ele>
        <time>2010-06-13T14:00:49Z</time>
      </trkpt>
      <trkpt lat="45.02486" lon="5.44383">
        <ele>767.57800292969</ele>
        <time>2010-06-13T14:00:56Z</time>
      </trkpt>
      <trkpt lat="45.02473" lon="5.44379">
        <ele>767.36297607422</ele>
        <time>2010-06-13T14:00:57Z</time>
      </trkpt>
      <trkpt lat="45.02413" lon="5.44359">
        <ele>768.85998535156</ele>
        <time>2010-06-13T14:01:02Z</time>
      </trkpt>
      <trkpt lat="45.02361" lon="5.44343">
        <ele>769.35900878906</ele>
        <time>2010-06-13T14:01:07Z</time>
      </trkpt>
      <trkpt lat="45.02314" lon="5.44326">
        <ele>770.29400634766</ele>
        <time>2010-06-13T14:01:12Z</time>
      </trkpt>
      <trkpt lat="45.02306" lon="5.44323">
        <ele>770.49798583984</ele>
        <time>2010-06-13T14:01:13Z</time>
      </trkpt>
      <trkpt lat="45.02279" lon="5.44319">
        <ele>770.59802246094</ele>
        <time>2010-06-13T14:01:16Z</time>
      </trkpt>
      <trkpt lat="45.02217" lon="5.44299">
        <ele>771.10797119141</ele>
        <time>2010-06-13T14:01:24Z</time>
      </trkpt>
      <trkpt lat="45.02202" lon="5.44295">
        <ele>771.48901367188</ele>
        <time>2010-06-13T14:01:26Z</time>
      </trkpt>
      <trkpt lat="45.02189" lon="5.44288">
        <ele>771.68597412109</ele>
        <time>2010-06-13T14:01:28Z</time>
      </trkpt>
      <trkpt lat="45.02166" lon="5.44288">
        <ele>772.2919921875</ele>
        <time>2010-06-13T14:01:33Z</time>
      </trkpt>
      <trkpt lat="45.02164" lon="5.44289">
        <ele>772.31597900391</ele>
        <time>2010-06-13T14:01:34Z</time>
      </trkpt>
      <trkpt lat="45.02162" lon="5.44305">
        <ele>772.02301025391</ele>
        <time>2010-06-13T14:01:37Z</time>
      </trkpt>
      <trkpt lat="45.02155" lon="5.44325">
        <ele>770.166015625</ele>
        <time>2010-06-13T14:01:40Z</time>
      </trkpt>
      <trkpt lat="45.02137" lon="5.44377">
        <ele>770.15600585938</ele>
        <time>2010-06-13T14:01:45Z</time>
      </trkpt>
      <trkpt lat="45.02109" lon="5.44428">
        <ele>758.20300292969</ele>
        <time>2010-06-13T14:01:49Z</time>
      </trkpt>
      <trkpt lat="45.0207" lon="5.44492">
        <ele>751.77398681641</ele>
        <time>2010-06-13T14:01:54Z</time>
      </trkpt>
      <trkpt lat="45.02061" lon="5.44504">
        <ele>751.54302978516</ele>
        <time>2010-06-13T14:01:55Z</time>
      </trkpt>
      <trkpt lat="45.02021" lon="5.44533">
        <ele>751.19396972656</ele>
        <time>2010-06-13T14:01:59Z</time>
      </trkpt>
      <trkpt lat="45.01965" lon="5.44562">
        <ele>752.04302978516</ele>
        <time>2010-06-13T14:02:05Z</time>
      </trkpt>
      <trkpt lat="45.01939" lon="5.44577">
        <ele>753.92602539062</ele>
        <time>2010-06-13T14:02:09Z</time>
      </trkpt>
      <trkpt lat="45.01932" lon="5.4458">
        <ele>755.15802001953</ele>
        <time>2010-06-13T14:02:11Z</time>
      </trkpt>
      <trkpt lat="45.01925" lon="5.44562">
        <ele>755.09802246094</ele>
        <time>2010-06-13T14:02:15Z</time>
      </trkpt>
      <trkpt lat="45.01925" lon="5.44555">
        <ele>754.59497070312</ele>
        <time>2010-06-13T14:02:16Z</time>
      </trkpt>
      <trkpt lat="45.01923" lon="5.44536">
        <ele>753.81298828125</ele>
        <time>2010-06-13T14:02:18Z</time>
      </trkpt>
      <trkpt lat="45.0192" lon="5.44516">
        <ele>753.0009765625</ele>
        <time>2010-06-13T14:02:20Z</time>
      </trkpt>
      <trkpt lat="45.01897" lon="5.44469">
        <ele>751.02502441406</ele>
        <time>2010-06-13T14:02:25Z</time>
      </trkpt>
      <trkpt lat="45.01875" lon="5.44455">
        <ele>750.03002929688</ele>
        <time>2010-06-13T14:02:28Z</time>
      </trkpt>
      <trkpt lat="45.01851" lon="5.44452">
        <ele>750.47497558594</ele>
        <time>2010-06-13T14:02:31Z</time>
      </trkpt>
      <trkpt lat="45.01842" lon="5.44436">
        <ele>751.15502929688</ele>
        <time>2010-06-13T14:02:33Z</time>
      </trkpt>
      <trkpt lat="45.01841" lon="5.44416">
        <ele>751.60498046875</ele>
        <time>2010-06-13T14:02:35Z</time>
      </trkpt>
      <trkpt lat="45.0184" lon="5.44349">
        <ele>753.53698730469</ele>
        <time>2010-06-13T14:02:42Z</time>
      </trkpt>
      <trkpt lat="45.01839" lon="5.44316">
        <ele>755.32897949219</ele>
        <time>2010-06-13T14:02:46Z</time>
      </trkpt>
      <trkpt lat="45.01839" lon="5.44294">
        <ele>756.67901611328</ele>
        <time>2010-06-13T14:02:49Z</time>
      </trkpt>
      <trkpt lat="45.01834" lon="5.44275">
        <ele>757.96899414062</ele>
        <time>2010-06-13T14:02:53Z</time>
      </trkpt>
      <trkpt lat="45.01826" lon="5.44272">
        <ele>757.60797119141</ele>
        <time>2010-06-13T14:02:55Z</time>
      </trkpt>
      <trkpt lat="45.01809" lon="5.44274">
        <ele>756.61901855469</ele>
        <time>2010-06-13T14:02:58Z</time>
      </trkpt>
      <trkpt lat="45.01759" lon="5.44272">
        <ele>754.71697998047</ele>
        <time>2010-06-13T14:03:05Z</time>
      </trkpt>
      <trkpt lat="45.01717" lon="5.44271">
        <ele>752.49401855469</ele>
        <time>2010-06-13T14:03:10Z</time>
      </trkpt>
      <trkpt lat="45.01674" lon="5.44261">
        <ele>750.03198242188</ele>
        <time>2010-06-13T14:03:15Z</time>
      </trkpt>
      <trkpt lat="45.0162" lon="5.44241">
        <ele>747.52197265625</ele>
        <time>2010-06-13T14:03:21Z</time>
      </trkpt>
      <trkpt lat="45.01563" lon="5.44229">
        <ele>746.86499023438</ele>
        <time>2010-06-13T14:03:27Z</time>
      </trkpt>
      <trkpt lat="45.01512" lon="5.44231">
        <ele>744.14599609375</ele>
        <time>2010-06-13T14:03:32Z</time>
      </trkpt>
      <trkpt lat="45.01458" lon="5.44238">
        <ele>742.45501708984</ele>
        <time>2010-06-13T14:03:37Z</time>
      </trkpt>
      <trkpt lat="45.01373" lon="5.44249">
        <ele>739.84301757812</ele>
        <time>2010-06-13T14:03:45Z</time>
      </trkpt>
      <trkpt lat="45.01303" lon="5.44268">
        <ele>738.20397949219</ele>
        <time>2010-06-13T14:03:52Z</time>
      </trkpt>
      <trkpt lat="45.01244" lon="5.4428">
        <ele>736.73699951172</ele>
        <time>2010-06-13T14:03:58Z</time>
      </trkpt>
      <trkpt lat="45.01175" lon="5.44272">
        <ele>735.65802001953</ele>
        <time>2010-06-13T14:04:05Z</time>
      </trkpt>
      <trkpt lat="45.01117" lon="5.44269">
        <ele>733.90301513672</ele>
        <time>2010-06-13T14:04:11Z</time>
      </trkpt>
      <trkpt lat="45.01036" lon="5.4427">
        <ele>731.71600341797</ele>
        <time>2010-06-13T14:04:19Z</time>
      </trkpt>
      <trkpt lat="45.00974" lon="5.44267">
        <ele>729.68499755859</ele>
        <time>2010-06-13T14:04:25Z</time>
      </trkpt>
      <trkpt lat="45.00935" lon="5.44245">
        <ele>729.16101074219</ele>
        <time>2010-06-13T14:04:29Z</time>
      </trkpt>
      <trkpt lat="45.00899" lon="5.44214">
        <ele>727.95098876953</ele>
        <time>2010-06-13T14:04:33Z</time>
      </trkpt>
      <trkpt lat="45.00879" lon="5.44205">
        <ele>726.77001953125</ele>
        <time>2010-06-13T14:04:35Z</time>
      </trkpt>
      <trkpt lat="45.00858" lon="5.44212">
        <ele>725.99499511719</ele>
        <time>2010-06-13T14:04:37Z</time>
      </trkpt>
      <trkpt lat="45.00838" lon="5.44226">
        <ele>725.40997314453</ele>
        <time>2010-06-13T14:04:39Z</time>
      </trkpt>
      <trkpt lat="45.00794" lon="5.44258">
        <ele>723.63897705078</ele>
        <time>2010-06-13T14:04:44Z</time>
      </trkpt>
      <trkpt lat="45.00764" lon="5.44253">
        <ele>722.07299804688</ele>
        <time>2010-06-13T14:04:47Z</time>
      </trkpt>
      <trkpt lat="45.0075" lon="5.44233">
        <ele>721.07202148438</ele>
        <time>2010-06-13T14:04:49Z</time>
      </trkpt>
      <trkpt lat="45.00741" lon="5.44192">
        <ele>720.39202880859</ele>
        <time>2010-06-13T14:04:52Z</time>
      </trkpt>
      <trkpt lat="45.00738" lon="5.44135">
        <ele>719.15600585938</ele>
        <time>2010-06-13T14:04:56Z</time>
      </trkpt>
      <trkpt lat="45.00726" lon="5.44094">
        <ele>718.01300048828</ele>
        <time>2010-06-13T14:04:59Z</time>
      </trkpt>
      <trkpt lat="45.00709" lon="5.4408">
        <ele>717.20501708984</ele>
        <time>2010-06-13T14:05:01Z</time>
      </trkpt>
      <trkpt lat="45.00663" lon="5.44085">
        <ele>716.39001464844</ele>
        <time>2010-06-13T14:05:06Z</time>
      </trkpt>
      <trkpt lat="45.00615" lon="5.44104">
        <ele>714.98297119141</ele>
        <time>2010-06-13T14:05:11Z</time>
      </trkpt>
      <trkpt lat="45.00574" lon="5.44111">
        <ele>714.64202880859</ele>
        <time>2010-06-13T14:05:15Z</time>
      </trkpt>
      <trkpt lat="45.00565" lon="5.44115">
        <ele>714.39300537109</ele>
        <time>2010-06-13T14:05:16Z</time>
      </trkpt>
      <trkpt lat="45.00521" lon="5.44104">
        <ele>713.291015625</ele>
        <time>2010-06-13T14:05:20Z</time>
      </trkpt>
      <trkpt lat="45.0051" lon="5.44102">
        <ele>713.03302001953</ele>
        <time>2010-06-13T14:05:21Z</time>
      </trkpt>
      <trkpt lat="45.00481" lon="5.4412">
        <ele>712.18597412109</ele>
        <time>2010-06-13T14:05:24Z</time>
      </trkpt>
      <trkpt lat="45.00471" lon="5.44129">
        <ele>711.82098388672</ele>
        <time>2010-06-13T14:05:25Z</time>
      </trkpt>
      <trkpt lat="45.00451" lon="5.44142">
        <ele>710.29901123047</ele>
        <time>2010-06-13T14:05:27Z</time>
      </trkpt>
      <trkpt lat="45.00402" lon="5.44157">
        <ele>708.08599853516</ele>
        <time>2010-06-13T14:05:32Z</time>
      </trkpt>
      <trkpt lat="45.00392" lon="5.44159">
        <ele>708.05297851562</ele>
        <time>2010-06-13T14:05:33Z</time>
      </trkpt>
      <trkpt lat="45.0035" lon="5.44125">
        <ele>707.17401123047</ele>
        <time>2010-06-13T14:05:37Z</time>
      </trkpt>
      <trkpt lat="45.00342" lon="5.44113">
        <ele>706.75299072266</ele>
        <time>2010-06-13T14:05:38Z</time>
      </trkpt>
      <trkpt lat="45.00308" lon="5.44053">
        <ele>705.84802246094</ele>
        <time>2010-06-13T14:05:43Z</time>
      </trkpt>
      <trkpt lat="45.00301" lon="5.44013">
        <ele>704.77398681641</ele>
        <time>2010-06-13T14:05:46Z</time>
      </trkpt>
      <trkpt lat="45.00302" lon="5.44">
        <ele>704.51800537109</ele>
        <time>2010-06-13T14:05:47Z</time>
      </trkpt>
      <trkpt lat="45.00317" lon="5.43876">
        <ele>702.92700195312</ele>
        <time>2010-06-13T14:05:57Z</time>
      </trkpt>
      <trkpt lat="45.0032" lon="5.43852">
        <ele>702.24700927734</ele>
        <time>2010-06-13T14:05:59Z</time>
      </trkpt>
      <trkpt lat="45.00328" lon="5.43772">
        <ele>701.92797851562</ele>
        <time>2010-06-13T14:06:06Z</time>
      </trkpt>
      <trkpt lat="45.0033" lon="5.43751">
        <ele>703.34698486328</ele>
        <time>2010-06-13T14:06:08Z</time>
      </trkpt>
      <trkpt lat="45.0033" lon="5.43731">
        <ele>704.39501953125</ele>
        <time>2010-06-13T14:06:10Z</time>
      </trkpt>
      <trkpt lat="45.00322" lon="5.43702">
        <ele>704.96301269531</ele>
        <time>2010-06-13T14:06:13Z</time>
      </trkpt>
      <trkpt lat="45.00304" lon="5.43681">
        <ele>704.69396972656</ele>
        <time>2010-06-13T14:06:16Z</time>
      </trkpt>
      <trkpt lat="45.00298" lon="5.43676">
        <ele>704.55200195312</ele>
        <time>2010-06-13T14:06:17Z</time>
      </trkpt>
      <trkpt lat="45.00246" lon="5.43651">
        <ele>704.08801269531</ele>
        <time>2010-06-13T14:06:24Z</time>
      </trkpt>
      <trkpt lat="45.00202" lon="5.4363">
        <ele>703.58697509766</ele>
        <time>2010-06-13T14:06:30Z</time>
      </trkpt>
      <trkpt lat="45.00174" lon="5.43608">
        <ele>703.35699462891</ele>
        <time>2010-06-13T14:06:34Z</time>
      </trkpt>
      <trkpt lat="45.00155" lon="5.43575">
        <ele>702.96801757812</ele>
        <time>2010-06-13T14:06:38Z</time>
      </trkpt>
      <trkpt lat="45.00154" lon="5.43545">
        <ele>703.84698486328</ele>
        <time>2010-06-13T14:06:41Z</time>
      </trkpt>
      <trkpt lat="45.00155" lon="5.43536">
        <ele>704.17401123047</ele>
        <time>2010-06-13T14:06:42Z</time>
      </trkpt>
      <trkpt lat="45.0016" lon="5.43459">
        <ele>705.31402587891</ele>
        <time>2010-06-13T14:06:51Z</time>
      </trkpt>
      <trkpt lat="45.00161" lon="5.43442">
        <ele>705.45202636719</ele>
        <time>2010-06-13T14:06:53Z</time>
      </trkpt>
      <trkpt lat="45.00157" lon="5.43399">
        <ele>706.36102294922</ele>
        <time>2010-06-13T14:06:58Z</time>
      </trkpt>
      <trkpt lat="45.00147" lon="5.43338">
        <ele>707.34399414062</ele>
        <time>2010-06-13T14:07:06Z</time>
      </trkpt>
      <trkpt lat="45.00141" lon="5.43286">
        <ele>708.84002685547</ele>
        <time>2010-06-13T14:07:13Z</time>
      </trkpt>
      <trkpt lat="45.00139" lon="5.43265">
        <ele>709.25402832031</ele>
        <time>2010-06-13T14:07:16Z</time>
      </trkpt>
      <trkpt lat="45.00137" lon="5.43251">
        <ele>709.30999755859</ele>
        <time>2010-06-13T14:07:18Z</time>
      </trkpt>
      <trkpt lat="45.00123" lon="5.432">
        <ele>710.00799560547</ele>
        <time>2010-06-13T14:07:25Z</time>
      </trkpt>
      <trkpt lat="45.00114" lon="5.43165">
        <ele>710.57897949219</ele>
        <time>2010-06-13T14:07:30Z</time>
      </trkpt>
      <trkpt lat="45.00103" lon="5.43133">
        <ele>710.96197509766</ele>
        <time>2010-06-13T14:07:34Z</time>
      </trkpt>
      <trkpt lat="45.00087" lon="5.43097">
        <ele>711.17102050781</ele>
        <time>2010-06-13T14:07:39Z</time>
      </trkpt>
      <trkpt lat="45.00077" lon="5.43068">
        <ele>711.78802490234</ele>
        <time>2010-06-13T14:07:43Z</time>
      </trkpt>
      <trkpt lat="45.00066" lon="5.43019">
        <ele>713.23498535156</ele>
        <time>2010-06-13T14:07:49Z</time>
      </trkpt>
      <trkpt lat="45.00059" lon="5.42977">
        <ele>713.36700439453</ele>
        <time>2010-06-13T14:07:54Z</time>
      </trkpt>
      <trkpt lat="45.00047" lon="5.42929">
        <ele>713.82397460938</ele>
        <time>2010-06-13T14:08:00Z</time>
      </trkpt>
      <trkpt lat="45.00039" lon="5.42888">
        <ele>714.51501464844</ele>
        <time>2010-06-13T14:08:05Z</time>
      </trkpt>
      <trkpt lat="45.00027" lon="5.42808">
        <ele>715.49798583984</ele>
        <time>2010-06-13T14:08:15Z</time>
      </trkpt>
      <trkpt lat="45.00024" lon="5.428">
        <ele>715.30603027344</ele>
        <time>2010-06-13T14:08:16Z</time>
      </trkpt>
      <trkpt lat="45.00009" lon="5.42775">
        <ele>715.24298095703</ele>
        <time>2010-06-13T14:08:20Z</time>
      </trkpt>
      <trkpt lat="44.99988" lon="5.42761">
        <ele>715.00201416016</ele>
        <time>2010-06-13T14:08:24Z</time>
      </trkpt>
      <trkpt lat="44.99973" lon="5.42736">
        <ele>714.79302978516</ele>
        <time>2010-06-13T14:08:28Z</time>
      </trkpt>
      <trkpt lat="44.99981" lon="5.42712">
        <ele>713.68902587891</ele>
        <time>2010-06-13T14:08:31Z</time>
      </trkpt>
      <trkpt lat="44.99992" lon="5.42701">
        <ele>712.833984375</ele>
        <time>2010-06-13T14:08:33Z</time>
      </trkpt>
      <trkpt lat="45.00014" lon="5.42697">
        <ele>711.61901855469</ele>
        <time>2010-06-13T14:08:36Z</time>
      </trkpt>
      <trkpt lat="45.00048" lon="5.4269">
        <ele>709.70300292969</ele>
        <time>2010-06-13T14:08:40Z</time>
      </trkpt>
      <trkpt lat="45.00071" lon="5.4267">
        <ele>708.67901611328</ele>
        <time>2010-06-13T14:08:43Z</time>
      </trkpt>
      <trkpt lat="45.00118" lon="5.4261">
        <ele>706.31402587891</ele>
        <time>2010-06-13T14:08:50Z</time>
      </trkpt>
      <trkpt lat="45.00141" lon="5.42565">
        <ele>702.94299316406</ele>
        <time>2010-06-13T14:08:54Z</time>
      </trkpt>
      <trkpt lat="45.00159" lon="5.42511">
        <ele>698.10998535156</ele>
        <time>2010-06-13T14:08:58Z</time>
      </trkpt>
      <trkpt lat="45.00166" lon="5.42468">
        <ele>696.13598632812</ele>
        <time>2010-06-13T14:09:01Z</time>
      </trkpt>
      <trkpt lat="45.00178" lon="5.42432">
        <ele>696.64202880859</ele>
        <time>2010-06-13T14:09:04Z</time>
      </trkpt>
      <trkpt lat="45.00196" lon="5.42427">
        <ele>695.67700195312</ele>
        <time>2010-06-13T14:09:06Z</time>
      </trkpt>
      <trkpt lat="45.01196" lon="5.40824">
        <ele>613.74597167969</ele>
        <time>2010-06-13T14:11:09Z</time>
      </trkpt>
      <trkpt lat="45.01265" lon="5.40754">
        <ele>605.78997802734</ele>
        <time>2010-06-13T14:11:16Z</time>
      </trkpt>
      <trkpt lat="45.01313" lon="5.407">
        <ele>602.55102539062</ele>
        <time>2010-06-13T14:11:21Z</time>
      </trkpt>
      <trkpt lat="45.01371" lon="5.40635">
        <ele>597.19097900391</ele>
        <time>2010-06-13T14:11:27Z</time>
      </trkpt>
      <trkpt lat="45.01391" lon="5.40614">
        <ele>596.02801513672</ele>
        <time>2010-06-13T14:11:29Z</time>
      </trkpt>
      <trkpt lat="45.01425" lon="5.4059">
        <ele>593.01000976562</ele>
        <time>2010-06-13T14:11:32Z</time>
      </trkpt>
      <trkpt lat="45.01468" lon="5.40554">
        <ele>590.29998779297</ele>
        <time>2010-06-13T14:11:36Z</time>
      </trkpt>
      <trkpt lat="45.01493" lon="5.40554">
        <ele>589.06597900391</ele>
        <time>2010-06-13T14:11:38Z</time>
      </trkpt>
      <trkpt lat="45.01529" lon="5.40568">
        <ele>587.79302978516</ele>
        <time>2010-06-13T14:11:41Z</time>
      </trkpt>
      <trkpt lat="45.01551" lon="5.4056">
        <ele>587.06402587891</ele>
        <time>2010-06-13T14:11:43Z</time>
      </trkpt>
      <trkpt lat="45.01566" lon="5.40533">
        <ele>585.21899414062</ele>
        <time>2010-06-13T14:11:45Z</time>
      </trkpt>
      <trkpt lat="45.01592" lon="5.40479">
        <ele>582.19702148438</ele>
        <time>2010-06-13T14:11:49Z</time>
      </trkpt>
      <trkpt lat="45.01604" lon="5.40473">
        <ele>581.21398925781</ele>
        <time>2010-06-13T14:11:50Z</time>
      </trkpt>
      <trkpt lat="45.01656" lon="5.40432">
        <ele>577.71997070312</ele>
        <time>2010-06-13T14:11:55Z</time>
      </trkpt>
      <trkpt lat="45.01697" lon="5.40365">
        <ele>573.92401123047</ele>
        <time>2010-06-13T14:12:00Z</time>
      </trkpt>
      <trkpt lat="45.01714" lon="5.40313">
        <ele>572.44000244141</ele>
        <time>2010-06-13T14:12:03Z</time>
      </trkpt>
      <trkpt lat="45.01733" lon="5.40219">
        <ele>568.94396972656</ele>
        <time>2010-06-13T14:12:08Z</time>
      </trkpt>
      <trkpt lat="45.01762" lon="5.4013">
        <ele>564.25701904297</ele>
        <time>2010-06-13T14:12:13Z</time>
      </trkpt>
      <trkpt lat="45.01789" lon="5.40043">
        <ele>561.01898193359</ele>
        <time>2010-06-13T14:12:18Z</time>
      </trkpt>
      <trkpt lat="45.01799" lon="5.40008">
        <ele>560.04400634766</ele>
        <time>2010-06-13T14:12:20Z</time>
      </trkpt>
      <trkpt lat="45.01821" lon="5.3994">
        <ele>555.5419921875</ele>
        <time>2010-06-13T14:12:24Z</time>
      </trkpt>
      <trkpt lat="45.01854" lon="5.39861">
        <ele>551.67401123047</ele>
        <time>2010-06-13T14:12:29Z</time>
      </trkpt>
      <trkpt lat="45.01891" lon="5.39813">
        <ele>548.32897949219</ele>
        <time>2010-06-13T14:12:33Z</time>
      </trkpt>
      <trkpt lat="45.01902" lon="5.39805">
        <ele>547.89697265625</ele>
        <time>2010-06-13T14:12:34Z</time>
      </trkpt>
      <trkpt lat="45.01959" lon="5.39774">
        <ele>545.14398193359</ele>
        <time>2010-06-13T14:12:39Z</time>
      </trkpt>
      <trkpt lat="45.02008" lon="5.39766">
        <ele>543.22302246094</ele>
        <time>2010-06-13T14:12:43Z</time>
      </trkpt>
      <trkpt lat="45.02041" lon="5.39785">
        <ele>541.01800537109</ele>
        <time>2010-06-13T14:12:46Z</time>
      </trkpt>
      <trkpt lat="45.02063" lon="5.39798">
        <ele>539.93798828125</ele>
        <time>2010-06-13T14:12:48Z</time>
      </trkpt>
      <trkpt lat="45.02083" lon="5.39785">
        <ele>538.83502197266</ele>
        <time>2010-06-13T14:12:50Z</time>
      </trkpt>
      <trkpt lat="45.02107" lon="5.3975">
        <ele>537.13000488281</ele>
        <time>2010-06-13T14:12:53Z</time>
      </trkpt>
      <trkpt lat="45.02128" lon="5.39735">
        <ele>535.41497802734</ele>
        <time>2010-06-13T14:12:55Z</time>
      </trkpt>
      <trkpt lat="45.02169" lon="5.39705">
        <ele>532.97497558594</ele>
        <time>2010-06-13T14:12:59Z</time>
      </trkpt>
      <trkpt lat="45.0221" lon="5.39649">
        <ele>530.93402099609</ele>
        <time>2010-06-13T14:13:04Z</time>
      </trkpt>
      <trkpt lat="45.02235" lon="5.39614">
        <ele>529.41900634766</ele>
        <time>2010-06-13T14:13:07Z</time>
      </trkpt>
      <trkpt lat="45.02249" lon="5.39588">
        <ele>528.52801513672</ele>
        <time>2010-06-13T14:13:09Z</time>
      </trkpt>
      <trkpt lat="45.02271" lon="5.39548">
        <ele>525.85601806641</ele>
        <time>2010-06-13T14:13:12Z</time>
      </trkpt>
      <trkpt lat="45.023" lon="5.39474">
        <ele>520.49798583984</ele>
        <time>2010-06-13T14:13:17Z</time>
      </trkpt>
      <trkpt lat="45.02314" lon="5.39448">
        <ele>519.70397949219</ele>
        <time>2010-06-13T14:13:19Z</time>
      </trkpt>
      <trkpt lat="45.0234" lon="5.39419">
        <ele>519.03100585938</ele>
        <time>2010-06-13T14:13:22Z</time>
      </trkpt>
      <trkpt lat="45.02356" lon="5.39397">
        <ele>518.54302978516</ele>
        <time>2010-06-13T14:13:24Z</time>
      </trkpt>
      <trkpt lat="45.02372" lon="5.39354">
        <ele>515.76098632812</ele>
        <time>2010-06-13T14:13:27Z</time>
      </trkpt>
      <trkpt lat="45.02396" lon="5.39318">
        <ele>513.09301757812</ele>
        <time>2010-06-13T14:13:30Z</time>
      </trkpt>
      <trkpt lat="45.02436" lon="5.39283">
        <ele>509.43798828125</ele>
        <time>2010-06-13T14:13:34Z</time>
      </trkpt>
      <trkpt lat="45.02483" lon="5.39266">
        <ele>506.12899780273</ele>
        <time>2010-06-13T14:13:38Z</time>
      </trkpt>
      <trkpt lat="45.02505" lon="5.39254">
        <ele>505.11801147461</ele>
        <time>2010-06-13T14:13:40Z</time>
      </trkpt>
      <trkpt lat="45.02549" lon="5.39224">
        <ele>504.42300415039</ele>
        <time>2010-06-13T14:13:44Z</time>
      </trkpt>
      <trkpt lat="45.02557" lon="5.39201">
        <ele>504.43399047852</ele>
        <time>2010-06-13T14:13:47Z</time>
      </trkpt>
      <trkpt lat="45.02541" lon="5.39201">
        <ele>503.58700561523</ele>
        <time>2010-06-13T14:13:49Z</time>
      </trkpt>
      <trkpt lat="45.02518" lon="5.39218">
        <ele>500.49499511719</ele>
        <time>2010-06-13T14:13:52Z</time>
      </trkpt>
      <trkpt lat="45.02499" lon="5.39231">
        <ele>498.44500732422</ele>
        <time>2010-06-13T14:13:54Z</time>
      </trkpt>
      <trkpt lat="45.02443" lon="5.39242">
        <ele>494.39801025391</ele>
        <time>2010-06-13T14:13:59Z</time>
      </trkpt>
      <trkpt lat="45.0243" lon="5.39244">
        <ele>493.86700439453</ele>
        <time>2010-06-13T14:14:00Z</time>
      </trkpt>
      <trkpt lat="45.02406" lon="5.39255">
        <ele>492.61499023438</ele>
        <time>2010-06-13T14:14:02Z</time>
      </trkpt>
      <trkpt lat="45.02369" lon="5.39278">
        <ele>489.64898681641</ele>
        <time>2010-06-13T14:14:05Z</time>
      </trkpt>
      <trkpt lat="45.02357" lon="5.39286">
        <ele>488.37701416016</ele>
        <time>2010-06-13T14:14:06Z</time>
      </trkpt>
      <trkpt lat="45.02324" lon="5.39324">
        <ele>484.84201049805</ele>
        <time>2010-06-13T14:14:09Z</time>
      </trkpt>
      <trkpt lat="45.02292" lon="5.39364">
        <ele>481.83401489258</ele>
        <time>2010-06-13T14:14:12Z</time>
      </trkpt>
      <trkpt lat="45.02227" lon="5.39443">
        <ele>474.99099731445</ele>
        <time>2010-06-13T14:14:18Z</time>
      </trkpt>
      <trkpt lat="45.02206" lon="5.39466">
        <ele>474.1669921875</ele>
        <time>2010-06-13T14:14:20Z</time>
      </trkpt>
      <trkpt lat="45.02184" lon="5.39468">
        <ele>472.53298950195</ele>
        <time>2010-06-13T14:14:22Z</time>
      </trkpt>
      <trkpt lat="45.0215" lon="5.39471">
        <ele>470.34100341797</ele>
        <time>2010-06-13T14:14:25Z</time>
      </trkpt>
      <trkpt lat="45.02131" lon="5.39494">
        <ele>468.87200927734</ele>
        <time>2010-06-13T14:14:27Z</time>
      </trkpt>
      <trkpt lat="45.02108" lon="5.39503">
        <ele>467.43399047852</ele>
        <time>2010-06-13T14:14:29Z</time>
      </trkpt>
      <trkpt lat="45.02086" lon="5.39485">
        <ele>465.65399169922</ele>
        <time>2010-06-13T14:14:31Z</time>
      </trkpt>
      <trkpt lat="45.02064" lon="5.3948">
        <ele>464.30200195312</ele>
        <time>2010-06-13T14:14:33Z</time>
      </trkpt>
      <trkpt lat="45.02041" lon="5.39495">
        <ele>462.55999755859</ele>
        <time>2010-06-13T14:14:35Z</time>
      </trkpt>
      <trkpt lat="45.02028" lon="5.39499">
        <ele>461.22799682617</ele>
        <time>2010-06-13T14:14:36Z</time>
      </trkpt>
      <trkpt lat="45.01977" lon="5.39522">
        <ele>457.47100830078</ele>
        <time>2010-06-13T14:14:40Z</time>
      </trkpt>
      <trkpt lat="45.01966" lon="5.39555">
        <ele>454.98300170898</ele>
        <time>2010-06-13T14:14:42Z</time>
      </trkpt>
      <trkpt lat="45.01946" lon="5.39581">
        <ele>452.17498779297</ele>
        <time>2010-06-13T14:14:44Z</time>
      </trkpt>
      <trkpt lat="45.0192" lon="5.39588">
        <ele>450.34899902344</ele>
        <time>2010-06-13T14:14:46Z</time>
      </trkpt>
      <trkpt lat="45.01908" lon="5.39591">
        <ele>450.04501342773</ele>
        <time>2010-06-13T14:14:47Z</time>
      </trkpt>
      <trkpt lat="45.01888" lon="5.39601">
        <ele>449.97399902344</ele>
        <time>2010-06-13T14:14:49Z</time>
      </trkpt>
      <trkpt lat="45.01882" lon="5.3959">
        <ele>450.23300170898</ele>
        <time>2010-06-13T14:14:51Z</time>
      </trkpt>
      <trkpt lat="45.01894" lon="5.39577">
        <ele>448.91500854492</ele>
        <time>2010-06-13T14:14:53Z</time>
      </trkpt>
      <trkpt lat="45.01923" lon="5.39568">
        <ele>445.40301513672</ele>
        <time>2010-06-13T14:14:56Z</time>
      </trkpt>
      <trkpt lat="45.01939" lon="5.39544">
        <ele>444.46301269531</ele>
        <time>2010-06-13T14:14:58Z</time>
      </trkpt>
      <trkpt lat="45.01947" lon="5.39512">
        <ele>441.29098510742</ele>
        <time>2010-06-13T14:15:00Z</time>
      </trkpt>
      <trkpt lat="45.01967" lon="5.39445">
        <ele>437</ele>
        <time>2010-06-13T14:15:04Z</time>
      </trkpt>
      <trkpt lat="45.01989" lon="5.39425">
        <ele>435.2799987793</ele>
        <time>2010-06-13T14:15:06Z</time>
      </trkpt>
      <trkpt lat="45.02045" lon="5.39383">
        <ele>433.51599121094</ele>
        <time>2010-06-13T14:15:11Z</time>
      </trkpt>
      <trkpt lat="45.02078" lon="5.39355">
        <ele>432.20001220703</ele>
        <time>2010-06-13T14:15:14Z</time>
      </trkpt>
      <trkpt lat="45.02101" lon="5.3934">
        <ele>431.31201171875</ele>
        <time>2010-06-13T14:15:16Z</time>
      </trkpt>
      <trkpt lat="45.02148" lon="5.39319">
        <ele>428.77200317383</ele>
        <time>2010-06-13T14:15:20Z</time>
      </trkpt>
      <trkpt lat="45.02203" lon="5.39276">
        <ele>425.04098510742</ele>
        <time>2010-06-13T14:15:25Z</time>
      </trkpt>
      <trkpt lat="45.02264" lon="5.3921">
        <ele>419.81900024414</ele>
        <time>2010-06-13T14:15:31Z</time>
      </trkpt>
      <trkpt lat="45.0229" lon="5.39172">
        <ele>418.41198730469</ele>
        <time>2010-06-13T14:15:34Z</time>
      </trkpt>
      <trkpt lat="45.02341" lon="5.39121">
        <ele>415.03601074219</ele>
        <time>2010-06-13T14:15:39Z</time>
      </trkpt>
      <trkpt lat="45.02369" lon="5.39088">
        <ele>411.85800170898</ele>
        <time>2010-06-13T14:15:42Z</time>
      </trkpt>
      <trkpt lat="45.0239" lon="5.3907">
        <ele>411.18899536133</ele>
        <time>2010-06-13T14:15:44Z</time>
      </trkpt>
      <trkpt lat="45.024" lon="5.39063">
        <ele>411.28298950195</ele>
        <time>2010-06-13T14:15:45Z</time>
      </trkpt>
      <trkpt lat="45.02435" lon="5.39017">
        <ele>409.34298706055</ele>
        <time>2010-06-13T14:15:49Z</time>
      </trkpt>
      <trkpt lat="45.02465" lon="5.38966">
        <ele>407.27398681641</ele>
        <time>2010-06-13T14:15:53Z</time>
      </trkpt>
      <trkpt lat="45.02491" lon="5.3893">
        <ele>405.93499755859</ele>
        <time>2010-06-13T14:15:56Z</time>
      </trkpt>
      <trkpt lat="45.02531" lon="5.3889">
        <ele>404.56698608398</ele>
        <time>2010-06-13T14:16:00Z</time>
      </trkpt>
      <trkpt lat="45.02578" lon="5.3887">
        <ele>401.83801269531</ele>
        <time>2010-06-13T14:16:04Z</time>
      </trkpt>
      <trkpt lat="45.0259" lon="5.38867">
        <ele>401.54299926758</ele>
        <time>2010-06-13T14:16:05Z</time>
      </trkpt>
      <trkpt lat="45.02637" lon="5.38848">
        <ele>400.28298950195</ele>
        <time>2010-06-13T14:16:09Z</time>
      </trkpt>
      <trkpt lat="45.02672" lon="5.38826">
        <ele>399.10198974609</ele>
        <time>2010-06-13T14:16:12Z</time>
      </trkpt>
      <trkpt lat="45.02707" lon="5.38778">
        <ele>397.63000488281</ele>
        <time>2010-06-13T14:16:16Z</time>
      </trkpt>
      <trkpt lat="45.02749" lon="5.38716">
        <ele>393.96200561523</ele>
        <time>2010-06-13T14:16:21Z</time>
      </trkpt>
      <trkpt lat="45.0277" lon="5.38699">
        <ele>393.34899902344</ele>
        <time>2010-06-13T14:16:23Z</time>
      </trkpt>
      <trkpt lat="45.02792" lon="5.38683">
        <ele>392.37100219727</ele>
        <time>2010-06-13T14:16:25Z</time>
      </trkpt>
      <trkpt lat="45.02826" lon="5.38665">
        <ele>390.70498657227</ele>
        <time>2010-06-13T14:16:28Z</time>
      </trkpt>
      <trkpt lat="45.02878" lon="5.38622">
        <ele>389.48199462891</ele>
        <time>2010-06-13T14:16:33Z</time>
      </trkpt>
      <trkpt lat="45.02922" lon="5.38567">
        <ele>387.36700439453</ele>
        <time>2010-06-13T14:16:38Z</time>
      </trkpt>
      <trkpt lat="45.0294" lon="5.38545">
        <ele>386.70498657227</ele>
        <time>2010-06-13T14:16:40Z</time>
      </trkpt>
      <trkpt lat="45.02971" lon="5.38499">
        <ele>383.78500366211</ele>
        <time>2010-06-13T14:16:44Z</time>
      </trkpt>
      <trkpt lat="45.02992" lon="5.38448">
        <ele>383.04400634766</ele>
        <time>2010-06-13T14:16:48Z</time>
      </trkpt>
      <trkpt lat="45.03017" lon="5.38402">
        <ele>380.67599487305</ele>
        <time>2010-06-13T14:16:52Z</time>
      </trkpt>
      <trkpt lat="45.03063" lon="5.38357">
        <ele>377.94900512695</ele>
        <time>2010-06-13T14:16:57Z</time>
      </trkpt>
      <trkpt lat="45.03074" lon="5.38351">
        <ele>377.5719909668</ele>
        <time>2010-06-13T14:16:58Z</time>
      </trkpt>
      <trkpt lat="45.03143" lon="5.3833">
        <ele>374.46701049805</ele>
        <time>2010-06-13T14:17:04Z</time>
      </trkpt>
      <trkpt lat="45.03167" lon="5.38326">
        <ele>372.8450012207</ele>
        <time>2010-06-13T14:17:06Z</time>
      </trkpt>
      <trkpt lat="45.03214" lon="5.38341">
        <ele>370.81600952148</ele>
        <time>2010-06-13T14:17:10Z</time>
      </trkpt>
      <trkpt lat="45.0325" lon="5.38355">
        <ele>368.42199707031</ele>
        <time>2010-06-13T14:17:13Z</time>
      </trkpt>
      <trkpt lat="45.03286" lon="5.38348">
        <ele>366.77200317383</ele>
        <time>2010-06-13T14:17:16Z</time>
      </trkpt>
      <trkpt lat="45.03383" lon="5.38311">
        <ele>361.84201049805</ele>
        <time>2010-06-13T14:17:24Z</time>
      </trkpt>
      <trkpt lat="45.03418" lon="5.38293">
        <ele>360.27099609375</ele>
        <time>2010-06-13T14:17:27Z</time>
      </trkpt>
      <trkpt lat="45.03473" lon="5.38259">
        <ele>357.96200561523</ele>
        <time>2010-06-13T14:17:32Z</time>
      </trkpt>
      <trkpt lat="45.035" lon="5.38229">
        <ele>356.16900634766</ele>
        <time>2010-06-13T14:17:35Z</time>
      </trkpt>
      <trkpt lat="45.03551" lon="5.38183">
        <ele>353.67700195312</ele>
        <time>2010-06-13T14:17:40Z</time>
      </trkpt>
      <trkpt lat="45.03594" lon="5.38145">
        <ele>351.28900146484</ele>
        <time>2010-06-13T14:17:44Z</time>
      </trkpt>
      <trkpt lat="45.03644" lon="5.38082">
        <ele>348.38598632812</ele>
        <time>2010-06-13T14:17:49Z</time>
      </trkpt>
      <trkpt lat="45.03726" lon="5.37982">
        <ele>342.94900512695</ele>
        <time>2010-06-13T14:17:57Z</time>
      </trkpt>
      <trkpt lat="45.03762" lon="5.37923">
        <ele>339.70401000977</ele>
        <time>2010-06-13T14:18:01Z</time>
      </trkpt>
      <trkpt lat="45.03799" lon="5.37864">
        <ele>336.88800048828</ele>
        <time>2010-06-13T14:18:05Z</time>
      </trkpt>
      <trkpt lat="45.03859" lon="5.37784">
        <ele>333.45001220703</ele>
        <time>2010-06-13T14:18:11Z</time>
      </trkpt>
      <trkpt lat="45.03896" lon="5.37733">
        <ele>331.6960144043</ele>
        <time>2010-06-13T14:18:15Z</time>
      </trkpt>
      <trkpt lat="45.03913" lon="5.37688">
        <ele>329.26901245117</ele>
        <time>2010-06-13T14:18:18Z</time>
      </trkpt>
      <trkpt lat="45.039" lon="5.3765">
        <ele>327.99499511719</ele>
        <time>2010-06-13T14:18:20Z</time>
      </trkpt>
      <trkpt lat="45.03886" lon="5.376">
        <ele>328.55599975586</ele>
        <time>2010-06-13T14:18:23Z</time>
      </trkpt>
      <trkpt lat="45.03893" lon="5.37568">
        <ele>328.90600585938</ele>
        <time>2010-06-13T14:18:25Z</time>
      </trkpt>
      <trkpt lat="45.03908" lon="5.37547">
        <ele>329.5950012207</ele>
        <time>2010-06-13T14:18:27Z</time>
      </trkpt>
      <trkpt lat="45.03928" lon="5.37519">
        <ele>330.4460144043</ele>
        <time>2010-06-13T14:18:30Z</time>
      </trkpt>
      <trkpt lat="45.03966" lon="5.37488">
        <ele>332.48599243164</ele>
        <time>2010-06-13T14:18:35Z</time>
      </trkpt>
      <trkpt lat="45.04013" lon="5.37437">
        <ele>334.70001220703</ele>
        <time>2010-06-13T14:18:43Z</time>
      </trkpt>
      <trkpt lat="45.04036" lon="5.37421">
        <ele>336.29098510742</ele>
        <time>2010-06-13T14:18:47Z</time>
      </trkpt>
      <trkpt lat="45.04082" lon="5.37406">
        <ele>337.75399780273</ele>
        <time>2010-06-13T14:18:55Z</time>
      </trkpt>
      <trkpt lat="45.04092" lon="5.37401">
        <ele>337.97500610352</ele>
        <time>2010-06-13T14:18:57Z</time>
      </trkpt>
      <trkpt lat="45.04135" lon="5.37374">
        <ele>339.21398925781</ele>
        <time>2010-06-13T14:19:05Z</time>
      </trkpt>
      <trkpt lat="45.04175" lon="5.37354">
        <ele>340.71200561523</ele>
        <time>2010-06-13T14:19:12Z</time>
      </trkpt>
      <trkpt lat="45.0419" lon="5.37344">
        <ele>341.1960144043</ele>
        <time>2010-06-13T14:19:15Z</time>
      </trkpt>
      <trkpt lat="45.04211" lon="5.37314">
        <ele>341.02700805664</ele>
        <time>2010-06-13T14:19:20Z</time>
      </trkpt>
      <trkpt lat="45.04231" lon="5.37262">
        <ele>339.8330078125</ele>
        <time>2010-06-13T14:19:26Z</time>
      </trkpt>
      <trkpt lat="45.04261" lon="5.37179">
        <ele>338.28298950195</ele>
        <time>2010-06-13T14:19:35Z</time>
      </trkpt>
      <trkpt lat="45.04293" lon="5.37101">
        <ele>336.48098754883</ele>
        <time>2010-06-13T14:19:43Z</time>
      </trkpt>
      <trkpt lat="45.04312" lon="5.37048">
        <ele>335.75100708008</ele>
        <time>2010-06-13T14:19:48Z</time>
      </trkpt>
      <trkpt lat="45.04321" lon="5.36976">
        <ele>333.99700927734</ele>
        <time>2010-06-13T14:19:54Z</time>
      </trkpt>
      <trkpt lat="45.04331" lon="5.36915">
        <ele>333.17001342773</ele>
        <time>2010-06-13T14:19:59Z</time>
      </trkpt>
      <trkpt lat="45.04342" lon="5.36867">
        <ele>332.375</ele>
        <time>2010-06-13T14:20:03Z</time>
      </trkpt>
      <trkpt lat="45.04371" lon="5.36787">
        <ele>330.74899291992</ele>
        <time>2010-06-13T14:20:10Z</time>
      </trkpt>
      <trkpt lat="45.04401" lon="5.36734">
        <ele>329.30200195312</ele>
        <time>2010-06-13T14:20:15Z</time>
      </trkpt>
      <trkpt lat="45.04417" lon="5.36686">
        <ele>328.49798583984</ele>
        <time>2010-06-13T14:20:19Z</time>
      </trkpt>
      <trkpt lat="45.04441" lon="5.36616">
        <ele>327.99899291992</ele>
        <time>2010-06-13T14:20:25Z</time>
      </trkpt>
      <trkpt lat="45.04474" lon="5.36542">
        <ele>328.56600952148</ele>
        <time>2010-06-13T14:20:32Z</time>
      </trkpt>
      <trkpt lat="45.04488" lon="5.36488">
        <ele>329.5530090332</ele>
        <time>2010-06-13T14:20:37Z</time>
      </trkpt>
      <trkpt lat="45.04493" lon="5.36424">
        <ele>330.39498901367</ele>
        <time>2010-06-13T14:20:43Z</time>
      </trkpt>
      <trkpt lat="45.04493" lon="5.36404">
        <ele>330.38101196289</ele>
        <time>2010-06-13T14:20:45Z</time>
      </trkpt>
      <trkpt lat="45.04502" lon="5.36368">
        <ele>330.92999267578</ele>
        <time>2010-06-13T14:20:49Z</time>
      </trkpt>
      <trkpt lat="45.04531" lon="5.36313">
        <ele>332.3330078125</ele>
        <time>2010-06-13T14:20:57Z</time>
      </trkpt>
      <trkpt lat="45.04546" lon="5.36282">
        <ele>333.04501342773</ele>
        <time>2010-06-13T14:21:02Z</time>
      </trkpt>
      <trkpt lat="45.04549" lon="5.36276">
        <ele>333.08898925781</ele>
        <time>2010-06-13T14:21:03Z</time>
      </trkpt>
      <trkpt lat="45.04557" lon="5.36258">
        <ele>333.57699584961</ele>
        <time>2010-06-13T14:21:06Z</time>
      </trkpt>
      <trkpt lat="45.04562" lon="5.36244">
        <ele>333.77099609375</ele>
        <time>2010-06-13T14:21:08Z</time>
      </trkpt>
      <trkpt lat="45.04567" lon="5.36214">
        <ele>334.48599243164</ele>
        <time>2010-06-13T14:21:12Z</time>
      </trkpt>
      <trkpt lat="45.04567" lon="5.36199">
        <ele>334.85400390625</ele>
        <time>2010-06-13T14:21:14Z</time>
      </trkpt>
      <trkpt lat="45.04573" lon="5.36134">
        <ele>335.38598632812</ele>
        <time>2010-06-13T14:21:22Z</time>
      </trkpt>
      <trkpt lat="45.04582" lon="5.36079">
        <ele>336.10699462891</ele>
        <time>2010-06-13T14:21:29Z</time>
      </trkpt>
      <trkpt lat="45.04583" lon="5.36072">
        <ele>336.10101318359</ele>
        <time>2010-06-13T14:21:30Z</time>
      </trkpt>
      <trkpt lat="45.04581" lon="5.36035">
        <ele>336.64801025391</ele>
        <time>2010-06-13T14:21:35Z</time>
      </trkpt>
      <trkpt lat="45.04579" lon="5.36028">
        <ele>336.85198974609</ele>
        <time>2010-06-13T14:21:36Z</time>
      </trkpt>
      <trkpt lat="45.04553" lon="5.35966">
        <ele>338.44799804688</ele>
        <time>2010-06-13T14:21:45Z</time>
      </trkpt>
      <trkpt lat="45.04543" lon="5.35946">
        <ele>338.93301391602</ele>
        <time>2010-06-13T14:21:48Z</time>
      </trkpt>
      <trkpt lat="45.04535" lon="5.35915">
        <ele>339.51400756836</ele>
        <time>2010-06-13T14:21:52Z</time>
      </trkpt>
      <trkpt lat="45.04534" lon="5.35845">
        <ele>340.53500366211</ele>
        <time>2010-06-13T14:22:00Z</time>
      </trkpt>
      <trkpt lat="45.04529" lon="5.35795">
        <ele>341.48199462891</ele>
        <time>2010-06-13T14:22:06Z</time>
      </trkpt>
      <trkpt lat="45.04527" lon="5.35744">
        <ele>341.6549987793</ele>
        <time>2010-06-13T14:22:12Z</time>
      </trkpt>
      <trkpt lat="45.04533" lon="5.35691">
        <ele>341.35900878906</ele>
        <time>2010-06-13T14:22:18Z</time>
      </trkpt>
      <trkpt lat="45.04541" lon="5.35647">
        <ele>341.54998779297</ele>
        <time>2010-06-13T14:22:23Z</time>
      </trkpt>
      <trkpt lat="45.04547" lon="5.35613">
        <ele>341.83499145508</ele>
        <time>2010-06-13T14:22:27Z</time>
      </trkpt>
      <trkpt lat="45.04552" lon="5.35597">
        <ele>341.76699829102</ele>
        <time>2010-06-13T14:22:29Z</time>
      </trkpt>
      <trkpt lat="45.04564" lon="5.35555">
        <ele>342.00299072266</ele>
        <time>2010-06-13T14:22:34Z</time>
      </trkpt>
      <trkpt lat="45.04577" lon="5.3548">
        <ele>342.45098876953</ele>
        <time>2010-06-13T14:22:42Z</time>
      </trkpt>
      <trkpt lat="45.0458" lon="5.35462">
        <ele>342.63500976562</ele>
        <time>2010-06-13T14:22:44Z</time>
      </trkpt>
      <trkpt lat="45.04628" lon="5.35349">
        <ele>343.20700073242</ele>
        <time>2010-06-13T14:22:57Z</time>
      </trkpt>
      <trkpt lat="45.04652" lon="5.35307">
        <ele>341.99398803711</ele>
        <time>2010-06-13T14:23:02Z</time>
      </trkpt>
      <trkpt lat="45.0465" lon="5.35236">
        <ele>340.77499389648</ele>
        <time>2010-06-13T14:23:07Z</time>
      </trkpt>
      <trkpt lat="45.04638" lon="5.34936">
        <ele>336.09298706055</ele>
        <time>2010-06-13T14:23:32Z</time>
      </trkpt>
      <trkpt lat="45.04644" lon="5.34822">
        <ele>335.09100341797</ele>
        <time>2010-06-13T14:23:42Z</time>
      </trkpt>
      <trkpt lat="45.04637" lon="5.34795">
        <ele>334.21701049805</ele>
        <time>2010-06-13T14:23:44Z</time>
      </trkpt>
      <trkpt lat="45.04627" lon="5.34723">
        <ele>330.72299194336</ele>
        <time>2010-06-13T14:23:49Z</time>
      </trkpt>
      <trkpt lat="45.04613" lon="5.34646">
        <ele>328.11999511719</ele>
        <time>2010-06-13T14:23:54Z</time>
      </trkpt>
      <trkpt lat="45.04612" lon="5.34561">
        <ele>324.11499023438</ele>
        <time>2010-06-13T14:23:59Z</time>
      </trkpt>
      <trkpt lat="45.04615" lon="5.34457">
        <ele>319.41198730469</ele>
        <time>2010-06-13T14:24:05Z</time>
      </trkpt>
      <trkpt lat="45.04629" lon="5.34403">
        <ele>317.40600585938</ele>
        <time>2010-06-13T14:24:09Z</time>
      </trkpt>
      <trkpt lat="45.04639" lon="5.34378">
        <ele>317.12298583984</ele>
        <time>2010-06-13T14:24:12Z</time>
      </trkpt>
      <trkpt lat="45.04647" lon="5.3436">
        <ele>316.8219909668</ele>
        <time>2010-06-13T14:24:15Z</time>
      </trkpt>
      <trkpt lat="45.0465" lon="5.34353">
        <ele>316.46798706055</ele>
        <time>2010-06-13T14:24:16Z</time>
      </trkpt>
      <trkpt lat="45.04667" lon="5.3431">
        <ele>314.7380065918</ele>
        <time>2010-06-13T14:24:22Z</time>
      </trkpt>
      <trkpt lat="45.0469" lon="5.34257">
        <ele>313.84698486328</ele>
        <time>2010-06-13T14:24:29Z</time>
      </trkpt>
      <trkpt lat="45.04694" lon="5.34249">
        <ele>313.6789855957</ele>
        <time>2010-06-13T14:24:30Z</time>
      </trkpt>
      <trkpt lat="45.0472" lon="5.34188">
        <ele>312.51400756836</ele>
        <time>2010-06-13T14:24:37Z</time>
      </trkpt>
      <trkpt lat="45.04744" lon="5.34125">
        <ele>310.94799804688</ele>
        <time>2010-06-13T14:24:44Z</time>
      </trkpt>
      <trkpt lat="45.04749" lon="5.3411">
        <ele>311.3030090332</ele>
        <time>2010-06-13T14:24:47Z</time>
      </trkpt>
      <trkpt lat="45.04752" lon="5.34094">
        <ele>311.16299438477</ele>
        <time>2010-06-13T14:24:52Z</time>
      </trkpt>
      <trkpt lat="45.04765" lon="5.34095">
        <ele>310.63198852539</ele>
        <time>2010-06-13T14:24:56Z</time>
      </trkpt>
      <trkpt lat="45.04785" lon="5.34108">
        <ele>308.88198852539</ele>
        <time>2010-06-13T14:25:01Z</time>
      </trkpt>
      <trkpt lat="45.0479" lon="5.34109">
        <ele>308.23999023438</ele>
        <time>2010-06-13T14:25:06Z</time>
      </trkpt>
      <trkpt lat="45.04791" lon="5.34109">
        <ele>308.22100830078</ele>
        <time>2010-06-13T14:25:08Z</time>
      </trkpt>
      <trkpt lat="45.048" lon="5.34111">
        <ele>306.06900024414</ele>
        <time>2010-06-13T14:29:28Z</time>
      </trkpt>
      <trkpt lat="45.04815" lon="5.341">
        <ele>304.4460144043</ele>
        <time>2010-06-13T14:29:33Z</time>
      </trkpt>
      <trkpt lat="45.0483" lon="5.34082">
        <ele>303.53698730469</ele>
        <time>2010-06-13T14:29:37Z</time>
      </trkpt>
      <trkpt lat="45.04869" lon="5.34039">
        <ele>300.52801513672</ele>
        <time>2010-06-13T14:29:45Z</time>
      </trkpt>
      <trkpt lat="45.04899" lon="5.34008">
        <ele>297.74899291992</ele>
        <time>2010-06-13T14:29:50Z</time>
      </trkpt>
      <trkpt lat="45.04906" lon="5.34003">
        <ele>297.46499633789</ele>
        <time>2010-06-13T14:29:51Z</time>
      </trkpt>
      <trkpt lat="45.04938" lon="5.33995">
        <ele>295.5539855957</ele>
        <time>2010-06-13T14:29:55Z</time>
      </trkpt>
      <trkpt lat="45.04956" lon="5.33998">
        <ele>294.39801025391</ele>
        <time>2010-06-13T14:29:57Z</time>
      </trkpt>
      <trkpt lat="45.04982" lon="5.34014">
        <ele>293.64898681641</ele>
        <time>2010-06-13T14:30:00Z</time>
      </trkpt>
      <trkpt lat="45.04989" lon="5.34023">
        <ele>293.01098632812</ele>
        <time>2010-06-13T14:30:01Z</time>
      </trkpt>
      <trkpt lat="45.05062" lon="5.34121">
        <ele>287.3450012207</ele>
        <time>2010-06-13T14:30:11Z</time>
      </trkpt>
      <trkpt lat="45.05107" lon="5.34182">
        <ele>284.54998779297</ele>
        <time>2010-06-13T14:30:17Z</time>
      </trkpt>
      <trkpt lat="45.05146" lon="5.34235">
        <ele>281.53399658203</ele>
        <time>2010-06-13T14:30:22Z</time>
      </trkpt>
      <trkpt lat="45.0518" lon="5.34278">
        <ele>278.73098754883</ele>
        <time>2010-06-13T14:30:26Z</time>
      </trkpt>
      <trkpt lat="45.05222" lon="5.34304">
        <ele>274.71701049805</ele>
        <time>2010-06-13T14:30:30Z</time>
      </trkpt>
      <trkpt lat="45.05257" lon="5.34302">
        <ele>272.10000610352</ele>
        <time>2010-06-13T14:30:33Z</time>
      </trkpt>
      <trkpt lat="45.05279" lon="5.34292">
        <ele>270.85501098633</ele>
        <time>2010-06-13T14:30:35Z</time>
      </trkpt>
      <trkpt lat="45.05344" lon="5.3425">
        <ele>264.73599243164</ele>
        <time>2010-06-13T14:30:41Z</time>
      </trkpt>
      <trkpt lat="45.05366" lon="5.34238">
        <ele>263.86599731445</ele>
        <time>2010-06-13T14:30:43Z</time>
      </trkpt>
      <trkpt lat="45.05412" lon="5.34227">
        <ele>260.44299316406</ele>
        <time>2010-06-13T14:30:47Z</time>
      </trkpt>
      <trkpt lat="45.05495" lon="5.34233">
        <ele>255.58799743652</ele>
        <time>2010-06-13T14:30:54Z</time>
      </trkpt>
      <trkpt lat="45.05543" lon="5.34234">
        <ele>252.54800415039</ele>
        <time>2010-06-13T14:30:58Z</time>
      </trkpt>
      <trkpt lat="45.05555" lon="5.34233">
        <ele>251.26400756836</ele>
        <time>2010-06-13T14:30:59Z</time>
      </trkpt>
      <trkpt lat="45.05598" lon="5.34211">
        <ele>248.4700012207</ele>
        <time>2010-06-13T14:31:03Z</time>
      </trkpt>
      <trkpt lat="45.05608" lon="5.34203">
        <ele>247.70899963379</ele>
        <time>2010-06-13T14:31:04Z</time>
      </trkpt>
      <trkpt lat="45.05651" lon="5.34148">
        <ele>244.98300170898</ele>
        <time>2010-06-13T14:31:09Z</time>
      </trkpt>
      <trkpt lat="45.05665" lon="5.3412">
        <ele>244.09800720215</ele>
        <time>2010-06-13T14:31:11Z</time>
      </trkpt>
      <trkpt lat="45.05698" lon="5.34072">
        <ele>240.7799987793</ele>
        <time>2010-06-13T14:31:15Z</time>
      </trkpt>
      <trkpt lat="45.05707" lon="5.34062">
        <ele>240.55099487305</ele>
        <time>2010-06-13T14:31:16Z</time>
      </trkpt>
      <trkpt lat="45.05714" lon="5.34054">
        <ele>240.53500366211</ele>
        <time>2010-06-13T14:31:17Z</time>
      </trkpt>
      <trkpt lat="45.05729" lon="5.34055">
        <ele>240.87899780273</ele>
        <time>2010-06-13T14:31:20Z</time>
      </trkpt>
      <trkpt lat="45.05723" lon="5.34071">
        <ele>240.02099609375</ele>
        <time>2010-06-13T14:31:22Z</time>
      </trkpt>
      <trkpt lat="45.05717" lon="5.34076">
        <ele>239.67399597168</ele>
        <time>2010-06-13T14:31:23Z</time>
      </trkpt>
      <trkpt lat="45.05704" lon="5.34084">
        <ele>239.10099792481</ele>
        <time>2010-06-13T14:31:25Z</time>
      </trkpt>
      <trkpt lat="45.05679" lon="5.34111">
        <ele>237.32499694824</ele>
        <time>2010-06-13T14:31:29Z</time>
      </trkpt>
      <trkpt lat="45.05656" lon="5.34164">
        <ele>235.28300476074</ele>
        <time>2010-06-13T14:31:34Z</time>
      </trkpt>
      <trkpt lat="45.0564" lon="5.34214">
        <ele>233.12600708008</ele>
        <time>2010-06-13T14:31:38Z</time>
      </trkpt>
      <trkpt lat="45.05611" lon="5.34255">
        <ele>231.42599487305</ele>
        <time>2010-06-13T14:31:42Z</time>
      </trkpt>
      <trkpt lat="45.05601" lon="5.34262">
        <ele>230.59199523926</ele>
        <time>2010-06-13T14:31:43Z</time>
      </trkpt>
      <trkpt lat="45.0558" lon="5.34272">
        <ele>229.25500488281</ele>
        <time>2010-06-13T14:31:45Z</time>
      </trkpt>
      <trkpt lat="45.05555" lon="5.34291">
        <ele>227.97099304199</ele>
        <time>2010-06-13T14:31:48Z</time>
      </trkpt>
      <trkpt lat="45.05547" lon="5.34308">
        <ele>227.49600219727</ele>
        <time>2010-06-13T14:31:50Z</time>
      </trkpt>
      <trkpt lat="45.05552" lon="5.34327">
        <ele>227.0359954834</ele>
        <time>2010-06-13T14:31:52Z</time>
      </trkpt>
      <trkpt lat="45.05573" lon="5.34352">
        <ele>226.19200134277</ele>
        <time>2010-06-13T14:31:56Z</time>
      </trkpt>
      <trkpt lat="45.05617" lon="5.34383">
        <ele>227.92199707031</ele>
        <time>2010-06-13T14:32:04Z</time>
      </trkpt>
      <trkpt lat="45.05641" lon="5.34399">
        <ele>228.27200317383</ele>
        <time>2010-06-13T14:32:09Z</time>
      </trkpt>
      <trkpt lat="45.05673" lon="5.34402">
        <ele>229.43499755859</ele>
        <time>2010-06-13T14:32:15Z</time>
      </trkpt>
      <trkpt lat="45.05678" lon="5.344">
        <ele>229.36099243164</ele>
        <time>2010-06-13T14:32:16Z</time>
      </trkpt>
      <trkpt lat="45.05712" lon="5.34387">
        <ele>229.89300537109</ele>
        <time>2010-06-13T14:32:23Z</time>
      </trkpt>
      <trkpt lat="45.05726" lon="5.34383">
        <ele>230.17500305176</ele>
        <time>2010-06-13T14:32:26Z</time>
      </trkpt>
      <trkpt lat="45.05751" lon="5.3437">
        <ele>229.36399841309</ele>
        <time>2010-06-13T14:32:31Z</time>
      </trkpt>
      <trkpt lat="45.05779" lon="5.34372">
        <ele>229.04299926758</ele>
        <time>2010-06-13T14:32:36Z</time>
      </trkpt>
      <trkpt lat="45.0581" lon="5.34393">
        <ele>229.23300170898</ele>
        <time>2010-06-13T14:32:42Z</time>
      </trkpt>
      <trkpt lat="45.05854" lon="5.34409">
        <ele>229.4640045166</ele>
        <time>2010-06-13T14:32:49Z</time>
      </trkpt>
      <trkpt lat="45.059" lon="5.34419">
        <ele>229.24299621582</ele>
        <time>2010-06-13T14:32:56Z</time>
      </trkpt>
      <trkpt lat="45.05934" lon="5.34416">
        <ele>228.73399353027</ele>
        <time>2010-06-13T14:33:01Z</time>
      </trkpt>
      <trkpt lat="45.05959" lon="5.34425">
        <ele>228.08799743652</ele>
        <time>2010-06-13T14:33:05Z</time>
      </trkpt>
      <trkpt lat="45.05977" lon="5.34437">
        <ele>228.12399291992</ele>
        <time>2010-06-13T14:33:08Z</time>
      </trkpt>
      <trkpt lat="45.05993" lon="5.34463">
        <ele>228.69400024414</ele>
        <time>2010-06-13T14:33:12Z</time>
      </trkpt>
      <trkpt lat="45.06" lon="5.34489">
        <ele>228.95399475098</ele>
        <time>2010-06-13T14:33:15Z</time>
      </trkpt>
      <trkpt lat="45.06008" lon="5.34537">
        <ele>229.39799499512</ele>
        <time>2010-06-13T14:33:20Z</time>
      </trkpt>
      <trkpt lat="45.0601" lon="5.34577">
        <ele>229.45399475098</ele>
        <time>2010-06-13T14:33:24Z</time>
      </trkpt>
      <trkpt lat="45.06007" lon="5.34619">
        <ele>229.4940032959</ele>
        <time>2010-06-13T14:33:28Z</time>
      </trkpt>
      <trkpt lat="45.06014" lon="5.34637">
        <ele>229.55200195312</ele>
        <time>2010-06-13T14:33:30Z</time>
      </trkpt>
      <trkpt lat="45.06031" lon="5.34678">
        <ele>230.65899658203</ele>
        <time>2010-06-13T14:33:36Z</time>
      </trkpt>
      <trkpt lat="45.06033" lon="5.34685">
        <ele>230.85600280762</ele>
        <time>2010-06-13T14:33:39Z</time>
      </trkpt>
      <trkpt lat="45.06042" lon="5.34679">
        <ele>229.66000366211</ele>
        <time>2010-06-13T14:33:43Z</time>
      </trkpt>
      <trkpt lat="45.06047" lon="5.34668">
        <ele>229.54200744629</ele>
        <time>2010-06-13T14:33:45Z</time>
      </trkpt>
      <trkpt lat="45.0605" lon="5.34642">
        <ele>228.54699707031</ele>
        <time>2010-06-13T14:33:49Z</time>
      </trkpt>
      <trkpt lat="45.06064" lon="5.34625">
        <ele>227.34100341797</ele>
        <time>2010-06-13T14:33:53Z</time>
      </trkpt>
      <trkpt lat="45.06075" lon="5.34617">
        <ele>226.59700012207</ele>
        <time>2010-06-13T14:33:55Z</time>
      </trkpt>
      <trkpt lat="45.06089" lon="5.346">
        <ele>225.64500427246</ele>
        <time>2010-06-13T14:33:58Z</time>
      </trkpt>
      <trkpt lat="45.06097" lon="5.34578">
        <ele>225.16600036621</ele>
        <time>2010-06-13T14:34:01Z</time>
      </trkpt>
      <trkpt lat="45.06102" lon="5.34553">
        <ele>224.49000549316</ele>
        <time>2010-06-13T14:34:04Z</time>
      </trkpt>
      <trkpt lat="45.061" lon="5.34513">
        <ele>223.47099304199</ele>
        <time>2010-06-13T14:34:08Z</time>
      </trkpt>
      <trkpt lat="45.06104" lon="5.34461">
        <ele>220.74099731445</ele>
        <time>2010-06-13T14:34:13Z</time>
      </trkpt>
      <trkpt lat="45.06111" lon="5.34437">
        <ele>220.05299377441</ele>
        <time>2010-06-13T14:34:15Z</time>
      </trkpt>
      <trkpt lat="45.06129" lon="5.34391">
        <ele>220.79899597168</ele>
        <time>2010-06-13T14:34:20Z</time>
      </trkpt>
      <trkpt lat="45.06144" lon="5.34366">
        <ele>222.71299743652</ele>
        <time>2010-06-13T14:34:24Z</time>
      </trkpt>
      <trkpt lat="45.06152" lon="5.34352">
        <ele>223.03900146484</ele>
        <time>2010-06-13T14:34:26Z</time>
      </trkpt>
      <trkpt lat="45.06164" lon="5.34331">
        <ele>222.76100158691</ele>
        <time>2010-06-13T14:34:29Z</time>
      </trkpt>
      <trkpt lat="45.06184" lon="5.34292">
        <ele>221.92100524902</ele>
        <time>2010-06-13T14:34:34Z</time>
      </trkpt>
      <trkpt lat="45.062" lon="5.34233">
        <ele>219.45899963379</ele>
        <time>2010-06-13T14:34:40Z</time>
      </trkpt>
      <trkpt lat="45.06211" lon="5.34205">
        <ele>219.47500610352</ele>
        <time>2010-06-13T14:34:43Z</time>
      </trkpt>
      <trkpt lat="45.06226" lon="5.34128">
        <ele>218.19900512695</ele>
        <time>2010-06-13T14:34:50Z</time>
      </trkpt>
      <trkpt lat="45.06241" lon="5.34063">
        <ele>216.50399780273</ele>
        <time>2010-06-13T14:34:56Z</time>
      </trkpt>
      <trkpt lat="45.0626" lon="5.34012">
        <ele>215.82099914551</ele>
        <time>2010-06-13T14:35:01Z</time>
      </trkpt>
      <trkpt lat="45.06289" lon="5.33932">
        <ele>215.75</ele>
        <time>2010-06-13T14:35:09Z</time>
      </trkpt>
      <trkpt lat="45.06311" lon="5.33875">
        <ele>213.33700561523</ele>
        <time>2010-06-13T14:35:15Z</time>
      </trkpt>
      <trkpt lat="45.06348" lon="5.33809">
        <ele>214.35600280762</ele>
        <time>2010-06-13T14:35:23Z</time>
      </trkpt>
      <trkpt lat="45.06383" lon="5.33745">
        <ele>214.25100708008</ele>
        <time>2010-06-13T14:35:31Z</time>
      </trkpt>
      <trkpt lat="45.06413" lon="5.33688">
        <ele>214.87300109863</ele>
        <time>2010-06-13T14:35:38Z</time>
      </trkpt>
      <trkpt lat="45.06438" lon="5.33628">
        <ele>214.7859954834</ele>
        <time>2010-06-13T14:35:45Z</time>
      </trkpt>
      <trkpt lat="45.06449" lon="5.33583">
        <ele>215.15899658203</ele>
        <time>2010-06-13T14:35:50Z</time>
      </trkpt>
      <trkpt lat="45.06445" lon="5.33537">
        <ele>216.21000671387</ele>
        <time>2010-06-13T14:35:55Z</time>
      </trkpt>
      <trkpt lat="45.06427" lon="5.3351">
        <ele>216.53500366211</ele>
        <time>2010-06-13T14:35:59Z</time>
      </trkpt>
      <trkpt lat="45.06378" lon="5.33466">
        <ele>217.26100158691</ele>
        <time>2010-06-13T14:36:08Z</time>
      </trkpt>
      <trkpt lat="45.06356" lon="5.33453">
        <ele>217.96600341797</ele>
        <time>2010-06-13T14:36:12Z</time>
      </trkpt>
      <trkpt lat="45.06322" lon="5.33444">
        <ele>218.54100036621</ele>
        <time>2010-06-13T14:36:18Z</time>
      </trkpt>
      <trkpt lat="45.06289" lon="5.3344">
        <ele>219.30299377441</ele>
        <time>2010-06-13T14:36:24Z</time>
      </trkpt>
      <trkpt lat="45.06273" lon="5.33432">
        <ele>219.51600646973</ele>
        <time>2010-06-13T14:36:27Z</time>
      </trkpt>
      <trkpt lat="45.0625" lon="5.33421">
        <ele>220.79400634766</ele>
        <time>2010-06-13T14:36:32Z</time>
      </trkpt>
      <trkpt lat="45.06239" lon="5.33411">
        <ele>220.69299316406</ele>
        <time>2010-06-13T14:36:35Z</time>
      </trkpt>
      <trkpt lat="45.0621" lon="5.3337">
        <ele>220.0119934082</ele>
        <time>2010-06-13T14:36:42Z</time>
      </trkpt>
      <trkpt lat="45.06184" lon="5.33319">
        <ele>220.63499450684</ele>
        <time>2010-06-13T14:36:49Z</time>
      </trkpt>
      <trkpt lat="45.06161" lon="5.33254">
        <ele>221.49200439453</ele>
        <time>2010-06-13T14:36:58Z</time>
      </trkpt>
      <trkpt lat="45.06142" lon="5.33193">
        <ele>221.96299743652</ele>
        <time>2010-06-13T14:37:06Z</time>
      </trkpt>
      <trkpt lat="45.06124" lon="5.33132">
        <ele>222.82099914551</ele>
        <time>2010-06-13T14:37:14Z</time>
      </trkpt>
      <trkpt lat="45.06111" lon="5.3307">
        <ele>223.49699401856</ele>
        <time>2010-06-13T14:37:22Z</time>
      </trkpt>
      <trkpt lat="45.06093" lon="5.33019">
        <ele>224.24299621582</ele>
        <time>2010-06-13T14:37:29Z</time>
      </trkpt>
      <trkpt lat="45.06079" lon="5.32982">
        <ele>224.21899414062</ele>
        <time>2010-06-13T14:37:34Z</time>
      </trkpt>
      <trkpt lat="45.06071" lon="5.32932">
        <ele>225.07499694824</ele>
        <time>2010-06-13T14:37:40Z</time>
      </trkpt>
      <trkpt lat="45.06071" lon="5.32866">
        <ele>225.94500732422</ele>
        <time>2010-06-13T14:37:48Z</time>
      </trkpt>
      <trkpt lat="45.06057" lon="5.32813">
        <ele>226.29400634766</ele>
        <time>2010-06-13T14:37:55Z</time>
      </trkpt>
      <trkpt lat="45.06037" lon="5.32772">
        <ele>227.00199890137</ele>
        <time>2010-06-13T14:38:01Z</time>
      </trkpt>
      <trkpt lat="45.06011" lon="5.32729">
        <ele>227.42199707031</ele>
        <time>2010-06-13T14:38:08Z</time>
      </trkpt>
      <trkpt lat="45.05981" lon="5.32694">
        <ele>228.16499328613</ele>
        <time>2010-06-13T14:38:15Z</time>
      </trkpt>
      <trkpt lat="45.05951" lon="5.32669">
        <ele>228.80799865723</ele>
        <time>2010-06-13T14:38:21Z</time>
      </trkpt>
      <trkpt lat="45.05912" lon="5.32657">
        <ele>229.07699584961</ele>
        <time>2010-06-13T14:38:28Z</time>
      </trkpt>
      <trkpt lat="45.05888" lon="5.32636">
        <ele>229.31799316406</ele>
        <time>2010-06-13T14:38:33Z</time>
      </trkpt>
      <trkpt lat="45.05883" lon="5.32612">
        <ele>230.36799621582</ele>
        <time>2010-06-13T14:38:36Z</time>
      </trkpt>
      <trkpt lat="45.05884" lon="5.32595">
        <ele>230.82299804688</ele>
        <time>2010-06-13T14:38:38Z</time>
      </trkpt>
      <trkpt lat="45.05896" lon="5.32537">
        <ele>231.17100524902</ele>
        <time>2010-06-13T14:38:46Z</time>
      </trkpt>
      <trkpt lat="45.05899" lon="5.32485">
        <ele>231.20899963379</ele>
        <time>2010-06-13T14:38:53Z</time>
      </trkpt>
      <trkpt lat="45.059" lon="5.32419">
        <ele>231.75399780273</ele>
        <time>2010-06-13T14:39:01Z</time>
      </trkpt>
      <trkpt lat="45.05898" lon="5.32367">
        <ele>232.27099609375</ele>
        <time>2010-06-13T14:39:07Z</time>
      </trkpt>
      <trkpt lat="45.05896" lon="5.3235">
        <ele>232.57499694824</ele>
        <time>2010-06-13T14:39:09Z</time>
      </trkpt>
      <trkpt lat="45.05888" lon="5.3231">
        <ele>233.39199829102</ele>
        <time>2010-06-13T14:39:14Z</time>
      </trkpt>
      <trkpt lat="45.05867" lon="5.32268">
        <ele>233.96800231934</ele>
        <time>2010-06-13T14:39:20Z</time>
      </trkpt>
      <trkpt lat="45.0584" lon="5.3224">
        <ele>234.27200317383</ele>
        <time>2010-06-13T14:39:26Z</time>
      </trkpt>
      <trkpt lat="45.05835" lon="5.32235">
        <ele>234.37300109863</ele>
        <time>2010-06-13T14:39:27Z</time>
      </trkpt>
      <trkpt lat="45.05815" lon="5.32197">
        <ele>235.24699401856</ele>
        <time>2010-06-13T14:39:33Z</time>
      </trkpt>
      <trkpt lat="45.05811" lon="5.32164">
        <ele>235.24499511719</ele>
        <time>2010-06-13T14:39:37Z</time>
      </trkpt>
      <trkpt lat="45.05812" lon="5.32156">
        <ele>235.34399414062</ele>
        <time>2010-06-13T14:39:38Z</time>
      </trkpt>
      <trkpt lat="45.05817" lon="5.32085">
        <ele>236.66000366211</ele>
        <time>2010-06-13T14:39:47Z</time>
      </trkpt>
      <trkpt lat="45.05807" lon="5.32047">
        <ele>237.21299743652</ele>
        <time>2010-06-13T14:39:52Z</time>
      </trkpt>
      <trkpt lat="45.05774" lon="5.31993">
        <ele>236.85499572754</ele>
        <time>2010-06-13T14:40:00Z</time>
      </trkpt>
      <trkpt lat="45.05734" lon="5.31934">
        <ele>236.25</ele>
        <time>2010-06-13T14:40:08Z</time>
      </trkpt>
      <trkpt lat="45.05717" lon="5.31913">
        <ele>236.22200012207</ele>
        <time>2010-06-13T14:40:11Z</time>
      </trkpt>
      <trkpt lat="45.05676" lon="5.31885">
        <ele>235.51499938965</ele>
        <time>2010-06-13T14:40:17Z</time>
      </trkpt>
      <trkpt lat="45.05635" lon="5.31872">
        <ele>234.80799865723</ele>
        <time>2010-06-13T14:40:22Z</time>
      </trkpt>
      <trkpt lat="45.05579" lon="5.31854">
        <ele>233.55799865723</ele>
        <time>2010-06-13T14:40:29Z</time>
      </trkpt>
      <trkpt lat="45.05555" lon="5.31846">
        <ele>232.79499816894</ele>
        <time>2010-06-13T14:40:32Z</time>
      </trkpt>
      <trkpt lat="45.05533" lon="5.31827">
        <ele>232.41799926758</ele>
        <time>2010-06-13T14:40:35Z</time>
      </trkpt>
      <trkpt lat="45.05521" lon="5.31796">
        <ele>232.02000427246</ele>
        <time>2010-06-13T14:40:38Z</time>
      </trkpt>
      <trkpt lat="45.05519" lon="5.3177">
        <ele>231.23899841309</ele>
        <time>2010-06-13T14:40:40Z</time>
      </trkpt>
      <trkpt lat="45.05524" lon="5.31682">
        <ele>229.55799865723</ele>
        <time>2010-06-13T14:40:47Z</time>
      </trkpt>
      <trkpt lat="45.05527" lon="5.31591">
        <ele>227.72900390625</ele>
        <time>2010-06-13T14:40:54Z</time>
      </trkpt>
      <trkpt lat="45.05521" lon="5.31512">
        <ele>226.26300048828</ele>
        <time>2010-06-13T14:41:00Z</time>
      </trkpt>
      <trkpt lat="45.05486" lon="5.31416">
        <ele>224.23100280762</ele>
        <time>2010-06-13T14:41:08Z</time>
      </trkpt>
      <trkpt lat="45.05458" lon="5.3133">
        <ele>222.4700012207</ele>
        <time>2010-06-13T14:41:15Z</time>
      </trkpt>
      <trkpt lat="45.05457" lon="5.31266">
        <ele>221.83799743652</ele>
        <time>2010-06-13T14:41:20Z</time>
      </trkpt>
      <trkpt lat="45.05462" lon="5.31188">
        <ele>220.79800415039</ele>
        <time>2010-06-13T14:41:26Z</time>
      </trkpt>
      <trkpt lat="45.05464" lon="5.31161">
        <ele>220.03199768066</ele>
        <time>2010-06-13T14:41:28Z</time>
      </trkpt>
      <trkpt lat="45.05474" lon="5.31111">
        <ele>219.20500183106</ele>
        <time>2010-06-13T14:41:32Z</time>
      </trkpt>
      <trkpt lat="45.05505" lon="5.31016">
        <ele>217.42199707031</ele>
        <time>2010-06-13T14:41:40Z</time>
      </trkpt>
      <trkpt lat="45.05542" lon="5.30927">
        <ele>215.85499572754</ele>
        <time>2010-06-13T14:41:48Z</time>
      </trkpt>
      <trkpt lat="45.05557" lon="5.30894">
        <ele>214.47999572754</ele>
        <time>2010-06-13T14:41:51Z</time>
      </trkpt>
      <trkpt lat="45.05584" lon="5.30859">
        <ele>213.32299804688</ele>
        <time>2010-06-13T14:41:55Z</time>
      </trkpt>
      <trkpt lat="45.05592" lon="5.30854">
        <ele>213.20899963379</ele>
        <time>2010-06-13T14:41:56Z</time>
      </trkpt>
      <trkpt lat="45.05667" lon="5.30822">
        <ele>212.90199279785</ele>
        <time>2010-06-13T14:42:05Z</time>
      </trkpt>
      <trkpt lat="45.05693" lon="5.30821">
        <ele>212.54499816894</ele>
        <time>2010-06-13T14:42:08Z</time>
      </trkpt>
      <trkpt lat="45.05752" lon="5.30839">
        <ele>211.48100280762</ele>
        <time>2010-06-13T14:42:15Z</time>
      </trkpt>
      <trkpt lat="45.05785" lon="5.30851">
        <ele>211.23500061035</ele>
        <time>2010-06-13T14:42:19Z</time>
      </trkpt>
      <trkpt lat="45.05808" lon="5.30863">
        <ele>211.08500671387</ele>
        <time>2010-06-13T14:42:22Z</time>
      </trkpt>
      <trkpt lat="45.05849" lon="5.30873">
        <ele>211.10600280762</ele>
        <time>2010-06-13T14:42:27Z</time>
      </trkpt>
      <trkpt lat="45.05883" lon="5.30859">
        <ele>210.52799987793</ele>
        <time>2010-06-13T14:42:31Z</time>
      </trkpt>
      <trkpt lat="45.05906" lon="5.30841">
        <ele>209.55700683594</ele>
        <time>2010-06-13T14:42:34Z</time>
      </trkpt>
      <trkpt lat="45.0595" lon="5.30829">
        <ele>209.43200683594</ele>
        <time>2010-06-13T14:42:39Z</time>
      </trkpt>
      <trkpt lat="45.05993" lon="5.30806">
        <ele>208.56599426269</ele>
        <time>2010-06-13T14:42:44Z</time>
      </trkpt>
      <trkpt lat="45.0604" lon="5.30769">
        <ele>207.44000244141</ele>
        <time>2010-06-13T14:42:50Z</time>
      </trkpt>
      <trkpt lat="45.06079" lon="5.3072">
        <ele>207.08200073242</ele>
        <time>2010-06-13T14:42:56Z</time>
      </trkpt>
      <trkpt lat="45.06105" lon="5.30677">
        <ele>206.68899536133</ele>
        <time>2010-06-13T14:43:01Z</time>
      </trkpt>
      <trkpt lat="45.0614" lon="5.30604">
        <ele>205.84100341797</ele>
        <time>2010-06-13T14:43:09Z</time>
      </trkpt>
      <trkpt lat="45.06159" lon="5.30551">
        <ele>205.17700195312</ele>
        <time>2010-06-13T14:43:14Z</time>
      </trkpt>
      <trkpt lat="45.06176" lon="5.30496">
        <ele>204.39300537109</ele>
        <time>2010-06-13T14:43:19Z</time>
      </trkpt>
      <trkpt lat="45.06207" lon="5.3044">
        <ele>202.6190032959</ele>
        <time>2010-06-13T14:43:25Z</time>
      </trkpt>
      <trkpt lat="45.06233" lon="5.30395">
        <ele>202.49600219727</ele>
        <time>2010-06-13T14:43:30Z</time>
      </trkpt>
      <trkpt lat="45.06259" lon="5.3035">
        <ele>201.86199951172</ele>
        <time>2010-06-13T14:43:35Z</time>
      </trkpt>
      <trkpt lat="45.06272" lon="5.30298">
        <ele>202.40299987793</ele>
        <time>2010-06-13T14:43:40Z</time>
      </trkpt>
      <trkpt lat="45.06276" lon="5.30278">
        <ele>202.38000488281</ele>
        <time>2010-06-13T14:43:42Z</time>
      </trkpt>
      <trkpt lat="45.06284" lon="5.30251">
        <ele>201.43600463867</ele>
        <time>2010-06-13T14:43:45Z</time>
      </trkpt>
      <trkpt lat="45.06303" lon="5.30196">
        <ele>202.49099731445</ele>
        <time>2010-06-13T14:43:51Z</time>
      </trkpt>
      <trkpt lat="45.06313" lon="5.30168">
        <ele>201.73399353027</ele>
        <time>2010-06-13T14:43:54Z</time>
      </trkpt>
      <trkpt lat="45.06341" lon="5.30106">
        <ele>199.58799743652</ele>
        <time>2010-06-13T14:44:01Z</time>
      </trkpt>
      <trkpt lat="45.06364" lon="5.3005">
        <ele>198.25</ele>
        <time>2010-06-13T14:44:07Z</time>
      </trkpt>
      <trkpt lat="45.06367" lon="5.30039">
        <ele>198.07699584961</ele>
        <time>2010-06-13T14:44:08Z</time>
      </trkpt>
      <trkpt lat="45.06377" lon="5.29978">
        <ele>196.3450012207</ele>
        <time>2010-06-13T14:44:13Z</time>
      </trkpt>
      <trkpt lat="45.06381" lon="5.29894">
        <ele>193.49699401856</ele>
        <time>2010-06-13T14:44:19Z</time>
      </trkpt>
      <trkpt lat="45.06383" lon="5.29839">
        <ele>191.5359954834</ele>
        <time>2010-06-13T14:44:23Z</time>
      </trkpt>
      <trkpt lat="45.06388" lon="5.29747">
        <ele>190.74600219727</ele>
        <time>2010-06-13T14:44:30Z</time>
      </trkpt>
      <trkpt lat="45.06392" lon="5.29652">
        <ele>191.18099975586</ele>
        <time>2010-06-13T14:44:38Z</time>
      </trkpt>
      <trkpt lat="45.06396" lon="5.29536">
        <ele>191.05400085449</ele>
        <time>2010-06-13T14:44:48Z</time>
      </trkpt>
      <trkpt lat="45.06401" lon="5.29428">
        <ele>189.80400085449</ele>
        <time>2010-06-13T14:44:57Z</time>
      </trkpt>
      <trkpt lat="45.06404" lon="5.29325">
        <ele>190.5299987793</ele>
        <time>2010-06-13T14:45:06Z</time>
      </trkpt>
      <trkpt lat="45.06409" lon="5.29283">
        <ele>190.58200073242</ele>
        <time>2010-06-13T14:45:10Z</time>
      </trkpt>
      <trkpt lat="45.06409" lon="5.29206">
        <ele>190.65699768066</ele>
        <time>2010-06-13T14:45:17Z</time>
      </trkpt>
      <trkpt lat="45.06398" lon="5.29138">
        <ele>190.41299438477</ele>
        <time>2010-06-13T14:45:23Z</time>
      </trkpt>
      <trkpt lat="45.06377" lon="5.29062">
        <ele>190.53900146484</ele>
        <time>2010-06-13T14:45:30Z</time>
      </trkpt>
      <trkpt lat="45.06356" lon="5.29022">
        <ele>189.94900512695</ele>
        <time>2010-06-13T14:45:34Z</time>
      </trkpt>
      <trkpt lat="45.06336" lon="5.28998">
        <ele>190.26300048828</ele>
        <time>2010-06-13T14:45:37Z</time>
      </trkpt>
      <trkpt lat="45.06296" lon="5.28974">
        <ele>190.11099243164</ele>
        <time>2010-06-13T14:45:42Z</time>
      </trkpt>
      <trkpt lat="45.06264" lon="5.28958">
        <ele>189.80499267578</ele>
        <time>2010-06-13T14:45:46Z</time>
      </trkpt>
      <trkpt lat="45.06229" lon="5.28923">
        <ele>189.5950012207</ele>
        <time>2010-06-13T14:45:51Z</time>
      </trkpt>
      <trkpt lat="45.06223" lon="5.28914">
        <ele>189.45500183106</ele>
        <time>2010-06-13T14:45:52Z</time>
      </trkpt>
      <trkpt lat="45.0617" lon="5.28819">
        <ele>189.19599914551</ele>
        <time>2010-06-13T14:46:02Z</time>
      </trkpt>
      <trkpt lat="45.06134" lon="5.28747">
        <ele>188.71600341797</ele>
        <time>2010-06-13T14:46:09Z</time>
      </trkpt>
      <trkpt lat="45.06113" lon="5.28676">
        <ele>188.55599975586</ele>
        <time>2010-06-13T14:46:15Z</time>
      </trkpt>
      <trkpt lat="45.06087" lon="5.2857">
        <ele>187.96899414062</ele>
        <time>2010-06-13T14:46:24Z</time>
      </trkpt>
      <trkpt lat="45.06073" lon="5.28501">
        <ele>188.03300476074</ele>
        <time>2010-06-13T14:46:30Z</time>
      </trkpt>
      <trkpt lat="45.0607" lon="5.28452">
        <ele>188.23399353027</ele>
        <time>2010-06-13T14:46:34Z</time>
      </trkpt>
      <trkpt lat="45.0608" lon="5.28354">
        <ele>187.96499633789</ele>
        <time>2010-06-13T14:46:42Z</time>
      </trkpt>
      <trkpt lat="45.06095" lon="5.28294">
        <ele>187.55400085449</ele>
        <time>2010-06-13T14:46:47Z</time>
      </trkpt>
      <trkpt lat="45.06108" lon="5.2823">
        <ele>186.22700500488</ele>
        <time>2010-06-13T14:46:52Z</time>
      </trkpt>
      <trkpt lat="45.06125" lon="5.28123">
        <ele>184.30900573731</ele>
        <time>2010-06-13T14:47:00Z</time>
      </trkpt>
      <trkpt lat="45.06144" lon="5.28022">
        <ele>183.63600158691</ele>
        <time>2010-06-13T14:47:08Z</time>
      </trkpt>
      <trkpt lat="45.06155" lon="5.27939">
        <ele>183.32800292969</ele>
        <time>2010-06-13T14:47:15Z</time>
      </trkpt>
      <trkpt lat="45.06151" lon="5.27894">
        <ele>183.46200561523</ele>
        <time>2010-06-13T14:47:19Z</time>
      </trkpt>
      <trkpt lat="45.06142" lon="5.27874">
        <ele>183.66900634766</ele>
        <time>2010-06-13T14:47:21Z</time>
      </trkpt>
      <trkpt lat="45.06129" lon="5.27846">
        <ele>183.91299438477</ele>
        <time>2010-06-13T14:47:24Z</time>
      </trkpt>
      <trkpt lat="45.06113" lon="5.27784">
        <ele>185.48399353027</ele>
        <time>2010-06-13T14:47:31Z</time>
      </trkpt>
      <trkpt lat="45.06104" lon="5.27732">
        <ele>186.49499511719</ele>
        <time>2010-06-13T14:47:37Z</time>
      </trkpt>
      <trkpt lat="45.06102" lon="5.27708">
        <ele>186.75700378418</ele>
        <time>2010-06-13T14:47:40Z</time>
      </trkpt>
      <trkpt lat="45.06103" lon="5.27642">
        <ele>187.81500244141</ele>
        <time>2010-06-13T14:47:48Z</time>
      </trkpt>
      <trkpt lat="45.06102" lon="5.27633">
        <ele>187.69000244141</ele>
        <time>2010-06-13T14:47:49Z</time>
      </trkpt>
      <trkpt lat="45.06098" lon="5.27602">
        <ele>188.67900085449</ele>
        <time>2010-06-13T14:47:53Z</time>
      </trkpt>
      <trkpt lat="45.06083" lon="5.27542">
        <ele>190.71800231934</ele>
        <time>2010-06-13T14:48:01Z</time>
      </trkpt>
      <trkpt lat="45.06079" lon="5.27496">
        <ele>192.04800415039</ele>
        <time>2010-06-13T14:48:07Z</time>
      </trkpt>
      <trkpt lat="45.06082" lon="5.27445">
        <ele>193.23899841309</ele>
        <time>2010-06-13T14:48:14Z</time>
      </trkpt>
      <trkpt lat="45.06089" lon="5.27397">
        <ele>194.63600158691</ele>
        <time>2010-06-13T14:48:21Z</time>
      </trkpt>
      <trkpt lat="45.06102" lon="5.27325">
        <ele>195.81900024414</ele>
        <time>2010-06-13T14:48:31Z</time>
      </trkpt>
      <trkpt lat="45.06118" lon="5.27264">
        <ele>198.09700012207</ele>
        <time>2010-06-13T14:48:40Z</time>
      </trkpt>
      <trkpt lat="45.0614" lon="5.2721">
        <ele>199.77000427246</ele>
        <time>2010-06-13T14:48:49Z</time>
      </trkpt>
      <trkpt lat="45.06166" lon="5.27167">
        <ele>200.94099426269</ele>
        <time>2010-06-13T14:48:57Z</time>
      </trkpt>
      <trkpt lat="45.06194" lon="5.27123">
        <ele>202.46699523926</ele>
        <time>2010-06-13T14:49:05Z</time>
      </trkpt>
      <trkpt lat="45.06236" lon="5.27058">
        <ele>204.69599914551</ele>
        <time>2010-06-13T14:49:17Z</time>
      </trkpt>
      <trkpt lat="45.06257" lon="5.27017">
        <ele>206.00799560547</ele>
        <time>2010-06-13T14:49:24Z</time>
      </trkpt>
      <trkpt lat="45.06271" lon="5.26967">
        <ele>206.56700134277</ele>
        <time>2010-06-13T14:49:31Z</time>
      </trkpt>
      <trkpt lat="45.06289" lon="5.26894">
        <ele>206.77000427246</ele>
        <time>2010-06-13T14:49:40Z</time>
      </trkpt>
      <trkpt lat="45.06292" lon="5.26887">
        <ele>206.72599792481</ele>
        <time>2010-06-13T14:49:41Z</time>
      </trkpt>
      <trkpt lat="45.06307" lon="5.26861">
        <ele>207.04800415039</ele>
        <time>2010-06-13T14:49:45Z</time>
      </trkpt>
      <trkpt lat="45.06333" lon="5.26838">
        <ele>206.77099609375</ele>
        <time>2010-06-13T14:49:50Z</time>
      </trkpt>
      <trkpt lat="45.06371" lon="5.26825">
        <ele>206.01499938965</ele>
        <time>2010-06-13T14:49:56Z</time>
      </trkpt>
      <trkpt lat="45.06416" lon="5.26822">
        <ele>205.3390045166</ele>
        <time>2010-06-13T14:50:03Z</time>
      </trkpt>
      <trkpt lat="45.06427" lon="5.26822">
        <ele>205.625</ele>
        <time>2010-06-13T14:50:05Z</time>
      </trkpt>
      <trkpt lat="45.06442" lon="5.26804">
        <ele>206.67500305176</ele>
        <time>2010-06-13T14:50:09Z</time>
      </trkpt>
      <trkpt lat="45.06435" lon="5.26783">
        <ele>206.93099975586</ele>
        <time>2010-06-13T14:50:12Z</time>
      </trkpt>
      <trkpt lat="45.06404" lon="5.26727">
        <ele>205.86500549316</ele>
        <time>2010-06-13T14:50:19Z</time>
      </trkpt>
      <trkpt lat="45.06374" lon="5.26645">
        <ele>204.60400390625</ele>
        <time>2010-06-13T14:50:27Z</time>
      </trkpt>
      <trkpt lat="45.06341" lon="5.26552">
        <ele>203.30200195312</ele>
        <time>2010-06-13T14:50:35Z</time>
      </trkpt>
      <trkpt lat="45.06304" lon="5.26475">
        <ele>202.11999511719</ele>
        <time>2010-06-13T14:50:42Z</time>
      </trkpt>
      <trkpt lat="45.06269" lon="5.26426">
        <ele>201.61500549316</ele>
        <time>2010-06-13T14:50:47Z</time>
      </trkpt>
      <trkpt lat="45.0625" lon="5.26374">
        <ele>200.49000549316</ele>
        <time>2010-06-13T14:50:51Z</time>
      </trkpt>
      <trkpt lat="45.06247" lon="5.26359">
        <ele>200.43099975586</ele>
        <time>2010-06-13T14:50:52Z</time>
      </trkpt>
      <trkpt lat="45.06232" lon="5.262">
        <ele>198.52600097656</ele>
        <time>2010-06-13T14:51:02Z</time>
      </trkpt>
      <trkpt lat="45.06219" lon="5.26036">
        <ele>196.19799804688</ele>
        <time>2010-06-13T14:51:12Z</time>
      </trkpt>
      <trkpt lat="45.0621" lon="5.25939">
        <ele>194.08700561523</ele>
        <time>2010-06-13T14:51:18Z</time>
      </trkpt>
      <trkpt lat="45.06195" lon="5.25864">
        <ele>192.86799621582</ele>
        <time>2010-06-13T14:51:23Z</time>
      </trkpt>
      <trkpt lat="45.06178" lon="5.25782">
        <ele>192.72799682617</ele>
        <time>2010-06-13T14:51:29Z</time>
      </trkpt>
      <trkpt lat="45.06166" lon="5.2567">
        <ele>190.97300720215</ele>
        <time>2010-06-13T14:51:37Z</time>
      </trkpt>
      <trkpt lat="45.06163" lon="5.25657">
        <ele>190.8390045166</ele>
        <time>2010-06-13T14:51:38Z</time>
      </trkpt>
      <trkpt lat="45.06139" lon="5.25554">
        <ele>189.43899536133</ele>
        <time>2010-06-13T14:51:46Z</time>
      </trkpt>
      <trkpt lat="45.06131" lon="5.25489">
        <ele>188.80799865723</ele>
        <time>2010-06-13T14:51:51Z</time>
      </trkpt>
      <trkpt lat="45.06138" lon="5.25424">
        <ele>188.5299987793</ele>
        <time>2010-06-13T14:51:56Z</time>
      </trkpt>
      <trkpt lat="45.06149" lon="5.25333">
        <ele>187.57899475098</ele>
        <time>2010-06-13T14:52:03Z</time>
      </trkpt>
      <trkpt lat="45.06161" lon="5.25269">
        <ele>186.89999389648</ele>
        <time>2010-06-13T14:52:08Z</time>
      </trkpt>
      <trkpt lat="45.06176" lon="5.25179">
        <ele>185.89399719238</ele>
        <time>2010-06-13T14:52:15Z</time>
      </trkpt>
      <trkpt lat="45.06191" lon="5.25052">
        <ele>184.28100585938</ele>
        <time>2010-06-13T14:52:25Z</time>
      </trkpt>
      <trkpt lat="45.06197" lon="5.2496">
        <ele>183.09800720215</ele>
        <time>2010-06-13T14:52:32Z</time>
      </trkpt>
      <trkpt lat="45.06192" lon="5.24856">
        <ele>181.55099487305</ele>
        <time>2010-06-13T14:52:40Z</time>
      </trkpt>
      <trkpt lat="45.06182" lon="5.24781">
        <ele>180.61999511719</ele>
        <time>2010-06-13T14:52:46Z</time>
      </trkpt>
      <trkpt lat="45.06179" lon="5.24769">
        <ele>180.3630065918</ele>
        <time>2010-06-13T14:52:47Z</time>
      </trkpt>
      <trkpt lat="45.06162" lon="5.24737">
        <ele>180.06100463867</ele>
        <time>2010-06-13T14:52:50Z</time>
      </trkpt>
      <trkpt lat="45.06145" lon="5.24729">
        <ele>179.64799499512</ele>
        <time>2010-06-13T14:52:52Z</time>
      </trkpt>
      <trkpt lat="45.06096" lon="5.24712">
        <ele>179.89599609375</ele>
        <time>2010-06-13T14:52:58Z</time>
      </trkpt>
      <trkpt lat="45.06075" lon="5.24705">
        <ele>180.65600585938</ele>
        <time>2010-06-13T14:53:01Z</time>
      </trkpt>
      <trkpt lat="45.06036" lon="5.247">
        <ele>182.3869934082</ele>
        <time>2010-06-13T14:53:07Z</time>
      </trkpt>
      <trkpt lat="45.06018" lon="5.2469">
        <ele>183.17500305176</ele>
        <time>2010-06-13T14:53:10Z</time>
      </trkpt>
      <trkpt lat="45.05994" lon="5.24661">
        <ele>183.52799987793</ele>
        <time>2010-06-13T14:53:15Z</time>
      </trkpt>
      <trkpt lat="45.0599" lon="5.24628">
        <ele>184.54200744629</ele>
        <time>2010-06-13T14:53:19Z</time>
      </trkpt>
      <trkpt lat="45.05982" lon="5.24562">
        <ele>185.67900085449</ele>
        <time>2010-06-13T14:53:28Z</time>
      </trkpt>
      <trkpt lat="45.0598" lon="5.24548">
        <ele>185.87600708008</ele>
        <time>2010-06-13T14:53:30Z</time>
      </trkpt>
      <trkpt lat="45.05979" lon="5.24489">
        <ele>187.01899719238</ele>
        <time>2010-06-13T14:53:38Z</time>
      </trkpt>
      <trkpt lat="45.05981" lon="5.24424">
        <ele>188.75900268555</ele>
        <time>2010-06-13T14:53:47Z</time>
      </trkpt>
      <trkpt lat="45.05981" lon="5.24409">
        <ele>189.38800048828</ele>
        <time>2010-06-13T14:53:49Z</time>
      </trkpt>
      <trkpt lat="45.05989" lon="5.24382">
        <ele>189.72200012207</ele>
        <time>2010-06-13T14:53:53Z</time>
      </trkpt>
      <trkpt lat="45.06015" lon="5.24332">
        <ele>191.03999328613</ele>
        <time>2010-06-13T14:54:01Z</time>
      </trkpt>
      <trkpt lat="45.06041" lon="5.24298">
        <ele>192.24699401856</ele>
        <time>2010-06-13T14:54:07Z</time>
      </trkpt>
      <trkpt lat="45.06073" lon="5.24276">
        <ele>193.02200317383</ele>
        <time>2010-06-13T14:54:13Z</time>
      </trkpt>
      <trkpt lat="45.06091" lon="5.24271">
        <ele>193.58000183106</ele>
        <time>2010-06-13T14:54:16Z</time>
      </trkpt>
      <trkpt lat="45.06127" lon="5.24269">
        <ele>194.43800354004</ele>
        <time>2010-06-13T14:54:22Z</time>
      </trkpt>
      <trkpt lat="45.06163" lon="5.24265">
        <ele>195.34399414062</ele>
        <time>2010-06-13T14:54:28Z</time>
      </trkpt>
      <trkpt lat="45.06208" lon="5.24256">
        <ele>195.96600341797</ele>
        <time>2010-06-13T14:54:36Z</time>
      </trkpt>
      <trkpt lat="45.06249" lon="5.24247">
        <ele>196.35099792481</ele>
        <time>2010-06-13T14:54:43Z</time>
      </trkpt>
      <trkpt lat="45.06299" lon="5.24244">
        <ele>197.89599609375</ele>
        <time>2010-06-13T14:54:52Z</time>
      </trkpt>
      <trkpt lat="45.06338" lon="5.24225">
        <ele>197.91900634766</ele>
        <time>2010-06-13T14:54:59Z</time>
      </trkpt>
      <trkpt lat="45.06387" lon="5.24194">
        <ele>197.32600402832</ele>
        <time>2010-06-13T14:55:07Z</time>
      </trkpt>
      <trkpt lat="45.0643" lon="5.24166">
        <ele>197.59800720215</ele>
        <time>2010-06-13T14:55:14Z</time>
      </trkpt>
      <trkpt lat="45.06477" lon="5.24137">
        <ele>196.73199462891</ele>
        <time>2010-06-13T14:55:22Z</time>
      </trkpt>
      <trkpt lat="45.0649" lon="5.2413">
        <ele>196.04800415039</ele>
        <time>2010-06-13T14:55:24Z</time>
      </trkpt>
      <trkpt lat="45.06517" lon="5.24135">
        <ele>194.39900207519</ele>
        <time>2010-06-13T14:55:28Z</time>
      </trkpt>
      <trkpt lat="45.06532" lon="5.24159">
        <ele>193.03999328613</ele>
        <time>2010-06-13T14:55:31Z</time>
      </trkpt>
      <trkpt lat="45.06547" lon="5.2421">
        <ele>192.15199279785</ele>
        <time>2010-06-13T14:55:36Z</time>
      </trkpt>
      <trkpt lat="45.06568" lon="5.24246">
        <ele>190.22300720215</ele>
        <time>2010-06-13T14:55:40Z</time>
      </trkpt>
      <trkpt lat="45.06576" lon="5.24252">
        <ele>189.98699951172</ele>
        <time>2010-06-13T14:55:41Z</time>
      </trkpt>
      <trkpt lat="45.06585" lon="5.24256">
        <ele>189.41299438477</ele>
        <time>2010-06-13T14:55:42Z</time>
      </trkpt>
      <trkpt lat="45.06611" lon="5.24266">
        <ele>187.78700256348</ele>
        <time>2010-06-13T14:55:45Z</time>
      </trkpt>
      <trkpt lat="45.06651" lon="5.24282">
        <ele>188.71299743652</ele>
        <time>2010-06-13T14:55:50Z</time>
      </trkpt>
      <trkpt lat="45.06689" lon="5.24296">
        <ele>189.59199523926</ele>
        <time>2010-06-13T14:55:56Z</time>
      </trkpt>
      <trkpt lat="45.06725" lon="5.24309">
        <ele>191.47200012207</ele>
        <time>2010-06-13T14:56:03Z</time>
      </trkpt>
      <trkpt lat="45.0674" lon="5.24313">
        <ele>192.08500671387</ele>
        <time>2010-06-13T14:56:06Z</time>
      </trkpt>
      <trkpt lat="45.06782" lon="5.24329">
        <ele>192.63299560547</ele>
        <time>2010-06-13T14:56:15Z</time>
      </trkpt>
      <trkpt lat="45.06832" lon="5.24347">
        <ele>193.6190032959</ele>
        <time>2010-06-13T14:56:26Z</time>
      </trkpt>
      <trkpt lat="45.06844" lon="5.24353">
        <ele>194.27200317383</ele>
        <time>2010-06-13T14:56:29Z</time>
      </trkpt>
      <trkpt lat="45.06878" lon="5.24366">
        <ele>196.27900695801</ele>
        <time>2010-06-13T14:56:38Z</time>
      </trkpt>
      <trkpt lat="45.06886" lon="5.24369">
        <ele>196.58700561523</ele>
        <time>2010-06-13T14:56:40Z</time>
      </trkpt>
      <trkpt lat="45.06898" lon="5.24372">
        <ele>197.3690032959</ele>
        <time>2010-06-13T14:56:43Z</time>
      </trkpt>
      <trkpt lat="45.06906" lon="5.24376">
        <ele>197.63299560547</ele>
        <time>2010-06-13T14:56:45Z</time>
      </trkpt>
      <trkpt lat="45.06938" lon="5.2439">
        <ele>198.80700683594</ele>
        <time>2010-06-13T14:56:53Z</time>
      </trkpt>
      <trkpt lat="45.06962" lon="5.24403">
        <ele>200.47500610352</ele>
        <time>2010-06-13T14:56:59Z</time>
      </trkpt>
      <trkpt lat="45.06982" lon="5.244">
        <ele>201.35600280762</ele>
        <time>2010-06-13T14:57:04Z</time>
      </trkpt>
      <trkpt lat="45.06996" lon="5.24379">
        <ele>201.25300598144</ele>
        <time>2010-06-13T14:57:08Z</time>
      </trkpt>
      <trkpt lat="45.07022" lon="5.24341">
        <ele>201.61999511719</ele>
        <time>2010-06-13T14:57:15Z</time>
      </trkpt>
      <trkpt lat="45.07033" lon="5.24324">
        <ele>201.59700012207</ele>
        <time>2010-06-13T14:57:18Z</time>
      </trkpt>
      <trkpt lat="45.07058" lon="5.24265">
        <ele>201.88000488281</ele>
        <time>2010-06-13T14:57:26Z</time>
      </trkpt>
      <trkpt lat="45.07066" lon="5.2424">
        <ele>202.1309967041</ele>
        <time>2010-06-13T14:57:29Z</time>
      </trkpt>
      <trkpt lat="45.07083" lon="5.24156">
        <ele>201.60099792481</ele>
        <time>2010-06-13T14:57:38Z</time>
      </trkpt>
      <trkpt lat="45.07099" lon="5.24083">
        <ele>201.27699279785</ele>
        <time>2010-06-13T14:57:45Z</time>
      </trkpt>
      <trkpt lat="45.07118" lon="5.24051">
        <ele>201.05200195312</ele>
        <time>2010-06-13T14:57:49Z</time>
      </trkpt>
      <trkpt lat="45.07139" lon="5.24049">
        <ele>200.88999938965</ele>
        <time>2010-06-13T14:57:52Z</time>
      </trkpt>
      <trkpt lat="45.07153" lon="5.24053">
        <ele>200.97700500488</ele>
        <time>2010-06-13T14:57:54Z</time>
      </trkpt>
      <trkpt lat="45.07188" lon="5.24069">
        <ele>202.02099609375</ele>
        <time>2010-06-13T14:58:00Z</time>
      </trkpt>
      <trkpt lat="45.07194" lon="5.24071">
        <ele>202.57000732422</ele>
        <time>2010-06-13T14:58:01Z</time>
      </trkpt>
      <trkpt lat="45.07228" lon="5.24073">
        <ele>204.46299743652</ele>
        <time>2010-06-13T14:58:08Z</time>
      </trkpt>
      <trkpt lat="45.07264" lon="5.24069">
        <ele>206.27099609375</ele>
        <time>2010-06-13T14:58:16Z</time>
      </trkpt>
      <trkpt lat="45.07299" lon="5.24067">
        <ele>208.3809967041</ele>
        <time>2010-06-13T14:58:24Z</time>
      </trkpt>
      <trkpt lat="45.07333" lon="5.24064">
        <ele>208.77799987793</ele>
        <time>2010-06-13T14:58:31Z</time>
      </trkpt>
      <trkpt lat="45.07383" lon="5.24058">
        <ele>209.16700744629</ele>
        <time>2010-06-13T14:58:40Z</time>
      </trkpt>
      <trkpt lat="45.07422" lon="5.24056">
        <ele>209.53100585938</ele>
        <time>2010-06-13T14:58:47Z</time>
      </trkpt>
      <trkpt lat="45.07471" lon="5.24049">
        <ele>209.18099975586</ele>
        <time>2010-06-13T14:58:55Z</time>
      </trkpt>
      <trkpt lat="45.07529" lon="5.24044">
        <ele>208.85200500488</ele>
        <time>2010-06-13T14:59:04Z</time>
      </trkpt>
      <trkpt lat="45.07595" lon="5.24037">
        <ele>209.94400024414</ele>
        <time>2010-06-13T14:59:14Z</time>
      </trkpt>
      <trkpt lat="45.07655" lon="5.24031">
        <ele>210.20700073242</ele>
        <time>2010-06-13T14:59:23Z</time>
      </trkpt>
      <trkpt lat="45.07681" lon="5.24026">
        <ele>211.08599853516</ele>
        <time>2010-06-13T14:59:27Z</time>
      </trkpt>
      <trkpt lat="45.07706" lon="5.24003">
        <ele>211.81300354004</ele>
        <time>2010-06-13T14:59:32Z</time>
      </trkpt>
      <trkpt lat="45.07709" lon="5.23996">
        <ele>211.85499572754</ele>
        <time>2010-06-13T14:59:33Z</time>
      </trkpt>
      <trkpt lat="45.0773" lon="5.2393">
        <ele>212.16700744629</ele>
        <time>2010-06-13T14:59:41Z</time>
      </trkpt>
      <trkpt lat="45.07752" lon="5.23856">
        <ele>212.00199890137</ele>
        <time>2010-06-13T14:59:49Z</time>
      </trkpt>
      <trkpt lat="45.0778" lon="5.23757">
        <ele>211.90699768066</ele>
        <time>2010-06-13T14:59:59Z</time>
      </trkpt>
      <trkpt lat="45.07806" lon="5.23669">
        <ele>212.40299987793</ele>
        <time>2010-06-13T15:00:08Z</time>
      </trkpt>
      <trkpt lat="45.07829" lon="5.23592">
        <ele>212.87600708008</ele>
        <time>2010-06-13T15:00:16Z</time>
      </trkpt>
      <trkpt lat="45.0785" lon="5.23509">
        <ele>212.03700256348</ele>
        <time>2010-06-13T15:00:24Z</time>
      </trkpt>
      <trkpt lat="45.07873" lon="5.23416">
        <ele>211.68299865723</ele>
        <time>2010-06-13T15:00:33Z</time>
      </trkpt>
      <trkpt lat="45.07913" lon="5.2333">
        <ele>211.12300109863</ele>
        <time>2010-06-13T15:00:42Z</time>
      </trkpt>
      <trkpt lat="45.07941" lon="5.23273">
        <ele>210.85600280762</ele>
        <time>2010-06-13T15:00:48Z</time>
      </trkpt>
      <trkpt lat="45.07945" lon="5.23264">
        <ele>210.95199584961</ele>
        <time>2010-06-13T15:00:49Z</time>
      </trkpt>
      <trkpt lat="45.07967" lon="5.23199">
        <ele>211.43200683594</ele>
        <time>2010-06-13T15:00:56Z</time>
      </trkpt>
      <trkpt lat="45.07996" lon="5.23123">
        <ele>210.74200439453</ele>
        <time>2010-06-13T15:01:04Z</time>
      </trkpt>
      <trkpt lat="45.08014" lon="5.23071">
        <ele>209.97999572754</ele>
        <time>2010-06-13T15:01:09Z</time>
      </trkpt>
      <trkpt lat="45.08033" lon="5.23003">
        <ele>209.54699707031</ele>
        <time>2010-06-13T15:01:15Z</time>
      </trkpt>
      <trkpt lat="45.08044" lon="5.2293">
        <ele>208.61500549316</ele>
        <time>2010-06-13T15:01:21Z</time>
      </trkpt>
      <trkpt lat="45.08068" lon="5.2286">
        <ele>207.32699584961</ele>
        <time>2010-06-13T15:01:27Z</time>
      </trkpt>
      <trkpt lat="45.08096" lon="5.22792">
        <ele>207.05099487305</ele>
        <time>2010-06-13T15:01:33Z</time>
      </trkpt>
      <trkpt lat="45.08128" lon="5.22726">
        <ele>204.27600097656</ele>
        <time>2010-06-13T15:01:39Z</time>
      </trkpt>
      <trkpt lat="45.0817" lon="5.22667">
        <ele>201.57200622559</ele>
        <time>2010-06-13T15:01:45Z</time>
      </trkpt>
      <trkpt lat="45.08206" lon="5.22615">
        <ele>199.45300292969</ele>
        <time>2010-06-13T15:01:50Z</time>
      </trkpt>
      <trkpt lat="45.08269" lon="5.22528">
        <ele>197.84700012207</ele>
        <time>2010-06-13T15:01:59Z</time>
      </trkpt>
      <trkpt lat="45.08299" lon="5.22481">
        <ele>198.33399963379</ele>
        <time>2010-06-13T15:02:04Z</time>
      </trkpt>
      <trkpt lat="45.08317" lon="5.22429">
        <ele>198.66999816894</ele>
        <time>2010-06-13T15:02:09Z</time>
      </trkpt>
      <trkpt lat="45.0833" lon="5.22357">
        <ele>199.83399963379</ele>
        <time>2010-06-13T15:02:16Z</time>
      </trkpt>
      <trkpt lat="45.08338" lon="5.22285">
        <ele>199.71800231934</ele>
        <time>2010-06-13T15:02:23Z</time>
      </trkpt>
      <trkpt lat="45.08355" lon="5.22222">
        <ele>199.91000366211</ele>
        <time>2010-06-13T15:02:29Z</time>
      </trkpt>
      <trkpt lat="45.08386" lon="5.22144">
        <ele>200.38900756836</ele>
        <time>2010-06-13T15:02:37Z</time>
      </trkpt>
      <trkpt lat="45.08419" lon="5.22093">
        <ele>200.32299804688</ele>
        <time>2010-06-13T15:02:43Z</time>
      </trkpt>
      <trkpt lat="45.08456" lon="5.22028">
        <ele>200.01800537109</ele>
        <time>2010-06-13T15:02:50Z</time>
      </trkpt>
      <trkpt lat="45.0848" lon="5.2197">
        <ele>200.125</ele>
        <time>2010-06-13T15:02:56Z</time>
      </trkpt>
      <trkpt lat="45.08504" lon="5.21906">
        <ele>198.63800048828</ele>
        <time>2010-06-13T15:03:02Z</time>
      </trkpt>
      <trkpt lat="45.08526" lon="5.21856">
        <ele>197.52000427246</ele>
        <time>2010-06-13T15:03:07Z</time>
      </trkpt>
      <trkpt lat="45.0855" lon="5.2182">
        <ele>198.64300537109</ele>
        <time>2010-06-13T15:03:12Z</time>
      </trkpt>
      <trkpt lat="45.08569" lon="5.21811">
        <ele>198.90899658203</ele>
        <time>2010-06-13T15:03:15Z</time>
      </trkpt>
      <trkpt lat="45.08582" lon="5.21812">
        <ele>198.8450012207</ele>
        <time>2010-06-13T15:03:17Z</time>
      </trkpt>
      <trkpt lat="45.08624" lon="5.2183">
        <ele>200.41700744629</ele>
        <time>2010-06-13T15:03:24Z</time>
      </trkpt>
      <trkpt lat="45.08635" lon="5.21835">
        <ele>200.81900024414</ele>
        <time>2010-06-13T15:03:26Z</time>
      </trkpt>
      <trkpt lat="45.08664" lon="5.21834">
        <ele>201.54200744629</ele>
        <time>2010-06-13T15:03:31Z</time>
      </trkpt>
      <trkpt lat="45.08674" lon="5.21828">
        <ele>201.99800109863</ele>
        <time>2010-06-13T15:03:33Z</time>
      </trkpt>
      <trkpt lat="45.08683" lon="5.2182">
        <ele>202.07000732422</ele>
        <time>2010-06-13T15:03:35Z</time>
      </trkpt>
      <trkpt lat="45.08697" lon="5.21806">
        <ele>202.25799560547</ele>
        <time>2010-06-13T15:03:39Z</time>
      </trkpt>
      <trkpt lat="45.08698" lon="5.21784">
        <ele>202.89799499512</ele>
        <time>2010-06-13T15:03:43Z</time>
      </trkpt>
      <trkpt lat="45.08691" lon="5.21771">
        <ele>202.66400146484</ele>
        <time>2010-06-13T15:03:45Z</time>
      </trkpt>
      <trkpt lat="45.08657" lon="5.21712">
        <ele>200.92599487305</ele>
        <time>2010-06-13T15:03:53Z</time>
      </trkpt>
      <trkpt lat="45.08628" lon="5.21655">
        <ele>198.88499450684</ele>
        <time>2010-06-13T15:03:59Z</time>
      </trkpt>
      <trkpt lat="45.08598" lon="5.21586">
        <ele>196.18400573731</ele>
        <time>2010-06-13T15:04:05Z</time>
      </trkpt>
      <trkpt lat="45.08584" lon="5.21545">
        <ele>193.94400024414</ele>
        <time>2010-06-13T15:04:08Z</time>
      </trkpt>
      <trkpt lat="45.08553" lon="5.21456">
        <ele>188.84800720215</ele>
        <time>2010-06-13T15:04:14Z</time>
      </trkpt>
      <trkpt lat="45.08523" lon="5.21354">
        <ele>183.71699523926</ele>
        <time>2010-06-13T15:04:20Z</time>
      </trkpt>
      <trkpt lat="45.08498" lon="5.21267">
        <ele>179.30299377441</ele>
        <time>2010-06-13T15:04:25Z</time>
      </trkpt>
      <trkpt lat="45.08482" lon="5.21215">
        <ele>176.82200622559</ele>
        <time>2010-06-13T15:04:28Z</time>
      </trkpt>
      <trkpt lat="45.08477" lon="5.21176">
        <ele>175.97200012207</ele>
        <time>2010-06-13T15:04:30Z</time>
      </trkpt>
      <trkpt lat="45.08482" lon="5.21138">
        <ele>174.18600463867</ele>
        <time>2010-06-13T15:04:32Z</time>
      </trkpt>
      <trkpt lat="45.08488" lon="5.2112">
        <ele>173.12300109863</ele>
        <time>2010-06-13T15:04:33Z</time>
      </trkpt>
      <trkpt lat="45.08499" lon="5.21087">
        <ele>172.1190032959</ele>
        <time>2010-06-13T15:04:35Z</time>
      </trkpt>
      <trkpt lat="45.08517" lon="5.21022">
        <ele>170.80799865723</ele>
        <time>2010-06-13T15:04:39Z</time>
      </trkpt>
      <trkpt lat="45.08524" lon="5.20938">
        <ele>168.37600708008</ele>
        <time>2010-06-13T15:04:44Z</time>
      </trkpt>
      <trkpt lat="45.08522" lon="5.20845">
        <ele>168.35200500488</ele>
        <time>2010-06-13T15:04:50Z</time>
      </trkpt>
      <trkpt lat="45.08521" lon="5.2079">
        <ele>168.43200683594</ele>
        <time>2010-06-13T15:04:54Z</time>
      </trkpt>
      <trkpt lat="45.0852" lon="5.20763">
        <ele>168.70500183106</ele>
        <time>2010-06-13T15:04:56Z</time>
      </trkpt>
      <trkpt lat="45.08518" lon="5.2066">
        <ele>168.80599975586</ele>
        <time>2010-06-13T15:05:04Z</time>
      </trkpt>
      <trkpt lat="45.08517" lon="5.20609">
        <ele>168.44099426269</ele>
        <time>2010-06-13T15:05:08Z</time>
      </trkpt>
      <trkpt lat="45.08517" lon="5.20557">
        <ele>168.27299499512</ele>
        <time>2010-06-13T15:05:12Z</time>
      </trkpt>
      <trkpt lat="45.08516" lon="5.20507">
        <ele>168.375</ele>
        <time>2010-06-13T15:05:16Z</time>
      </trkpt>
      <trkpt lat="45.08514" lon="5.20396">
        <ele>167.90199279785</ele>
        <time>2010-06-13T15:05:25Z</time>
      </trkpt>
      <trkpt lat="45.08511" lon="5.20273">
        <ele>166.96600341797</ele>
        <time>2010-06-13T15:05:35Z</time>
      </trkpt>
      <trkpt lat="45.08509" lon="5.20137">
        <ele>166.76899719238</ele>
        <time>2010-06-13T15:05:46Z</time>
      </trkpt>
      <trkpt lat="45.08506" lon="5.20037">
        <ele>166.76300048828</ele>
        <time>2010-06-13T15:05:54Z</time>
      </trkpt>
      <trkpt lat="45.08506" lon="5.19947">
        <ele>166.24499511719</ele>
        <time>2010-06-13T15:06:01Z</time>
      </trkpt>
      <trkpt lat="45.08508" lon="5.19799">
        <ele>165.09300231934</ele>
        <time>2010-06-13T15:06:12Z</time>
      </trkpt>
      <trkpt lat="45.0851" lon="5.19686">
        <ele>164.69299316406</ele>
        <time>2010-06-13T15:06:20Z</time>
      </trkpt>
      <trkpt lat="45.08514" lon="5.19527">
        <ele>162.80000305176</ele>
        <time>2010-06-13T15:06:31Z</time>
      </trkpt>
      <trkpt lat="45.08522" lon="5.19403">
        <ele>160.57499694824</ele>
        <time>2010-06-13T15:06:39Z</time>
      </trkpt>
      <trkpt lat="45.08535" lon="5.19236">
        <ele>158.24299621582</ele>
        <time>2010-06-13T15:06:50Z</time>
      </trkpt>
      <trkpt lat="45.08543" lon="5.19127">
        <ele>157.6369934082</ele>
        <time>2010-06-13T15:06:58Z</time>
      </trkpt>
      <trkpt lat="45.08552" lon="5.19011">
        <ele>157.47900390625</ele>
        <time>2010-06-13T15:07:07Z</time>
      </trkpt>
      <trkpt lat="45.08559" lon="5.18902">
        <ele>157.42799377441</ele>
        <time>2010-06-13T15:07:16Z</time>
      </trkpt>
      <trkpt lat="45.08562" lon="5.18856">
        <ele>157.34800720215</ele>
        <time>2010-06-13T15:07:20Z</time>
      </trkpt>
      <trkpt lat="45.08562" lon="5.18833">
        <ele>157.43299865723</ele>
        <time>2010-06-13T15:07:22Z</time>
      </trkpt>
      <trkpt lat="45.08566" lon="5.18798">
        <ele>157.32699584961</ele>
        <time>2010-06-13T15:07:25Z</time>
      </trkpt>
      <trkpt lat="45.08572" lon="5.18724">
        <ele>156.63499450684</ele>
        <time>2010-06-13T15:07:31Z</time>
      </trkpt>
      <trkpt lat="45.08572" lon="5.18632">
        <ele>155.54899597168</ele>
        <time>2010-06-13T15:07:38Z</time>
      </trkpt>
      <trkpt lat="45.0857" lon="5.18556">
        <ele>155.67300415039</ele>
        <time>2010-06-13T15:07:44Z</time>
      </trkpt>
      <trkpt lat="45.08567" lon="5.1849">
        <ele>156.05299377441</ele>
        <time>2010-06-13T15:07:49Z</time>
      </trkpt>
      <trkpt lat="45.08569" lon="5.18426">
        <ele>157.13299560547</ele>
        <time>2010-06-13T15:07:54Z</time>
      </trkpt>
      <trkpt lat="45.08567" lon="5.18346">
        <ele>159.2200012207</ele>
        <time>2010-06-13T15:08:01Z</time>
      </trkpt>
      <trkpt lat="45.08565" lon="5.18298">
        <ele>160.86599731445</ele>
        <time>2010-06-13T15:08:06Z</time>
      </trkpt>
      <trkpt lat="45.08548" lon="5.18231">
        <ele>162.95799255371</ele>
        <time>2010-06-13T15:08:13Z</time>
      </trkpt>
      <trkpt lat="45.08519" lon="5.18142">
        <ele>164.9109954834</ele>
        <time>2010-06-13T15:08:23Z</time>
      </trkpt>
      <trkpt lat="45.08496" lon="5.18073">
        <ele>165.41200256348</ele>
        <time>2010-06-13T15:08:31Z</time>
      </trkpt>
      <trkpt lat="45.08473" lon="5.18011">
        <ele>166.8450012207</ele>
        <time>2010-06-13T15:08:39Z</time>
      </trkpt>
      <trkpt lat="45.08444" lon="5.17954">
        <ele>168.1190032959</ele>
        <time>2010-06-13T15:08:47Z</time>
      </trkpt>
      <trkpt lat="45.08414" lon="5.17896">
        <ele>169.88900756836</ele>
        <time>2010-06-13T15:08:56Z</time>
      </trkpt>
      <trkpt lat="45.08373" lon="5.17824">
        <ele>171.02699279785</ele>
        <time>2010-06-13T15:09:07Z</time>
      </trkpt>
      <trkpt lat="45.08339" lon="5.1778">
        <ele>171.86700439453</ele>
        <time>2010-06-13T15:09:14Z</time>
      </trkpt>
      <trkpt lat="45.08302" lon="5.17733">
        <ele>171.9880065918</ele>
        <time>2010-06-13T15:09:21Z</time>
      </trkpt>
      <trkpt lat="45.08247" lon="5.17663">
        <ele>172.32000732422</ele>
        <time>2010-06-13T15:09:31Z</time>
      </trkpt>
      <trkpt lat="45.08214" lon="5.17618">
        <ele>173.51899719238</ele>
        <time>2010-06-13T15:09:38Z</time>
      </trkpt>
      <trkpt lat="45.08191" lon="5.17583">
        <ele>174.10899353027</ele>
        <time>2010-06-13T15:09:44Z</time>
      </trkpt>
      <trkpt lat="45.0816" lon="5.17537">
        <ele>175.09700012207</ele>
        <time>2010-06-13T15:09:52Z</time>
      </trkpt>
      <trkpt lat="45.08133" lon="5.17496">
        <ele>175.48100280762</ele>
        <time>2010-06-13T15:09:59Z</time>
      </trkpt>
      <trkpt lat="45.08105" lon="5.17453">
        <ele>176.89199829102</ele>
        <time>2010-06-13T15:10:06Z</time>
      </trkpt>
      <trkpt lat="45.08083" lon="5.17415">
        <ele>177.50399780273</ele>
        <time>2010-06-13T15:10:12Z</time>
      </trkpt>
      <trkpt lat="45.08054" lon="5.17365">
        <ele>178.88400268555</ele>
        <time>2010-06-13T15:10:20Z</time>
      </trkpt>
      <trkpt lat="45.08031" lon="5.17331">
        <ele>179.65800476074</ele>
        <time>2010-06-13T15:10:26Z</time>
      </trkpt>
      <trkpt lat="45.08001" lon="5.17292">
        <ele>181.99499511719</ele>
        <time>2010-06-13T15:10:35Z</time>
      </trkpt>
      <trkpt lat="45.07971" lon="5.17248">
        <ele>183.79200744629</ele>
        <time>2010-06-13T15:10:45Z</time>
      </trkpt>
      <trkpt lat="45.07965" lon="5.17239">
        <ele>184.13800048828</ele>
        <time>2010-06-13T15:10:47Z</time>
      </trkpt>
      <trkpt lat="45.07954" lon="5.17221">
        <ele>185.16700744629</ele>
        <time>2010-06-13T15:10:51Z</time>
      </trkpt>
      <trkpt lat="45.07929" lon="5.17177">
        <ele>186.66400146484</ele>
        <time>2010-06-13T15:11:00Z</time>
      </trkpt>
      <trkpt lat="45.07904" lon="5.17134">
        <ele>187.8869934082</ele>
        <time>2010-06-13T15:11:08Z</time>
      </trkpt>
      <trkpt lat="45.07882" lon="5.1709">
        <ele>188.27200317383</ele>
        <time>2010-06-13T15:11:15Z</time>
      </trkpt>
      <trkpt lat="45.07853" lon="5.17029">
        <ele>188.12600708008</ele>
        <time>2010-06-13T15:11:23Z</time>
      </trkpt>
      <trkpt lat="45.07827" lon="5.16959">
        <ele>188.32800292969</ele>
        <time>2010-06-13T15:11:31Z</time>
      </trkpt>
      <trkpt lat="45.078" lon="5.16867">
        <ele>188.89399719238</ele>
        <time>2010-06-13T15:11:41Z</time>
      </trkpt>
      <trkpt lat="45.07777" lon="5.16771">
        <ele>189.53300476074</ele>
        <time>2010-06-13T15:11:51Z</time>
      </trkpt>
      <trkpt lat="45.07753" lon="5.16661">
        <ele>190.27000427246</ele>
        <time>2010-06-13T15:12:02Z</time>
      </trkpt>
      <trkpt lat="45.07733" lon="5.16572">
        <ele>190.90299987793</ele>
        <time>2010-06-13T15:12:11Z</time>
      </trkpt>
      <trkpt lat="45.0771" lon="5.16467">
        <ele>190.52000427246</ele>
        <time>2010-06-13T15:12:21Z</time>
      </trkpt>
      <trkpt lat="45.07688" lon="5.16366">
        <ele>190.30599975586</ele>
        <time>2010-06-13T15:12:30Z</time>
      </trkpt>
      <trkpt lat="45.0767" lon="5.16288">
        <ele>190.05200195312</ele>
        <time>2010-06-13T15:12:37Z</time>
      </trkpt>
      <trkpt lat="45.07668" lon="5.16278">
        <ele>190.10499572754</ele>
        <time>2010-06-13T15:12:38Z</time>
      </trkpt>
      <trkpt lat="45.0767" lon="5.16248">
        <ele>190.29699707031</ele>
        <time>2010-06-13T15:12:41Z</time>
      </trkpt>
      <trkpt lat="45.07674" lon="5.1624">
        <ele>190.12399291992</ele>
        <time>2010-06-13T15:12:42Z</time>
      </trkpt>
      <trkpt lat="45.07704" lon="5.16194">
        <ele>190.02000427246</ele>
        <time>2010-06-13T15:12:48Z</time>
      </trkpt>
      <trkpt lat="45.07717" lon="5.16174">
        <ele>191.38200378418</ele>
        <time>2010-06-13T15:12:51Z</time>
      </trkpt>
      <trkpt lat="45.07754" lon="5.16112">
        <ele>193.19500732422</ele>
        <time>2010-06-13T15:13:00Z</time>
      </trkpt>
      <trkpt lat="45.07779" lon="5.16068">
        <ele>195.85600280762</ele>
        <time>2010-06-13T15:13:06Z</time>
      </trkpt>
      <trkpt lat="45.07799" lon="5.15994">
        <ele>198.70799255371</ele>
        <time>2010-06-13T15:13:15Z</time>
      </trkpt>
      <trkpt lat="45.07812" lon="5.15947">
        <ele>199.55000305176</ele>
        <time>2010-06-13T15:13:21Z</time>
      </trkpt>
      <trkpt lat="45.07829" lon="5.15887">
        <ele>200.69700622559</ele>
        <time>2010-06-13T15:13:29Z</time>
      </trkpt>
      <trkpt lat="45.07845" lon="5.15825">
        <ele>200.10200500488</ele>
        <time>2010-06-13T15:13:36Z</time>
      </trkpt>
      <trkpt lat="45.07866" lon="5.15735">
        <ele>201.18899536133</ele>
        <time>2010-06-13T15:13:46Z</time>
      </trkpt>
      <trkpt lat="45.07879" lon="5.15662">
        <ele>201.89700317383</ele>
        <time>2010-06-13T15:13:54Z</time>
      </trkpt>
      <trkpt lat="45.07892" lon="5.1559">
        <ele>203.17300415039</ele>
        <time>2010-06-13T15:14:02Z</time>
      </trkpt>
      <trkpt lat="45.07913" lon="5.15494">
        <ele>204.62300109863</ele>
        <time>2010-06-13T15:14:13Z</time>
      </trkpt>
      <trkpt lat="45.07931" lon="5.15417">
        <ele>205.31399536133</ele>
        <time>2010-06-13T15:14:22Z</time>
      </trkpt>
      <trkpt lat="45.07948" lon="5.15352">
        <ele>204.81500244141</ele>
        <time>2010-06-13T15:14:29Z</time>
      </trkpt>
      <trkpt lat="45.07973" lon="5.15255">
        <ele>203.05099487305</ele>
        <time>2010-06-13T15:14:38Z</time>
      </trkpt>
      <trkpt lat="45.07981" lon="5.15187">
        <ele>203.35600280762</ele>
        <time>2010-06-13T15:14:44Z</time>
      </trkpt>
      <trkpt lat="45.0799" lon="5.1511">
        <ele>203.91700744629</ele>
        <time>2010-06-13T15:14:51Z</time>
      </trkpt>
      <trkpt lat="45.08004" lon="5.15043">
        <ele>204.84599304199</ele>
        <time>2010-06-13T15:14:58Z</time>
      </trkpt>
      <trkpt lat="45.08021" lon="5.14975">
        <ele>203.29800415039</ele>
        <time>2010-06-13T15:15:04Z</time>
      </trkpt>
      <trkpt lat="45.08046" lon="5.14874">
        <ele>200.66799926758</ele>
        <time>2010-06-13T15:15:12Z</time>
      </trkpt>
      <trkpt lat="45.08072" lon="5.14786">
        <ele>200.64300537109</ele>
        <time>2010-06-13T15:15:19Z</time>
      </trkpt>
      <trkpt lat="45.08105" lon="5.14696">
        <ele>200.67399597168</ele>
        <time>2010-06-13T15:15:27Z</time>
      </trkpt>
      <trkpt lat="45.08131" lon="5.14627">
        <ele>202.17100524902</ele>
        <time>2010-06-13T15:15:34Z</time>
      </trkpt>
      <trkpt lat="45.08148" lon="5.14574">
        <ele>203.33700561523</ele>
        <time>2010-06-13T15:15:40Z</time>
      </trkpt>
      <trkpt lat="45.08162" lon="5.14528">
        <ele>204.74099731445</ele>
        <time>2010-06-13T15:15:46Z</time>
      </trkpt>
      <trkpt lat="45.08171" lon="5.14495">
        <ele>206.17399597168</ele>
        <time>2010-06-13T15:15:51Z</time>
      </trkpt>
      <trkpt lat="45.08182" lon="5.14449">
        <ele>205.44299316406</ele>
        <time>2010-06-13T15:15:57Z</time>
      </trkpt>
      <trkpt lat="45.082" lon="5.14393">
        <ele>205.12199401856</ele>
        <time>2010-06-13T15:16:04Z</time>
      </trkpt>
      <trkpt lat="45.08216" lon="5.14349">
        <ele>204.48699951172</ele>
        <time>2010-06-13T15:16:09Z</time>
      </trkpt>
      <trkpt lat="45.0824" lon="5.14281">
        <ele>204.44599914551</ele>
        <time>2010-06-13T15:16:16Z</time>
      </trkpt>
      <trkpt lat="45.08263" lon="5.14207">
        <ele>203.56500244141</ele>
        <time>2010-06-13T15:16:23Z</time>
      </trkpt>
      <trkpt lat="45.0829" lon="5.14114">
        <ele>201.95500183106</ele>
        <time>2010-06-13T15:16:31Z</time>
      </trkpt>
      <trkpt lat="45.08322" lon="5.14007">
        <ele>200.90299987793</ele>
        <time>2010-06-13T15:16:40Z</time>
      </trkpt>
      <trkpt lat="45.0835" lon="5.13917">
        <ele>200.89700317383</ele>
        <time>2010-06-13T15:16:48Z</time>
      </trkpt>
      <trkpt lat="45.08374" lon="5.13863">
        <ele>202.27600097656</ele>
        <time>2010-06-13T15:16:54Z</time>
      </trkpt>
      <trkpt lat="45.0841" lon="5.13813">
        <ele>201.80900573731</ele>
        <time>2010-06-13T15:17:01Z</time>
      </trkpt>
      <trkpt lat="45.08466" lon="5.13741">
        <ele>201.7859954834</ele>
        <time>2010-06-13T15:17:11Z</time>
      </trkpt>
      <trkpt lat="45.08525" lon="5.13664">
        <ele>201.11700439453</ele>
        <time>2010-06-13T15:17:21Z</time>
      </trkpt>
      <trkpt lat="45.08577" lon="5.13594">
        <ele>201.00700378418</ele>
        <time>2010-06-13T15:17:30Z</time>
      </trkpt>
      <trkpt lat="45.08599" lon="5.1355">
        <ele>201.84100341797</ele>
        <time>2010-06-13T15:17:35Z</time>
      </trkpt>
      <trkpt lat="45.08618" lon="5.13505">
        <ele>201.57000732422</ele>
        <time>2010-06-13T15:17:40Z</time>
      </trkpt>
      <trkpt lat="45.08627" lon="5.13488">
        <ele>201.6190032959</ele>
        <time>2010-06-13T15:17:42Z</time>
      </trkpt>
      <trkpt lat="45.08641" lon="5.13451">
        <ele>201.76699829102</ele>
        <time>2010-06-13T15:17:46Z</time>
      </trkpt>
      <trkpt lat="45.08649" lon="5.13431">
        <ele>201.69999694824</ele>
        <time>2010-06-13T15:17:48Z</time>
      </trkpt>
      <trkpt lat="45.08673" lon="5.13363">
        <ele>201.53100585938</ele>
        <time>2010-06-13T15:17:55Z</time>
      </trkpt>
      <trkpt lat="45.08706" lon="5.13294">
        <ele>201.52099609375</ele>
        <time>2010-06-13T15:18:03Z</time>
      </trkpt>
      <trkpt lat="45.08728" lon="5.13241">
        <ele>201.45899963379</ele>
        <time>2010-06-13T15:18:09Z</time>
      </trkpt>
      <trkpt lat="45.08752" lon="5.13188">
        <ele>201.51800537109</ele>
        <time>2010-06-13T15:18:16Z</time>
      </trkpt>
      <trkpt lat="45.08764" lon="5.13162">
        <ele>201.95300292969</ele>
        <time>2010-06-13T15:18:20Z</time>
      </trkpt>
      <trkpt lat="45.08772" lon="5.1315">
        <ele>202.22799682617</ele>
        <time>2010-06-13T15:18:24Z</time>
      </trkpt>
      <trkpt lat="45.08778" lon="5.13133">
        <ele>201.42999267578</ele>
        <time>2010-06-13T15:18:27Z</time>
      </trkpt>
      <trkpt lat="45.08783" lon="5.13112">
        <ele>201.26800537109</ele>
        <time>2010-06-13T15:18:30Z</time>
      </trkpt>
      <trkpt lat="45.08792" lon="5.13059">
        <ele>201.14599609375</ele>
        <time>2010-06-13T15:18:37Z</time>
      </trkpt>
      <trkpt lat="45.08793" lon="5.13052">
        <ele>201.24600219727</ele>
        <time>2010-06-13T15:18:38Z</time>
      </trkpt>
      <trkpt lat="45.08797" lon="5.13033">
        <ele>201.11999511719</ele>
        <time>2010-06-13T15:18:41Z</time>
      </trkpt>
      <trkpt lat="45.08798" lon="5.13008">
        <ele>201.41499328613</ele>
        <time>2010-06-13T15:18:45Z</time>
      </trkpt>
      <trkpt lat="45.08797" lon="5.12981">
        <ele>201.85499572754</ele>
        <time>2010-06-13T15:18:49Z</time>
      </trkpt>
      <trkpt lat="45.08798" lon="5.12935">
        <ele>202.20899963379</ele>
        <time>2010-06-13T15:18:55Z</time>
      </trkpt>
      <trkpt lat="45.08801" lon="5.12919">
        <ele>202.64300537109</ele>
        <time>2010-06-13T15:18:57Z</time>
      </trkpt>
      <trkpt lat="45.08812" lon="5.1286">
        <ele>203.95799255371</ele>
        <time>2010-06-13T15:19:04Z</time>
      </trkpt>
      <trkpt lat="45.08813" lon="5.12851">
        <ele>203.94500732422</ele>
        <time>2010-06-13T15:19:05Z</time>
      </trkpt>
      <trkpt lat="45.08816" lon="5.12833">
        <ele>203.81500244141</ele>
        <time>2010-06-13T15:19:07Z</time>
      </trkpt>
      <trkpt lat="45.08827" lon="5.12783">
        <ele>204.82099914551</ele>
        <time>2010-06-13T15:19:13Z</time>
      </trkpt>
      <trkpt lat="45.08842" lon="5.12723">
        <ele>205.12199401856</ele>
        <time>2010-06-13T15:19:20Z</time>
      </trkpt>
      <trkpt lat="45.08862" lon="5.1266">
        <ele>205.45899963379</ele>
        <time>2010-06-13T15:19:27Z</time>
      </trkpt>
      <trkpt lat="45.08884" lon="5.126">
        <ele>206.38800048828</ele>
        <time>2010-06-13T15:19:34Z</time>
      </trkpt>
      <trkpt lat="45.08906" lon="5.12532">
        <ele>206.9940032959</ele>
        <time>2010-06-13T15:19:42Z</time>
      </trkpt>
      <trkpt lat="45.08916" lon="5.12474">
        <ele>206.47799682617</ele>
        <time>2010-06-13T15:19:48Z</time>
      </trkpt>
      <trkpt lat="45.08917" lon="5.12405">
        <ele>205.19500732422</ele>
        <time>2010-06-13T15:19:54Z</time>
      </trkpt>
      <trkpt lat="45.08914" lon="5.12326">
        <ele>203.60299682617</ele>
        <time>2010-06-13T15:20:00Z</time>
      </trkpt>
      <trkpt lat="45.08912" lon="5.12227">
        <ele>201.93899536133</ele>
        <time>2010-06-13T15:20:07Z</time>
      </trkpt>
      <trkpt lat="45.08904" lon="5.12115">
        <ele>201.11199951172</ele>
        <time>2010-06-13T15:20:15Z</time>
      </trkpt>
      <trkpt lat="45.08892" lon="5.11969">
        <ele>199.65299987793</ele>
        <time>2010-06-13T15:20:25Z</time>
      </trkpt>
      <trkpt lat="45.08884" lon="5.11859">
        <ele>198.43699645996</ele>
        <time>2010-06-13T15:20:33Z</time>
      </trkpt>
      <trkpt lat="45.08875" lon="5.11739">
        <ele>197.95199584961</ele>
        <time>2010-06-13T15:20:42Z</time>
      </trkpt>
      <trkpt lat="45.08866" lon="5.1161">
        <ele>198.42100524902</ele>
        <time>2010-06-13T15:20:52Z</time>
      </trkpt>
      <trkpt lat="45.08858" lon="5.11521">
        <ele>197.65899658203</ele>
        <time>2010-06-13T15:20:59Z</time>
      </trkpt>
      <trkpt lat="45.08846" lon="5.11378">
        <ele>196.23399353027</ele>
        <time>2010-06-13T15:21:10Z</time>
      </trkpt>
      <trkpt lat="45.08832" lon="5.1122">
        <ele>195.43400573731</ele>
        <time>2010-06-13T15:21:22Z</time>
      </trkpt>
      <trkpt lat="45.08818" lon="5.11119">
        <ele>194.74600219727</ele>
        <time>2010-06-13T15:21:30Z</time>
      </trkpt>
      <trkpt lat="45.08798" lon="5.1101">
        <ele>194.93600463867</ele>
        <time>2010-06-13T15:21:39Z</time>
      </trkpt>
      <trkpt lat="45.08785" lon="5.10913">
        <ele>193.92900085449</ele>
        <time>2010-06-13T15:21:47Z</time>
      </trkpt>
      <trkpt lat="45.08781" lon="5.1082">
        <ele>194.27799987793</ele>
        <time>2010-06-13T15:21:55Z</time>
      </trkpt>
      <trkpt lat="45.08778" lon="5.10731">
        <ele>194.37699890137</ele>
        <time>2010-06-13T15:22:03Z</time>
      </trkpt>
      <trkpt lat="45.08767" lon="5.10653">
        <ele>194.32499694824</ele>
        <time>2010-06-13T15:22:10Z</time>
      </trkpt>
      <trkpt lat="45.08743" lon="5.10557">
        <ele>194.23199462891</ele>
        <time>2010-06-13T15:22:19Z</time>
      </trkpt>
      <trkpt lat="45.08719" lon="5.10463">
        <ele>195.26800537109</ele>
        <time>2010-06-13T15:22:28Z</time>
      </trkpt>
      <trkpt lat="45.08696" lon="5.10378">
        <ele>195.73599243164</ele>
        <time>2010-06-13T15:22:37Z</time>
      </trkpt>
      <trkpt lat="45.0867" lon="5.10289">
        <ele>196.00999450684</ele>
        <time>2010-06-13T15:22:46Z</time>
      </trkpt>
      <trkpt lat="45.08653" lon="5.10226">
        <ele>196.30000305176</ele>
        <time>2010-06-13T15:22:53Z</time>
      </trkpt>
      <trkpt lat="45.08643" lon="5.10176">
        <ele>197.11999511719</ele>
        <time>2010-06-13T15:22:59Z</time>
      </trkpt>
      <trkpt lat="45.08632" lon="5.10123">
        <ele>197.09800720215</ele>
        <time>2010-06-13T15:23:05Z</time>
      </trkpt>
      <trkpt lat="45.08616" lon="5.10054">
        <ele>196.31399536133</ele>
        <time>2010-06-13T15:23:12Z</time>
      </trkpt>
      <trkpt lat="45.08595" lon="5.09974">
        <ele>194.95799255371</ele>
        <time>2010-06-13T15:23:19Z</time>
      </trkpt>
      <trkpt lat="45.08565" lon="5.09864">
        <ele>194.83000183106</ele>
        <time>2010-06-13T15:23:28Z</time>
      </trkpt>
      <trkpt lat="45.08537" lon="5.09767">
        <ele>194.59300231934</ele>
        <time>2010-06-13T15:23:36Z</time>
      </trkpt>
      <trkpt lat="45.08508" lon="5.09688">
        <ele>193.26899719238</ele>
        <time>2010-06-13T15:23:43Z</time>
      </trkpt>
      <trkpt lat="45.08464" lon="5.09572">
        <ele>191.69000244141</ele>
        <time>2010-06-13T15:23:53Z</time>
      </trkpt>
      <trkpt lat="45.08458" lon="5.09522">
        <ele>191.78399658203</ele>
        <time>2010-06-13T15:23:57Z</time>
      </trkpt>
      <trkpt lat="45.08464" lon="5.09422">
        <ele>191.81700134277</ele>
        <time>2010-06-13T15:24:05Z</time>
      </trkpt>
      <trkpt lat="45.08479" lon="5.0933">
        <ele>191.9049987793</ele>
        <time>2010-06-13T15:24:13Z</time>
      </trkpt>
      <trkpt lat="45.08495" lon="5.09293">
        <ele>192.2799987793</ele>
        <time>2010-06-13T15:24:17Z</time>
      </trkpt>
      <trkpt lat="45.0852" lon="5.09257">
        <ele>193.36099243164</ele>
        <time>2010-06-13T15:24:22Z</time>
      </trkpt>
      <trkpt lat="45.08554" lon="5.09201">
        <ele>194.12899780273</ele>
        <time>2010-06-13T15:24:30Z</time>
      </trkpt>
      <trkpt lat="45.08569" lon="5.09151">
        <ele>195.18800354004</ele>
        <time>2010-06-13T15:24:36Z</time>
      </trkpt>
      <trkpt lat="45.08585" lon="5.09081">
        <ele>195.69299316406</ele>
        <time>2010-06-13T15:24:44Z</time>
      </trkpt>
      <trkpt lat="45.08607" lon="5.09016">
        <ele>196.42799377441</ele>
        <time>2010-06-13T15:24:52Z</time>
      </trkpt>
      <trkpt lat="45.0864" lon="5.08949">
        <ele>197.1549987793</ele>
        <time>2010-06-13T15:25:01Z</time>
      </trkpt>
      <trkpt lat="45.08669" lon="5.08887">
        <ele>197.81900024414</ele>
        <time>2010-06-13T15:25:09Z</time>
      </trkpt>
      <trkpt lat="45.0869" lon="5.08817">
        <ele>198.52000427246</ele>
        <time>2010-06-13T15:25:17Z</time>
      </trkpt>
      <trkpt lat="45.08712" lon="5.08736">
        <ele>200.11099243164</ele>
        <time>2010-06-13T15:25:26Z</time>
      </trkpt>
      <trkpt lat="45.08733" lon="5.0864">
        <ele>201.7200012207</ele>
        <time>2010-06-13T15:25:37Z</time>
      </trkpt>
      <trkpt lat="45.08737" lon="5.08623">
        <ele>201.96200561523</ele>
        <time>2010-06-13T15:25:39Z</time>
      </trkpt>
      <trkpt lat="45.08747" lon="5.086">
        <ele>202.45100402832</ele>
        <time>2010-06-13T15:25:42Z</time>
      </trkpt>
      <trkpt lat="45.08751" lon="5.08568">
        <ele>203.61399841309</ele>
        <time>2010-06-13T15:25:46Z</time>
      </trkpt>
      <trkpt lat="45.08748" lon="5.08513">
        <ele>203.73199462891</ele>
        <time>2010-06-13T15:25:52Z</time>
      </trkpt>
      <trkpt lat="45.08759" lon="5.08424">
        <ele>206.96299743652</ele>
        <time>2010-06-13T15:26:02Z</time>
      </trkpt>
      <trkpt lat="45.0876" lon="5.08415">
        <ele>207.2559967041</ele>
        <time>2010-06-13T15:26:03Z</time>
      </trkpt>
      <trkpt lat="45.08767" lon="5.08362">
        <ele>208.42199707031</ele>
        <time>2010-06-13T15:26:09Z</time>
      </trkpt>
      <trkpt lat="45.08775" lon="5.083">
        <ele>211.11000061035</ele>
        <time>2010-06-13T15:26:17Z</time>
      </trkpt>
      <trkpt lat="45.08784" lon="5.08238">
        <ele>213.68699645996</ele>
        <time>2010-06-13T15:26:26Z</time>
      </trkpt>
      <trkpt lat="45.0879" lon="5.08199">
        <ele>214.97399902344</ele>
        <time>2010-06-13T15:26:33Z</time>
      </trkpt>
      <trkpt lat="45.08799" lon="5.08154">
        <ele>216.36500549316</ele>
        <time>2010-06-13T15:26:41Z</time>
      </trkpt>
      <trkpt lat="45.08807" lon="5.08108">
        <ele>218.15600585938</ele>
        <time>2010-06-13T15:26:49Z</time>
      </trkpt>
      <trkpt lat="45.08817" lon="5.08063">
        <ele>219.47200012207</ele>
        <time>2010-06-13T15:26:57Z</time>
      </trkpt>
      <trkpt lat="45.08825" lon="5.08021">
        <ele>220.54200744629</ele>
        <time>2010-06-13T15:27:04Z</time>
      </trkpt>
      <trkpt lat="45.08833" lon="5.07974">
        <ele>222.14100646973</ele>
        <time>2010-06-13T15:27:12Z</time>
      </trkpt>
      <trkpt lat="45.08846" lon="5.07918">
        <ele>223.69599914551</ele>
        <time>2010-06-13T15:27:22Z</time>
      </trkpt>
      <trkpt lat="45.08855" lon="5.07892">
        <ele>224.33200073242</ele>
        <time>2010-06-13T15:27:27Z</time>
      </trkpt>
      <trkpt lat="45.08879" lon="5.07857">
        <ele>225.97200012207</ele>
        <time>2010-06-13T15:27:35Z</time>
      </trkpt>
      <trkpt lat="45.08887" lon="5.0785">
        <ele>226.14199829102</ele>
        <time>2010-06-13T15:27:37Z</time>
      </trkpt>
      <trkpt lat="45.08919" lon="5.07828">
        <ele>227.33399963379</ele>
        <time>2010-06-13T15:27:45Z</time>
      </trkpt>
      <trkpt lat="45.0895" lon="5.07809">
        <ele>228.66400146484</ele>
        <time>2010-06-13T15:27:52Z</time>
      </trkpt>
      <trkpt lat="45.08984" lon="5.07788">
        <ele>229.25199890137</ele>
        <time>2010-06-13T15:27:59Z</time>
      </trkpt>
      <trkpt lat="45.09037" lon="5.07749">
        <ele>230.37300109863</ele>
        <time>2010-06-13T15:28:10Z</time>
      </trkpt>
      <trkpt lat="45.09071" lon="5.07715">
        <ele>229.63000488281</ele>
        <time>2010-06-13T15:28:17Z</time>
      </trkpt>
      <trkpt lat="45.09118" lon="5.07668">
        <ele>228.4049987793</ele>
        <time>2010-06-13T15:28:25Z</time>
      </trkpt>
      <trkpt lat="45.09144" lon="5.07627">
        <ele>226.61500549316</ele>
        <time>2010-06-13T15:28:30Z</time>
      </trkpt>
      <trkpt lat="45.09148" lon="5.07617">
        <ele>226.45799255371</ele>
        <time>2010-06-13T15:28:31Z</time>
      </trkpt>
      <trkpt lat="45.09184" lon="5.07541">
        <ele>225.11500549316</ele>
        <time>2010-06-13T15:28:39Z</time>
      </trkpt>
      <trkpt lat="45.0921" lon="5.07485">
        <ele>224.2559967041</ele>
        <time>2010-06-13T15:28:45Z</time>
      </trkpt>
      <trkpt lat="45.09253" lon="5.07394">
        <ele>222.62399291992</ele>
        <time>2010-06-13T15:28:54Z</time>
      </trkpt>
      <trkpt lat="45.09297" lon="5.07301">
        <ele>221.93499755859</ele>
        <time>2010-06-13T15:29:03Z</time>
      </trkpt>
      <trkpt lat="45.09328" lon="5.07232">
        <ele>222.50199890137</ele>
        <time>2010-06-13T15:29:10Z</time>
      </trkpt>
      <trkpt lat="45.09333" lon="5.07224">
        <ele>222.75500488281</ele>
        <time>2010-06-13T15:29:11Z</time>
      </trkpt>
      <trkpt lat="45.09357" lon="5.07198">
        <ele>223.36999511719</ele>
        <time>2010-06-13T15:29:15Z</time>
      </trkpt>
      <trkpt lat="45.09371" lon="5.07189">
        <ele>223.44299316406</ele>
        <time>2010-06-13T15:29:17Z</time>
      </trkpt>
      <trkpt lat="45.09388" lon="5.07154">
        <ele>222.89500427246</ele>
        <time>2010-06-13T15:29:21Z</time>
      </trkpt>
      <trkpt lat="45.09389" lon="5.0713">
        <ele>222.46699523926</ele>
        <time>2010-06-13T15:29:23Z</time>
      </trkpt>
      <trkpt lat="45.09383" lon="5.07027">
        <ele>220.22700500488</ele>
        <time>2010-06-13T15:29:31Z</time>
      </trkpt>
      <trkpt lat="45.09378" lon="5.06934">
        <ele>218.09800720215</ele>
        <time>2010-06-13T15:29:38Z</time>
      </trkpt>
      <trkpt lat="45.09372" lon="5.06824">
        <ele>216.77099609375</ele>
        <time>2010-06-13T15:29:46Z</time>
      </trkpt>
      <trkpt lat="45.09369" lon="5.06716">
        <ele>215.69599914551</ele>
        <time>2010-06-13T15:29:54Z</time>
      </trkpt>
      <trkpt lat="45.09379" lon="5.06609">
        <ele>214.21600341797</ele>
        <time>2010-06-13T15:30:02Z</time>
      </trkpt>
      <trkpt lat="45.09381" lon="5.06528">
        <ele>213.81900024414</ele>
        <time>2010-06-13T15:30:08Z</time>
      </trkpt>
      <trkpt lat="45.09375" lon="5.06422">
        <ele>212.96000671387</ele>
        <time>2010-06-13T15:30:16Z</time>
      </trkpt>
      <trkpt lat="45.09371" lon="5.06303">
        <ele>212.36599731445</ele>
        <time>2010-06-13T15:30:25Z</time>
      </trkpt>
      <trkpt lat="45.09369" lon="5.06198">
        <ele>210.93099975586</ele>
        <time>2010-06-13T15:30:33Z</time>
      </trkpt>
      <trkpt lat="45.09367" lon="5.06111">
        <ele>209.46600341797</ele>
        <time>2010-06-13T15:30:40Z</time>
      </trkpt>
      <trkpt lat="45.09368" lon="5.06045">
        <ele>209.08700561523</ele>
        <time>2010-06-13T15:30:46Z</time>
      </trkpt>
      <trkpt lat="45.09375" lon="5.05967">
        <ele>209.23300170898</ele>
        <time>2010-06-13T15:30:53Z</time>
      </trkpt>
      <trkpt lat="45.09385" lon="5.05881">
        <ele>209.09599304199</ele>
        <time>2010-06-13T15:31:01Z</time>
      </trkpt>
      <trkpt lat="45.09401" lon="5.0581">
        <ele>209.34899902344</ele>
        <time>2010-06-13T15:31:08Z</time>
      </trkpt>
      <trkpt lat="45.09422" lon="5.05733">
        <ele>209.97200012207</ele>
        <time>2010-06-13T15:31:16Z</time>
      </trkpt>
      <trkpt lat="45.0943" lon="5.05667">
        <ele>210.62699890137</ele>
        <time>2010-06-13T15:31:23Z</time>
      </trkpt>
      <trkpt lat="45.09437" lon="5.05598">
        <ele>211.6130065918</ele>
        <time>2010-06-13T15:31:31Z</time>
      </trkpt>
      <trkpt lat="45.09437" lon="5.05589">
        <ele>211.61799621582</ele>
        <time>2010-06-13T15:31:32Z</time>
      </trkpt>
      <trkpt lat="45.09431" lon="5.05509">
        <ele>210.94999694824</ele>
        <time>2010-06-13T15:31:40Z</time>
      </trkpt>
      <trkpt lat="45.09424" lon="5.05434">
        <ele>210.25500488281</ele>
        <time>2010-06-13T15:31:47Z</time>
      </trkpt>
      <trkpt lat="45.09412" lon="5.05382">
        <ele>210.11999511719</ele>
        <time>2010-06-13T15:31:52Z</time>
      </trkpt>
      <trkpt lat="45.09384" lon="5.05312">
        <ele>208.94500732422</ele>
        <time>2010-06-13T15:31:59Z</time>
      </trkpt>
      <trkpt lat="45.09349" lon="5.05249">
        <ele>209.05999755859</ele>
        <time>2010-06-13T15:32:06Z</time>
      </trkpt>
      <trkpt lat="45.09308" lon="5.05182">
        <ele>209.54299926758</ele>
        <time>2010-06-13T15:32:14Z</time>
      </trkpt>
      <trkpt lat="45.09275" lon="5.05122">
        <ele>209.84599304199</ele>
        <time>2010-06-13T15:32:21Z</time>
      </trkpt>
      <trkpt lat="45.09251" lon="5.05064">
        <ele>208.14399719238</ele>
        <time>2010-06-13T15:32:27Z</time>
      </trkpt>
      <trkpt lat="45.09241" lon="5.05032">
        <ele>207.21099853516</ele>
        <time>2010-06-13T15:32:30Z</time>
      </trkpt>
      <trkpt lat="45.0924" lon="5.04986">
        <ele>206.07099914551</ele>
        <time>2010-06-13T15:32:34Z</time>
      </trkpt>
      <trkpt lat="45.09252" lon="5.04956">
        <ele>204.91299438477</ele>
        <time>2010-06-13T15:32:37Z</time>
      </trkpt>
      <trkpt lat="45.09259" lon="5.04947">
        <ele>204.69200134277</ele>
        <time>2010-06-13T15:32:38Z</time>
      </trkpt>
      <trkpt lat="45.09283" lon="5.04913">
        <ele>204.16000366211</ele>
        <time>2010-06-13T15:32:42Z</time>
      </trkpt>
      <trkpt lat="45.09299" lon="5.04872">
        <ele>202.99099731445</ele>
        <time>2010-06-13T15:32:46Z</time>
      </trkpt>
      <trkpt lat="45.09302" lon="5.04849">
        <ele>202.42700195312</ele>
        <time>2010-06-13T15:32:48Z</time>
      </trkpt>
      <trkpt lat="45.09306" lon="5.04808">
        <ele>202.23699951172</ele>
        <time>2010-06-13T15:32:52Z</time>
      </trkpt>
      <trkpt lat="45.09307" lon="5.0477">
        <ele>202.91200256348</ele>
        <time>2010-06-13T15:32:56Z</time>
      </trkpt>
      <trkpt lat="45.09319" lon="5.04742">
        <ele>202.50799560547</ele>
        <time>2010-06-13T15:33:00Z</time>
      </trkpt>
      <trkpt lat="45.09352" lon="5.04711">
        <ele>202.75399780273</ele>
        <time>2010-06-13T15:33:06Z</time>
      </trkpt>
      <trkpt lat="45.09371" lon="5.04696">
        <ele>202.85299682617</ele>
        <time>2010-06-13T15:33:09Z</time>
      </trkpt>
      <trkpt lat="45.09402" lon="5.0468">
        <ele>204.62100219727</ele>
        <time>2010-06-13T15:33:14Z</time>
      </trkpt>
      <trkpt lat="45.09426" lon="5.0467">
        <ele>204.67900085449</ele>
        <time>2010-06-13T15:33:18Z</time>
      </trkpt>
      <trkpt lat="45.09471" lon="5.0465">
        <ele>206.43499755859</ele>
        <time>2010-06-13T15:33:26Z</time>
      </trkpt>
      <trkpt lat="45.09509" lon="5.04633">
        <ele>207.56500244141</ele>
        <time>2010-06-13T15:33:33Z</time>
      </trkpt>
      <trkpt lat="45.0953" lon="5.04624">
        <ele>208.26300048828</ele>
        <time>2010-06-13T15:33:37Z</time>
      </trkpt>
      <trkpt lat="45.09566" lon="5.04597">
        <ele>208.86099243164</ele>
        <time>2010-06-13T15:33:44Z</time>
      </trkpt>
      <trkpt lat="45.09571" lon="5.04593">
        <ele>209.03799438477</ele>
        <time>2010-06-13T15:33:45Z</time>
      </trkpt>
      <trkpt lat="45.09591" lon="5.04555">
        <ele>210.36799621582</ele>
        <time>2010-06-13T15:33:51Z</time>
      </trkpt>
      <trkpt lat="45.09594" lon="5.04548">
        <ele>210.60400390625</ele>
        <time>2010-06-13T15:33:52Z</time>
      </trkpt>
      <trkpt lat="45.09613" lon="5.04524">
        <ele>211.65600585938</ele>
        <time>2010-06-13T15:33:57Z</time>
      </trkpt>
      <trkpt lat="45.09625" lon="5.04501">
        <ele>211.61500549316</ele>
        <time>2010-06-13T15:34:01Z</time>
      </trkpt>
      <trkpt lat="45.09624" lon="5.04494">
        <ele>211.87100219727</ele>
        <time>2010-06-13T15:34:02Z</time>
      </trkpt>
      <trkpt lat="45.09626" lon="5.04459">
        <ele>212.95599365234</ele>
        <time>2010-06-13T15:34:07Z</time>
      </trkpt>
      <trkpt lat="45.09641" lon="5.04409">
        <ele>214.07099914551</ele>
        <time>2010-06-13T15:34:15Z</time>
      </trkpt>
      <trkpt lat="45.09657" lon="5.04365">
        <ele>214.91799926758</ele>
        <time>2010-06-13T15:34:22Z</time>
      </trkpt>
      <trkpt lat="45.09674" lon="5.04333">
        <ele>214.09199523926</ele>
        <time>2010-06-13T15:34:27Z</time>
      </trkpt>
      <trkpt lat="45.09715" lon="5.04288">
        <ele>212.82800292969</ele>
        <time>2010-06-13T15:34:35Z</time>
      </trkpt>
      <trkpt lat="45.09763" lon="5.0424">
        <ele>211.87699890137</ele>
        <time>2010-06-13T15:34:43Z</time>
      </trkpt>
      <trkpt lat="45.09817" lon="5.04186">
        <ele>211.85400390625</ele>
        <time>2010-06-13T15:34:52Z</time>
      </trkpt>
      <trkpt lat="45.0985" lon="5.04149">
        <ele>211.69000244141</ele>
        <time>2010-06-13T15:34:58Z</time>
      </trkpt>
      <trkpt lat="45.0987" lon="5.04106">
        <ele>211.30299377441</ele>
        <time>2010-06-13T15:35:03Z</time>
      </trkpt>
      <trkpt lat="45.09887" lon="5.04024">
        <ele>211.11199951172</ele>
        <time>2010-06-13T15:35:11Z</time>
      </trkpt>
      <trkpt lat="45.09883" lon="5.03971">
        <ele>211.18699645996</ele>
        <time>2010-06-13T15:35:16Z</time>
      </trkpt>
      <trkpt lat="45.0988" lon="5.03961">
        <ele>211.26699829102</ele>
        <time>2010-06-13T15:35:17Z</time>
      </trkpt>
      <trkpt lat="45.09846" lon="5.03874">
        <ele>211.93899536133</ele>
        <time>2010-06-13T15:35:26Z</time>
      </trkpt>
      <trkpt lat="45.09817" lon="5.03796">
        <ele>211.78100585938</ele>
        <time>2010-06-13T15:35:34Z</time>
      </trkpt>
      <trkpt lat="45.09803" lon="5.03736">
        <ele>213.0299987793</ele>
        <time>2010-06-13T15:35:40Z</time>
      </trkpt>
      <trkpt lat="45.09798" lon="5.0371">
        <ele>213.97300720215</ele>
        <time>2010-06-13T15:35:43Z</time>
      </trkpt>
      <trkpt lat="45.09791" lon="5.03667">
        <ele>215.20700073242</ele>
        <time>2010-06-13T15:35:49Z</time>
      </trkpt>
      <trkpt lat="45.09787" lon="5.03631">
        <ele>215.87800598144</ele>
        <time>2010-06-13T15:35:54Z</time>
      </trkpt>
      <trkpt lat="45.09788" lon="5.03615">
        <ele>216.05599975586</ele>
        <time>2010-06-13T15:35:56Z</time>
      </trkpt>
      <trkpt lat="45.09802" lon="5.03565">
        <ele>215.27099609375</ele>
        <time>2010-06-13T15:36:02Z</time>
      </trkpt>
      <trkpt lat="45.09842" lon="5.03501">
        <ele>213.99299621582</ele>
        <time>2010-06-13T15:36:10Z</time>
      </trkpt>
      <trkpt lat="45.09893" lon="5.0342">
        <ele>213.33099365234</ele>
        <time>2010-06-13T15:36:20Z</time>
      </trkpt>
      <trkpt lat="45.09908" lon="5.03374">
        <ele>214.46499633789</ele>
        <time>2010-06-13T15:36:25Z</time>
      </trkpt>
      <trkpt lat="45.09921" lon="5.03327">
        <ele>216.09700012207</ele>
        <time>2010-06-13T15:36:31Z</time>
      </trkpt>
      <trkpt lat="45.09933" lon="5.03286">
        <ele>217.56700134277</ele>
        <time>2010-06-13T15:36:37Z</time>
      </trkpt>
      <trkpt lat="45.09945" lon="5.03244">
        <ele>219.55999755859</ele>
        <time>2010-06-13T15:36:44Z</time>
      </trkpt>
      <trkpt lat="45.09962" lon="5.03187">
        <ele>221.38600158691</ele>
        <time>2010-06-13T15:36:53Z</time>
      </trkpt>
      <trkpt lat="45.09975" lon="5.03138">
        <ele>222.54100036621</ele>
        <time>2010-06-13T15:37:00Z</time>
      </trkpt>
      <trkpt lat="45.09977" lon="5.03131">
        <ele>222.76100158691</ele>
        <time>2010-06-13T15:37:01Z</time>
      </trkpt>
      <trkpt lat="45.09992" lon="5.03076">
        <ele>223.35699462891</ele>
        <time>2010-06-13T15:37:09Z</time>
      </trkpt>
      <trkpt lat="45.10004" lon="5.03032">
        <ele>224.43800354004</ele>
        <time>2010-06-13T15:37:16Z</time>
      </trkpt>
      <trkpt lat="45.10011" lon="5.03006">
        <ele>225.6309967041</ele>
        <time>2010-06-13T15:37:20Z</time>
      </trkpt>
      <trkpt lat="45.10029" lon="5.02944">
        <ele>227.88000488281</ele>
        <time>2010-06-13T15:37:30Z</time>
      </trkpt>
      <trkpt lat="45.10044" lon="5.02894">
        <ele>230.24099731445</ele>
        <time>2010-06-13T15:37:39Z</time>
      </trkpt>
      <trkpt lat="45.10055" lon="5.0286">
        <ele>232.10600280762</ele>
        <time>2010-06-13T15:37:46Z</time>
      </trkpt>
      <trkpt lat="45.10061" lon="5.02828">
        <ele>233.79600524902</ele>
        <time>2010-06-13T15:37:52Z</time>
      </trkpt>
      <trkpt lat="45.10068" lon="5.02805">
        <ele>234.42599487305</ele>
        <time>2010-06-13T15:37:56Z</time>
      </trkpt>
      <trkpt lat="45.10071" lon="5.02766">
        <ele>236.18899536133</ele>
        <time>2010-06-13T15:38:02Z</time>
      </trkpt>
      <trkpt lat="45.1007" lon="5.0276">
        <ele>236.4880065918</ele>
        <time>2010-06-13T15:38:03Z</time>
      </trkpt>
      <trkpt lat="45.10066" lon="5.02745">
        <ele>236.96299743652</ele>
        <time>2010-06-13T15:38:05Z</time>
      </trkpt>
      <trkpt lat="45.10041" lon="5.02704">
        <ele>239.88499450684</ele>
        <time>2010-06-13T15:38:12Z</time>
      </trkpt>
      <trkpt lat="45.10036" lon="5.02699">
        <ele>240.1549987793</ele>
        <time>2010-06-13T15:38:13Z</time>
      </trkpt>
      <trkpt lat="45.10023" lon="5.02682">
        <ele>241.33000183106</ele>
        <time>2010-06-13T15:38:16Z</time>
      </trkpt>
      <trkpt lat="45.10015" lon="5.02671">
        <ele>241.97200012207</ele>
        <time>2010-06-13T15:38:18Z</time>
      </trkpt>
      <trkpt lat="45.09998" lon="5.02644">
        <ele>243.75</ele>
        <time>2010-06-13T15:38:23Z</time>
      </trkpt>
      <trkpt lat="45.09988" lon="5.02622">
        <ele>244.85899353027</ele>
        <time>2010-06-13T15:38:27Z</time>
      </trkpt>
      <trkpt lat="45.09976" lon="5.0259">
        <ele>246.76899719238</ele>
        <time>2010-06-13T15:38:33Z</time>
      </trkpt>
      <trkpt lat="45.09969" lon="5.02569">
        <ele>248.05200195312</ele>
        <time>2010-06-13T15:38:38Z</time>
      </trkpt>
      <trkpt lat="45.09956" lon="5.02548">
        <ele>249.1369934082</ele>
        <time>2010-06-13T15:38:44Z</time>
      </trkpt>
      <trkpt lat="45.0994" lon="5.02527">
        <ele>250.23399353027</ele>
        <time>2010-06-13T15:38:50Z</time>
      </trkpt>
      <trkpt lat="45.0992" lon="5.02494">
        <ele>252.41799926758</ele>
        <time>2010-06-13T15:38:58Z</time>
      </trkpt>
      <trkpt lat="45.09907" lon="5.02461">
        <ele>254.14599609375</ele>
        <time>2010-06-13T15:39:05Z</time>
      </trkpt>
      <trkpt lat="45.09894" lon="5.02435">
        <ele>255.58000183106</ele>
        <time>2010-06-13T15:39:11Z</time>
      </trkpt>
      <trkpt lat="45.09881" lon="5.02401">
        <ele>257.00500488281</ele>
        <time>2010-06-13T15:39:18Z</time>
      </trkpt>
      <trkpt lat="45.09871" lon="5.02372">
        <ele>257.67498779297</ele>
        <time>2010-06-13T15:39:24Z</time>
      </trkpt>
      <trkpt lat="45.0986" lon="5.02329">
        <ele>256.71200561523</ele>
        <time>2010-06-13T15:39:31Z</time>
      </trkpt>
      <trkpt lat="45.09849" lon="5.02288">
        <ele>254.87600708008</ele>
        <time>2010-06-13T15:39:36Z</time>
      </trkpt>
      <trkpt lat="45.09847" lon="5.02233">
        <ele>252.46299743652</ele>
        <time>2010-06-13T15:39:41Z</time>
      </trkpt>
      <trkpt lat="45.09853" lon="5.02209">
        <ele>251.03100585938</ele>
        <time>2010-06-13T15:39:43Z</time>
      </trkpt>
      <trkpt lat="45.09867" lon="5.02173">
        <ele>249.30000305176</ele>
        <time>2010-06-13T15:39:46Z</time>
      </trkpt>
      <trkpt lat="45.09891" lon="5.02107">
        <ele>246.0299987793</ele>
        <time>2010-06-13T15:39:51Z</time>
      </trkpt>
      <trkpt lat="45.09911" lon="5.0205">
        <ele>243.55799865723</ele>
        <time>2010-06-13T15:39:55Z</time>
      </trkpt>
      <trkpt lat="45.09956" lon="5.01923">
        <ele>239.47399902344</ele>
        <time>2010-06-13T15:40:04Z</time>
      </trkpt>
      <trkpt lat="45.10011" lon="5.01764">
        <ele>236.70700073242</ele>
        <time>2010-06-13T15:40:15Z</time>
      </trkpt>
      <trkpt lat="45.10026" lon="5.01721">
        <ele>235.3869934082</ele>
        <time>2010-06-13T15:40:18Z</time>
      </trkpt>
      <trkpt lat="45.10044" lon="5.01663">
        <ele>233.55900573731</ele>
        <time>2010-06-13T15:40:22Z</time>
      </trkpt>
      <trkpt lat="45.10056" lon="5.01595">
        <ele>234.75999450684</ele>
        <time>2010-06-13T15:40:27Z</time>
      </trkpt>
      <trkpt lat="45.10064" lon="5.01507">
        <ele>235.94400024414</ele>
        <time>2010-06-13T15:40:34Z</time>
      </trkpt>
      <trkpt lat="45.10072" lon="5.01398">
        <ele>236.85299682617</ele>
        <time>2010-06-13T15:40:43Z</time>
      </trkpt>
      <trkpt lat="45.10077" lon="5.01351">
        <ele>236.92199707031</ele>
        <time>2010-06-13T15:40:47Z</time>
      </trkpt>
      <trkpt lat="45.10077" lon="5.0134">
        <ele>237.05999755859</ele>
        <time>2010-06-13T15:40:48Z</time>
      </trkpt>
      <trkpt lat="45.10086" lon="5.01249">
        <ele>237.32499694824</ele>
        <time>2010-06-13T15:40:56Z</time>
      </trkpt>
      <trkpt lat="45.10099" lon="5.0117">
        <ele>236.49899291992</ele>
        <time>2010-06-13T15:41:03Z</time>
      </trkpt>
      <trkpt lat="45.10122" lon="5.01109">
        <ele>235.64300537109</ele>
        <time>2010-06-13T15:41:09Z</time>
      </trkpt>
      <trkpt lat="45.10154" lon="5.01056">
        <ele>235.20899963379</ele>
        <time>2010-06-13T15:41:15Z</time>
      </trkpt>
      <trkpt lat="45.1021" lon="5.00974">
        <ele>233.98599243164</ele>
        <time>2010-06-13T15:41:24Z</time>
      </trkpt>
      <trkpt lat="45.10255" lon="5.00926">
        <ele>232.60899353027</ele>
        <time>2010-06-13T15:41:30Z</time>
      </trkpt>
      <trkpt lat="45.10337" lon="5.00859">
        <ele>231.38299560547</ele>
        <time>2010-06-13T15:41:40Z</time>
      </trkpt>
      <trkpt lat="45.10401" lon="5.0081">
        <ele>230.56300354004</ele>
        <time>2010-06-13T15:41:48Z</time>
      </trkpt>
      <trkpt lat="45.10459" lon="5.00765">
        <ele>230.72599792481</ele>
        <time>2010-06-13T15:41:56Z</time>
      </trkpt>
      <trkpt lat="45.10503" lon="5.0073">
        <ele>231.92999267578</ele>
        <time>2010-06-13T15:42:03Z</time>
      </trkpt>
      <trkpt lat="45.10541" lon="5.00697">
        <ele>233.98899841309</ele>
        <time>2010-06-13T15:42:10Z</time>
      </trkpt>
      <trkpt lat="45.1058" lon="5.00667">
        <ele>235.49800109863</ele>
        <time>2010-06-13T15:42:18Z</time>
      </trkpt>
      <trkpt lat="45.10621" lon="5.00635">
        <ele>237.85899353027</ele>
        <time>2010-06-13T15:42:27Z</time>
      </trkpt>
      <trkpt lat="45.10643" lon="5.00621">
        <ele>238.93800354004</ele>
        <time>2010-06-13T15:42:32Z</time>
      </trkpt>
      <trkpt lat="45.1068" lon="5.00602">
        <ele>241.63499450684</ele>
        <time>2010-06-13T15:42:41Z</time>
      </trkpt>
      <trkpt lat="45.1071" lon="5.00592">
        <ele>243.15100097656</ele>
        <time>2010-06-13T15:42:48Z</time>
      </trkpt>
      <trkpt lat="45.10742" lon="5.00587">
        <ele>244.93800354004</ele>
        <time>2010-06-13T15:42:56Z</time>
      </trkpt>
      <trkpt lat="45.10768" lon="5.00583">
        <ele>246.84399414062</ele>
        <time>2010-06-13T15:43:03Z</time>
      </trkpt>
      <trkpt lat="45.10793" lon="5.00581">
        <ele>248.60499572754</ele>
        <time>2010-06-13T15:43:10Z</time>
      </trkpt>
      <trkpt lat="45.10822" lon="5.00577">
        <ele>250.62199401856</ele>
        <time>2010-06-13T15:43:18Z</time>
      </trkpt>
      <trkpt lat="45.10847" lon="5.00574">
        <ele>252.18499755859</ele>
        <time>2010-06-13T15:43:25Z</time>
      </trkpt>
      <trkpt lat="45.10879" lon="5.00567">
        <ele>253.77699279785</ele>
        <time>2010-06-13T15:43:34Z</time>
      </trkpt>
      <trkpt lat="45.10907" lon="5.00556">
        <ele>254.58399963379</ele>
        <time>2010-06-13T15:43:41Z</time>
      </trkpt>
      <trkpt lat="45.10933" lon="5.00542">
        <ele>255.43200683594</ele>
        <time>2010-06-13T15:43:48Z</time>
      </trkpt>
      <trkpt lat="45.10962" lon="5.00521">
        <ele>254.69500732422</ele>
        <time>2010-06-13T15:43:55Z</time>
      </trkpt>
      <trkpt lat="45.10996" lon="5.00496">
        <ele>252.81300354004</ele>
        <time>2010-06-13T15:44:01Z</time>
      </trkpt>
      <trkpt lat="45.11039" lon="5.00465">
        <ele>250.50300598144</ele>
        <time>2010-06-13T15:44:07Z</time>
      </trkpt>
      <trkpt lat="45.11091" lon="5.00432">
        <ele>247.86199951172</ele>
        <time>2010-06-13T15:44:13Z</time>
      </trkpt>
      <trkpt lat="45.11161" lon="5.00394">
        <ele>243.33799743652</ele>
        <time>2010-06-13T15:44:20Z</time>
      </trkpt>
      <trkpt lat="45.11235" lon="5.00356">
        <ele>239.03500366211</ele>
        <time>2010-06-13T15:44:27Z</time>
      </trkpt>
      <trkpt lat="45.11317" lon="5.00302">
        <ele>236.79200744629</ele>
        <time>2010-06-13T15:44:35Z</time>
      </trkpt>
      <trkpt lat="45.11367" lon="5.00262">
        <ele>235.24899291992</ele>
        <time>2010-06-13T15:44:40Z</time>
      </trkpt>
      <trkpt lat="45.11427" lon="5.00206">
        <ele>235.31799316406</ele>
        <time>2010-06-13T15:44:47Z</time>
      </trkpt>
      <trkpt lat="45.11489" lon="5.00148">
        <ele>235.52799987793</ele>
        <time>2010-06-13T15:44:55Z</time>
      </trkpt>
      <trkpt lat="45.11552" lon="5.00086">
        <ele>235.56500244141</ele>
        <time>2010-06-13T15:45:04Z</time>
      </trkpt>
      <trkpt lat="45.11598" lon="5.00032">
        <ele>234.80499267578</ele>
        <time>2010-06-13T15:45:11Z</time>
      </trkpt>
      <trkpt lat="45.11652" lon="4.9996">
        <ele>231.26499938965</ele>
        <time>2010-06-13T15:45:19Z</time>
      </trkpt>
      <trkpt lat="45.11696" lon="4.99924">
        <ele>228.24800109863</ele>
        <time>2010-06-13T15:45:24Z</time>
      </trkpt>
      <trkpt lat="45.11751" lon="4.99899">
        <ele>224.68400573731</ele>
        <time>2010-06-13T15:45:29Z</time>
      </trkpt>
      <trkpt lat="45.11826" lon="4.99869">
        <ele>218.80999755859</ele>
        <time>2010-06-13T15:45:35Z</time>
      </trkpt>
      <trkpt lat="45.11888" lon="4.99832">
        <ele>214.72300720215</ele>
        <time>2010-06-13T15:45:40Z</time>
      </trkpt>
      <trkpt lat="45.119" lon="4.99821">
        <ele>214.42900085449</ele>
        <time>2010-06-13T15:45:41Z</time>
      </trkpt>
      <trkpt lat="45.11942" lon="4.99773">
        <ele>211.19500732422</ele>
        <time>2010-06-13T15:45:45Z</time>
      </trkpt>
      <trkpt lat="45.11951" lon="4.99759">
        <ele>211.10099792481</ele>
        <time>2010-06-13T15:45:46Z</time>
      </trkpt>
      <trkpt lat="45.1199" lon="4.9969">
        <ele>211.36000061035</ele>
        <time>2010-06-13T15:45:51Z</time>
      </trkpt>
      <trkpt lat="45.1203" lon="4.99616">
        <ele>212.75700378418</ele>
        <time>2010-06-13T15:45:57Z</time>
      </trkpt>
      <trkpt lat="45.12073" lon="4.9954">
        <ele>212.52900695801</ele>
        <time>2010-06-13T15:46:04Z</time>
      </trkpt>
      <trkpt lat="45.12125" lon="4.99441">
        <ele>211.10499572754</ele>
        <time>2010-06-13T15:46:13Z</time>
      </trkpt>
      <trkpt lat="45.12145" lon="4.9938">
        <ele>211.16900634766</ele>
        <time>2010-06-13T15:46:18Z</time>
      </trkpt>
      <trkpt lat="45.12166" lon="4.99298">
        <ele>211.34800720215</ele>
        <time>2010-06-13T15:46:25Z</time>
      </trkpt>
      <trkpt lat="45.12195" lon="4.99185">
        <ele>212.27600097656</ele>
        <time>2010-06-13T15:46:35Z</time>
      </trkpt>
      <trkpt lat="45.12214" lon="4.99111">
        <ele>213.125</ele>
        <time>2010-06-13T15:46:42Z</time>
      </trkpt>
      <trkpt lat="45.12217" lon="4.99101">
        <ele>213.43699645996</ele>
        <time>2010-06-13T15:46:43Z</time>
      </trkpt>
      <trkpt lat="45.12233" lon="4.9907">
        <ele>214.37899780273</ele>
        <time>2010-06-13T15:46:47Z</time>
      </trkpt>
      <trkpt lat="45.12234" lon="4.99044">
        <ele>215.56199645996</ele>
        <time>2010-06-13T15:46:50Z</time>
      </trkpt>
      <trkpt lat="45.12222" lon="4.99036">
        <ele>215.56399536133</ele>
        <time>2010-06-13T15:46:52Z</time>
      </trkpt>
      <trkpt lat="45.12206" lon="4.99033">
        <ele>214.85200500488</ele>
        <time>2010-06-13T15:46:54Z</time>
      </trkpt>
      <trkpt lat="45.12175" lon="4.99007">
        <ele>212.14100646973</ele>
        <time>2010-06-13T15:46:58Z</time>
      </trkpt>
      <trkpt lat="45.12136" lon="4.98958">
        <ele>209.43200683594</ele>
        <time>2010-06-13T15:47:03Z</time>
      </trkpt>
      <trkpt lat="45.12128" lon="4.98947">
        <ele>209.16000366211</ele>
        <time>2010-06-13T15:47:04Z</time>
      </trkpt>
      <trkpt lat="45.12088" lon="4.98874">
        <ele>207.59199523926</ele>
        <time>2010-06-13T15:47:10Z</time>
      </trkpt>
      <trkpt lat="45.12056" lon="4.98796">
        <ele>207.2799987793</ele>
        <time>2010-06-13T15:47:16Z</time>
      </trkpt>
      <trkpt lat="45.12034" lon="4.98713">
        <ele>206.78100585938</ele>
        <time>2010-06-13T15:47:22Z</time>
      </trkpt>
      <trkpt lat="45.1202" lon="4.98617">
        <ele>206.45700073242</ele>
        <time>2010-06-13T15:47:29Z</time>
      </trkpt>
      <trkpt lat="45.12019" lon="4.98526">
        <ele>207.1190032959</ele>
        <time>2010-06-13T15:47:36Z</time>
      </trkpt>
      <trkpt lat="45.12026" lon="4.98467">
        <ele>207.01699829102</ele>
        <time>2010-06-13T15:47:41Z</time>
      </trkpt>
      <trkpt lat="45.12029" lon="4.98457">
        <ele>207.09800720215</ele>
        <time>2010-06-13T15:47:42Z</time>
      </trkpt>
      <trkpt lat="45.1205" lon="4.98409">
        <ele>207.39399719238</ele>
        <time>2010-06-13T15:47:47Z</time>
      </trkpt>
      <trkpt lat="45.12051" lon="4.98376">
        <ele>207.56199645996</ele>
        <time>2010-06-13T15:47:50Z</time>
      </trkpt>
      <trkpt lat="45.12053" lon="4.98353">
        <ele>207.27400207519</ele>
        <time>2010-06-13T15:47:52Z</time>
      </trkpt>
      <trkpt lat="45.12067" lon="4.9828">
        <ele>205.61199951172</ele>
        <time>2010-06-13T15:47:58Z</time>
      </trkpt>
      <trkpt lat="45.12071" lon="4.98205">
        <ele>205.5119934082</ele>
        <time>2010-06-13T15:48:04Z</time>
      </trkpt>
      <trkpt lat="45.12066" lon="4.9813">
        <ele>205.30099487305</ele>
        <time>2010-06-13T15:48:10Z</time>
      </trkpt>
      <trkpt lat="45.12047" lon="4.98045">
        <ele>204.25199890137</ele>
        <time>2010-06-13T15:48:17Z</time>
      </trkpt>
      <trkpt lat="45.12018" lon="4.97935">
        <ele>203.14700317383</ele>
        <time>2010-06-13T15:48:26Z</time>
      </trkpt>
      <trkpt lat="45.12001" lon="4.9785">
        <ele>202.67500305176</ele>
        <time>2010-06-13T15:48:33Z</time>
      </trkpt>
      <trkpt lat="45.11982" lon="4.97739">
        <ele>202.02699279785</ele>
        <time>2010-06-13T15:48:42Z</time>
      </trkpt>
      <trkpt lat="45.11953" lon="4.97571">
        <ele>201.46800231934</ele>
        <time>2010-06-13T15:48:55Z</time>
      </trkpt>
      <trkpt lat="45.11939" lon="4.97491">
        <ele>200.13600158691</ele>
        <time>2010-06-13T15:49:01Z</time>
      </trkpt>
      <trkpt lat="45.11913" lon="4.97341">
        <ele>198.79800415039</ele>
        <time>2010-06-13T15:49:12Z</time>
      </trkpt>
      <trkpt lat="45.11895" lon="4.97235">
        <ele>198.49200439453</ele>
        <time>2010-06-13T15:49:20Z</time>
      </trkpt>
      <trkpt lat="45.11882" lon="4.97156">
        <ele>199.27900695801</ele>
        <time>2010-06-13T15:49:27Z</time>
      </trkpt>
      <trkpt lat="45.11881" lon="4.97146">
        <ele>199.42500305176</ele>
        <time>2010-06-13T15:49:28Z</time>
      </trkpt>
      <trkpt lat="45.11887" lon="4.97102">
        <ele>200.69900512695</ele>
        <time>2010-06-13T15:49:33Z</time>
      </trkpt>
      <trkpt lat="45.11894" lon="4.9709">
        <ele>201.19099426269</ele>
        <time>2010-06-13T15:49:35Z</time>
      </trkpt>
      <trkpt lat="45.11903" lon="4.97067">
        <ele>202.02600097656</ele>
        <time>2010-06-13T15:49:39Z</time>
      </trkpt>
      <trkpt lat="45.11893" lon="4.97053">
        <ele>201.98300170898</ele>
        <time>2010-06-13T15:49:42Z</time>
      </trkpt>
      <trkpt lat="45.11868" lon="4.97028">
        <ele>202.0299987793</ele>
        <time>2010-06-13T15:49:48Z</time>
      </trkpt>
      <trkpt lat="45.11833" lon="4.96983">
        <ele>201.2859954834</ele>
        <time>2010-06-13T15:49:55Z</time>
      </trkpt>
      <trkpt lat="45.11797" lon="4.96928">
        <ele>200.75999450684</ele>
        <time>2010-06-13T15:50:02Z</time>
      </trkpt>
      <trkpt lat="45.11769" lon="4.96885">
        <ele>200.30799865723</ele>
        <time>2010-06-13T15:50:07Z</time>
      </trkpt>
      <trkpt lat="45.11761" lon="4.9684">
        <ele>200</ele>
        <time>2010-06-13T15:50:11Z</time>
      </trkpt>
      <trkpt lat="45.11751" lon="4.96823">
        <ele>200.16499328613</ele>
        <time>2010-06-13T15:50:13Z</time>
      </trkpt>
      <trkpt lat="45.11744" lon="4.96819">
        <ele>200.22999572754</ele>
        <time>2010-06-13T15:50:14Z</time>
      </trkpt>
      <trkpt lat="45.1171" lon="4.96791">
        <ele>200.15199279785</ele>
        <time>2010-06-13T15:50:19Z</time>
      </trkpt>
      <trkpt lat="45.11665" lon="4.96714">
        <ele>198.53199768066</ele>
        <time>2010-06-13T15:50:27Z</time>
      </trkpt>
      <trkpt lat="45.11629" lon="4.96625">
        <ele>197.79200744629</ele>
        <time>2010-06-13T15:50:35Z</time>
      </trkpt>
      <trkpt lat="45.11593" lon="4.96528">
        <ele>198.39999389648</ele>
        <time>2010-06-13T15:50:44Z</time>
      </trkpt>
      <trkpt lat="45.11581" lon="4.96499">
        <ele>198.33500671387</ele>
        <time>2010-06-13T15:50:47Z</time>
      </trkpt>
      <trkpt lat="45.11579" lon="4.96462">
        <ele>198.625</ele>
        <time>2010-06-13T15:50:51Z</time>
      </trkpt>
      <trkpt lat="45.1158" lon="4.96449">
        <ele>199.39900207519</ele>
        <time>2010-06-13T15:50:53Z</time>
      </trkpt>
      <trkpt lat="45.11575" lon="4.96442">
        <ele>200.1369934082</ele>
        <time>2010-06-13T15:50:58Z</time>
      </trkpt>
      <trkpt lat="45.11575" lon="4.96442">
        <ele>200.00999450684</ele>
        <time>2010-06-13T15:50:59Z</time>
      </trkpt>
      <trkpt lat="45.11564" lon="4.96444">
        <ele>199.36799621582</ele>
        <time>2010-06-13T15:51:38Z</time>
      </trkpt>
      <trkpt lat="45.1156" lon="4.96426">
        <ele>199.55099487305</ele>
        <time>2010-06-13T15:51:42Z</time>
      </trkpt>
      <trkpt lat="45.11563" lon="4.96418">
        <ele>200.49600219727</ele>
        <time>2010-06-13T15:51:46Z</time>
      </trkpt>
      <trkpt lat="45.11563" lon="4.96418">
        <ele>200.49299621582</ele>
        <time>2010-06-13T15:51:48Z</time>
      </trkpt>
      <trkpt lat="45.11563" lon="4.9642">
        <ele>200.51400756836</ele>
        <time>2010-06-13T15:51:55Z</time>
      </trkpt>
      <trkpt lat="45.11567" lon="4.96424">
        <ele>200.54499816894</ele>
        <time>2010-06-13T15:52:01Z</time>
      </trkpt>
      <trkpt lat="45.11568" lon="4.96425">
        <ele>200.61099243164</ele>
        <time>2010-06-13T15:52:06Z</time>
      </trkpt>
      <trkpt lat="45.11568" lon="4.96423">
        <ele>200.62199401856</ele>
        <time>2010-06-13T15:52:09Z</time>
      </trkpt>
    </trkseg>
  </trk>
</gpx>